<?xml version="1.0" encoding="UTF-8"?><gpx version="1.1" xmlns:xsd="http://www.w3.org/2001/XMLSchema" xmlns:xsi="http://www.w3.org/2001/XMLSchema-instance" creator="The NotARubicon https://www.NotARubicon.com" xsi:schemaLocation="http://www.topografix.com/GPX/1/1 http://www.topografix.com/GPX/1/1/gpx.xsd http://www.magellangps.com/mgnext/0/2 http://www.magellangps.com/mgnext/0/2/mgn.xsd http://www.groundspeak.com/cache/1/0 http://www.groundspeak.com/cache/1/0/cache.xsd" xmlns="http://www.topografix.com/GPX/1/1">
<trk>
    <name>Cleghorn fire road</name>
    <desc></desc>
    <extensions>
      <mgn:extensions xmlns:mgn="http://www.magellangps.com/mgnext/0/2">
        <mgn:difficulty>2</mgn:difficulty>
        <mgn:uuid>0120d0bf-906c-440f-98a4-fcceb3b3bc7e</mgn:uuid>
        <mgn:proplist>
          <mgn:prop key="Vehicle">9929</mgn:prop>
          <mgn:prop key="VehicleType">,OHV</mgn:prop>
          <mgn:prop key="WD">Some</mgn:prop>
          <mgn:prop key="LO">Some</mgn:prop>
          <mgn:prop key="DIRT">Loose;Rutted</mgn:prop>
          <mgn:prop key="T_MUD"></mgn:prop>
          <mgn:prop key="T_SAND">0-6N</mgn:prop>
          <mgn:prop key="T_SNOW"></mgn:prop>
          <mgn:prop key="T_ICE"></mgn:prop>
          <mgn:prop key="T_WATER"></mgn:prop>
          <mgn:prop key="T_ROCK"></mgn:prop>
          <mgn:prop key="PITCH">10-20</mgn:prop>
          <mgn:prop key="ROLL">0-10</mgn:prop>
          <mgn:prop key="MAGELLAN_OFFROAD_KEY">0</mgn:prop>
          <mgn:prop key="Author">NotARubicon</mgn:prop>
          <mgn:prop key="InstagramUpdate">True</mgn:prop>
          <mgn:prop key="MaxElevation">1610</mgn:prop>
          <mgn:prop key="MinElevation">1066</mgn:prop>
          <mgn:prop key="ElevationChange">-53.597656</mgn:prop>
          <mgn:prop key="RecordedTime">9902</mgn:prop>
          <mgn:prop key="Length">19389.135</mgn:prop>
          <mgn:prop key="Type">Trail</mgn:prop>
          <mgn:prop key="Type2">Trail</mgn:prop>
        </mgn:proplist>
      </mgn:extensions>
    </extensions>

    <trkseg>
      <trkpt lat="34.30842" lon="-117.447454">
        <ele>1120.796875</ele>
        <time>2020-07-18T16:43:39.000Z</time>
      </trkpt>
      <trkpt lat="34.308318" lon="-117.447566">
        <ele>1122.597656</ele>
        <time>2020-07-18T16:43:46.000Z</time>
      </trkpt>
      <trkpt lat="34.308297" lon="-117.447582">
        <ele>1122.796875</ele>
        <time>2020-07-18T16:43:49.000Z</time>
      </trkpt>
      <trkpt lat="34.308233" lon="-117.447612">
        <ele>1123.097656</ele>
        <time>2020-07-18T16:43:51.000Z</time>
      </trkpt>
      <trkpt lat="34.308198" lon="-117.447622">
        <ele>1123.898438</ele>
        <time>2020-07-18T16:43:54.000Z</time>
      </trkpt>
      <trkpt lat="34.308139" lon="-117.447659">
        <ele>1124.296875</ele>
        <time>2020-07-18T16:43:55.000Z</time>
      </trkpt>
      <trkpt lat="34.308118" lon="-117.447677">
        <ele>1124.796875</ele>
        <time>2020-07-18T16:43:58.000Z</time>
      </trkpt>
      <trkpt lat="34.308024" lon="-117.447739">
        <ele>1124.796875</ele>
        <time>2020-07-18T16:44:00.000Z</time>
      </trkpt>
      <trkpt lat="34.307996" lon="-117.447754">
        <ele>1125.000000</ele>
        <time>2020-07-18T16:44:02.000Z</time>
      </trkpt>
      <trkpt lat="34.307851" lon="-117.447846">
        <ele>1126.199219</ele>
        <time>2020-07-18T16:44:06.000Z</time>
      </trkpt>
      <trkpt lat="34.307621" lon="-117.447963">
        <ele>1129.296875</ele>
        <time>2020-07-18T16:44:12.000Z</time>
      </trkpt>
      <trkpt lat="34.307476" lon="-117.448019">
        <ele>1130.699219</ele>
        <time>2020-07-18T16:44:16.000Z</time>
      </trkpt>
      <trkpt lat="34.307447" lon="-117.448038">
        <ele>1132.500000</ele>
        <time>2020-07-18T16:44:19.000Z</time>
      </trkpt>
      <trkpt lat="34.307342" lon="-117.44811">
        <ele>1133.898438</ele>
        <time>2020-07-18T16:44:22.000Z</time>
      </trkpt>
      <trkpt lat="34.307317" lon="-117.448123">
        <ele>1133.898438</ele>
        <time>2020-07-18T16:44:25.000Z</time>
      </trkpt>
      <trkpt lat="34.307221" lon="-117.448133">
        <ele>1134.296875</ele>
        <time>2020-07-18T16:44:26.000Z</time>
      </trkpt>
      <trkpt lat="34.307186" lon="-117.448127">
        <ele>1135.699219</ele>
        <time>2020-07-18T16:44:28.000Z</time>
      </trkpt>
      <trkpt lat="34.307112" lon="-117.448101">
        <ele>1136.296875</ele>
        <time>2020-07-18T16:44:29.000Z</time>
      </trkpt>
      <trkpt lat="34.306986" lon="-117.448058">
        <ele>1137.199219</ele>
        <time>2020-07-18T16:44:32.000Z</time>
      </trkpt>
      <trkpt lat="34.306945" lon="-117.448051">
        <ele>1137.500000</ele>
        <time>2020-07-18T16:44:34.000Z</time>
      </trkpt>
      <trkpt lat="34.306867" lon="-117.448053">
        <ele>1137.500000</ele>
        <time>2020-07-18T16:44:35.000Z</time>
      </trkpt>
      <trkpt lat="34.30683" lon="-117.448061">
        <ele>1137.898438</ele>
        <time>2020-07-18T16:44:37.000Z</time>
      </trkpt>
      <trkpt lat="34.306763" lon="-117.448094">
        <ele>1138.296875</ele>
        <time>2020-07-18T16:44:38.000Z</time>
      </trkpt>
      <trkpt lat="34.306554" lon="-117.448189">
        <ele>1139.398438</ele>
        <time>2020-07-18T16:44:44.000Z</time>
      </trkpt>
      <trkpt lat="34.306524" lon="-117.448199">
        <ele>1139.500000</ele>
        <time>2020-07-18T16:44:47.000Z</time>
      </trkpt>
      <trkpt lat="34.306448" lon="-117.448245">
        <ele>1140.000000</ele>
        <time>2020-07-18T16:44:48.000Z</time>
      </trkpt>
      <trkpt lat="34.306425" lon="-117.448273">
        <ele>1140.500000</ele>
        <time>2020-07-18T16:44:50.000Z</time>
      </trkpt>
      <trkpt lat="34.306386" lon="-117.448341">
        <ele>1141.597656</ele>
        <time>2020-07-18T16:44:51.000Z</time>
      </trkpt>
      <trkpt lat="34.306378" lon="-117.448385">
        <ele>1141.898438</ele>
        <time>2020-07-18T16:44:53.000Z</time>
      </trkpt>
      <trkpt lat="34.306386" lon="-117.448476">
        <ele>1142.097656</ele>
        <time>2020-07-18T16:44:54.000Z</time>
      </trkpt>
      <trkpt lat="34.306398" lon="-117.448524">
        <ele>1142.097656</ele>
        <time>2020-07-18T16:44:56.000Z</time>
      </trkpt>
      <trkpt lat="34.30643" lon="-117.448615">
        <ele>1142.398438</ele>
        <time>2020-07-18T16:44:57.000Z</time>
      </trkpt>
      <trkpt lat="34.306444" lon="-117.448651">
        <ele>1143.097656</ele>
        <time>2020-07-18T16:44:59.000Z</time>
      </trkpt>
      <trkpt lat="34.306479" lon="-117.448722">
        <ele>1143.898438</ele>
        <time>2020-07-18T16:45:00.000Z</time>
      </trkpt>
      <trkpt lat="34.306491" lon="-117.448758">
        <ele>1145.000000</ele>
        <time>2020-07-18T16:45:02.000Z</time>
      </trkpt>
      <trkpt lat="34.306502" lon="-117.44883">
        <ele>1144.500000</ele>
        <time>2020-07-18T16:45:04.000Z</time>
      </trkpt>
      <trkpt lat="34.306483" lon="-117.448897">
        <ele>1144.699219</ele>
        <time>2020-07-18T16:45:05.000Z</time>
      </trkpt>
      <trkpt lat="34.306465" lon="-117.44893">
        <ele>1144.796875</ele>
        <time>2020-07-18T16:45:07.000Z</time>
      </trkpt>
      <trkpt lat="34.306413" lon="-117.448987">
        <ele>1144.699219</ele>
        <time>2020-07-18T16:45:08.000Z</time>
      </trkpt>
      <trkpt lat="34.306386" lon="-117.449009">
        <ele>1144.898438</ele>
        <time>2020-07-18T16:45:10.000Z</time>
      </trkpt>
      <trkpt lat="34.306327" lon="-117.449026">
        <ele>1145.097656</ele>
        <time>2020-07-18T16:45:12.000Z</time>
      </trkpt>
      <trkpt lat="34.306267" lon="-117.449005">
        <ele>1145.500000</ele>
        <time>2020-07-18T16:45:13.000Z</time>
      </trkpt>
      <trkpt lat="34.306235" lon="-117.448986">
        <ele>1145.699219</ele>
        <time>2020-07-18T16:45:15.000Z</time>
      </trkpt>
      <trkpt lat="34.306109" lon="-117.44891">
        <ele>1146.398438</ele>
        <time>2020-07-18T16:45:18.000Z</time>
      </trkpt>
      <trkpt lat="34.306076" lon="-117.448897">
        <ele>1147.296875</ele>
        <time>2020-07-18T16:45:20.000Z</time>
      </trkpt>
      <trkpt lat="34.305963" lon="-117.448863">
        <ele>1147.898438</ele>
        <time>2020-07-18T16:45:23.000Z</time>
      </trkpt>
      <trkpt lat="34.30594" lon="-117.448847">
        <ele>1146.296875</ele>
        <time>2020-07-18T16:45:53.000Z</time>
      </trkpt>
      <trkpt lat="34.305924" lon="-117.448764">
        <ele>1146.097656</ele>
        <time>2020-07-18T16:46:17.000Z</time>
      </trkpt>
      <trkpt lat="34.305938" lon="-117.448737">
        <ele>1146.000000</ele>
        <time>2020-07-18T16:46:22.000Z</time>
      </trkpt>
      <trkpt lat="34.305887" lon="-117.448652">
        <ele>1146.000000</ele>
        <time>2020-07-18T16:46:23.000Z</time>
      </trkpt>
      <trkpt lat="34.305865" lon="-117.448628">
        <ele>1146.097656</ele>
        <time>2020-07-18T16:46:25.000Z</time>
      </trkpt>
      <trkpt lat="34.305813" lon="-117.448586">
        <ele>1146.296875</ele>
        <time>2020-07-18T16:46:26.000Z</time>
      </trkpt>
      <trkpt lat="34.305785" lon="-117.448568">
        <ele>1146.500000</ele>
        <time>2020-07-18T16:46:28.000Z</time>
      </trkpt>
      <trkpt lat="34.305726" lon="-117.448537">
        <ele>1146.699219</ele>
        <time>2020-07-18T16:46:29.000Z</time>
      </trkpt>
      <trkpt lat="34.305696" lon="-117.448526">
        <ele>1148.199219</ele>
        <time>2020-07-18T16:46:32.000Z</time>
      </trkpt>
      <trkpt lat="34.305591" lon="-117.448484">
        <ele>1149.097656</ele>
        <time>2020-07-18T16:46:34.000Z</time>
      </trkpt>
      <trkpt lat="34.305501" lon="-117.448428">
        <ele>1150.296875</ele>
        <time>2020-07-18T16:46:38.000Z</time>
      </trkpt>
      <trkpt lat="34.305481" lon="-117.448409">
        <ele>1151.699219</ele>
        <time>2020-07-18T16:46:41.000Z</time>
      </trkpt>
      <trkpt lat="34.305429" lon="-117.448338">
        <ele>1151.699219</ele>
        <time>2020-07-18T16:46:42.000Z</time>
      </trkpt>
      <trkpt lat="34.305415" lon="-117.448311">
        <ele>1152.000000</ele>
        <time>2020-07-18T16:46:45.000Z</time>
      </trkpt>
      <trkpt lat="34.305366" lon="-117.448236">
        <ele>1152.097656</ele>
        <time>2020-07-18T16:46:46.000Z</time>
      </trkpt>
      <trkpt lat="34.305348" lon="-117.448212">
        <ele>1152.500000</ele>
        <time>2020-07-18T16:46:49.000Z</time>
      </trkpt>
      <trkpt lat="34.305285" lon="-117.448152">
        <ele>1152.699219</ele>
        <time>2020-07-18T16:46:50.000Z</time>
      </trkpt>
      <trkpt lat="34.305116" lon="-117.448007">
        <ele>1154.699219</ele>
        <time>2020-07-18T16:46:58.000Z</time>
      </trkpt>
      <trkpt lat="34.3051" lon="-117.447985">
        <ele>1156.296875</ele>
        <time>2020-07-18T16:47:01.000Z</time>
      </trkpt>
      <trkpt lat="34.305077" lon="-117.447901">
        <ele>1157.097656</ele>
        <time>2020-07-18T16:47:02.000Z</time>
      </trkpt>
      <trkpt lat="34.305081" lon="-117.447871">
        <ele>1159.898438</ele>
        <time>2020-07-18T16:47:06.000Z</time>
      </trkpt>
      <trkpt lat="34.305137" lon="-117.447812">
        <ele>1160.699219</ele>
        <time>2020-07-18T16:47:07.000Z</time>
      </trkpt>
      <trkpt lat="34.305159" lon="-117.447802">
        <ele>1159.898438</ele>
        <time>2020-07-18T16:47:10.000Z</time>
      </trkpt>
      <trkpt lat="34.305226" lon="-117.447785">
        <ele>1160.199219</ele>
        <time>2020-07-18T16:47:11.000Z</time>
      </trkpt>
      <trkpt lat="34.305249" lon="-117.447782">
        <ele>1159.898438</ele>
        <time>2020-07-18T16:47:15.000Z</time>
      </trkpt>
      <trkpt lat="34.305333" lon="-117.447787">
        <ele>1160.296875</ele>
        <time>2020-07-18T16:47:16.000Z</time>
      </trkpt>
      <trkpt lat="34.305358" lon="-117.447791">
        <ele>1159.898438</ele>
        <time>2020-07-18T16:47:19.000Z</time>
      </trkpt>
      <trkpt lat="34.30543" lon="-117.447814">
        <ele>1159.898438</ele>
        <time>2020-07-18T16:47:20.000Z</time>
      </trkpt>
      <trkpt lat="34.305451" lon="-117.447821">
        <ele>1160.000000</ele>
        <time>2020-07-18T16:47:23.000Z</time>
      </trkpt>
      <trkpt lat="34.305521" lon="-117.447861">
        <ele>1160.097656</ele>
        <time>2020-07-18T16:47:24.000Z</time>
      </trkpt>
      <trkpt lat="34.305548" lon="-117.447884">
        <ele>1160.398438</ele>
        <time>2020-07-18T16:47:26.000Z</time>
      </trkpt>
      <trkpt lat="34.305629" lon="-117.447965">
        <ele>1160.898438</ele>
        <time>2020-07-18T16:47:28.000Z</time>
      </trkpt>
      <trkpt lat="34.305658" lon="-117.447996">
        <ele>1161.296875</ele>
        <time>2020-07-18T16:47:30.000Z</time>
      </trkpt>
      <trkpt lat="34.305706" lon="-117.448058">
        <ele>1161.597656</ele>
        <time>2020-07-18T16:47:31.000Z</time>
      </trkpt>
      <trkpt lat="34.305725" lon="-117.448088">
        <ele>1162.500000</ele>
        <time>2020-07-18T16:47:33.000Z</time>
      </trkpt>
      <trkpt lat="34.30577" lon="-117.448142">
        <ele>1162.796875</ele>
        <time>2020-07-18T16:47:34.000Z</time>
      </trkpt>
      <trkpt lat="34.305795" lon="-117.448159">
        <ele>1164.398438</ele>
        <time>2020-07-18T16:47:37.000Z</time>
      </trkpt>
      <trkpt lat="34.305871" lon="-117.448191">
        <ele>1164.699219</ele>
        <time>2020-07-18T16:47:38.000Z</time>
      </trkpt>
      <trkpt lat="34.305895" lon="-117.448195">
        <ele>1164.398438</ele>
        <time>2020-07-18T16:47:41.000Z</time>
      </trkpt>
      <trkpt lat="34.305968" lon="-117.448187">
        <ele>1164.699219</ele>
        <time>2020-07-18T16:47:42.000Z</time>
      </trkpt>
      <trkpt lat="34.305988" lon="-117.448177">
        <ele>1165.597656</ele>
        <time>2020-07-18T16:47:46.000Z</time>
      </trkpt>
      <trkpt lat="34.306037" lon="-117.448114">
        <ele>1166.097656</ele>
        <time>2020-07-18T16:47:48.000Z</time>
      </trkpt>
      <trkpt lat="34.306046" lon="-117.448074">
        <ele>1167.500000</ele>
        <time>2020-07-18T16:47:51.000Z</time>
      </trkpt>
      <trkpt lat="34.306056" lon="-117.448006">
        <ele>1168.199219</ele>
        <time>2020-07-18T16:47:53.000Z</time>
      </trkpt>
      <trkpt lat="34.30606" lon="-117.447959">
        <ele>1169.296875</ele>
        <time>2020-07-18T16:47:57.000Z</time>
      </trkpt>
      <trkpt lat="34.30608" lon="-117.447825">
        <ele>1169.796875</ele>
        <time>2020-07-18T16:48:01.000Z</time>
      </trkpt>
      <trkpt lat="34.306084" lon="-117.447806">
        <ele>1170.699219</ele>
        <time>2020-07-18T16:48:05.000Z</time>
      </trkpt>
      <trkpt lat="34.306107" lon="-117.447679">
        <ele>1171.296875</ele>
        <time>2020-07-18T16:48:07.000Z</time>
      </trkpt>
      <trkpt lat="34.30611" lon="-117.447653">
        <ele>1172.398438</ele>
        <time>2020-07-18T16:48:10.000Z</time>
      </trkpt>
      <trkpt lat="34.306119" lon="-117.447568">
        <ele>1172.398438</ele>
        <time>2020-07-18T16:48:11.000Z</time>
      </trkpt>
      <trkpt lat="34.306129" lon="-117.447537">
        <ele>1172.796875</ele>
        <time>2020-07-18T16:48:14.000Z</time>
      </trkpt>
      <trkpt lat="34.306169" lon="-117.447459">
        <ele>1172.597656</ele>
        <time>2020-07-18T16:48:15.000Z</time>
      </trkpt>
      <trkpt lat="34.306183" lon="-117.447435">
        <ele>1172.796875</ele>
        <time>2020-07-18T16:48:18.000Z</time>
      </trkpt>
      <trkpt lat="34.306246" lon="-117.447365">
        <ele>1173.296875</ele>
        <time>2020-07-18T16:48:19.000Z</time>
      </trkpt>
      <trkpt lat="34.306264" lon="-117.447337">
        <ele>1174.199219</ele>
        <time>2020-07-18T16:48:22.000Z</time>
      </trkpt>
      <trkpt lat="34.306294" lon="-117.447232">
        <ele>1174.296875</ele>
        <time>2020-07-18T16:48:23.000Z</time>
      </trkpt>
      <trkpt lat="34.306293" lon="-117.447193">
        <ele>1174.699219</ele>
        <time>2020-07-18T16:48:26.000Z</time>
      </trkpt>
      <trkpt lat="34.306268" lon="-117.447096">
        <ele>1174.898438</ele>
        <time>2020-07-18T16:48:27.000Z</time>
      </trkpt>
      <trkpt lat="34.306253" lon="-117.447068">
        <ele>1176.296875</ele>
        <time>2020-07-18T16:48:30.000Z</time>
      </trkpt>
      <trkpt lat="34.306114" lon="-117.446835">
        <ele>1178.699219</ele>
        <time>2020-07-18T16:48:36.000Z</time>
      </trkpt>
      <trkpt lat="34.306101" lon="-117.4468">
        <ele>1179.199219</ele>
        <time>2020-07-18T16:48:39.000Z</time>
      </trkpt>
      <trkpt lat="34.306074" lon="-117.446711">
        <ele>1179.597656</ele>
        <time>2020-07-18T16:48:40.000Z</time>
      </trkpt>
      <trkpt lat="34.30607" lon="-117.446683">
        <ele>1180.296875</ele>
        <time>2020-07-18T16:48:43.000Z</time>
      </trkpt>
      <trkpt lat="34.306086" lon="-117.446594">
        <ele>1180.398438</ele>
        <time>2020-07-18T16:48:44.000Z</time>
      </trkpt>
      <trkpt lat="34.306099" lon="-117.446572">
        <ele>1181.597656</ele>
        <time>2020-07-18T16:48:47.000Z</time>
      </trkpt>
      <trkpt lat="34.306159" lon="-117.446527">
        <ele>1181.398438</ele>
        <time>2020-07-18T16:48:49.000Z</time>
      </trkpt>
      <trkpt lat="34.306183" lon="-117.446513">
        <ele>1183.296875</ele>
        <time>2020-07-18T16:48:58.000Z</time>
      </trkpt>
      <trkpt lat="34.306246" lon="-117.446496">
        <ele>1184.296875</ele>
        <time>2020-07-18T16:49:01.000Z</time>
      </trkpt>
      <trkpt lat="34.306282" lon="-117.446498">
        <ele>1185.500000</ele>
        <time>2020-07-18T16:49:06.000Z</time>
      </trkpt>
      <trkpt lat="34.306505" lon="-117.446508">
        <ele>1185.097656</ele>
        <time>2020-07-18T16:49:16.000Z</time>
      </trkpt>
      <trkpt lat="34.306529" lon="-117.446505">
        <ele>1185.000000</ele>
        <time>2020-07-18T16:49:19.000Z</time>
      </trkpt>
      <trkpt lat="34.306607" lon="-117.446483">
        <ele>1185.000000</ele>
        <time>2020-07-18T16:49:20.000Z</time>
      </trkpt>
      <trkpt lat="34.306629" lon="-117.44647">
        <ele>1184.796875</ele>
        <time>2020-07-18T16:49:23.000Z</time>
      </trkpt>
      <trkpt lat="34.306685" lon="-117.44642">
        <ele>1185.000000</ele>
        <time>2020-07-18T16:49:24.000Z</time>
      </trkpt>
      <trkpt lat="34.306701" lon="-117.446402">
        <ele>1186.500000</ele>
        <time>2020-07-18T16:49:28.000Z</time>
      </trkpt>
      <trkpt lat="34.306783" lon="-117.446334">
        <ele>1186.796875</ele>
        <time>2020-07-18T16:49:30.000Z</time>
      </trkpt>
      <trkpt lat="34.306798" lon="-117.446324">
        <ele>1187.597656</ele>
        <time>2020-07-18T16:49:35.000Z</time>
      </trkpt>
      <trkpt lat="34.306864" lon="-117.446264">
        <ele>1188.199219</ele>
        <time>2020-07-18T16:49:36.000Z</time>
      </trkpt>
      <trkpt lat="34.306874" lon="-117.446245">
        <ele>1189.500000</ele>
        <time>2020-07-18T16:49:40.000Z</time>
      </trkpt>
      <trkpt lat="34.306912" lon="-117.446148">
        <ele>1189.199219</ele>
        <time>2020-07-18T16:49:41.000Z</time>
      </trkpt>
      <trkpt lat="34.306913" lon="-117.44612">
        <ele>1189.597656</ele>
        <time>2020-07-18T16:49:44.000Z</time>
      </trkpt>
      <trkpt lat="34.306906" lon="-117.446037">
        <ele>1190.000000</ele>
        <time>2020-07-18T16:49:45.000Z</time>
      </trkpt>
      <trkpt lat="34.306898" lon="-117.446008">
        <ele>1191.500000</ele>
        <time>2020-07-18T16:49:49.000Z</time>
      </trkpt>
      <trkpt lat="34.30685" lon="-117.445929">
        <ele>1191.699219</ele>
        <time>2020-07-18T16:49:50.000Z</time>
      </trkpt>
      <trkpt lat="34.306833" lon="-117.445915">
        <ele>1192.898438</ele>
        <time>2020-07-18T16:49:53.000Z</time>
      </trkpt>
      <trkpt lat="34.306761" lon="-117.445872">
        <ele>1193.000000</ele>
        <time>2020-07-18T16:49:54.000Z</time>
      </trkpt>
      <trkpt lat="34.306673" lon="-117.445818">
        <ele>1193.000000</ele>
        <time>2020-07-18T16:49:57.000Z</time>
      </trkpt>
      <trkpt lat="34.306642" lon="-117.445794">
        <ele>1192.597656</ele>
        <time>2020-07-18T16:49:59.000Z</time>
      </trkpt>
      <trkpt lat="34.306594" lon="-117.445736">
        <ele>1193.199219</ele>
        <time>2020-07-18T16:50:00.000Z</time>
      </trkpt>
      <trkpt lat="34.306582" lon="-117.445707">
        <ele>1194.398438</ele>
        <time>2020-07-18T16:50:03.000Z</time>
      </trkpt>
      <trkpt lat="34.306588" lon="-117.445608">
        <ele>1194.500000</ele>
        <time>2020-07-18T16:50:04.000Z</time>
      </trkpt>
      <trkpt lat="34.306601" lon="-117.445578">
        <ele>1195.000000</ele>
        <time>2020-07-18T16:50:07.000Z</time>
      </trkpt>
      <trkpt lat="34.306655" lon="-117.445499">
        <ele>1194.898438</ele>
        <time>2020-07-18T16:50:08.000Z</time>
      </trkpt>
      <trkpt lat="34.306674" lon="-117.445476">
        <ele>1194.796875</ele>
        <time>2020-07-18T16:50:11.000Z</time>
      </trkpt>
      <trkpt lat="34.306758" lon="-117.445379">
        <ele>1194.699219</ele>
        <time>2020-07-18T16:50:13.000Z</time>
      </trkpt>
      <trkpt lat="34.306783" lon="-117.445355">
        <ele>1194.796875</ele>
        <time>2020-07-18T16:50:15.000Z</time>
      </trkpt>
      <trkpt lat="34.30682" lon="-117.4453">
        <ele>1196.097656</ele>
        <time>2020-07-18T16:50:17.000Z</time>
      </trkpt>
      <trkpt lat="34.306854" lon="-117.445241">
        <ele>1196.898438</ele>
        <time>2020-07-18T16:50:19.000Z</time>
      </trkpt>
      <trkpt lat="34.306872" lon="-117.445171">
        <ele>1197.199219</ele>
        <time>2020-07-18T16:50:20.000Z</time>
      </trkpt>
      <trkpt lat="34.306874" lon="-117.445135">
        <ele>1198.796875</ele>
        <time>2020-07-18T16:50:23.000Z</time>
      </trkpt>
      <trkpt lat="34.306873" lon="-117.445034">
        <ele>1199.000000</ele>
        <time>2020-07-18T16:50:24.000Z</time>
      </trkpt>
      <trkpt lat="34.306877" lon="-117.445004">
        <ele>1199.398438</ele>
        <time>2020-07-18T16:50:27.000Z</time>
      </trkpt>
      <trkpt lat="34.306915" lon="-117.444936">
        <ele>1199.597656</ele>
        <time>2020-07-18T16:50:29.000Z</time>
      </trkpt>
      <trkpt lat="34.306947" lon="-117.444902">
        <ele>1200.898438</ele>
        <time>2020-07-18T16:50:32.000Z</time>
      </trkpt>
      <trkpt lat="34.307005" lon="-117.44486">
        <ele>1201.699219</ele>
        <time>2020-07-18T16:50:33.000Z</time>
      </trkpt>
      <trkpt lat="34.30703" lon="-117.444847">
        <ele>1201.597656</ele>
        <time>2020-07-18T16:50:36.000Z</time>
      </trkpt>
      <trkpt lat="34.307111" lon="-117.444815">
        <ele>1201.500000</ele>
        <time>2020-07-18T16:50:37.000Z</time>
      </trkpt>
      <trkpt lat="34.307139" lon="-117.444804">
        <ele>1201.296875</ele>
        <time>2020-07-18T16:50:40.000Z</time>
      </trkpt>
      <trkpt lat="34.307224" lon="-117.444787">
        <ele>1201.398438</ele>
        <time>2020-07-18T16:50:41.000Z</time>
      </trkpt>
      <trkpt lat="34.307252" lon="-117.44479">
        <ele>1202.000000</ele>
        <time>2020-07-18T16:50:44.000Z</time>
      </trkpt>
      <trkpt lat="34.307329" lon="-117.444804">
        <ele>1202.500000</ele>
        <time>2020-07-18T16:50:45.000Z</time>
      </trkpt>
      <trkpt lat="34.307515" lon="-117.44485">
        <ele>1204.796875</ele>
        <time>2020-07-18T16:50:51.000Z</time>
      </trkpt>
      <trkpt lat="34.307541" lon="-117.444847">
        <ele>1204.699219</ele>
        <time>2020-07-18T16:50:54.000Z</time>
      </trkpt>
      <trkpt lat="34.307611" lon="-117.444795">
        <ele>1205.296875</ele>
        <time>2020-07-18T16:50:55.000Z</time>
      </trkpt>
      <trkpt lat="34.307623" lon="-117.444769">
        <ele>1207.000000</ele>
        <time>2020-07-18T16:50:58.000Z</time>
      </trkpt>
      <trkpt lat="34.307688" lon="-117.444717">
        <ele>1207.000000</ele>
        <time>2020-07-18T16:50:59.000Z</time>
      </trkpt>
      <trkpt lat="34.307712" lon="-117.444706">
        <ele>1206.796875</ele>
        <time>2020-07-18T16:51:03.000Z</time>
      </trkpt>
      <trkpt lat="34.30779" lon="-117.444691">
        <ele>1206.699219</ele>
        <time>2020-07-18T16:51:04.000Z</time>
      </trkpt>
      <trkpt lat="34.307804" lon="-117.444685">
        <ele>1207.296875</ele>
        <time>2020-07-18T16:51:08.000Z</time>
      </trkpt>
      <trkpt lat="34.307895" lon="-117.444672">
        <ele>1207.500000</ele>
        <time>2020-07-18T16:51:09.000Z</time>
      </trkpt>
      <trkpt lat="34.30792" lon="-117.444667">
        <ele>1208.199219</ele>
        <time>2020-07-18T16:51:12.000Z</time>
      </trkpt>
      <trkpt lat="34.307995" lon="-117.444633">
        <ele>1207.296875</ele>
        <time>2020-07-18T16:51:13.000Z</time>
      </trkpt>
      <trkpt lat="34.308014" lon="-117.444612">
        <ele>1207.796875</ele>
        <time>2020-07-18T16:51:16.000Z</time>
      </trkpt>
      <trkpt lat="34.308083" lon="-117.444528">
        <ele>1208.000000</ele>
        <time>2020-07-18T16:51:17.000Z</time>
      </trkpt>
      <trkpt lat="34.308101" lon="-117.44449">
        <ele>1208.296875</ele>
        <time>2020-07-18T16:51:19.000Z</time>
      </trkpt>
      <trkpt lat="34.308118" lon="-117.4444">
        <ele>1208.699219</ele>
        <time>2020-07-18T16:51:20.000Z</time>
      </trkpt>
      <trkpt lat="34.308124" lon="-117.444353">
        <ele>1209.296875</ele>
        <time>2020-07-18T16:51:22.000Z</time>
      </trkpt>
      <trkpt lat="34.308158" lon="-117.444108">
        <ele>1210.597656</ele>
        <time>2020-07-18T16:51:26.000Z</time>
      </trkpt>
      <trkpt lat="34.308187" lon="-117.443975">
        <ele>1211.699219</ele>
        <time>2020-07-18T16:51:29.000Z</time>
      </trkpt>
      <trkpt lat="34.308193" lon="-117.443933">
        <ele>1212.296875</ele>
        <time>2020-07-18T16:51:31.000Z</time>
      </trkpt>
      <trkpt lat="34.308195" lon="-117.443848">
        <ele>1212.500000</ele>
        <time>2020-07-18T16:51:32.000Z</time>
      </trkpt>
      <trkpt lat="34.308195" lon="-117.443673">
        <ele>1212.597656</ele>
        <time>2020-07-18T16:51:37.000Z</time>
      </trkpt>
      <trkpt lat="34.30819" lon="-117.443636">
        <ele>1213.097656</ele>
        <time>2020-07-18T16:51:40.000Z</time>
      </trkpt>
      <trkpt lat="34.308178" lon="-117.443547">
        <ele>1213.398438</ele>
        <time>2020-07-18T16:51:41.000Z</time>
      </trkpt>
      <trkpt lat="34.30817" lon="-117.443517">
        <ele>1213.296875</ele>
        <time>2020-07-18T16:51:44.000Z</time>
      </trkpt>
      <trkpt lat="34.308131" lon="-117.44343">
        <ele>1213.398438</ele>
        <time>2020-07-18T16:51:45.000Z</time>
      </trkpt>
      <trkpt lat="34.308069" lon="-117.443303">
        <ele>1213.097656</ele>
        <time>2020-07-18T16:51:49.000Z</time>
      </trkpt>
      <trkpt lat="34.30791" lon="-117.443001">
        <ele>1213.296875</ele>
        <time>2020-07-18T16:51:59.000Z</time>
      </trkpt>
      <trkpt lat="34.307899" lon="-117.442969">
        <ele>1214.199219</ele>
        <time>2020-07-18T16:52:02.000Z</time>
      </trkpt>
      <trkpt lat="34.307879" lon="-117.442862">
        <ele>1214.199219</ele>
        <time>2020-07-18T16:52:03.000Z</time>
      </trkpt>
      <trkpt lat="34.307878" lon="-117.44282">
        <ele>1214.699219</ele>
        <time>2020-07-18T16:52:05.000Z</time>
      </trkpt>
      <trkpt lat="34.307868" lon="-117.442696">
        <ele>1215.296875</ele>
        <time>2020-07-18T16:52:07.000Z</time>
      </trkpt>
      <trkpt lat="34.307853" lon="-117.44257">
        <ele>1215.097656</ele>
        <time>2020-07-18T16:52:11.000Z</time>
      </trkpt>
      <trkpt lat="34.307853" lon="-117.44254">
        <ele>1215.000000</ele>
        <time>2020-07-18T16:52:14.000Z</time>
      </trkpt>
      <trkpt lat="34.307881" lon="-117.442446">
        <ele>1215.000000</ele>
        <time>2020-07-18T16:52:15.000Z</time>
      </trkpt>
      <trkpt lat="34.307901" lon="-117.442422">
        <ele>1215.000000</ele>
        <time>2020-07-18T16:52:18.000Z</time>
      </trkpt>
      <trkpt lat="34.307974" lon="-117.44237">
        <ele>1215.597656</ele>
        <time>2020-07-18T16:52:19.000Z</time>
      </trkpt>
      <trkpt lat="34.308" lon="-117.442359">
        <ele>1215.699219</ele>
        <time>2020-07-18T16:52:22.000Z</time>
      </trkpt>
      <trkpt lat="34.308066" lon="-117.442319">
        <ele>1215.597656</ele>
        <time>2020-07-18T16:52:23.000Z</time>
      </trkpt>
      <trkpt lat="34.308087" lon="-117.442302">
        <ele>1215.898438</ele>
        <time>2020-07-18T16:52:26.000Z</time>
      </trkpt>
      <trkpt lat="34.308141" lon="-117.442233">
        <ele>1215.597656</ele>
        <time>2020-07-18T16:52:27.000Z</time>
      </trkpt>
      <trkpt lat="34.308151" lon="-117.442203">
        <ele>1216.000000</ele>
        <time>2020-07-18T16:52:30.000Z</time>
      </trkpt>
      <trkpt lat="34.308159" lon="-117.442085">
        <ele>1216.296875</ele>
        <time>2020-07-18T16:52:31.000Z</time>
      </trkpt>
      <trkpt lat="34.308158" lon="-117.442042">
        <ele>1216.699219</ele>
        <time>2020-07-18T16:52:33.000Z</time>
      </trkpt>
      <trkpt lat="34.308142" lon="-117.44185">
        <ele>1218.296875</ele>
        <time>2020-07-18T16:52:37.000Z</time>
      </trkpt>
      <trkpt lat="34.308135" lon="-117.441818">
        <ele>1218.796875</ele>
        <time>2020-07-18T16:52:40.000Z</time>
      </trkpt>
      <trkpt lat="34.308098" lon="-117.441721">
        <ele>1219.000000</ele>
        <time>2020-07-18T16:52:41.000Z</time>
      </trkpt>
      <trkpt lat="34.308079" lon="-117.441693">
        <ele>1220.000000</ele>
        <time>2020-07-18T16:52:44.000Z</time>
      </trkpt>
      <trkpt lat="34.308026" lon="-117.441626">
        <ele>1220.097656</ele>
        <time>2020-07-18T16:52:45.000Z</time>
      </trkpt>
      <trkpt lat="34.308014" lon="-117.441604">
        <ele>1220.000000</ele>
        <time>2020-07-18T16:52:49.000Z</time>
      </trkpt>
      <trkpt lat="34.307982" lon="-117.441501">
        <ele>1219.898438</ele>
        <time>2020-07-18T16:52:50.000Z</time>
      </trkpt>
      <trkpt lat="34.30798" lon="-117.441464">
        <ele>1220.296875</ele>
        <time>2020-07-18T16:52:52.000Z</time>
      </trkpt>
      <trkpt lat="34.307991" lon="-117.441391">
        <ele>1220.398438</ele>
        <time>2020-07-18T16:52:53.000Z</time>
      </trkpt>
      <trkpt lat="34.307995" lon="-117.441354">
        <ele>1220.500000</ele>
        <time>2020-07-18T16:52:56.000Z</time>
      </trkpt>
      <trkpt lat="34.308027" lon="-117.44109">
        <ele>1220.097656</ele>
        <time>2020-07-18T16:53:01.000Z</time>
      </trkpt>
      <trkpt lat="34.308039" lon="-117.441041">
        <ele>1221.296875</ele>
        <time>2020-07-18T16:53:03.000Z</time>
      </trkpt>
      <trkpt lat="34.308066" lon="-117.440946">
        <ele>1221.500000</ele>
        <time>2020-07-18T16:53:04.000Z</time>
      </trkpt>
      <trkpt lat="34.308074" lon="-117.4409">
        <ele>1221.796875</ele>
        <time>2020-07-18T16:53:06.000Z</time>
      </trkpt>
      <trkpt lat="34.308106" lon="-117.440719">
        <ele>1222.699219</ele>
        <time>2020-07-18T16:53:09.000Z</time>
      </trkpt>
      <trkpt lat="34.308118" lon="-117.440673">
        <ele>1223.398438</ele>
        <time>2020-07-18T16:53:11.000Z</time>
      </trkpt>
      <trkpt lat="34.308142" lon="-117.440591">
        <ele>1223.898438</ele>
        <time>2020-07-18T16:53:12.000Z</time>
      </trkpt>
      <trkpt lat="34.308146" lon="-117.440556">
        <ele>1224.296875</ele>
        <time>2020-07-18T16:53:15.000Z</time>
      </trkpt>
      <trkpt lat="34.308162" lon="-117.440453">
        <ele>1224.597656</ele>
        <time>2020-07-18T16:53:16.000Z</time>
      </trkpt>
      <trkpt lat="34.308179" lon="-117.44042">
        <ele>1224.699219</ele>
        <time>2020-07-18T16:53:18.000Z</time>
      </trkpt>
      <trkpt lat="34.308221" lon="-117.440357">
        <ele>1224.898438</ele>
        <time>2020-07-18T16:53:19.000Z</time>
      </trkpt>
      <trkpt lat="34.308244" lon="-117.440332">
        <ele>1224.898438</ele>
        <time>2020-07-18T16:53:21.000Z</time>
      </trkpt>
      <trkpt lat="34.308303" lon="-117.440302">
        <ele>1224.699219</ele>
        <time>2020-07-18T16:53:22.000Z</time>
      </trkpt>
      <trkpt lat="34.308323" lon="-117.440279">
        <ele>1224.699219</ele>
        <time>2020-07-18T16:53:25.000Z</time>
      </trkpt>
      <trkpt lat="34.30837" lon="-117.440208">
        <ele>1224.000000</ele>
        <time>2020-07-18T16:53:26.000Z</time>
      </trkpt>
      <trkpt lat="34.308375" lon="-117.440177">
        <ele>1222.796875</ele>
        <time>2020-07-18T16:53:29.000Z</time>
      </trkpt>
      <trkpt lat="34.308385" lon="-117.440081">
        <ele>1222.296875</ele>
        <time>2020-07-18T16:53:30.000Z</time>
      </trkpt>
      <trkpt lat="34.308377" lon="-117.440045">
        <ele>1221.500000</ele>
        <time>2020-07-18T16:53:33.000Z</time>
      </trkpt>
      <trkpt lat="34.30834" lon="-117.439891">
        <ele>1221.398438</ele>
        <time>2020-07-18T16:53:36.000Z</time>
      </trkpt>
      <trkpt lat="34.308338" lon="-117.439856">
        <ele>1221.296875</ele>
        <time>2020-07-18T16:53:39.000Z</time>
      </trkpt>
      <trkpt lat="34.308339" lon="-117.439757">
        <ele>1221.199219</ele>
        <time>2020-07-18T16:53:40.000Z</time>
      </trkpt>
      <trkpt lat="34.30834" lon="-117.439725">
        <ele>1220.199219</ele>
        <time>2020-07-18T16:53:43.000Z</time>
      </trkpt>
      <trkpt lat="34.308361" lon="-117.439627">
        <ele>1220.000000</ele>
        <time>2020-07-18T16:53:44.000Z</time>
      </trkpt>
      <trkpt lat="34.308371" lon="-117.439589">
        <ele>1219.699219</ele>
        <time>2020-07-18T16:53:46.000Z</time>
      </trkpt>
      <trkpt lat="34.308382" lon="-117.439498">
        <ele>1219.398438</ele>
        <time>2020-07-18T16:53:47.000Z</time>
      </trkpt>
      <trkpt lat="34.308384" lon="-117.439455">
        <ele>1218.796875</ele>
        <time>2020-07-18T16:53:49.000Z</time>
      </trkpt>
      <trkpt lat="34.308384" lon="-117.439335">
        <ele>1218.699219</ele>
        <time>2020-07-18T16:53:51.000Z</time>
      </trkpt>
      <trkpt lat="34.308387" lon="-117.439301">
        <ele>1218.500000</ele>
        <time>2020-07-18T16:53:54.000Z</time>
      </trkpt>
      <trkpt lat="34.308413" lon="-117.4392">
        <ele>1218.597656</ele>
        <time>2020-07-18T16:53:55.000Z</time>
      </trkpt>
      <trkpt lat="34.308426" lon="-117.439166">
        <ele>1218.199219</ele>
        <time>2020-07-18T16:53:57.000Z</time>
      </trkpt>
      <trkpt lat="34.308458" lon="-117.439101">
        <ele>1217.796875</ele>
        <time>2020-07-18T16:53:58.000Z</time>
      </trkpt>
      <trkpt lat="34.308475" lon="-117.439073">
        <ele>1217.000000</ele>
        <time>2020-07-18T16:54:01.000Z</time>
      </trkpt>
      <trkpt lat="34.308565" lon="-117.438889">
        <ele>1215.699219</ele>
        <time>2020-07-18T16:54:06.000Z</time>
      </trkpt>
      <trkpt lat="34.308631" lon="-117.438745">
        <ele>1215.500000</ele>
        <time>2020-07-18T16:54:11.000Z</time>
      </trkpt>
      <trkpt lat="34.308649" lon="-117.438719">
        <ele>1215.296875</ele>
        <time>2020-07-18T16:54:14.000Z</time>
      </trkpt>
      <trkpt lat="34.308693" lon="-117.43864">
        <ele>1214.898438</ele>
        <time>2020-07-18T16:54:15.000Z</time>
      </trkpt>
      <trkpt lat="34.308781" lon="-117.438492">
        <ele>1214.500000</ele>
        <time>2020-07-18T16:54:21.000Z</time>
      </trkpt>
      <trkpt lat="34.3088" lon="-117.438468">
        <ele>1214.199219</ele>
        <time>2020-07-18T16:54:24.000Z</time>
      </trkpt>
      <trkpt lat="34.308923" lon="-117.438328">
        <ele>1214.296875</ele>
        <time>2020-07-18T16:54:28.000Z</time>
      </trkpt>
      <trkpt lat="34.308948" lon="-117.438303">
        <ele>1215.000000</ele>
        <time>2020-07-18T16:54:30.000Z</time>
      </trkpt>
      <trkpt lat="34.309" lon="-117.438259">
        <ele>1214.699219</ele>
        <time>2020-07-18T16:54:31.000Z</time>
      </trkpt>
      <trkpt lat="34.309019" lon="-117.438229">
        <ele>1214.699219</ele>
        <time>2020-07-18T16:54:34.000Z</time>
      </trkpt>
      <trkpt lat="34.309061" lon="-117.438138">
        <ele>1214.500000</ele>
        <time>2020-07-18T16:54:35.000Z</time>
      </trkpt>
      <trkpt lat="34.309075" lon="-117.438106">
        <ele>1215.000000</ele>
        <time>2020-07-18T16:54:37.000Z</time>
      </trkpt>
      <trkpt lat="34.309112" lon="-117.438048">
        <ele>1214.898438</ele>
        <time>2020-07-18T16:54:38.000Z</time>
      </trkpt>
      <trkpt lat="34.309139" lon="-117.43802">
        <ele>1213.500000</ele>
        <time>2020-07-18T16:54:40.000Z</time>
      </trkpt>
      <trkpt lat="34.309231" lon="-117.43793">
        <ele>1211.898438</ele>
        <time>2020-07-18T16:54:42.000Z</time>
      </trkpt>
      <trkpt lat="34.309261" lon="-117.437904">
        <ele>1211.199219</ele>
        <time>2020-07-18T16:54:44.000Z</time>
      </trkpt>
      <trkpt lat="34.309331" lon="-117.437863">
        <ele>1211.000000</ele>
        <time>2020-07-18T16:54:45.000Z</time>
      </trkpt>
      <trkpt lat="34.309367" lon="-117.437854">
        <ele>1211.699219</ele>
        <time>2020-07-18T16:54:47.000Z</time>
      </trkpt>
      <trkpt lat="34.309446" lon="-117.437849">
        <ele>1211.597656</ele>
        <time>2020-07-18T16:54:48.000Z</time>
      </trkpt>
      <trkpt lat="34.309483" lon="-117.437858">
        <ele>1212.000000</ele>
        <time>2020-07-18T16:54:50.000Z</time>
      </trkpt>
      <trkpt lat="34.309549" lon="-117.437882">
        <ele>1211.898438</ele>
        <time>2020-07-18T16:54:51.000Z</time>
      </trkpt>
      <trkpt lat="34.309698" lon="-117.437934">
        <ele>1213.398438</ele>
        <time>2020-07-18T16:55:01.000Z</time>
      </trkpt>
      <trkpt lat="34.309704" lon="-117.437933">
        <ele>1214.000000</ele>
        <time>2020-07-18T16:55:09.000Z</time>
      </trkpt>
      <trkpt lat="34.309787" lon="-117.437957">
        <ele>1214.296875</ele>
        <time>2020-07-18T16:55:10.000Z</time>
      </trkpt>
      <trkpt lat="34.309799" lon="-117.437959">
        <ele>1214.296875</ele>
        <time>2020-07-18T16:55:16.000Z</time>
      </trkpt>
      <trkpt lat="34.309917" lon="-117.437983">
        <ele>1213.796875</ele>
        <time>2020-07-18T16:55:19.000Z</time>
      </trkpt>
      <trkpt lat="34.309931" lon="-117.437989">
        <ele>1212.796875</ele>
        <time>2020-07-18T16:55:25.000Z</time>
      </trkpt>
      <trkpt lat="34.310075" lon="-117.438047">
        <ele>1211.296875</ele>
        <time>2020-07-18T16:55:30.000Z</time>
      </trkpt>
      <trkpt lat="34.310086" lon="-117.438054">
        <ele>1210.097656</ele>
        <time>2020-07-18T16:55:36.000Z</time>
      </trkpt>
      <trkpt lat="34.310151" lon="-117.438122">
        <ele>1210.000000</ele>
        <time>2020-07-18T16:55:37.000Z</time>
      </trkpt>
      <trkpt lat="34.310226" lon="-117.438203">
        <ele>1209.597656</ele>
        <time>2020-07-18T16:55:43.000Z</time>
      </trkpt>
      <trkpt lat="34.310244" lon="-117.438214">
        <ele>1210.398438</ele>
        <time>2020-07-18T16:59:01.000Z</time>
      </trkpt>
      <trkpt lat="34.310313" lon="-117.438257">
        <ele>1210.199219</ele>
        <time>2020-07-18T16:59:02.000Z</time>
      </trkpt>
      <trkpt lat="34.310326" lon="-117.438263">
        <ele>1209.597656</ele>
        <time>2020-07-18T16:59:07.000Z</time>
      </trkpt>
      <trkpt lat="34.310418" lon="-117.438275">
        <ele>1209.398438</ele>
        <time>2020-07-18T16:59:08.000Z</time>
      </trkpt>
      <trkpt lat="34.310435" lon="-117.438273">
        <ele>1208.699219</ele>
        <time>2020-07-18T16:59:12.000Z</time>
      </trkpt>
      <trkpt lat="34.310525" lon="-117.438273">
        <ele>1209.199219</ele>
        <time>2020-07-18T16:59:13.000Z</time>
      </trkpt>
      <trkpt lat="34.310552" lon="-117.438278">
        <ele>1208.000000</ele>
        <time>2020-07-18T16:59:16.000Z</time>
      </trkpt>
      <trkpt lat="34.31062" lon="-117.438317">
        <ele>1207.597656</ele>
        <time>2020-07-18T16:59:17.000Z</time>
      </trkpt>
      <trkpt lat="34.310636" lon="-117.438331">
        <ele>1206.199219</ele>
        <time>2020-07-18T16:59:22.000Z</time>
      </trkpt>
      <trkpt lat="34.310704" lon="-117.438396">
        <ele>1205.898438</ele>
        <time>2020-07-18T16:59:23.000Z</time>
      </trkpt>
      <trkpt lat="34.310715" lon="-117.438411">
        <ele>1205.000000</ele>
        <time>2020-07-18T16:59:28.000Z</time>
      </trkpt>
      <trkpt lat="34.31077" lon="-117.438483">
        <ele>1204.796875</ele>
        <time>2020-07-18T16:59:29.000Z</time>
      </trkpt>
      <trkpt lat="34.31078" lon="-117.438499">
        <ele>1203.597656</ele>
        <time>2020-07-18T16:59:32.000Z</time>
      </trkpt>
      <trkpt lat="34.310835" lon="-117.438582">
        <ele>1203.199219</ele>
        <time>2020-07-18T16:59:33.000Z</time>
      </trkpt>
      <trkpt lat="34.310851" lon="-117.438609">
        <ele>1201.898438</ele>
        <time>2020-07-18T16:59:36.000Z</time>
      </trkpt>
      <trkpt lat="34.310891" lon="-117.438691">
        <ele>1201.699219</ele>
        <time>2020-07-18T16:59:37.000Z</time>
      </trkpt>
      <trkpt lat="34.3109" lon="-117.438718">
        <ele>1201.199219</ele>
        <time>2020-07-18T16:59:41.000Z</time>
      </trkpt>
      <trkpt lat="34.310946" lon="-117.438793">
        <ele>1200.898438</ele>
        <time>2020-07-18T16:59:42.000Z</time>
      </trkpt>
      <trkpt lat="34.310965" lon="-117.438813">
        <ele>1200.097656</ele>
        <time>2020-07-18T16:59:45.000Z</time>
      </trkpt>
      <trkpt lat="34.311051" lon="-117.43885">
        <ele>1200.000000</ele>
        <time>2020-07-18T16:59:46.000Z</time>
      </trkpt>
      <trkpt lat="34.311085" lon="-117.438849">
        <ele>1199.097656</ele>
        <time>2020-07-18T16:59:48.000Z</time>
      </trkpt>
      <trkpt lat="34.31115" lon="-117.43883">
        <ele>1199.000000</ele>
        <time>2020-07-18T16:59:49.000Z</time>
      </trkpt>
      <trkpt lat="34.311182" lon="-117.438817">
        <ele>1198.000000</ele>
        <time>2020-07-18T16:59:51.000Z</time>
      </trkpt>
      <trkpt lat="34.312057" lon="-117.438455">
        <ele>1193.398438</ele>
        <time>2020-07-18T17:00:20.000Z</time>
      </trkpt>
      <trkpt lat="34.312072" lon="-117.43845">
        <ele>1192.699219</ele>
        <time>2020-07-18T17:00:26.000Z</time>
      </trkpt>
      <trkpt lat="34.312139" lon="-117.438381">
        <ele>1192.500000</ele>
        <time>2020-07-18T17:00:27.000Z</time>
      </trkpt>
      <trkpt lat="34.312148" lon="-117.43837">
        <ele>1191.398438</ele>
        <time>2020-07-18T17:00:34.000Z</time>
      </trkpt>
      <trkpt lat="34.312194" lon="-117.438281">
        <ele>1191.500000</ele>
        <time>2020-07-18T17:00:35.000Z</time>
      </trkpt>
      <trkpt lat="34.312197" lon="-117.438266">
        <ele>1191.000000</ele>
        <time>2020-07-18T17:00:42.000Z</time>
      </trkpt>
      <trkpt lat="34.312209" lon="-117.438138">
        <ele>1191.097656</ele>
        <time>2020-07-18T17:00:45.000Z</time>
      </trkpt>
      <trkpt lat="34.312208" lon="-117.438124">
        <ele>1191.000000</ele>
        <time>2020-07-18T17:00:51.000Z</time>
      </trkpt>
      <trkpt lat="34.31221" lon="-117.437977">
        <ele>1191.199219</ele>
        <time>2020-07-18T17:00:54.000Z</time>
      </trkpt>
      <trkpt lat="34.312212" lon="-117.437954">
        <ele>1192.000000</ele>
        <time>2020-07-18T17:00:59.000Z</time>
      </trkpt>
      <trkpt lat="34.312243" lon="-117.437853">
        <ele>1192.296875</ele>
        <time>2020-07-18T17:01:00.000Z</time>
      </trkpt>
      <trkpt lat="34.312254" lon="-117.437835">
        <ele>1192.699219</ele>
        <time>2020-07-18T17:01:03.000Z</time>
      </trkpt>
      <trkpt lat="34.31231" lon="-117.437781">
        <ele>1192.796875</ele>
        <time>2020-07-18T17:01:04.000Z</time>
      </trkpt>
      <trkpt lat="34.31233" lon="-117.437766">
        <ele>1193.000000</ele>
        <time>2020-07-18T17:01:07.000Z</time>
      </trkpt>
      <trkpt lat="34.312559" lon="-117.437592">
        <ele>1194.000000</ele>
        <time>2020-07-18T17:01:15.000Z</time>
      </trkpt>
      <trkpt lat="34.312584" lon="-117.437576">
        <ele>1194.699219</ele>
        <time>2020-07-18T17:01:18.000Z</time>
      </trkpt>
      <trkpt lat="34.312657" lon="-117.437514">
        <ele>1194.898438</ele>
        <time>2020-07-18T17:01:19.000Z</time>
      </trkpt>
      <trkpt lat="34.312682" lon="-117.437484">
        <ele>1195.796875</ele>
        <time>2020-07-18T17:01:21.000Z</time>
      </trkpt>
      <trkpt lat="34.312734" lon="-117.43741">
        <ele>1196.199219</ele>
        <time>2020-07-18T17:01:22.000Z</time>
      </trkpt>
      <trkpt lat="34.312756" lon="-117.437365">
        <ele>1196.796875</ele>
        <time>2020-07-18T17:01:24.000Z</time>
      </trkpt>
      <trkpt lat="34.312793" lon="-117.437272">
        <ele>1197.097656</ele>
        <time>2020-07-18T17:01:25.000Z</time>
      </trkpt>
      <trkpt lat="34.312809" lon="-117.43723">
        <ele>1197.597656</ele>
        <time>2020-07-18T17:01:27.000Z</time>
      </trkpt>
      <trkpt lat="34.312829" lon="-117.437145">
        <ele>1197.500000</ele>
        <time>2020-07-18T17:01:28.000Z</time>
      </trkpt>
      <trkpt lat="34.312848" lon="-117.437029">
        <ele>1199.097656</ele>
        <time>2020-07-18T17:01:31.000Z</time>
      </trkpt>
      <trkpt lat="34.312858" lon="-117.436995">
        <ele>1199.398438</ele>
        <time>2020-07-18T17:01:34.000Z</time>
      </trkpt>
      <trkpt lat="34.312922" lon="-117.436923">
        <ele>1199.097656</ele>
        <time>2020-07-18T17:01:35.000Z</time>
      </trkpt>
      <trkpt lat="34.312946" lon="-117.436907">
        <ele>1199.296875</ele>
        <time>2020-07-18T17:01:38.000Z</time>
      </trkpt>
      <trkpt lat="34.313017" lon="-117.436885">
        <ele>1199.597656</ele>
        <time>2020-07-18T17:01:39.000Z</time>
      </trkpt>
      <trkpt lat="34.313043" lon="-117.436884">
        <ele>1200.796875</ele>
        <time>2020-07-18T17:01:42.000Z</time>
      </trkpt>
      <trkpt lat="34.313137" lon="-117.436902">
        <ele>1202.597656</ele>
        <time>2020-07-18T17:01:43.000Z</time>
      </trkpt>
      <trkpt lat="34.313174" lon="-117.436902">
        <ele>1202.597656</ele>
        <time>2020-07-18T17:01:45.000Z</time>
      </trkpt>
      <trkpt lat="34.313233" lon="-117.43689">
        <ele>1203.398438</ele>
        <time>2020-07-18T17:01:46.000Z</time>
      </trkpt>
      <trkpt lat="34.313268" lon="-117.436877">
        <ele>1204.000000</ele>
        <time>2020-07-18T17:01:48.000Z</time>
      </trkpt>
      <trkpt lat="34.313316" lon="-117.43683">
        <ele>1204.796875</ele>
        <time>2020-07-18T17:01:50.000Z</time>
      </trkpt>
      <trkpt lat="34.31334" lon="-117.436772">
        <ele>1205.597656</ele>
        <time>2020-07-18T17:01:52.000Z</time>
      </trkpt>
      <trkpt lat="34.313358" lon="-117.436718">
        <ele>1206.199219</ele>
        <time>2020-07-18T17:01:54.000Z</time>
      </trkpt>
      <trkpt lat="34.313369" lon="-117.436665">
        <ele>1206.597656</ele>
        <time>2020-07-18T17:01:56.000Z</time>
      </trkpt>
      <trkpt lat="34.31341" lon="-117.436465">
        <ele>1209.398438</ele>
        <time>2020-07-18T17:02:01.000Z</time>
      </trkpt>
      <trkpt lat="34.313414" lon="-117.436425">
        <ele>1210.296875</ele>
        <time>2020-07-18T17:02:03.000Z</time>
      </trkpt>
      <trkpt lat="34.313415" lon="-117.436353">
        <ele>1210.898438</ele>
        <time>2020-07-18T17:02:05.000Z</time>
      </trkpt>
      <trkpt lat="34.313408" lon="-117.436291">
        <ele>1211.398438</ele>
        <time>2020-07-18T17:02:07.000Z</time>
      </trkpt>
      <trkpt lat="34.313377" lon="-117.436116">
        <ele>1211.898438</ele>
        <time>2020-07-18T17:02:11.000Z</time>
      </trkpt>
      <trkpt lat="34.313377" lon="-117.436082">
        <ele>1212.097656</ele>
        <time>2020-07-18T17:02:14.000Z</time>
      </trkpt>
      <trkpt lat="34.313398" lon="-117.43599">
        <ele>1212.597656</ele>
        <time>2020-07-18T17:02:15.000Z</time>
      </trkpt>
      <trkpt lat="34.313411" lon="-117.435968">
        <ele>1212.796875</ele>
        <time>2020-07-18T17:02:18.000Z</time>
      </trkpt>
      <trkpt lat="34.313456" lon="-117.435902">
        <ele>1213.097656</ele>
        <time>2020-07-18T17:02:19.000Z</time>
      </trkpt>
      <trkpt lat="34.313477" lon="-117.435882">
        <ele>1213.597656</ele>
        <time>2020-07-18T17:02:22.000Z</time>
      </trkpt>
      <trkpt lat="34.313619" lon="-117.435755">
        <ele>1215.097656</ele>
        <time>2020-07-18T17:02:29.000Z</time>
      </trkpt>
      <trkpt lat="34.313632" lon="-117.435738">
        <ele>1216.097656</ele>
        <time>2020-07-18T17:02:33.000Z</time>
      </trkpt>
      <trkpt lat="34.313698" lon="-117.435655">
        <ele>1216.199219</ele>
        <time>2020-07-18T17:02:36.000Z</time>
      </trkpt>
      <trkpt lat="34.313699" lon="-117.435655">
        <ele>1214.398438</ele>
        <time>2020-07-18T17:03:41.000Z</time>
      </trkpt>
      <trkpt lat="34.313781" lon="-117.435603">
        <ele>1214.296875</ele>
        <time>2020-07-18T17:03:42.000Z</time>
      </trkpt>
      <trkpt lat="34.313785" lon="-117.435592">
        <ele>1216.398438</ele>
        <time>2020-07-18T17:04:28.000Z</time>
      </trkpt>
      <trkpt lat="34.313839" lon="-117.435498">
        <ele>1216.296875</ele>
        <time>2020-07-18T17:04:29.000Z</time>
      </trkpt>
      <trkpt lat="34.313851" lon="-117.435485">
        <ele>1215.199219</ele>
        <time>2020-07-18T17:04:38.000Z</time>
      </trkpt>
      <trkpt lat="34.313908" lon="-117.435422">
        <ele>1213.796875</ele>
        <time>2020-07-18T17:04:40.000Z</time>
      </trkpt>
      <trkpt lat="34.313929" lon="-117.435406">
        <ele>1213.796875</ele>
        <time>2020-07-18T17:04:44.000Z</time>
      </trkpt>
      <trkpt lat="34.313982" lon="-117.435357">
        <ele>1214.097656</ele>
        <time>2020-07-18T17:04:46.000Z</time>
      </trkpt>
      <trkpt lat="34.314006" lon="-117.435325">
        <ele>1214.796875</ele>
        <time>2020-07-18T17:06:20.000Z</time>
      </trkpt>
      <trkpt lat="34.314067" lon="-117.43532">
        <ele>1222.296875</ele>
        <time>2020-07-18T17:11:40.000Z</time>
      </trkpt>
      <trkpt lat="34.314089" lon="-117.435273">
        <ele>1221.398438</ele>
        <time>2020-07-18T17:11:42.000Z</time>
      </trkpt>
      <trkpt lat="34.314127" lon="-117.435238">
        <ele>1221.296875</ele>
        <time>2020-07-18T17:11:44.000Z</time>
      </trkpt>
      <trkpt lat="34.31416" lon="-117.435192">
        <ele>1221.296875</ele>
        <time>2020-07-18T17:11:46.000Z</time>
      </trkpt>
      <trkpt lat="34.314194" lon="-117.435139">
        <ele>1221.796875</ele>
        <time>2020-07-18T17:11:48.000Z</time>
      </trkpt>
      <trkpt lat="34.314217" lon="-117.43508">
        <ele>1222.097656</ele>
        <time>2020-07-18T17:11:50.000Z</time>
      </trkpt>
      <trkpt lat="34.314224" lon="-117.435015">
        <ele>1221.199219</ele>
        <time>2020-07-18T17:11:52.000Z</time>
      </trkpt>
      <trkpt lat="34.314194" lon="-117.434945">
        <ele>1220.898438</ele>
        <time>2020-07-18T17:11:53.000Z</time>
      </trkpt>
      <trkpt lat="34.314175" lon="-117.434917">
        <ele>1220.898438</ele>
        <time>2020-07-18T17:11:56.000Z</time>
      </trkpt>
      <trkpt lat="34.314102" lon="-117.43487">
        <ele>1220.796875</ele>
        <time>2020-07-18T17:11:57.000Z</time>
      </trkpt>
      <trkpt lat="34.314074" lon="-117.434865">
        <ele>1221.500000</ele>
        <time>2020-07-18T17:12:00.000Z</time>
      </trkpt>
      <trkpt lat="34.31399" lon="-117.434846">
        <ele>1221.500000</ele>
        <time>2020-07-18T17:12:01.000Z</time>
      </trkpt>
      <trkpt lat="34.313965" lon="-117.434833">
        <ele>1220.796875</ele>
        <time>2020-07-18T17:12:04.000Z</time>
      </trkpt>
      <trkpt lat="34.313906" lon="-117.43477">
        <ele>1220.699219</ele>
        <time>2020-07-18T17:12:05.000Z</time>
      </trkpt>
      <trkpt lat="34.313888" lon="-117.434741">
        <ele>1221.500000</ele>
        <time>2020-07-18T17:12:08.000Z</time>
      </trkpt>
      <trkpt lat="34.313865" lon="-117.434642">
        <ele>1221.398438</ele>
        <time>2020-07-18T17:12:09.000Z</time>
      </trkpt>
      <trkpt lat="34.313863" lon="-117.434614">
        <ele>1223.398438</ele>
        <time>2020-07-18T17:12:12.000Z</time>
      </trkpt>
      <trkpt lat="34.313868" lon="-117.434352">
        <ele>1226.097656</ele>
        <time>2020-07-18T17:12:17.000Z</time>
      </trkpt>
      <trkpt lat="34.313855" lon="-117.434055">
        <ele>1228.597656</ele>
        <time>2020-07-18T17:12:24.000Z</time>
      </trkpt>
      <trkpt lat="34.313849" lon="-117.434013">
        <ele>1228.796875</ele>
        <time>2020-07-18T17:12:26.000Z</time>
      </trkpt>
      <trkpt lat="34.313852" lon="-117.433924">
        <ele>1228.898438</ele>
        <time>2020-07-18T17:12:27.000Z</time>
      </trkpt>
      <trkpt lat="34.313864" lon="-117.433881">
        <ele>1229.398438</ele>
        <time>2020-07-18T17:12:29.000Z</time>
      </trkpt>
      <trkpt lat="34.313892" lon="-117.433798">
        <ele>1229.796875</ele>
        <time>2020-07-18T17:12:30.000Z</time>
      </trkpt>
      <trkpt lat="34.313936" lon="-117.433693">
        <ele>1230.500000</ele>
        <time>2020-07-18T17:12:33.000Z</time>
      </trkpt>
      <trkpt lat="34.313943" lon="-117.433655">
        <ele>1231.000000</ele>
        <time>2020-07-18T17:12:35.000Z</time>
      </trkpt>
      <trkpt lat="34.313941" lon="-117.433574">
        <ele>1231.097656</ele>
        <time>2020-07-18T17:12:36.000Z</time>
      </trkpt>
      <trkpt lat="34.313932" lon="-117.433532">
        <ele>1231.500000</ele>
        <time>2020-07-18T17:12:38.000Z</time>
      </trkpt>
      <trkpt lat="34.313905" lon="-117.433449">
        <ele>1231.296875</ele>
        <time>2020-07-18T17:12:39.000Z</time>
      </trkpt>
      <trkpt lat="34.313897" lon="-117.433404">
        <ele>1231.500000</ele>
        <time>2020-07-18T17:12:41.000Z</time>
      </trkpt>
      <trkpt lat="34.313902" lon="-117.433316">
        <ele>1231.500000</ele>
        <time>2020-07-18T17:12:42.000Z</time>
      </trkpt>
      <trkpt lat="34.31391" lon="-117.433289">
        <ele>1231.500000</ele>
        <time>2020-07-18T17:12:46.000Z</time>
      </trkpt>
      <trkpt lat="34.313952" lon="-117.433202">
        <ele>1231.796875</ele>
        <time>2020-07-18T17:12:47.000Z</time>
      </trkpt>
      <trkpt lat="34.314002" lon="-117.433105">
        <ele>1232.898438</ele>
        <time>2020-07-18T17:12:51.000Z</time>
      </trkpt>
      <trkpt lat="34.314017" lon="-117.433082">
        <ele>1233.699219</ele>
        <time>2020-07-18T17:12:54.000Z</time>
      </trkpt>
      <trkpt lat="34.314069" lon="-117.433025">
        <ele>1233.500000</ele>
        <time>2020-07-18T17:12:56.000Z</time>
      </trkpt>
      <trkpt lat="34.314101" lon="-117.432998">
        <ele>1232.796875</ele>
        <time>2020-07-18T17:12:58.000Z</time>
      </trkpt>
      <trkpt lat="34.314147" lon="-117.432968">
        <ele>1233.398438</ele>
        <time>2020-07-18T17:13:00.000Z</time>
      </trkpt>
      <trkpt lat="34.314207" lon="-117.432957">
        <ele>1233.398438</ele>
        <time>2020-07-18T17:13:02.000Z</time>
      </trkpt>
      <trkpt lat="34.314266" lon="-117.432954">
        <ele>1233.796875</ele>
        <time>2020-07-18T17:13:04.000Z</time>
      </trkpt>
      <trkpt lat="34.31432" lon="-117.432953">
        <ele>1234.296875</ele>
        <time>2020-07-18T17:13:06.000Z</time>
      </trkpt>
      <trkpt lat="34.314371" lon="-117.432937">
        <ele>1234.597656</ele>
        <time>2020-07-18T17:13:08.000Z</time>
      </trkpt>
      <trkpt lat="34.314422" lon="-117.432899">
        <ele>1234.898438</ele>
        <time>2020-07-18T17:13:09.000Z</time>
      </trkpt>
      <trkpt lat="34.314445" lon="-117.432873">
        <ele>1235.097656</ele>
        <time>2020-07-18T17:13:11.000Z</time>
      </trkpt>
      <trkpt lat="34.314489" lon="-117.432816">
        <ele>1235.296875</ele>
        <time>2020-07-18T17:13:12.000Z</time>
      </trkpt>
      <trkpt lat="34.314599" lon="-117.432665">
        <ele>1236.000000</ele>
        <time>2020-07-18T17:13:17.000Z</time>
      </trkpt>
      <trkpt lat="34.314619" lon="-117.432634">
        <ele>1237.097656</ele>
        <time>2020-07-18T17:13:20.000Z</time>
      </trkpt>
      <trkpt lat="34.314681" lon="-117.432529">
        <ele>1237.296875</ele>
        <time>2020-07-18T17:13:22.000Z</time>
      </trkpt>
      <trkpt lat="34.314754" lon="-117.432443">
        <ele>1238.699219</ele>
        <time>2020-07-18T17:13:26.000Z</time>
      </trkpt>
      <trkpt lat="34.314776" lon="-117.432424">
        <ele>1238.500000</ele>
        <time>2020-07-18T17:13:29.000Z</time>
      </trkpt>
      <trkpt lat="34.31489" lon="-117.432348">
        <ele>1238.000000</ele>
        <time>2020-07-18T17:13:32.000Z</time>
      </trkpt>
      <trkpt lat="34.314911" lon="-117.432334">
        <ele>1239.199219</ele>
        <time>2020-07-18T17:13:35.000Z</time>
      </trkpt>
      <trkpt lat="34.315048" lon="-117.432253">
        <ele>1240.699219</ele>
        <time>2020-07-18T17:13:38.000Z</time>
      </trkpt>
      <trkpt lat="34.315076" lon="-117.432231">
        <ele>1241.398438</ele>
        <time>2020-07-18T17:13:40.000Z</time>
      </trkpt>
      <trkpt lat="34.315119" lon="-117.432176">
        <ele>1241.796875</ele>
        <time>2020-07-18T17:13:41.000Z</time>
      </trkpt>
      <trkpt lat="34.315135" lon="-117.432145">
        <ele>1243.597656</ele>
        <time>2020-07-18T17:13:44.000Z</time>
      </trkpt>
      <trkpt lat="34.315158" lon="-117.432043">
        <ele>1244.699219</ele>
        <time>2020-07-18T17:13:45.000Z</time>
      </trkpt>
      <trkpt lat="34.315158" lon="-117.43201">
        <ele>1245.597656</ele>
        <time>2020-07-18T17:13:48.000Z</time>
      </trkpt>
      <trkpt lat="34.315115" lon="-117.431915">
        <ele>1246.000000</ele>
        <time>2020-07-18T17:13:49.000Z</time>
      </trkpt>
      <trkpt lat="34.315094" lon="-117.43189">
        <ele>1245.898438</ele>
        <time>2020-07-18T17:13:52.000Z</time>
      </trkpt>
      <trkpt lat="34.315009" lon="-117.431864">
        <ele>1246.199219</ele>
        <time>2020-07-18T17:13:53.000Z</time>
      </trkpt>
      <trkpt lat="34.314982" lon="-117.431874">
        <ele>1246.199219</ele>
        <time>2020-07-18T17:13:56.000Z</time>
      </trkpt>
      <trkpt lat="34.314926" lon="-117.431912">
        <ele>1246.296875</ele>
        <time>2020-07-18T17:13:58.000Z</time>
      </trkpt>
      <trkpt lat="34.314891" lon="-117.431941">
        <ele>1246.796875</ele>
        <time>2020-07-18T17:14:00.000Z</time>
      </trkpt>
      <trkpt lat="34.314846" lon="-117.431966">
        <ele>1247.199219</ele>
        <time>2020-07-18T17:14:02.000Z</time>
      </trkpt>
      <trkpt lat="34.3148" lon="-117.431976">
        <ele>1247.597656</ele>
        <time>2020-07-18T17:14:04.000Z</time>
      </trkpt>
      <trkpt lat="34.314684" lon="-117.432006">
        <ele>1248.597656</ele>
        <time>2020-07-18T17:14:08.000Z</time>
      </trkpt>
      <trkpt lat="34.314522" lon="-117.432067">
        <ele>1250.796875</ele>
        <time>2020-07-18T17:14:14.000Z</time>
      </trkpt>
      <trkpt lat="34.314491" lon="-117.432069">
        <ele>1251.898438</ele>
        <time>2020-07-18T17:14:16.000Z</time>
      </trkpt>
      <trkpt lat="34.314396" lon="-117.43207">
        <ele>1252.699219</ele>
        <time>2020-07-18T17:14:18.000Z</time>
      </trkpt>
      <trkpt lat="34.314366" lon="-117.432076">
        <ele>1252.398438</ele>
        <time>2020-07-18T17:14:21.000Z</time>
      </trkpt>
      <trkpt lat="34.314294" lon="-117.43212">
        <ele>1252.398438</ele>
        <time>2020-07-18T17:14:22.000Z</time>
      </trkpt>
      <trkpt lat="34.314277" lon="-117.432138">
        <ele>1253.199219</ele>
        <time>2020-07-18T17:14:25.000Z</time>
      </trkpt>
      <trkpt lat="34.314199" lon="-117.432213">
        <ele>1254.097656</ele>
        <time>2020-07-18T17:14:27.000Z</time>
      </trkpt>
      <trkpt lat="34.31408" lon="-117.432293">
        <ele>1256.000000</ele>
        <time>2020-07-18T17:14:32.000Z</time>
      </trkpt>
      <trkpt lat="34.314051" lon="-117.432309">
        <ele>1256.898438</ele>
        <time>2020-07-18T17:14:34.000Z</time>
      </trkpt>
      <trkpt lat="34.313988" lon="-117.432327">
        <ele>1257.097656</ele>
        <time>2020-07-18T17:14:35.000Z</time>
      </trkpt>
      <trkpt lat="34.313954" lon="-117.432331">
        <ele>1257.898438</ele>
        <time>2020-07-18T17:14:37.000Z</time>
      </trkpt>
      <trkpt lat="34.313713" lon="-117.43235">
        <ele>1258.898438</ele>
        <time>2020-07-18T17:14:44.000Z</time>
      </trkpt>
      <trkpt lat="34.313688" lon="-117.43236">
        <ele>1260.199219</ele>
        <time>2020-07-18T17:14:47.000Z</time>
      </trkpt>
      <trkpt lat="34.313627" lon="-117.432399">
        <ele>1260.296875</ele>
        <time>2020-07-18T17:14:49.000Z</time>
      </trkpt>
      <trkpt lat="34.313606" lon="-117.432423">
        <ele>1261.597656</ele>
        <time>2020-07-18T17:15:08.000Z</time>
      </trkpt>
      <trkpt lat="34.313533" lon="-117.432528">
        <ele>1262.597656</ele>
        <time>2020-07-18T17:15:13.000Z</time>
      </trkpt>
      <trkpt lat="34.313522" lon="-117.432538">
        <ele>1264.000000</ele>
        <time>2020-07-18T17:15:19.000Z</time>
      </trkpt>
      <trkpt lat="34.313426" lon="-117.432648">
        <ele>1264.898438</ele>
        <time>2020-07-18T17:15:23.000Z</time>
      </trkpt>
      <trkpt lat="34.313415" lon="-117.432655">
        <ele>1266.597656</ele>
        <time>2020-07-18T17:15:30.000Z</time>
      </trkpt>
      <trkpt lat="34.313331" lon="-117.432688">
        <ele>1266.898438</ele>
        <time>2020-07-18T17:15:31.000Z</time>
      </trkpt>
      <trkpt lat="34.31332" lon="-117.432689">
        <ele>1267.296875</ele>
        <time>2020-07-18T17:15:40.000Z</time>
      </trkpt>
      <trkpt lat="34.31325" lon="-117.432748">
        <ele>1267.097656</ele>
        <time>2020-07-18T17:15:41.000Z</time>
      </trkpt>
      <trkpt lat="34.313243" lon="-117.432762">
        <ele>1267.199219</ele>
        <time>2020-07-18T17:15:46.000Z</time>
      </trkpt>
      <trkpt lat="34.313203" lon="-117.432843">
        <ele>1267.199219</ele>
        <time>2020-07-18T17:15:47.000Z</time>
      </trkpt>
      <trkpt lat="34.313193" lon="-117.432857">
        <ele>1267.097656</ele>
        <time>2020-07-18T17:16:05.000Z</time>
      </trkpt>
      <trkpt lat="34.313142" lon="-117.432933">
        <ele>1265.796875</ele>
        <time>2020-07-18T17:18:45.000Z</time>
      </trkpt>
      <trkpt lat="34.313142" lon="-117.432933">
        <ele>1265.796875</ele>
        <time>2020-07-18T17:18:45.000Z</time>
      </trkpt>
    </trkseg>
    <trkseg>
      <trkpt lat="34.313141" lon="-117.432931">
        <ele>1265.898438</ele>
        <time>2020-07-18T17:18:48.000Z</time>
      </trkpt>
      <trkpt lat="34.313054" lon="-117.432987">
        <ele>1267.796875</ele>
        <time>2020-07-18T17:19:45.000Z</time>
      </trkpt>
      <trkpt lat="34.313037" lon="-117.43301">
        <ele>1268.000000</ele>
        <time>2020-07-18T17:19:48.000Z</time>
      </trkpt>
      <trkpt lat="34.312993" lon="-117.433083">
        <ele>1268.296875</ele>
        <time>2020-07-18T17:19:49.000Z</time>
      </trkpt>
      <trkpt lat="34.312939" lon="-117.43319">
        <ele>1269.898438</ele>
        <time>2020-07-18T17:19:53.000Z</time>
      </trkpt>
      <trkpt lat="34.31292" lon="-117.433214">
        <ele>1270.398438</ele>
        <time>2020-07-18T17:19:56.000Z</time>
      </trkpt>
      <trkpt lat="34.312848" lon="-117.433262">
        <ele>1270.597656</ele>
        <time>2020-07-18T17:19:57.000Z</time>
      </trkpt>
      <trkpt lat="34.312823" lon="-117.433273">
        <ele>1271.699219</ele>
        <time>2020-07-18T17:20:00.000Z</time>
      </trkpt>
      <trkpt lat="34.312743" lon="-117.433309">
        <ele>1271.699219</ele>
        <time>2020-07-18T17:20:01.000Z</time>
      </trkpt>
      <trkpt lat="34.312716" lon="-117.433333">
        <ele>1271.500000</ele>
        <time>2020-07-18T17:20:03.000Z</time>
      </trkpt>
      <trkpt lat="34.31268" lon="-117.433397">
        <ele>1271.500000</ele>
        <time>2020-07-18T17:20:04.000Z</time>
      </trkpt>
      <trkpt lat="34.312667" lon="-117.433434">
        <ele>1272.097656</ele>
        <time>2020-07-18T17:20:06.000Z</time>
      </trkpt>
      <trkpt lat="34.312615" lon="-117.43357">
        <ele>1272.898438</ele>
        <time>2020-07-18T17:20:09.000Z</time>
      </trkpt>
      <trkpt lat="34.312598" lon="-117.433593">
        <ele>1273.296875</ele>
        <time>2020-07-18T17:20:12.000Z</time>
      </trkpt>
      <trkpt lat="34.31252" lon="-117.433626">
        <ele>1273.597656</ele>
        <time>2020-07-18T17:20:13.000Z</time>
      </trkpt>
      <trkpt lat="34.312491" lon="-117.433621">
        <ele>1274.898438</ele>
        <time>2020-07-18T17:20:16.000Z</time>
      </trkpt>
      <trkpt lat="34.312409" lon="-117.433583">
        <ele>1274.898438</ele>
        <time>2020-07-18T17:20:17.000Z</time>
      </trkpt>
      <trkpt lat="34.312378" lon="-117.433574">
        <ele>1274.898438</ele>
        <time>2020-07-18T17:20:19.000Z</time>
      </trkpt>
      <trkpt lat="34.312314" lon="-117.433567">
        <ele>1274.597656</ele>
        <time>2020-07-18T17:20:20.000Z</time>
      </trkpt>
      <trkpt lat="34.312278" lon="-117.433568">
        <ele>1275.296875</ele>
        <time>2020-07-18T17:20:22.000Z</time>
      </trkpt>
      <trkpt lat="34.312205" lon="-117.433587">
        <ele>1275.898438</ele>
        <time>2020-07-18T17:20:23.000Z</time>
      </trkpt>
      <trkpt lat="34.312168" lon="-117.433602">
        <ele>1276.898438</ele>
        <time>2020-07-18T17:20:25.000Z</time>
      </trkpt>
      <trkpt lat="34.312057" lon="-117.433644">
        <ele>1278.296875</ele>
        <time>2020-07-18T17:20:27.000Z</time>
      </trkpt>
      <trkpt lat="34.311857" lon="-117.433707">
        <ele>1281.500000</ele>
        <time>2020-07-18T17:20:33.000Z</time>
      </trkpt>
      <trkpt lat="34.311831" lon="-117.433721">
        <ele>1283.296875</ele>
        <time>2020-07-18T17:20:36.000Z</time>
      </trkpt>
      <trkpt lat="34.311755" lon="-117.433747">
        <ele>1283.699219</ele>
        <time>2020-07-18T17:20:37.000Z</time>
      </trkpt>
      <trkpt lat="34.311728" lon="-117.433754">
        <ele>1284.796875</ele>
        <time>2020-07-18T17:20:40.000Z</time>
      </trkpt>
      <trkpt lat="34.311662" lon="-117.433749">
        <ele>1284.898438</ele>
        <time>2020-07-18T17:20:42.000Z</time>
      </trkpt>
      <trkpt lat="34.311626" lon="-117.433729">
        <ele>1285.296875</ele>
        <time>2020-07-18T17:20:45.000Z</time>
      </trkpt>
      <trkpt lat="34.311577" lon="-117.433672">
        <ele>1285.398438</ele>
        <time>2020-07-18T17:20:46.000Z</time>
      </trkpt>
      <trkpt lat="34.31156" lon="-117.433642">
        <ele>1285.699219</ele>
        <time>2020-07-18T17:20:49.000Z</time>
      </trkpt>
      <trkpt lat="34.311517" lon="-117.433549">
        <ele>1285.699219</ele>
        <time>2020-07-18T17:20:50.000Z</time>
      </trkpt>
      <trkpt lat="34.311508" lon="-117.433516">
        <ele>1285.796875</ele>
        <time>2020-07-18T17:20:52.000Z</time>
      </trkpt>
      <trkpt lat="34.311488" lon="-117.433446">
        <ele>1285.597656</ele>
        <time>2020-07-18T17:20:53.000Z</time>
      </trkpt>
      <trkpt lat="34.31148" lon="-117.433405">
        <ele>1285.898438</ele>
        <time>2020-07-18T17:20:55.000Z</time>
      </trkpt>
      <trkpt lat="34.311452" lon="-117.433231">
        <ele>1286.898438</ele>
        <time>2020-07-18T17:20:59.000Z</time>
      </trkpt>
      <trkpt lat="34.311449" lon="-117.4332">
        <ele>1287.199219</ele>
        <time>2020-07-18T17:21:02.000Z</time>
      </trkpt>
      <trkpt lat="34.311455" lon="-117.433106">
        <ele>1287.597656</ele>
        <time>2020-07-18T17:21:03.000Z</time>
      </trkpt>
      <trkpt lat="34.311459" lon="-117.433073">
        <ele>1288.796875</ele>
        <time>2020-07-18T17:21:06.000Z</time>
      </trkpt>
      <trkpt lat="34.311473" lon="-117.432985">
        <ele>1288.898438</ele>
        <time>2020-07-18T17:21:07.000Z</time>
      </trkpt>
      <trkpt lat="34.311479" lon="-117.43296">
        <ele>1290.097656</ele>
        <time>2020-07-18T17:21:11.000Z</time>
      </trkpt>
      <trkpt lat="34.31152" lon="-117.432878">
        <ele>1290.296875</ele>
        <time>2020-07-18T17:21:12.000Z</time>
      </trkpt>
      <trkpt lat="34.311606" lon="-117.432689">
        <ele>1290.796875</ele>
        <time>2020-07-18T17:21:19.000Z</time>
      </trkpt>
      <trkpt lat="34.311668" lon="-117.432513">
        <ele>1291.898438</ele>
        <time>2020-07-18T17:21:26.000Z</time>
      </trkpt>
      <trkpt lat="34.311677" lon="-117.432484">
        <ele>1291.699219</ele>
        <time>2020-07-18T17:21:29.000Z</time>
      </trkpt>
      <trkpt lat="34.311697" lon="-117.432387">
        <ele>1291.699219</ele>
        <time>2020-07-18T17:21:30.000Z</time>
      </trkpt>
      <trkpt lat="34.311695" lon="-117.43235">
        <ele>1291.500000</ele>
        <time>2020-07-18T17:21:32.000Z</time>
      </trkpt>
      <trkpt lat="34.311682" lon="-117.432275">
        <ele>1291.597656</ele>
        <time>2020-07-18T17:21:33.000Z</time>
      </trkpt>
      <trkpt lat="34.311669" lon="-117.432237">
        <ele>1291.796875</ele>
        <time>2020-07-18T17:21:35.000Z</time>
      </trkpt>
      <trkpt lat="34.311635" lon="-117.432173">
        <ele>1291.898438</ele>
        <time>2020-07-18T17:21:36.000Z</time>
      </trkpt>
      <trkpt lat="34.311614" lon="-117.432146">
        <ele>1291.699219</ele>
        <time>2020-07-18T17:21:39.000Z</time>
      </trkpt>
      <trkpt lat="34.311546" lon="-117.432088">
        <ele>1291.796875</ele>
        <time>2020-07-18T17:21:40.000Z</time>
      </trkpt>
      <trkpt lat="34.311518" lon="-117.432076">
        <ele>1292.097656</ele>
        <time>2020-07-18T17:21:42.000Z</time>
      </trkpt>
      <trkpt lat="34.311451" lon="-117.432072">
        <ele>1292.199219</ele>
        <time>2020-07-18T17:21:43.000Z</time>
      </trkpt>
      <trkpt lat="34.311413" lon="-117.432082">
        <ele>1292.898438</ele>
        <time>2020-07-18T17:21:45.000Z</time>
      </trkpt>
      <trkpt lat="34.311342" lon="-117.43212">
        <ele>1293.597656</ele>
        <time>2020-07-18T17:21:46.000Z</time>
      </trkpt>
      <trkpt lat="34.31131" lon="-117.432144">
        <ele>1294.199219</ele>
        <time>2020-07-18T17:21:48.000Z</time>
      </trkpt>
      <trkpt lat="34.311192" lon="-117.432224">
        <ele>1295.097656</ele>
        <time>2020-07-18T17:21:51.000Z</time>
      </trkpt>
      <trkpt lat="34.311162" lon="-117.432236">
        <ele>1295.199219</ele>
        <time>2020-07-18T17:21:53.000Z</time>
      </trkpt>
      <trkpt lat="34.3111" lon="-117.432244">
        <ele>1295.597656</ele>
        <time>2020-07-18T17:21:54.000Z</time>
      </trkpt>
      <trkpt lat="34.311069" lon="-117.432246">
        <ele>1295.898438</ele>
        <time>2020-07-18T17:21:56.000Z</time>
      </trkpt>
      <trkpt lat="34.311006" lon="-117.432261">
        <ele>1296.097656</ele>
        <time>2020-07-18T17:21:57.000Z</time>
      </trkpt>
      <trkpt lat="34.310976" lon="-117.432275">
        <ele>1297.000000</ele>
        <time>2020-07-18T17:21:59.000Z</time>
      </trkpt>
      <trkpt lat="34.310913" lon="-117.432315">
        <ele>1297.500000</ele>
        <time>2020-07-18T17:22:00.000Z</time>
      </trkpt>
      <trkpt lat="34.310883" lon="-117.432343">
        <ele>1298.500000</ele>
        <time>2020-07-18T17:22:02.000Z</time>
      </trkpt>
      <trkpt lat="34.31083" lon="-117.432397">
        <ele>1298.597656</ele>
        <time>2020-07-18T17:22:03.000Z</time>
      </trkpt>
      <trkpt lat="34.310811" lon="-117.432424">
        <ele>1298.699219</ele>
        <time>2020-07-18T17:22:06.000Z</time>
      </trkpt>
      <trkpt lat="34.310776" lon="-117.432488">
        <ele>1298.898438</ele>
        <time>2020-07-18T17:22:08.000Z</time>
      </trkpt>
      <trkpt lat="34.310757" lon="-117.432541">
        <ele>1299.699219</ele>
        <time>2020-07-18T17:22:10.000Z</time>
      </trkpt>
      <trkpt lat="34.310741" lon="-117.432597">
        <ele>1300.398438</ele>
        <time>2020-07-18T17:22:12.000Z</time>
      </trkpt>
      <trkpt lat="34.310733" lon="-117.43265">
        <ele>1301.097656</ele>
        <time>2020-07-18T17:22:14.000Z</time>
      </trkpt>
      <trkpt lat="34.310729" lon="-117.432706">
        <ele>1301.796875</ele>
        <time>2020-07-18T17:22:16.000Z</time>
      </trkpt>
      <trkpt lat="34.310716" lon="-117.432766">
        <ele>1302.199219</ele>
        <time>2020-07-18T17:22:18.000Z</time>
      </trkpt>
      <trkpt lat="34.310694" lon="-117.432821">
        <ele>1302.796875</ele>
        <time>2020-07-18T17:22:20.000Z</time>
      </trkpt>
      <trkpt lat="34.310654" lon="-117.432861">
        <ele>1303.000000</ele>
        <time>2020-07-18T17:22:22.000Z</time>
      </trkpt>
      <trkpt lat="34.310603" lon="-117.432878">
        <ele>1303.500000</ele>
        <time>2020-07-18T17:22:24.000Z</time>
      </trkpt>
      <trkpt lat="34.310563" lon="-117.432877">
        <ele>1305.898438</ele>
        <time>2020-07-18T17:22:57.000Z</time>
      </trkpt>
      <trkpt lat="34.310509" lon="-117.432857">
        <ele>1306.000000</ele>
        <time>2020-07-18T17:23:00.000Z</time>
      </trkpt>
      <trkpt lat="34.310372" lon="-117.432814">
        <ele>1306.500000</ele>
        <time>2020-07-18T17:23:09.000Z</time>
      </trkpt>
      <trkpt lat="34.310365" lon="-117.43281">
        <ele>1307.898438</ele>
        <time>2020-07-18T17:23:16.000Z</time>
      </trkpt>
      <trkpt lat="34.310236" lon="-117.43277">
        <ele>1308.296875</ele>
        <time>2020-07-18T17:23:19.000Z</time>
      </trkpt>
      <trkpt lat="34.310225" lon="-117.432761">
        <ele>1312.796875</ele>
        <time>2020-07-18T17:25:27.000Z</time>
      </trkpt>
      <trkpt lat="34.310165" lon="-117.432685">
        <ele>1313.097656</ele>
        <time>2020-07-18T17:25:28.000Z</time>
      </trkpt>
      <trkpt lat="34.310148" lon="-117.432662">
        <ele>1312.898438</ele>
        <time>2020-07-18T17:25:31.000Z</time>
      </trkpt>
      <trkpt lat="34.310079" lon="-117.432552">
        <ele>1312.500000</ele>
        <time>2020-07-18T17:25:33.000Z</time>
      </trkpt>
      <trkpt lat="34.310069" lon="-117.432531">
        <ele>1311.796875</ele>
        <time>2020-07-18T17:25:38.000Z</time>
      </trkpt>
      <trkpt lat="34.31001" lon="-117.432461">
        <ele>1311.699219</ele>
        <time>2020-07-18T17:25:39.000Z</time>
      </trkpt>
      <trkpt lat="34.30999" lon="-117.43245">
        <ele>1311.500000</ele>
        <time>2020-07-18T17:25:43.000Z</time>
      </trkpt>
      <trkpt lat="34.309904" lon="-117.43243">
        <ele>1310.699219</ele>
        <time>2020-07-18T17:25:44.000Z</time>
      </trkpt>
      <trkpt lat="34.309883" lon="-117.432432">
        <ele>1312.000000</ele>
        <time>2020-07-18T17:25:48.000Z</time>
      </trkpt>
      <trkpt lat="34.309758" lon="-117.432454">
        <ele>1313.398438</ele>
        <time>2020-07-18T17:25:52.000Z</time>
      </trkpt>
      <trkpt lat="34.309736" lon="-117.43245">
        <ele>1314.500000</ele>
        <time>2020-07-18T17:25:55.000Z</time>
      </trkpt>
      <trkpt lat="34.309646" lon="-117.432423">
        <ele>1315.097656</ele>
        <time>2020-07-18T17:25:57.000Z</time>
      </trkpt>
      <trkpt lat="34.309524" lon="-117.432372">
        <ele>1317.398438</ele>
        <time>2020-07-18T17:26:04.000Z</time>
      </trkpt>
      <trkpt lat="34.309507" lon="-117.432363">
        <ele>1318.796875</ele>
        <time>2020-07-18T17:26:22.000Z</time>
      </trkpt>
      <trkpt lat="34.309435" lon="-117.432321">
        <ele>1319.000000</ele>
        <time>2020-07-18T17:26:23.000Z</time>
      </trkpt>
      <trkpt lat="34.309423" lon="-117.432316">
        <ele>1321.500000</ele>
        <time>2020-07-18T17:26:31.000Z</time>
      </trkpt>
      <trkpt lat="34.309311" lon="-117.432272">
        <ele>1322.898438</ele>
        <time>2020-07-18T17:26:35.000Z</time>
      </trkpt>
      <trkpt lat="34.309296" lon="-117.432263">
        <ele>1324.000000</ele>
        <time>2020-07-18T17:26:42.000Z</time>
      </trkpt>
      <trkpt lat="34.309232" lon="-117.432214">
        <ele>1324.097656</ele>
        <time>2020-07-18T17:26:44.000Z</time>
      </trkpt>
      <trkpt lat="34.309221" lon="-117.432196">
        <ele>1323.296875</ele>
        <time>2020-07-18T17:26:52.000Z</time>
      </trkpt>
      <trkpt lat="34.309168" lon="-117.432095">
        <ele>1321.000000</ele>
        <time>2020-07-18T17:27:40.000Z</time>
      </trkpt>
      <trkpt lat="34.309166" lon="-117.432083">
        <ele>1321.296875</ele>
        <time>2020-07-18T17:27:52.000Z</time>
      </trkpt>
      <trkpt lat="34.309145" lon="-117.431972">
        <ele>1321.597656</ele>
        <time>2020-07-18T17:27:53.000Z</time>
      </trkpt>
      <trkpt lat="34.309136" lon="-117.431941">
        <ele>1322.898438</ele>
        <time>2020-07-18T17:27:56.000Z</time>
      </trkpt>
      <trkpt lat="34.309086" lon="-117.431767">
        <ele>1323.398438</ele>
        <time>2020-07-18T17:28:00.000Z</time>
      </trkpt>
      <trkpt lat="34.309084" lon="-117.431747">
        <ele>1323.796875</ele>
        <time>2020-07-18T17:28:04.000Z</time>
      </trkpt>
      <trkpt lat="34.309065" lon="-117.431641">
        <ele>1324.097656</ele>
        <time>2020-07-18T17:28:05.000Z</time>
      </trkpt>
      <trkpt lat="34.309054" lon="-117.431611">
        <ele>1325.398438</ele>
        <time>2020-07-18T17:28:08.000Z</time>
      </trkpt>
      <trkpt lat="34.30901" lon="-117.431535">
        <ele>1325.699219</ele>
        <time>2020-07-18T17:28:09.000Z</time>
      </trkpt>
      <trkpt lat="34.308996" lon="-117.43151">
        <ele>1326.398438</ele>
        <time>2020-07-18T17:28:12.000Z</time>
      </trkpt>
      <trkpt lat="34.308907" lon="-117.431328">
        <ele>1327.296875</ele>
        <time>2020-07-18T17:28:17.000Z</time>
      </trkpt>
      <trkpt lat="34.308887" lon="-117.431305">
        <ele>1327.898438</ele>
        <time>2020-07-18T17:28:20.000Z</time>
      </trkpt>
      <trkpt lat="34.308821" lon="-117.431239">
        <ele>1328.097656</ele>
        <time>2020-07-18T17:28:21.000Z</time>
      </trkpt>
      <trkpt lat="34.308796" lon="-117.431218">
        <ele>1327.699219</ele>
        <time>2020-07-18T17:28:23.000Z</time>
      </trkpt>
      <trkpt lat="34.308716" lon="-117.43116">
        <ele>1327.898438</ele>
        <time>2020-07-18T17:28:25.000Z</time>
      </trkpt>
      <trkpt lat="34.308692" lon="-117.431145">
        <ele>1329.000000</ele>
        <time>2020-07-18T17:28:28.000Z</time>
      </trkpt>
      <trkpt lat="34.30862" lon="-117.431124">
        <ele>1329.398438</ele>
        <time>2020-07-18T17:28:29.000Z</time>
      </trkpt>
      <trkpt lat="34.308595" lon="-117.431124">
        <ele>1330.699219</ele>
        <time>2020-07-18T17:28:32.000Z</time>
      </trkpt>
      <trkpt lat="34.308515" lon="-117.431146">
        <ele>1330.597656</ele>
        <time>2020-07-18T17:28:33.000Z</time>
      </trkpt>
      <trkpt lat="34.308488" lon="-117.431158">
        <ele>1330.199219</ele>
        <time>2020-07-18T17:28:36.000Z</time>
      </trkpt>
      <trkpt lat="34.308417" lon="-117.431206">
        <ele>1330.500000</ele>
        <time>2020-07-18T17:28:37.000Z</time>
      </trkpt>
      <trkpt lat="34.308308" lon="-117.431267">
        <ele>1331.000000</ele>
        <time>2020-07-18T17:28:41.000Z</time>
      </trkpt>
      <trkpt lat="34.308276" lon="-117.431278">
        <ele>1331.000000</ele>
        <time>2020-07-18T17:28:43.000Z</time>
      </trkpt>
      <trkpt lat="34.308212" lon="-117.431291">
        <ele>1331.097656</ele>
        <time>2020-07-18T17:28:44.000Z</time>
      </trkpt>
      <trkpt lat="34.30818" lon="-117.431293">
        <ele>1331.000000</ele>
        <time>2020-07-18T17:28:46.000Z</time>
      </trkpt>
      <trkpt lat="34.308118" lon="-117.431277">
        <ele>1330.699219</ele>
        <time>2020-07-18T17:28:47.000Z</time>
      </trkpt>
      <trkpt lat="34.308084" lon="-117.431259">
        <ele>1331.000000</ele>
        <time>2020-07-18T17:28:49.000Z</time>
      </trkpt>
      <trkpt lat="34.308023" lon="-117.431218">
        <ele>1331.500000</ele>
        <time>2020-07-18T17:28:50.000Z</time>
      </trkpt>
      <trkpt lat="34.307995" lon="-117.431196">
        <ele>1332.699219</ele>
        <time>2020-07-18T17:28:52.000Z</time>
      </trkpt>
      <trkpt lat="34.307911" lon="-117.43113">
        <ele>1333.296875</ele>
        <time>2020-07-18T17:28:54.000Z</time>
      </trkpt>
      <trkpt lat="34.30788" lon="-117.431114">
        <ele>1333.898438</ele>
        <time>2020-07-18T17:28:57.000Z</time>
      </trkpt>
      <trkpt lat="34.307801" lon="-117.431097">
        <ele>1334.000000</ele>
        <time>2020-07-18T17:28:58.000Z</time>
      </trkpt>
      <trkpt lat="34.307768" lon="-117.431095">
        <ele>1334.796875</ele>
        <time>2020-07-18T17:29:00.000Z</time>
      </trkpt>
      <trkpt lat="34.307552" lon="-117.431084">
        <ele>1335.796875</ele>
        <time>2020-07-18T17:29:06.000Z</time>
      </trkpt>
      <trkpt lat="34.307517" lon="-117.431085">
        <ele>1335.898438</ele>
        <time>2020-07-18T17:29:08.000Z</time>
      </trkpt>
      <trkpt lat="34.307377" lon="-117.431093">
        <ele>1338.000000</ele>
        <time>2020-07-18T17:29:11.000Z</time>
      </trkpt>
      <trkpt lat="34.307345" lon="-117.431086">
        <ele>1339.000000</ele>
        <time>2020-07-18T17:29:13.000Z</time>
      </trkpt>
      <trkpt lat="34.307285" lon="-117.431046">
        <ele>1339.097656</ele>
        <time>2020-07-18T17:29:14.000Z</time>
      </trkpt>
      <trkpt lat="34.307264" lon="-117.43102">
        <ele>1338.898438</ele>
        <time>2020-07-18T17:29:17.000Z</time>
      </trkpt>
      <trkpt lat="34.307239" lon="-117.430936">
        <ele>1339.199219</ele>
        <time>2020-07-18T17:29:18.000Z</time>
      </trkpt>
      <trkpt lat="34.30724" lon="-117.430909">
        <ele>1340.000000</ele>
        <time>2020-07-18T17:29:21.000Z</time>
      </trkpt>
      <trkpt lat="34.307237" lon="-117.430814">
        <ele>1340.199219</ele>
        <time>2020-07-18T17:29:22.000Z</time>
      </trkpt>
      <trkpt lat="34.307233" lon="-117.430781">
        <ele>1340.699219</ele>
        <time>2020-07-18T17:29:25.000Z</time>
      </trkpt>
      <trkpt lat="34.307207" lon="-117.430683">
        <ele>1340.500000</ele>
        <time>2020-07-18T17:29:26.000Z</time>
      </trkpt>
      <trkpt lat="34.30719" lon="-117.430655">
        <ele>1341.296875</ele>
        <time>2020-07-18T17:29:29.000Z</time>
      </trkpt>
      <trkpt lat="34.307135" lon="-117.43058">
        <ele>1341.699219</ele>
        <time>2020-07-18T17:29:30.000Z</time>
      </trkpt>
      <trkpt lat="34.307115" lon="-117.43056">
        <ele>1343.097656</ele>
        <time>2020-07-18T17:29:33.000Z</time>
      </trkpt>
      <trkpt lat="34.307045" lon="-117.430526">
        <ele>1343.097656</ele>
        <time>2020-07-18T17:29:34.000Z</time>
      </trkpt>
      <trkpt lat="34.307018" lon="-117.430524">
        <ele>1343.597656</ele>
        <time>2020-07-18T17:29:37.000Z</time>
      </trkpt>
      <trkpt lat="34.306941" lon="-117.430538">
        <ele>1343.699219</ele>
        <time>2020-07-18T17:29:38.000Z</time>
      </trkpt>
      <trkpt lat="34.306917" lon="-117.430547">
        <ele>1344.699219</ele>
        <time>2020-07-18T17:29:41.000Z</time>
      </trkpt>
      <trkpt lat="34.306827" lon="-117.43059">
        <ele>1345.500000</ele>
        <time>2020-07-18T17:29:43.000Z</time>
      </trkpt>
      <trkpt lat="34.306805" lon="-117.430604">
        <ele>1345.796875</ele>
        <time>2020-07-18T17:29:46.000Z</time>
      </trkpt>
      <trkpt lat="34.306674" lon="-117.430687">
        <ele>1345.796875</ele>
        <time>2020-07-18T17:29:50.000Z</time>
      </trkpt>
      <trkpt lat="34.306651" lon="-117.430693">
        <ele>1346.699219</ele>
        <time>2020-07-18T17:29:54.000Z</time>
      </trkpt>
      <trkpt lat="34.306575" lon="-117.430683">
        <ele>1347.000000</ele>
        <time>2020-07-18T17:29:55.000Z</time>
      </trkpt>
      <trkpt lat="34.306556" lon="-117.430676">
        <ele>1348.597656</ele>
        <time>2020-07-18T17:29:59.000Z</time>
      </trkpt>
      <trkpt lat="34.306481" lon="-117.430639">
        <ele>1348.898438</ele>
        <time>2020-07-18T17:30:00.000Z</time>
      </trkpt>
      <trkpt lat="34.306465" lon="-117.430624">
        <ele>1350.000000</ele>
        <time>2020-07-18T17:30:04.000Z</time>
      </trkpt>
      <trkpt lat="34.306368" lon="-117.430552">
        <ele>1351.500000</ele>
        <time>2020-07-18T17:30:08.000Z</time>
      </trkpt>
      <trkpt lat="34.306249" lon="-117.430484">
        <ele>1355.199219</ele>
        <time>2020-07-18T17:30:16.000Z</time>
      </trkpt>
      <trkpt lat="34.306234" lon="-117.430479">
        <ele>1356.296875</ele>
        <time>2020-07-18T17:30:21.000Z</time>
      </trkpt>
      <trkpt lat="34.30615" lon="-117.430508">
        <ele>1355.796875</ele>
        <time>2020-07-18T17:30:22.000Z</time>
      </trkpt>
      <trkpt lat="34.306139" lon="-117.430521">
        <ele>1355.000000</ele>
        <time>2020-07-18T17:30:27.000Z</time>
      </trkpt>
      <trkpt lat="34.306091" lon="-117.430591">
        <ele>1355.097656</ele>
        <time>2020-07-18T17:30:28.000Z</time>
      </trkpt>
      <trkpt lat="34.306079" lon="-117.430609">
        <ele>1355.597656</ele>
        <time>2020-07-18T17:30:32.000Z</time>
      </trkpt>
      <trkpt lat="34.306038" lon="-117.430691">
        <ele>1355.796875</ele>
        <time>2020-07-18T17:30:33.000Z</time>
      </trkpt>
      <trkpt lat="34.305994" lon="-117.430786">
        <ele>1356.500000</ele>
        <time>2020-07-18T17:30:38.000Z</time>
      </trkpt>
      <trkpt lat="34.305987" lon="-117.430805">
        <ele>1356.796875</ele>
        <time>2020-07-18T17:30:43.000Z</time>
      </trkpt>
      <trkpt lat="34.305936" lon="-117.430898">
        <ele>1356.796875</ele>
        <time>2020-07-18T17:30:44.000Z</time>
      </trkpt>
      <trkpt lat="34.305766" lon="-117.43118">
        <ele>1358.000000</ele>
        <time>2020-07-18T17:30:59.000Z</time>
      </trkpt>
      <trkpt lat="34.305754" lon="-117.431196">
        <ele>1359.000000</ele>
        <time>2020-07-18T17:31:03.000Z</time>
      </trkpt>
      <trkpt lat="34.30569" lon="-117.431249">
        <ele>1359.199219</ele>
        <time>2020-07-18T17:31:04.000Z</time>
      </trkpt>
      <trkpt lat="34.305603" lon="-117.431306">
        <ele>1359.796875</ele>
        <time>2020-07-18T17:31:09.000Z</time>
      </trkpt>
      <trkpt lat="34.305587" lon="-117.431316">
        <ele>1361.199219</ele>
        <time>2020-07-18T17:31:34.000Z</time>
      </trkpt>
      <trkpt lat="34.305527" lon="-117.431382">
        <ele>1361.296875</ele>
        <time>2020-07-18T17:31:35.000Z</time>
      </trkpt>
      <trkpt lat="34.305508" lon="-117.43139">
        <ele>1362.500000</ele>
        <time>2020-07-18T17:31:38.000Z</time>
      </trkpt>
      <trkpt lat="34.305433" lon="-117.431406">
        <ele>1362.296875</ele>
        <time>2020-07-18T17:31:39.000Z</time>
      </trkpt>
      <trkpt lat="34.305409" lon="-117.431409">
        <ele>1362.000000</ele>
        <time>2020-07-18T17:31:42.000Z</time>
      </trkpt>
      <trkpt lat="34.305254" lon="-117.431426">
        <ele>1362.597656</ele>
        <time>2020-07-18T17:31:47.000Z</time>
      </trkpt>
      <trkpt lat="34.305234" lon="-117.431433">
        <ele>1363.500000</ele>
        <time>2020-07-18T17:31:51.000Z</time>
      </trkpt>
      <trkpt lat="34.305145" lon="-117.431472">
        <ele>1363.796875</ele>
        <time>2020-07-18T17:31:53.000Z</time>
      </trkpt>
      <trkpt lat="34.305128" lon="-117.431482">
        <ele>1365.000000</ele>
        <time>2020-07-18T17:31:57.000Z</time>
      </trkpt>
      <trkpt lat="34.305058" lon="-117.431515">
        <ele>1365.296875</ele>
        <time>2020-07-18T17:31:58.000Z</time>
      </trkpt>
      <trkpt lat="34.305045" lon="-117.431525">
        <ele>1367.398438</ele>
        <time>2020-07-18T17:32:03.000Z</time>
      </trkpt>
      <trkpt lat="34.30497" lon="-117.431583">
        <ele>1367.796875</ele>
        <time>2020-07-18T17:32:04.000Z</time>
      </trkpt>
      <trkpt lat="34.304956" lon="-117.431598">
        <ele>1368.500000</ele>
        <time>2020-07-18T17:32:08.000Z</time>
      </trkpt>
      <trkpt lat="34.304827" lon="-117.431746">
        <ele>1370.000000</ele>
        <time>2020-07-18T17:32:14.000Z</time>
      </trkpt>
      <trkpt lat="34.304809" lon="-117.431761">
        <ele>1370.296875</ele>
        <time>2020-07-18T17:32:20.000Z</time>
      </trkpt>
      <trkpt lat="34.304745" lon="-117.431793">
        <ele>1370.699219</ele>
        <time>2020-07-18T17:32:22.000Z</time>
      </trkpt>
      <trkpt lat="34.304712" lon="-117.431793">
        <ele>1372.898438</ele>
        <time>2020-07-18T17:32:26.000Z</time>
      </trkpt>
      <trkpt lat="34.304653" lon="-117.431771">
        <ele>1373.000000</ele>
        <time>2020-07-18T17:32:29.000Z</time>
      </trkpt>
      <trkpt lat="34.304627" lon="-117.43174">
        <ele>1374.398438</ele>
        <time>2020-07-18T17:32:33.000Z</time>
      </trkpt>
      <trkpt lat="34.304579" lon="-117.43169">
        <ele>1375.000000</ele>
        <time>2020-07-18T17:32:35.000Z</time>
      </trkpt>
      <trkpt lat="34.304502" lon="-117.431616">
        <ele>1377.500000</ele>
        <time>2020-07-18T17:32:40.000Z</time>
      </trkpt>
      <trkpt lat="34.304492" lon="-117.431603">
        <ele>1379.097656</ele>
        <time>2020-07-18T17:33:01.000Z</time>
      </trkpt>
      <trkpt lat="34.304436" lon="-117.431542">
        <ele>1378.296875</ele>
        <time>2020-07-18T17:33:04.000Z</time>
      </trkpt>
      <trkpt lat="34.304422" lon="-117.43153">
        <ele>1378.296875</ele>
        <time>2020-07-18T17:33:12.000Z</time>
      </trkpt>
      <trkpt lat="34.304347" lon="-117.431522">
        <ele>1378.398438</ele>
        <time>2020-07-18T17:33:14.000Z</time>
      </trkpt>
      <trkpt lat="34.30425" lon="-117.431518">
        <ele>1375.199219</ele>
        <time>2020-07-18T17:36:42.000Z</time>
      </trkpt>
      <trkpt lat="34.304232" lon="-117.431521">
        <ele>1375.796875</ele>
        <time>2020-07-18T17:36:46.000Z</time>
      </trkpt>
      <trkpt lat="34.304113" lon="-117.431541">
        <ele>1377.500000</ele>
        <time>2020-07-18T17:36:49.000Z</time>
      </trkpt>
      <trkpt lat="34.304095" lon="-117.431547">
        <ele>1378.296875</ele>
        <time>2020-07-18T17:36:54.000Z</time>
      </trkpt>
      <trkpt lat="34.304017" lon="-117.431592">
        <ele>1378.398438</ele>
        <time>2020-07-18T17:36:55.000Z</time>
      </trkpt>
      <trkpt lat="34.304005" lon="-117.431607">
        <ele>1379.398438</ele>
        <time>2020-07-18T17:37:01.000Z</time>
      </trkpt>
      <trkpt lat="34.303967" lon="-117.431686">
        <ele>1379.296875</ele>
        <time>2020-07-18T17:37:02.000Z</time>
      </trkpt>
      <trkpt lat="34.303961" lon="-117.431702">
        <ele>1380.000000</ele>
        <time>2020-07-18T17:37:07.000Z</time>
      </trkpt>
      <trkpt lat="34.303882" lon="-117.431894">
        <ele>1381.796875</ele>
        <time>2020-07-18T17:37:13.000Z</time>
      </trkpt>
      <trkpt lat="34.303817" lon="-117.431999">
        <ele>1384.097656</ele>
        <time>2020-07-18T17:37:18.000Z</time>
      </trkpt>
      <trkpt lat="34.303802" lon="-117.432016">
        <ele>1385.597656</ele>
        <time>2020-07-18T17:37:22.000Z</time>
      </trkpt>
      <trkpt lat="34.303738" lon="-117.432067">
        <ele>1386.000000</ele>
        <time>2020-07-18T17:37:23.000Z</time>
      </trkpt>
      <trkpt lat="34.303721" lon="-117.432073">
        <ele>1387.000000</ele>
        <time>2020-07-18T17:37:28.000Z</time>
      </trkpt>
      <trkpt lat="34.303636" lon="-117.432097">
        <ele>1386.796875</ele>
        <time>2020-07-18T17:37:29.000Z</time>
      </trkpt>
      <trkpt lat="34.30352" lon="-117.432139">
        <ele>1389.398438</ele>
        <time>2020-07-18T17:37:36.000Z</time>
      </trkpt>
      <trkpt lat="34.303503" lon="-117.432139">
        <ele>1389.898438</ele>
        <time>2020-07-18T17:37:41.000Z</time>
      </trkpt>
      <trkpt lat="34.303427" lon="-117.432166">
        <ele>1390.296875</ele>
        <time>2020-07-18T17:37:42.000Z</time>
      </trkpt>
      <trkpt lat="34.303412" lon="-117.432174">
        <ele>1391.199219</ele>
        <time>2020-07-18T17:37:47.000Z</time>
      </trkpt>
      <trkpt lat="34.30334" lon="-117.432227">
        <ele>1391.199219</ele>
        <time>2020-07-18T17:37:48.000Z</time>
      </trkpt>
      <trkpt lat="34.303326" lon="-117.432242">
        <ele>1391.500000</ele>
        <time>2020-07-18T17:37:52.000Z</time>
      </trkpt>
      <trkpt lat="34.303268" lon="-117.432311">
        <ele>1391.796875</ele>
        <time>2020-07-18T17:37:53.000Z</time>
      </trkpt>
      <trkpt lat="34.303256" lon="-117.432328">
        <ele>1393.597656</ele>
        <time>2020-07-18T17:37:58.000Z</time>
      </trkpt>
      <trkpt lat="34.303198" lon="-117.432416">
        <ele>1394.097656</ele>
        <time>2020-07-18T17:38:00.000Z</time>
      </trkpt>
      <trkpt lat="34.303145" lon="-117.432506">
        <ele>1395.699219</ele>
        <time>2020-07-18T17:38:06.000Z</time>
      </trkpt>
      <trkpt lat="34.303134" lon="-117.432519">
        <ele>1396.500000</ele>
        <time>2020-07-18T17:38:11.000Z</time>
      </trkpt>
      <trkpt lat="34.303065" lon="-117.432604">
        <ele>1396.898438</ele>
        <time>2020-07-18T17:38:13.000Z</time>
      </trkpt>
      <trkpt lat="34.303057" lon="-117.432621">
        <ele>1397.699219</ele>
        <time>2020-07-18T17:38:19.000Z</time>
      </trkpt>
      <trkpt lat="34.303001" lon="-117.4327">
        <ele>1397.699219</ele>
        <time>2020-07-18T17:38:20.000Z</time>
      </trkpt>
      <trkpt lat="34.302991" lon="-117.432712">
        <ele>1398.199219</ele>
        <time>2020-07-18T17:38:25.000Z</time>
      </trkpt>
      <trkpt lat="34.302863" lon="-117.432872">
        <ele>1398.898438</ele>
        <time>2020-07-18T17:38:33.000Z</time>
      </trkpt>
      <trkpt lat="34.302787" lon="-117.432985">
        <ele>1400.699219</ele>
        <time>2020-07-18T17:38:41.000Z</time>
      </trkpt>
      <trkpt lat="34.302774" lon="-117.433">
        <ele>1402.296875</ele>
        <time>2020-07-18T17:38:46.000Z</time>
      </trkpt>
      <trkpt lat="34.302697" lon="-117.433058">
        <ele>1402.398438</ele>
        <time>2020-07-18T17:38:47.000Z</time>
      </trkpt>
      <trkpt lat="34.302675" lon="-117.433063">
        <ele>1402.597656</ele>
        <time>2020-07-18T17:38:50.000Z</time>
      </trkpt>
      <trkpt lat="34.302601" lon="-117.433059">
        <ele>1402.597656</ele>
        <time>2020-07-18T17:38:51.000Z</time>
      </trkpt>
      <trkpt lat="34.302502" lon="-117.433066">
        <ele>1403.199219</ele>
        <time>2020-07-18T17:38:57.000Z</time>
      </trkpt>
      <trkpt lat="34.302478" lon="-117.43307">
        <ele>1403.500000</ele>
        <time>2020-07-18T17:39:00.000Z</time>
      </trkpt>
      <trkpt lat="34.302411" lon="-117.433088">
        <ele>1403.500000</ele>
        <time>2020-07-18T17:39:02.000Z</time>
      </trkpt>
      <trkpt lat="34.302373" lon="-117.43311">
        <ele>1403.500000</ele>
        <time>2020-07-18T17:39:05.000Z</time>
      </trkpt>
      <trkpt lat="34.302331" lon="-117.433153">
        <ele>1404.000000</ele>
        <time>2020-07-18T17:39:07.000Z</time>
      </trkpt>
      <trkpt lat="34.302306" lon="-117.433194">
        <ele>1404.796875</ele>
        <time>2020-07-18T17:39:10.000Z</time>
      </trkpt>
      <trkpt lat="34.302275" lon="-117.433251">
        <ele>1405.796875</ele>
        <time>2020-07-18T17:39:12.000Z</time>
      </trkpt>
      <trkpt lat="34.302219" lon="-117.433348">
        <ele>1407.296875</ele>
        <time>2020-07-18T17:39:16.000Z</time>
      </trkpt>
      <trkpt lat="34.302205" lon="-117.433367">
        <ele>1408.296875</ele>
        <time>2020-07-18T17:39:20.000Z</time>
      </trkpt>
      <trkpt lat="34.302136" lon="-117.433424">
        <ele>1408.597656</ele>
        <time>2020-07-18T17:39:21.000Z</time>
      </trkpt>
      <trkpt lat="34.302114" lon="-117.433432">
        <ele>1409.199219</ele>
        <time>2020-07-18T17:39:24.000Z</time>
      </trkpt>
      <trkpt lat="34.302046" lon="-117.433445">
        <ele>1409.199219</ele>
        <time>2020-07-18T17:39:26.000Z</time>
      </trkpt>
      <trkpt lat="34.301744" lon="-117.433502">
        <ele>1410.097656</ele>
        <time>2020-07-18T17:39:38.000Z</time>
      </trkpt>
      <trkpt lat="34.301721" lon="-117.433515">
        <ele>1410.898438</ele>
        <time>2020-07-18T17:39:41.000Z</time>
      </trkpt>
      <trkpt lat="34.301653" lon="-117.433559">
        <ele>1410.898438</ele>
        <time>2020-07-18T17:39:42.000Z</time>
      </trkpt>
      <trkpt lat="34.301635" lon="-117.43358">
        <ele>1410.699219</ele>
        <time>2020-07-18T17:39:45.000Z</time>
      </trkpt>
      <trkpt lat="34.301591" lon="-117.433646">
        <ele>1410.097656</ele>
        <time>2020-07-18T17:39:47.000Z</time>
      </trkpt>
      <trkpt lat="34.301575" lon="-117.433673">
        <ele>1409.597656</ele>
        <time>2020-07-18T17:39:53.000Z</time>
      </trkpt>
      <trkpt lat="34.301554" lon="-117.433755">
        <ele>1409.597656</ele>
        <time>2020-07-18T17:39:55.000Z</time>
      </trkpt>
      <trkpt lat="34.301548" lon="-117.433801">
        <ele>1410.000000</ele>
        <time>2020-07-18T17:39:58.000Z</time>
      </trkpt>
      <trkpt lat="34.301559" lon="-117.433873">
        <ele>1410.500000</ele>
        <time>2020-07-18T17:40:00.000Z</time>
      </trkpt>
      <trkpt lat="34.301583" lon="-117.433991">
        <ele>1411.500000</ele>
        <time>2020-07-18T17:40:04.000Z</time>
      </trkpt>
      <trkpt lat="34.301585" lon="-117.434013">
        <ele>1412.199219</ele>
        <time>2020-07-18T17:40:08.000Z</time>
      </trkpt>
      <trkpt lat="34.301573" lon="-117.434117">
        <ele>1412.199219</ele>
        <time>2020-07-18T17:40:09.000Z</time>
      </trkpt>
      <trkpt lat="34.301566" lon="-117.43414">
        <ele>1412.796875</ele>
        <time>2020-07-18T17:40:13.000Z</time>
      </trkpt>
      <trkpt lat="34.301509" lon="-117.434209">
        <ele>1412.699219</ele>
        <time>2020-07-18T17:40:14.000Z</time>
      </trkpt>
      <trkpt lat="34.301488" lon="-117.434219">
        <ele>1413.000000</ele>
        <time>2020-07-18T17:40:18.000Z</time>
      </trkpt>
      <trkpt lat="34.301408" lon="-117.434211">
        <ele>1413.296875</ele>
        <time>2020-07-18T17:40:19.000Z</time>
      </trkpt>
      <trkpt lat="34.301392" lon="-117.434202">
        <ele>1414.398438</ele>
        <time>2020-07-18T17:40:24.000Z</time>
      </trkpt>
      <trkpt lat="34.301331" lon="-117.43412">
        <ele>1414.699219</ele>
        <time>2020-07-18T17:40:25.000Z</time>
      </trkpt>
      <trkpt lat="34.301321" lon="-117.434096">
        <ele>1415.398438</ele>
        <time>2020-07-18T17:40:28.000Z</time>
      </trkpt>
      <trkpt lat="34.30129" lon="-117.434021">
        <ele>1415.796875</ele>
        <time>2020-07-18T17:40:29.000Z</time>
      </trkpt>
      <trkpt lat="34.301285" lon="-117.433996">
        <ele>1416.898438</ele>
        <time>2020-07-18T17:40:33.000Z</time>
      </trkpt>
      <trkpt lat="34.301261" lon="-117.433762">
        <ele>1417.898438</ele>
        <time>2020-07-18T17:40:38.000Z</time>
      </trkpt>
      <trkpt lat="34.30126" lon="-117.433734">
        <ele>1418.500000</ele>
        <time>2020-07-18T17:40:41.000Z</time>
      </trkpt>
      <trkpt lat="34.301267" lon="-117.433652">
        <ele>1418.296875</ele>
        <time>2020-07-18T17:40:43.000Z</time>
      </trkpt>
      <trkpt lat="34.301282" lon="-117.433617">
        <ele>1418.500000</ele>
        <time>2020-07-18T17:40:48.000Z</time>
      </trkpt>
      <trkpt lat="34.301326" lon="-117.433562">
        <ele>1418.898438</ele>
        <time>2020-07-18T17:40:50.000Z</time>
      </trkpt>
      <trkpt lat="34.301369" lon="-117.433521">
        <ele>1419.296875</ele>
        <time>2020-07-18T17:40:52.000Z</time>
      </trkpt>
      <trkpt lat="34.301421" lon="-117.433485">
        <ele>1419.500000</ele>
        <time>2020-07-18T17:40:53.000Z</time>
      </trkpt>
      <trkpt lat="34.301781" lon="-117.433229">
        <ele>1421.796875</ele>
        <time>2020-07-18T17:41:10.000Z</time>
      </trkpt>
      <trkpt lat="34.301796" lon="-117.43321">
        <ele>1423.199219</ele>
        <time>2020-07-18T17:41:14.000Z</time>
      </trkpt>
      <trkpt lat="34.301821" lon="-117.433107">
        <ele>1423.500000</ele>
        <time>2020-07-18T17:41:15.000Z</time>
      </trkpt>
      <trkpt lat="34.30182" lon="-117.433082">
        <ele>1424.398438</ele>
        <time>2020-07-18T17:41:20.000Z</time>
      </trkpt>
      <trkpt lat="34.301782" lon="-117.432996">
        <ele>1424.597656</ele>
        <time>2020-07-18T17:41:21.000Z</time>
      </trkpt>
      <trkpt lat="34.301772" lon="-117.432985">
        <ele>1425.199219</ele>
        <time>2020-07-18T17:41:28.000Z</time>
      </trkpt>
      <trkpt lat="34.301689" lon="-117.432953">
        <ele>1425.398438</ele>
        <time>2020-07-18T17:41:29.000Z</time>
      </trkpt>
      <trkpt lat="34.301679" lon="-117.432956">
        <ele>1427.097656</ele>
        <time>2020-07-18T17:41:35.000Z</time>
      </trkpt>
      <trkpt lat="34.301601" lon="-117.43302">
        <ele>1426.898438</ele>
        <time>2020-07-18T17:41:36.000Z</time>
      </trkpt>
      <trkpt lat="34.301588" lon="-117.433038">
        <ele>1427.097656</ele>
        <time>2020-07-18T17:41:42.000Z</time>
      </trkpt>
      <trkpt lat="34.301498" lon="-117.433165">
        <ele>1427.398438</ele>
        <time>2020-07-18T17:41:50.000Z</time>
      </trkpt>
      <trkpt lat="34.301487" lon="-117.433176">
        <ele>1428.199219</ele>
        <time>2020-07-18T17:41:55.000Z</time>
      </trkpt>
      <trkpt lat="34.301415" lon="-117.433218">
        <ele>1428.500000</ele>
        <time>2020-07-18T17:41:56.000Z</time>
      </trkpt>
      <trkpt lat="34.301396" lon="-117.43322">
        <ele>1428.898438</ele>
        <time>2020-07-18T17:42:00.000Z</time>
      </trkpt>
      <trkpt lat="34.301322" lon="-117.433211">
        <ele>1429.097656</ele>
        <time>2020-07-18T17:42:01.000Z</time>
      </trkpt>
      <trkpt lat="34.301305" lon="-117.433207">
        <ele>1429.500000</ele>
        <time>2020-07-18T17:42:05.000Z</time>
      </trkpt>
      <trkpt lat="34.301136" lon="-117.433176">
        <ele>1431.296875</ele>
        <time>2020-07-18T17:42:11.000Z</time>
      </trkpt>
      <trkpt lat="34.301117" lon="-117.433179">
        <ele>1431.898438</ele>
        <time>2020-07-18T17:42:15.000Z</time>
      </trkpt>
      <trkpt lat="34.301047" lon="-117.433212">
        <ele>1431.898438</ele>
        <time>2020-07-18T17:42:16.000Z</time>
      </trkpt>
      <trkpt lat="34.30103" lon="-117.433229">
        <ele>1432.097656</ele>
        <time>2020-07-18T17:42:20.000Z</time>
      </trkpt>
      <trkpt lat="34.30097" lon="-117.433297">
        <ele>1432.296875</ele>
        <time>2020-07-18T17:42:21.000Z</time>
      </trkpt>
      <trkpt lat="34.30096" lon="-117.433314">
        <ele>1432.398438</ele>
        <time>2020-07-18T17:42:25.000Z</time>
      </trkpt>
      <trkpt lat="34.300854" lon="-117.433511">
        <ele>1433.699219</ele>
        <time>2020-07-18T17:42:32.000Z</time>
      </trkpt>
      <trkpt lat="34.300842" lon="-117.433525">
        <ele>1434.296875</ele>
        <time>2020-07-18T17:42:36.000Z</time>
      </trkpt>
      <trkpt lat="34.300785" lon="-117.433586">
        <ele>1434.398438</ele>
        <time>2020-07-18T17:42:37.000Z</time>
      </trkpt>
      <trkpt lat="34.300769" lon="-117.433599">
        <ele>1435.597656</ele>
        <time>2020-07-18T17:42:41.000Z</time>
      </trkpt>
      <trkpt lat="34.300697" lon="-117.433643">
        <ele>1435.597656</ele>
        <time>2020-07-18T17:42:42.000Z</time>
      </trkpt>
      <trkpt lat="34.300678" lon="-117.43365">
        <ele>1436.000000</ele>
        <time>2020-07-18T17:42:46.000Z</time>
      </trkpt>
      <trkpt lat="34.30049" lon="-117.433708">
        <ele>1438.000000</ele>
        <time>2020-07-18T17:42:52.000Z</time>
      </trkpt>
      <trkpt lat="34.300466" lon="-117.43371">
        <ele>1438.597656</ele>
        <time>2020-07-18T17:42:55.000Z</time>
      </trkpt>
      <trkpt lat="34.300353" lon="-117.433701">
        <ele>1439.699219</ele>
        <time>2020-07-18T17:42:58.000Z</time>
      </trkpt>
      <trkpt lat="34.300331" lon="-117.433698">
        <ele>1440.898438</ele>
        <time>2020-07-18T17:43:01.000Z</time>
      </trkpt>
      <trkpt lat="34.300263" lon="-117.433682">
        <ele>1441.199219</ele>
        <time>2020-07-18T17:43:02.000Z</time>
      </trkpt>
      <trkpt lat="34.300241" lon="-117.433672">
        <ele>1441.500000</ele>
        <time>2020-07-18T17:43:06.000Z</time>
      </trkpt>
      <trkpt lat="34.300162" lon="-117.433631">
        <ele>1441.699219</ele>
        <time>2020-07-18T17:43:07.000Z</time>
      </trkpt>
      <trkpt lat="34.300142" lon="-117.433615">
        <ele>1442.898438</ele>
        <time>2020-07-18T17:43:10.000Z</time>
      </trkpt>
      <trkpt lat="34.300084" lon="-117.43356">
        <ele>1443.296875</ele>
        <time>2020-07-18T17:43:11.000Z</time>
      </trkpt>
      <trkpt lat="34.300067" lon="-117.43354">
        <ele>1444.296875</ele>
        <time>2020-07-18T17:43:14.000Z</time>
      </trkpt>
      <trkpt lat="34.300022" lon="-117.433473">
        <ele>1444.597656</ele>
        <time>2020-07-18T17:43:15.000Z</time>
      </trkpt>
      <trkpt lat="34.30001" lon="-117.43345">
        <ele>1445.500000</ele>
        <time>2020-07-18T17:43:19.000Z</time>
      </trkpt>
      <trkpt lat="34.299971" lon="-117.433357">
        <ele>1445.699219</ele>
        <time>2020-07-18T17:43:20.000Z</time>
      </trkpt>
      <trkpt lat="34.299924" lon="-117.433226">
        <ele>1448.796875</ele>
        <time>2020-07-18T17:43:25.000Z</time>
      </trkpt>
      <trkpt lat="34.299916" lon="-117.433196">
        <ele>1449.699219</ele>
        <time>2020-07-18T17:43:28.000Z</time>
      </trkpt>
      <trkpt lat="34.299894" lon="-117.433078">
        <ele>1450.796875</ele>
        <time>2020-07-18T17:43:35.000Z</time>
      </trkpt>
      <trkpt lat="34.299892" lon="-117.433054">
        <ele>1451.500000</ele>
        <time>2020-07-18T17:43:38.000Z</time>
      </trkpt>
      <trkpt lat="34.299891" lon="-117.432964">
        <ele>1451.898438</ele>
        <time>2020-07-18T17:43:39.000Z</time>
      </trkpt>
      <trkpt lat="34.299896" lon="-117.432934">
        <ele>1453.398438</ele>
        <time>2020-07-18T17:43:43.000Z</time>
      </trkpt>
      <trkpt lat="34.299938" lon="-117.432848">
        <ele>1453.699219</ele>
        <time>2020-07-18T17:43:44.000Z</time>
      </trkpt>
      <trkpt lat="34.299952" lon="-117.432825">
        <ele>1453.398438</ele>
        <time>2020-07-18T17:43:48.000Z</time>
      </trkpt>
      <trkpt lat="34.299978" lon="-117.432724">
        <ele>1453.597656</ele>
        <time>2020-07-18T17:43:49.000Z</time>
      </trkpt>
      <trkpt lat="34.299978" lon="-117.432693">
        <ele>1454.097656</ele>
        <time>2020-07-18T17:43:52.000Z</time>
      </trkpt>
      <trkpt lat="34.29997" lon="-117.432606">
        <ele>1454.398438</ele>
        <time>2020-07-18T17:43:53.000Z</time>
      </trkpt>
      <trkpt lat="34.299965" lon="-117.43258">
        <ele>1455.500000</ele>
        <time>2020-07-18T17:43:57.000Z</time>
      </trkpt>
      <trkpt lat="34.299924" lon="-117.432339">
        <ele>1456.097656</ele>
        <time>2020-07-18T17:44:03.000Z</time>
      </trkpt>
      <trkpt lat="34.299923" lon="-117.432311">
        <ele>1456.597656</ele>
        <time>2020-07-18T17:44:06.000Z</time>
      </trkpt>
      <trkpt lat="34.299932" lon="-117.432227">
        <ele>1456.796875</ele>
        <time>2020-07-18T17:44:07.000Z</time>
      </trkpt>
      <trkpt lat="34.299939" lon="-117.432201">
        <ele>1458.097656</ele>
        <time>2020-07-18T17:44:11.000Z</time>
      </trkpt>
      <trkpt lat="34.300001" lon="-117.431985">
        <ele>1459.398438</ele>
        <time>2020-07-18T17:44:16.000Z</time>
      </trkpt>
      <trkpt lat="34.300004" lon="-117.431957">
        <ele>1460.199219</ele>
        <time>2020-07-18T17:44:19.000Z</time>
      </trkpt>
      <trkpt lat="34.300012" lon="-117.431837">
        <ele>1460.796875</ele>
        <time>2020-07-18T17:44:21.000Z</time>
      </trkpt>
      <trkpt lat="34.300012" lon="-117.431807">
        <ele>1461.296875</ele>
        <time>2020-07-18T17:44:24.000Z</time>
      </trkpt>
      <trkpt lat="34.300004" lon="-117.43172">
        <ele>1461.597656</ele>
        <time>2020-07-18T17:44:25.000Z</time>
      </trkpt>
      <trkpt lat="34.299992" lon="-117.431597">
        <ele>1463.296875</ele>
        <time>2020-07-18T17:44:38.000Z</time>
      </trkpt>
      <trkpt lat="34.299996" lon="-117.431576">
        <ele>1463.898438</ele>
        <time>2020-07-18T17:44:42.000Z</time>
      </trkpt>
      <trkpt lat="34.30003" lon="-117.43149">
        <ele>1464.000000</ele>
        <time>2020-07-18T17:44:43.000Z</time>
      </trkpt>
      <trkpt lat="34.30004" lon="-117.431466">
        <ele>1464.597656</ele>
        <time>2020-07-18T17:44:46.000Z</time>
      </trkpt>
      <trkpt lat="34.300102" lon="-117.431272">
        <ele>1465.097656</ele>
        <time>2020-07-18T17:44:52.000Z</time>
      </trkpt>
      <trkpt lat="34.300107" lon="-117.431249">
        <ele>1466.296875</ele>
        <time>2020-07-18T17:44:55.000Z</time>
      </trkpt>
      <trkpt lat="34.300134" lon="-117.431169">
        <ele>1466.699219</ele>
        <time>2020-07-18T17:44:56.000Z</time>
      </trkpt>
      <trkpt lat="34.30018" lon="-117.431039">
        <ele>1467.796875</ele>
        <time>2020-07-18T17:45:01.000Z</time>
      </trkpt>
      <trkpt lat="34.300184" lon="-117.431016">
        <ele>1468.097656</ele>
        <time>2020-07-18T17:45:05.000Z</time>
      </trkpt>
      <trkpt lat="34.300232" lon="-117.430679">
        <ele>1469.597656</ele>
        <time>2020-07-18T17:45:14.000Z</time>
      </trkpt>
      <trkpt lat="34.300229" lon="-117.430646">
        <ele>1470.296875</ele>
        <time>2020-07-18T17:45:17.000Z</time>
      </trkpt>
      <trkpt lat="34.300211" lon="-117.430552">
        <ele>1470.296875</ele>
        <time>2020-07-18T17:45:18.000Z</time>
      </trkpt>
      <trkpt lat="34.300202" lon="-117.430522">
        <ele>1471.296875</ele>
        <time>2020-07-18T17:45:21.000Z</time>
      </trkpt>
      <trkpt lat="34.300175" lon="-117.430428">
        <ele>1471.597656</ele>
        <time>2020-07-18T17:45:22.000Z</time>
      </trkpt>
      <trkpt lat="34.300169" lon="-117.430397">
        <ele>1472.796875</ele>
        <time>2020-07-18T17:45:25.000Z</time>
      </trkpt>
      <trkpt lat="34.300145" lon="-117.430301">
        <ele>1473.199219</ele>
        <time>2020-07-18T17:45:26.000Z</time>
      </trkpt>
      <trkpt lat="34.300134" lon="-117.430272">
        <ele>1474.000000</ele>
        <time>2020-07-18T17:45:29.000Z</time>
      </trkpt>
      <trkpt lat="34.300089" lon="-117.430186">
        <ele>1474.097656</ele>
        <time>2020-07-18T17:45:30.000Z</time>
      </trkpt>
      <trkpt lat="34.300069" lon="-117.430161">
        <ele>1475.097656</ele>
        <time>2020-07-18T17:45:33.000Z</time>
      </trkpt>
      <trkpt lat="34.30001" lon="-117.430097">
        <ele>1475.000000</ele>
        <time>2020-07-18T17:45:34.000Z</time>
      </trkpt>
      <trkpt lat="34.299916" lon="-117.42999">
        <ele>1476.699219</ele>
        <time>2020-07-18T17:45:39.000Z</time>
      </trkpt>
      <trkpt lat="34.299898" lon="-117.429967">
        <ele>1478.097656</ele>
        <time>2020-07-18T17:45:42.000Z</time>
      </trkpt>
      <trkpt lat="34.299855" lon="-117.429882">
        <ele>1478.398438</ele>
        <time>2020-07-18T17:45:43.000Z</time>
      </trkpt>
      <trkpt lat="34.299844" lon="-117.429853">
        <ele>1479.296875</ele>
        <time>2020-07-18T17:45:46.000Z</time>
      </trkpt>
      <trkpt lat="34.299829" lon="-117.429763">
        <ele>1479.699219</ele>
        <time>2020-07-18T17:45:47.000Z</time>
      </trkpt>
      <trkpt lat="34.299826" lon="-117.42973">
        <ele>1481.000000</ele>
        <time>2020-07-18T17:45:50.000Z</time>
      </trkpt>
      <trkpt lat="34.299836" lon="-117.429626">
        <ele>1480.796875</ele>
        <time>2020-07-18T17:45:51.000Z</time>
      </trkpt>
      <trkpt lat="34.299845" lon="-117.429592">
        <ele>1481.699219</ele>
        <time>2020-07-18T17:45:54.000Z</time>
      </trkpt>
      <trkpt lat="34.299866" lon="-117.429488">
        <ele>1482.000000</ele>
        <time>2020-07-18T17:45:55.000Z</time>
      </trkpt>
      <trkpt lat="34.299866" lon="-117.429452">
        <ele>1482.199219</ele>
        <time>2020-07-18T17:45:58.000Z</time>
      </trkpt>
      <trkpt lat="34.29989" lon="-117.429103">
        <ele>1484.796875</ele>
        <time>2020-07-18T17:46:06.000Z</time>
      </trkpt>
      <trkpt lat="34.299896" lon="-117.42907">
        <ele>1485.597656</ele>
        <time>2020-07-18T17:46:09.000Z</time>
      </trkpt>
      <trkpt lat="34.299915" lon="-117.42899">
        <ele>1485.796875</ele>
        <time>2020-07-18T17:46:10.000Z</time>
      </trkpt>
      <trkpt lat="34.299925" lon="-117.428965">
        <ele>1487.000000</ele>
        <time>2020-07-18T17:46:13.000Z</time>
      </trkpt>
      <trkpt lat="34.299968" lon="-117.428895">
        <ele>1488.000000</ele>
        <time>2020-07-18T17:46:14.000Z</time>
      </trkpt>
      <trkpt lat="34.299993" lon="-117.428878">
        <ele>1489.097656</ele>
        <time>2020-07-18T17:46:17.000Z</time>
      </trkpt>
      <trkpt lat="34.300057" lon="-117.428834">
        <ele>1489.199219</ele>
        <time>2020-07-18T17:46:19.000Z</time>
      </trkpt>
      <trkpt lat="34.300083" lon="-117.428821">
        <ele>1489.097656</ele>
        <time>2020-07-18T17:46:23.000Z</time>
      </trkpt>
      <trkpt lat="34.300157" lon="-117.428806">
        <ele>1489.000000</ele>
        <time>2020-07-18T17:46:24.000Z</time>
      </trkpt>
      <trkpt lat="34.300177" lon="-117.428806">
        <ele>1490.000000</ele>
        <time>2020-07-18T17:46:29.000Z</time>
      </trkpt>
      <trkpt lat="34.30025" lon="-117.428828">
        <ele>1489.898438</ele>
        <time>2020-07-18T17:46:30.000Z</time>
      </trkpt>
      <trkpt lat="34.30027" lon="-117.428837">
        <ele>1490.898438</ele>
        <time>2020-07-18T17:46:34.000Z</time>
      </trkpt>
      <trkpt lat="34.3004" lon="-117.428898">
        <ele>1491.597656</ele>
        <time>2020-07-18T17:46:37.000Z</time>
      </trkpt>
      <trkpt lat="34.30042" lon="-117.428906">
        <ele>1492.199219</ele>
        <time>2020-07-18T17:46:40.000Z</time>
      </trkpt>
      <trkpt lat="34.300495" lon="-117.428927">
        <ele>1491.796875</ele>
        <time>2020-07-18T17:46:41.000Z</time>
      </trkpt>
      <trkpt lat="34.300522" lon="-117.428928">
        <ele>1491.597656</ele>
        <time>2020-07-18T17:46:44.000Z</time>
      </trkpt>
      <trkpt lat="34.300598" lon="-117.428916">
        <ele>1491.199219</ele>
        <time>2020-07-18T17:46:45.000Z</time>
      </trkpt>
      <trkpt lat="34.300624" lon="-117.428901">
        <ele>1491.199219</ele>
        <time>2020-07-18T17:46:48.000Z</time>
      </trkpt>
      <trkpt lat="34.300666" lon="-117.428819">
        <ele>1491.296875</ele>
        <time>2020-07-18T17:46:49.000Z</time>
      </trkpt>
      <trkpt lat="34.30067" lon="-117.428787">
        <ele>1491.796875</ele>
        <time>2020-07-18T17:46:52.000Z</time>
      </trkpt>
      <trkpt lat="34.300658" lon="-117.428684">
        <ele>1492.398438</ele>
        <time>2020-07-18T17:46:53.000Z</time>
      </trkpt>
      <trkpt lat="34.300649" lon="-117.428651">
        <ele>1493.097656</ele>
        <time>2020-07-18T17:46:56.000Z</time>
      </trkpt>
      <trkpt lat="34.300617" lon="-117.428553">
        <ele>1493.398438</ele>
        <time>2020-07-18T17:46:57.000Z</time>
      </trkpt>
      <trkpt lat="34.300605" lon="-117.428525">
        <ele>1494.398438</ele>
        <time>2020-07-18T17:47:04.000Z</time>
      </trkpt>
      <trkpt lat="34.300539" lon="-117.428411">
        <ele>1494.898438</ele>
        <time>2020-07-18T17:47:07.000Z</time>
      </trkpt>
      <trkpt lat="34.300525" lon="-117.428391">
        <ele>1495.500000</ele>
        <time>2020-07-18T17:47:10.000Z</time>
      </trkpt>
      <trkpt lat="34.300453" lon="-117.428302">
        <ele>1495.699219</ele>
        <time>2020-07-18T17:47:12.000Z</time>
      </trkpt>
      <trkpt lat="34.300432" lon="-117.428281">
        <ele>1495.898438</ele>
        <time>2020-07-18T17:47:15.000Z</time>
      </trkpt>
      <trkpt lat="34.300373" lon="-117.428236">
        <ele>1496.296875</ele>
        <time>2020-07-18T17:47:16.000Z</time>
      </trkpt>
      <trkpt lat="34.300353" lon="-117.428225">
        <ele>1497.199219</ele>
        <time>2020-07-18T17:47:19.000Z</time>
      </trkpt>
      <trkpt lat="34.300274" lon="-117.428196">
        <ele>1497.296875</ele>
        <time>2020-07-18T17:47:20.000Z</time>
      </trkpt>
      <trkpt lat="34.300079" lon="-117.428129">
        <ele>1498.398438</ele>
        <time>2020-07-18T17:47:27.000Z</time>
      </trkpt>
      <trkpt lat="34.300054" lon="-117.428114">
        <ele>1498.898438</ele>
        <time>2020-07-18T17:47:30.000Z</time>
      </trkpt>
      <trkpt lat="34.299988" lon="-117.428063">
        <ele>1499.296875</ele>
        <time>2020-07-18T17:47:31.000Z</time>
      </trkpt>
      <trkpt lat="34.299968" lon="-117.428043">
        <ele>1499.898438</ele>
        <time>2020-07-18T17:47:34.000Z</time>
      </trkpt>
      <trkpt lat="34.299823" lon="-117.4279">
        <ele>1501.199219</ele>
        <time>2020-07-18T17:47:39.000Z</time>
      </trkpt>
      <trkpt lat="34.299802" lon="-117.427876">
        <ele>1502.097656</ele>
        <time>2020-07-18T17:47:42.000Z</time>
      </trkpt>
      <trkpt lat="34.299738" lon="-117.4278">
        <ele>1502.500000</ele>
        <time>2020-07-18T17:47:43.000Z</time>
      </trkpt>
      <trkpt lat="34.299715" lon="-117.427776">
        <ele>1504.296875</ele>
        <time>2020-07-18T17:47:46.000Z</time>
      </trkpt>
      <trkpt lat="34.29963" lon="-117.427678">
        <ele>1505.296875</ele>
        <time>2020-07-18T17:47:48.000Z</time>
      </trkpt>
      <trkpt lat="34.29961" lon="-117.427651">
        <ele>1507.296875</ele>
        <time>2020-07-18T17:47:50.000Z</time>
      </trkpt>
      <trkpt lat="34.299527" lon="-117.427543">
        <ele>1508.097656</ele>
        <time>2020-07-18T17:47:53.000Z</time>
      </trkpt>
      <trkpt lat="34.299503" lon="-117.427521">
        <ele>1508.398438</ele>
        <time>2020-07-18T17:47:56.000Z</time>
      </trkpt>
      <trkpt lat="34.299441" lon="-117.427456">
        <ele>1508.597656</ele>
        <time>2020-07-18T17:47:57.000Z</time>
      </trkpt>
      <trkpt lat="34.299425" lon="-117.427433">
        <ele>1508.796875</ele>
        <time>2020-07-18T17:48:01.000Z</time>
      </trkpt>
      <trkpt lat="34.299405" lon="-117.427337">
        <ele>1509.000000</ele>
        <time>2020-07-18T17:48:02.000Z</time>
      </trkpt>
      <trkpt lat="34.299407" lon="-117.427315">
        <ele>1509.796875</ele>
        <time>2020-07-18T17:48:06.000Z</time>
      </trkpt>
      <trkpt lat="34.299438" lon="-117.427227">
        <ele>1510.199219</ele>
        <time>2020-07-18T17:48:07.000Z</time>
      </trkpt>
      <trkpt lat="34.299456" lon="-117.427212">
        <ele>1511.500000</ele>
        <time>2020-07-18T17:48:10.000Z</time>
      </trkpt>
      <trkpt lat="34.299561" lon="-117.427092">
        <ele>1513.398438</ele>
        <time>2020-07-18T17:48:14.000Z</time>
      </trkpt>
      <trkpt lat="34.299627" lon="-117.427006">
        <ele>1514.898438</ele>
        <time>2020-07-18T17:48:18.000Z</time>
      </trkpt>
      <trkpt lat="34.299642" lon="-117.42698">
        <ele>1514.898438</ele>
        <time>2020-07-18T17:48:21.000Z</time>
      </trkpt>
      <trkpt lat="34.299673" lon="-117.426889">
        <ele>1515.097656</ele>
        <time>2020-07-18T17:48:22.000Z</time>
      </trkpt>
      <trkpt lat="34.299677" lon="-117.426858">
        <ele>1515.398438</ele>
        <time>2020-07-18T17:48:25.000Z</time>
      </trkpt>
      <trkpt lat="34.29968" lon="-117.426759">
        <ele>1515.398438</ele>
        <time>2020-07-18T17:48:26.000Z</time>
      </trkpt>
      <trkpt lat="34.299672" lon="-117.426725">
        <ele>1516.296875</ele>
        <time>2020-07-18T17:48:29.000Z</time>
      </trkpt>
      <trkpt lat="34.299648" lon="-117.426634">
        <ele>1516.597656</ele>
        <time>2020-07-18T17:48:30.000Z</time>
      </trkpt>
      <trkpt lat="34.299636" lon="-117.426608">
        <ele>1517.500000</ele>
        <time>2020-07-18T17:48:33.000Z</time>
      </trkpt>
      <trkpt lat="34.299584" lon="-117.426556">
        <ele>1517.597656</ele>
        <time>2020-07-18T17:48:34.000Z</time>
      </trkpt>
      <trkpt lat="34.299557" lon="-117.426548">
        <ele>1518.597656</ele>
        <time>2020-07-18T17:48:37.000Z</time>
      </trkpt>
      <trkpt lat="34.299473" lon="-117.426542">
        <ele>1518.796875</ele>
        <time>2020-07-18T17:48:38.000Z</time>
      </trkpt>
      <trkpt lat="34.299446" lon="-117.426546">
        <ele>1518.398438</ele>
        <time>2020-07-18T17:48:42.000Z</time>
      </trkpt>
      <trkpt lat="34.299243" lon="-117.426582">
        <ele>1519.500000</ele>
        <time>2020-07-18T17:48:49.000Z</time>
      </trkpt>
      <trkpt lat="34.29922" lon="-117.426582">
        <ele>1520.097656</ele>
        <time>2020-07-18T17:48:53.000Z</time>
      </trkpt>
      <trkpt lat="34.299139" lon="-117.426592">
        <ele>1520.296875</ele>
        <time>2020-07-18T17:48:54.000Z</time>
      </trkpt>
      <trkpt lat="34.299007" lon="-117.426604">
        <ele>1522.000000</ele>
        <time>2020-07-18T17:48:59.000Z</time>
      </trkpt>
      <trkpt lat="34.298986" lon="-117.426597">
        <ele>1522.796875</ele>
        <time>2020-07-18T17:49:03.000Z</time>
      </trkpt>
      <trkpt lat="34.298917" lon="-117.426549">
        <ele>1523.000000</ele>
        <time>2020-07-18T17:49:04.000Z</time>
      </trkpt>
      <trkpt lat="34.298903" lon="-117.426529">
        <ele>1523.699219</ele>
        <time>2020-07-18T17:49:07.000Z</time>
      </trkpt>
      <trkpt lat="34.298867" lon="-117.426457">
        <ele>1524.097656</ele>
        <time>2020-07-18T17:49:08.000Z</time>
      </trkpt>
      <trkpt lat="34.298857" lon="-117.426431">
        <ele>1524.398438</ele>
        <time>2020-07-18T17:49:12.000Z</time>
      </trkpt>
      <trkpt lat="34.298854" lon="-117.426339">
        <ele>1524.597656</ele>
        <time>2020-07-18T17:49:13.000Z</time>
      </trkpt>
      <trkpt lat="34.298857" lon="-117.426319">
        <ele>1525.097656</ele>
        <time>2020-07-18T17:49:17.000Z</time>
      </trkpt>
      <trkpt lat="34.298881" lon="-117.426219">
        <ele>1525.296875</ele>
        <time>2020-07-18T17:49:18.000Z</time>
      </trkpt>
      <trkpt lat="34.298887" lon="-117.426195">
        <ele>1525.500000</ele>
        <time>2020-07-18T17:49:22.000Z</time>
      </trkpt>
      <trkpt lat="34.298897" lon="-117.426094">
        <ele>1525.500000</ele>
        <time>2020-07-18T17:49:23.000Z</time>
      </trkpt>
      <trkpt lat="34.298896" lon="-117.426066">
        <ele>1526.296875</ele>
        <time>2020-07-18T17:49:26.000Z</time>
      </trkpt>
      <trkpt lat="34.298885" lon="-117.425979">
        <ele>1526.699219</ele>
        <time>2020-07-18T17:49:27.000Z</time>
      </trkpt>
      <trkpt lat="34.298877" lon="-117.425951">
        <ele>1527.796875</ele>
        <time>2020-07-18T17:49:30.000Z</time>
      </trkpt>
      <trkpt lat="34.298829" lon="-117.425867">
        <ele>1528.000000</ele>
        <time>2020-07-18T17:49:31.000Z</time>
      </trkpt>
      <trkpt lat="34.298807" lon="-117.425844">
        <ele>1528.796875</ele>
        <time>2020-07-18T17:49:34.000Z</time>
      </trkpt>
      <trkpt lat="34.298725" lon="-117.425799">
        <ele>1528.796875</ele>
        <time>2020-07-18T17:49:35.000Z</time>
      </trkpt>
      <trkpt lat="34.298696" lon="-117.425789">
        <ele>1529.500000</ele>
        <time>2020-07-18T17:49:38.000Z</time>
      </trkpt>
      <trkpt lat="34.29861" lon="-117.425777">
        <ele>1529.796875</ele>
        <time>2020-07-18T17:49:39.000Z</time>
      </trkpt>
      <trkpt lat="34.298583" lon="-117.425778">
        <ele>1529.597656</ele>
        <time>2020-07-18T17:49:42.000Z</time>
      </trkpt>
      <trkpt lat="34.298506" lon="-117.425797">
        <ele>1529.898438</ele>
        <time>2020-07-18T17:49:43.000Z</time>
      </trkpt>
      <trkpt lat="34.298477" lon="-117.42581">
        <ele>1530.398438</ele>
        <time>2020-07-18T17:49:45.000Z</time>
      </trkpt>
      <trkpt lat="34.298422" lon="-117.425848">
        <ele>1530.500000</ele>
        <time>2020-07-18T17:49:46.000Z</time>
      </trkpt>
      <trkpt lat="34.298397" lon="-117.425869">
        <ele>1530.199219</ele>
        <time>2020-07-18T17:49:49.000Z</time>
      </trkpt>
      <trkpt lat="34.298329" lon="-117.425907">
        <ele>1529.699219</ele>
        <time>2020-07-18T17:49:50.000Z</time>
      </trkpt>
      <trkpt lat="34.298307" lon="-117.425909">
        <ele>1528.796875</ele>
        <time>2020-07-18T17:49:53.000Z</time>
      </trkpt>
      <trkpt lat="34.298237" lon="-117.425885">
        <ele>1528.699219</ele>
        <time>2020-07-18T17:49:54.000Z</time>
      </trkpt>
      <trkpt lat="34.298216" lon="-117.42587">
        <ele>1529.796875</ele>
        <time>2020-07-18T17:49:57.000Z</time>
      </trkpt>
      <trkpt lat="34.298149" lon="-117.425796">
        <ele>1529.898438</ele>
        <time>2020-07-18T17:49:58.000Z</time>
      </trkpt>
      <trkpt lat="34.298133" lon="-117.425764">
        <ele>1530.000000</ele>
        <time>2020-07-18T17:50:00.000Z</time>
      </trkpt>
      <trkpt lat="34.298107" lon="-117.425693">
        <ele>1530.699219</ele>
        <time>2020-07-18T17:50:01.000Z</time>
      </trkpt>
      <trkpt lat="34.298079" lon="-117.425589">
        <ele>1531.500000</ele>
        <time>2020-07-18T17:50:04.000Z</time>
      </trkpt>
      <trkpt lat="34.298074" lon="-117.425555">
        <ele>1532.597656</ele>
        <time>2020-07-18T17:50:07.000Z</time>
      </trkpt>
      <trkpt lat="34.298078" lon="-117.425457">
        <ele>1533.000000</ele>
        <time>2020-07-18T17:50:08.000Z</time>
      </trkpt>
      <trkpt lat="34.298085" lon="-117.425432">
        <ele>1534.500000</ele>
        <time>2020-07-18T17:50:12.000Z</time>
      </trkpt>
      <trkpt lat="34.298104" lon="-117.425325">
        <ele>1535.000000</ele>
        <time>2020-07-18T17:50:13.000Z</time>
      </trkpt>
      <trkpt lat="34.298126" lon="-117.425163">
        <ele>1537.000000</ele>
        <time>2020-07-18T17:50:18.000Z</time>
      </trkpt>
      <trkpt lat="34.298128" lon="-117.425133">
        <ele>1538.097656</ele>
        <time>2020-07-18T17:50:21.000Z</time>
      </trkpt>
      <trkpt lat="34.298115" lon="-117.425044">
        <ele>1538.398438</ele>
        <time>2020-07-18T17:50:22.000Z</time>
      </trkpt>
      <trkpt lat="34.298102" lon="-117.425011">
        <ele>1539.097656</ele>
        <time>2020-07-18T17:50:24.000Z</time>
      </trkpt>
      <trkpt lat="34.298065" lon="-117.424952">
        <ele>1539.097656</ele>
        <time>2020-07-18T17:50:25.000Z</time>
      </trkpt>
      <trkpt lat="34.298044" lon="-117.424928">
        <ele>1539.398438</ele>
        <time>2020-07-18T17:50:28.000Z</time>
      </trkpt>
      <trkpt lat="34.297989" lon="-117.424879">
        <ele>1539.699219</ele>
        <time>2020-07-18T17:50:29.000Z</time>
      </trkpt>
      <trkpt lat="34.297968" lon="-117.424864">
        <ele>1540.296875</ele>
        <time>2020-07-18T17:50:32.000Z</time>
      </trkpt>
      <trkpt lat="34.297884" lon="-117.42481">
        <ele>1540.597656</ele>
        <time>2020-07-18T17:50:33.000Z</time>
      </trkpt>
      <trkpt lat="34.297849" lon="-117.424791">
        <ele>1540.796875</ele>
        <time>2020-07-18T17:50:35.000Z</time>
      </trkpt>
      <trkpt lat="34.297776" lon="-117.424758">
        <ele>1541.000000</ele>
        <time>2020-07-18T17:50:36.000Z</time>
      </trkpt>
      <trkpt lat="34.297739" lon="-117.424742">
        <ele>1542.000000</ele>
        <time>2020-07-18T17:50:38.000Z</time>
      </trkpt>
      <trkpt lat="34.297666" lon="-117.424703">
        <ele>1542.199219</ele>
        <time>2020-07-18T17:50:39.000Z</time>
      </trkpt>
      <trkpt lat="34.297531" lon="-117.42462">
        <ele>1543.296875</ele>
        <time>2020-07-18T17:50:43.000Z</time>
      </trkpt>
      <trkpt lat="34.297446" lon="-117.424557">
        <ele>1544.199219</ele>
        <time>2020-07-18T17:50:46.000Z</time>
      </trkpt>
      <trkpt lat="34.297421" lon="-117.42453">
        <ele>1544.796875</ele>
        <time>2020-07-18T17:50:48.000Z</time>
      </trkpt>
      <trkpt lat="34.297386" lon="-117.42446">
        <ele>1545.500000</ele>
        <time>2020-07-18T17:50:49.000Z</time>
      </trkpt>
      <trkpt lat="34.297378" lon="-117.42442">
        <ele>1546.199219</ele>
        <time>2020-07-18T17:50:51.000Z</time>
      </trkpt>
      <trkpt lat="34.297371" lon="-117.424349">
        <ele>1546.898438</ele>
        <time>2020-07-18T17:50:53.000Z</time>
      </trkpt>
      <trkpt lat="34.297357" lon="-117.424201">
        <ele>1548.000000</ele>
        <time>2020-07-18T17:50:56.000Z</time>
      </trkpt>
      <trkpt lat="34.29735" lon="-117.42416">
        <ele>1548.500000</ele>
        <time>2020-07-18T17:50:58.000Z</time>
      </trkpt>
      <trkpt lat="34.297329" lon="-117.424084">
        <ele>1549.097656</ele>
        <time>2020-07-18T17:50:59.000Z</time>
      </trkpt>
      <trkpt lat="34.2973" lon="-117.423972">
        <ele>1549.500000</ele>
        <time>2020-07-18T17:51:02.000Z</time>
      </trkpt>
      <trkpt lat="34.297299" lon="-117.423933">
        <ele>1550.296875</ele>
        <time>2020-07-18T17:51:05.000Z</time>
      </trkpt>
      <trkpt lat="34.297315" lon="-117.423833">
        <ele>1550.898438</ele>
        <time>2020-07-18T17:51:06.000Z</time>
      </trkpt>
      <trkpt lat="34.297329" lon="-117.4238">
        <ele>1551.898438</ele>
        <time>2020-07-18T17:51:09.000Z</time>
      </trkpt>
      <trkpt lat="34.297379" lon="-117.423726">
        <ele>1552.199219</ele>
        <time>2020-07-18T17:51:10.000Z</time>
      </trkpt>
      <trkpt lat="34.297395" lon="-117.423707">
        <ele>1552.699219</ele>
        <time>2020-07-18T17:51:13.000Z</time>
      </trkpt>
      <trkpt lat="34.297452" lon="-117.423655">
        <ele>1553.097656</ele>
        <time>2020-07-18T17:51:14.000Z</time>
      </trkpt>
      <trkpt lat="34.297478" lon="-117.423637">
        <ele>1553.199219</ele>
        <time>2020-07-18T17:51:17.000Z</time>
      </trkpt>
      <trkpt lat="34.297625" lon="-117.423538">
        <ele>1554.398438</ele>
        <time>2020-07-18T17:51:21.000Z</time>
      </trkpt>
      <trkpt lat="34.297652" lon="-117.423525">
        <ele>1554.000000</ele>
        <time>2020-07-18T17:51:24.000Z</time>
      </trkpt>
      <trkpt lat="34.297716" lon="-117.423447">
        <ele>1553.796875</ele>
        <time>2020-07-18T17:51:25.000Z</time>
      </trkpt>
      <trkpt lat="34.297726" lon="-117.423413">
        <ele>1553.500000</ele>
        <time>2020-07-18T17:51:28.000Z</time>
      </trkpt>
      <trkpt lat="34.297725" lon="-117.42331">
        <ele>1553.699219</ele>
        <time>2020-07-18T17:51:29.000Z</time>
      </trkpt>
      <trkpt lat="34.297717" lon="-117.423277">
        <ele>1553.898438</ele>
        <time>2020-07-18T17:51:32.000Z</time>
      </trkpt>
      <trkpt lat="34.297675" lon="-117.423179">
        <ele>1554.000000</ele>
        <time>2020-07-18T17:51:33.000Z</time>
      </trkpt>
      <trkpt lat="34.297657" lon="-117.423148">
        <ele>1554.296875</ele>
        <time>2020-07-18T17:51:36.000Z</time>
      </trkpt>
      <trkpt lat="34.297605" lon="-117.423082">
        <ele>1554.398438</ele>
        <time>2020-07-18T17:51:37.000Z</time>
      </trkpt>
      <trkpt lat="34.297591" lon="-117.423069">
        <ele>1554.597656</ele>
        <time>2020-07-18T17:51:42.000Z</time>
      </trkpt>
      <trkpt lat="34.297503" lon="-117.423017">
        <ele>1554.296875</ele>
        <time>2020-07-18T17:51:43.000Z</time>
      </trkpt>
      <trkpt lat="34.297473" lon="-117.423009">
        <ele>1555.000000</ele>
        <time>2020-07-18T17:51:45.000Z</time>
      </trkpt>
      <trkpt lat="34.297408" lon="-117.423012">
        <ele>1555.097656</ele>
        <time>2020-07-18T17:51:46.000Z</time>
      </trkpt>
      <trkpt lat="34.297376" lon="-117.423019">
        <ele>1555.199219</ele>
        <time>2020-07-18T17:51:48.000Z</time>
      </trkpt>
      <trkpt lat="34.297313" lon="-117.423051">
        <ele>1555.597656</ele>
        <time>2020-07-18T17:51:49.000Z</time>
      </trkpt>
      <trkpt lat="34.297285" lon="-117.423073">
        <ele>1555.398438</ele>
        <time>2020-07-18T17:51:51.000Z</time>
      </trkpt>
      <trkpt lat="34.297235" lon="-117.423127">
        <ele>1555.296875</ele>
        <time>2020-07-18T17:51:52.000Z</time>
      </trkpt>
      <trkpt lat="34.297158" lon="-117.423215">
        <ele>1554.699219</ele>
        <time>2020-07-18T17:51:55.000Z</time>
      </trkpt>
      <trkpt lat="34.297129" lon="-117.423242">
        <ele>1555.296875</ele>
        <time>2020-07-18T17:51:57.000Z</time>
      </trkpt>
      <trkpt lat="34.297068" lon="-117.423283">
        <ele>1555.699219</ele>
        <time>2020-07-18T17:51:58.000Z</time>
      </trkpt>
      <trkpt lat="34.297036" lon="-117.423294">
        <ele>1556.097656</ele>
        <time>2020-07-18T17:52:00.000Z</time>
      </trkpt>
      <trkpt lat="34.296972" lon="-117.423299">
        <ele>1557.898438</ele>
        <time>2020-07-18T17:52:01.000Z</time>
      </trkpt>
      <trkpt lat="34.296931" lon="-117.423283">
        <ele>1558.296875</ele>
        <time>2020-07-18T17:52:03.000Z</time>
      </trkpt>
      <trkpt lat="34.296868" lon="-117.423251">
        <ele>1558.296875</ele>
        <time>2020-07-18T17:52:04.000Z</time>
      </trkpt>
      <trkpt lat="34.296842" lon="-117.423233">
        <ele>1557.898438</ele>
        <time>2020-07-18T17:52:06.000Z</time>
      </trkpt>
      <trkpt lat="34.296791" lon="-117.423194">
        <ele>1558.199219</ele>
        <time>2020-07-18T17:52:07.000Z</time>
      </trkpt>
      <trkpt lat="34.296519" lon="-117.422963">
        <ele>1558.796875</ele>
        <time>2020-07-18T17:52:17.000Z</time>
      </trkpt>
      <trkpt lat="34.296356" lon="-117.422812">
        <ele>1559.097656</ele>
        <time>2020-07-18T17:52:24.000Z</time>
      </trkpt>
      <trkpt lat="34.296331" lon="-117.422796">
        <ele>1558.898438</ele>
        <time>2020-07-18T17:52:27.000Z</time>
      </trkpt>
      <trkpt lat="34.296229" lon="-117.422737">
        <ele>1558.699219</ele>
        <time>2020-07-18T17:52:29.000Z</time>
      </trkpt>
      <trkpt lat="34.296205" lon="-117.422717">
        <ele>1558.500000</ele>
        <time>2020-07-18T17:52:32.000Z</time>
      </trkpt>
      <trkpt lat="34.296096" lon="-117.42262">
        <ele>1558.199219</ele>
        <time>2020-07-18T17:52:36.000Z</time>
      </trkpt>
      <trkpt lat="34.296085" lon="-117.422606">
        <ele>1558.796875</ele>
        <time>2020-07-18T17:52:41.000Z</time>
      </trkpt>
      <trkpt lat="34.296029" lon="-117.422524">
        <ele>1558.796875</ele>
        <time>2020-07-18T17:52:42.000Z</time>
      </trkpt>
      <trkpt lat="34.296018" lon="-117.422502">
        <ele>1559.296875</ele>
        <time>2020-07-18T17:52:45.000Z</time>
      </trkpt>
      <trkpt lat="34.295954" lon="-117.422349">
        <ele>1560.597656</ele>
        <time>2020-07-18T17:52:49.000Z</time>
      </trkpt>
      <trkpt lat="34.295945" lon="-117.42232">
        <ele>1561.796875</ele>
        <time>2020-07-18T17:52:52.000Z</time>
      </trkpt>
      <trkpt lat="34.295917" lon="-117.422216">
        <ele>1562.296875</ele>
        <time>2020-07-18T17:52:53.000Z</time>
      </trkpt>
      <trkpt lat="34.29591" lon="-117.422179">
        <ele>1562.699219</ele>
        <time>2020-07-18T17:52:55.000Z</time>
      </trkpt>
      <trkpt lat="34.295899" lon="-117.422098">
        <ele>1562.597656</ele>
        <time>2020-07-18T17:52:56.000Z</time>
      </trkpt>
      <trkpt lat="34.295897" lon="-117.422055">
        <ele>1562.796875</ele>
        <time>2020-07-18T17:52:58.000Z</time>
      </trkpt>
      <trkpt lat="34.295901" lon="-117.421927">
        <ele>1563.500000</ele>
        <time>2020-07-18T17:53:00.000Z</time>
      </trkpt>
      <trkpt lat="34.295904" lon="-117.421887">
        <ele>1563.796875</ele>
        <time>2020-07-18T17:53:02.000Z</time>
      </trkpt>
      <trkpt lat="34.295917" lon="-117.421815">
        <ele>1564.000000</ele>
        <time>2020-07-18T17:53:03.000Z</time>
      </trkpt>
      <trkpt lat="34.295927" lon="-117.421781">
        <ele>1564.199219</ele>
        <time>2020-07-18T17:53:06.000Z</time>
      </trkpt>
      <trkpt lat="34.295955" lon="-117.421693">
        <ele>1564.199219</ele>
        <time>2020-07-18T17:53:07.000Z</time>
      </trkpt>
      <trkpt lat="34.295965" lon="-117.421666">
        <ele>1563.796875</ele>
        <time>2020-07-18T17:53:10.000Z</time>
      </trkpt>
      <trkpt lat="34.295999" lon="-117.421592">
        <ele>1564.000000</ele>
        <time>2020-07-18T17:53:11.000Z</time>
      </trkpt>
      <trkpt lat="34.296012" lon="-117.42157">
        <ele>1564.199219</ele>
        <time>2020-07-18T17:53:15.000Z</time>
      </trkpt>
      <trkpt lat="34.29611" lon="-117.421429">
        <ele>1564.898438</ele>
        <time>2020-07-18T17:53:19.000Z</time>
      </trkpt>
      <trkpt lat="34.296125" lon="-117.421412">
        <ele>1565.796875</ele>
        <time>2020-07-18T17:53:23.000Z</time>
      </trkpt>
      <trkpt lat="34.296172" lon="-117.421332">
        <ele>1566.000000</ele>
        <time>2020-07-18T17:53:24.000Z</time>
      </trkpt>
      <trkpt lat="34.296181" lon="-117.42131">
        <ele>1566.398438</ele>
        <time>2020-07-18T17:53:28.000Z</time>
      </trkpt>
      <trkpt lat="34.296394" lon="-117.420761">
        <ele>1569.699219</ele>
        <time>2020-07-18T17:53:45.000Z</time>
      </trkpt>
      <trkpt lat="34.296401" lon="-117.420737">
        <ele>1570.296875</ele>
        <time>2020-07-18T17:53:49.000Z</time>
      </trkpt>
      <trkpt lat="34.296408" lon="-117.420624">
        <ele>1570.398438</ele>
        <time>2020-07-18T17:53:50.000Z</time>
      </trkpt>
      <trkpt lat="34.296404" lon="-117.420593">
        <ele>1570.597656</ele>
        <time>2020-07-18T17:53:53.000Z</time>
      </trkpt>
      <trkpt lat="34.296381" lon="-117.420517">
        <ele>1570.699219</ele>
        <time>2020-07-18T17:53:55.000Z</time>
      </trkpt>
      <trkpt lat="34.296363" lon="-117.420491">
        <ele>1571.097656</ele>
        <time>2020-07-18T17:54:00.000Z</time>
      </trkpt>
      <trkpt lat="34.296314" lon="-117.420442">
        <ele>1571.398438</ele>
        <time>2020-07-18T17:54:02.000Z</time>
      </trkpt>
      <trkpt lat="34.296284" lon="-117.420424">
        <ele>1571.199219</ele>
        <time>2020-07-18T17:54:05.000Z</time>
      </trkpt>
      <trkpt lat="34.296186" lon="-117.420372">
        <ele>1571.199219</ele>
        <time>2020-07-18T17:54:07.000Z</time>
      </trkpt>
      <trkpt lat="34.296091" lon="-117.420324">
        <ele>1571.296875</ele>
        <time>2020-07-18T17:54:10.000Z</time>
      </trkpt>
      <trkpt lat="34.296061" lon="-117.420302">
        <ele>1571.296875</ele>
        <time>2020-07-18T17:54:12.000Z</time>
      </trkpt>
      <trkpt lat="34.296018" lon="-117.420253">
        <ele>1571.097656</ele>
        <time>2020-07-18T17:54:14.000Z</time>
      </trkpt>
      <trkpt lat="34.295947" lon="-117.420153">
        <ele>1570.898438</ele>
        <time>2020-07-18T17:54:17.000Z</time>
      </trkpt>
      <trkpt lat="34.295837" lon="-117.419988">
        <ele>1571.199219</ele>
        <time>2020-07-18T17:54:24.000Z</time>
      </trkpt>
      <trkpt lat="34.295825" lon="-117.419963">
        <ele>1571.199219</ele>
        <time>2020-07-18T17:54:27.000Z</time>
      </trkpt>
      <trkpt lat="34.295799" lon="-117.419878">
        <ele>1571.296875</ele>
        <time>2020-07-18T17:54:28.000Z</time>
      </trkpt>
      <trkpt lat="34.295739" lon="-117.419701">
        <ele>1571.597656</ele>
        <time>2020-07-18T17:54:33.000Z</time>
      </trkpt>
      <trkpt lat="34.295681" lon="-117.419584">
        <ele>1571.500000</ele>
        <time>2020-07-18T17:54:36.000Z</time>
      </trkpt>
      <trkpt lat="34.295613" lon="-117.41947">
        <ele>1571.000000</ele>
        <time>2020-07-18T17:54:39.000Z</time>
      </trkpt>
      <trkpt lat="34.295377" lon="-117.419131">
        <ele>1571.296875</ele>
        <time>2020-07-18T17:54:48.000Z</time>
      </trkpt>
      <trkpt lat="34.295351" lon="-117.419102">
        <ele>1570.898438</ele>
        <time>2020-07-18T17:54:50.000Z</time>
      </trkpt>
      <trkpt lat="34.295266" lon="-117.41902">
        <ele>1570.398438</ele>
        <time>2020-07-18T17:54:52.000Z</time>
      </trkpt>
      <trkpt lat="34.295239" lon="-117.418988">
        <ele>1570.000000</ele>
        <time>2020-07-18T17:54:54.000Z</time>
      </trkpt>
      <trkpt lat="34.295191" lon="-117.418906">
        <ele>1569.898438</ele>
        <time>2020-07-18T17:54:55.000Z</time>
      </trkpt>
      <trkpt lat="34.295175" lon="-117.418859">
        <ele>1569.699219</ele>
        <time>2020-07-18T17:54:57.000Z</time>
      </trkpt>
      <trkpt lat="34.295153" lon="-117.418758">
        <ele>1569.500000</ele>
        <time>2020-07-18T17:54:58.000Z</time>
      </trkpt>
      <trkpt lat="34.295145" lon="-117.41871">
        <ele>1569.500000</ele>
        <time>2020-07-18T17:55:00.000Z</time>
      </trkpt>
      <trkpt lat="34.295127" lon="-117.418518">
        <ele>1570.597656</ele>
        <time>2020-07-18T17:55:03.000Z</time>
      </trkpt>
      <trkpt lat="34.295103" lon="-117.418189">
        <ele>1570.000000</ele>
        <time>2020-07-18T17:55:10.000Z</time>
      </trkpt>
      <trkpt lat="34.295076" lon="-117.417385">
        <ele>1573.398438</ele>
        <time>2020-07-18T17:55:29.000Z</time>
      </trkpt>
      <trkpt lat="34.295073" lon="-117.417342">
        <ele>1574.097656</ele>
        <time>2020-07-18T17:55:31.000Z</time>
      </trkpt>
      <trkpt lat="34.295057" lon="-117.417217">
        <ele>1574.796875</ele>
        <time>2020-07-18T17:55:33.000Z</time>
      </trkpt>
      <trkpt lat="34.29505" lon="-117.417182">
        <ele>1575.500000</ele>
        <time>2020-07-18T17:55:36.000Z</time>
      </trkpt>
      <trkpt lat="34.295022" lon="-117.417094">
        <ele>1575.699219</ele>
        <time>2020-07-18T17:55:37.000Z</time>
      </trkpt>
      <trkpt lat="34.295012" lon="-117.417069">
        <ele>1575.796875</ele>
        <time>2020-07-18T17:55:40.000Z</time>
      </trkpt>
      <trkpt lat="34.294976" lon="-117.416993">
        <ele>1575.796875</ele>
        <time>2020-07-18T17:55:41.000Z</time>
      </trkpt>
      <trkpt lat="34.29496" lon="-117.416967">
        <ele>1576.500000</ele>
        <time>2020-07-18T17:55:44.000Z</time>
      </trkpt>
      <trkpt lat="34.294807" lon="-117.41673">
        <ele>1579.199219</ele>
        <time>2020-07-18T17:55:50.000Z</time>
      </trkpt>
      <trkpt lat="34.2946" lon="-117.416463">
        <ele>1581.699219</ele>
        <time>2020-07-18T17:56:00.000Z</time>
      </trkpt>
      <trkpt lat="34.294552" lon="-117.416368">
        <ele>1582.296875</ele>
        <time>2020-07-18T17:56:03.000Z</time>
      </trkpt>
      <trkpt lat="34.294539" lon="-117.416339">
        <ele>1582.597656</ele>
        <time>2020-07-18T17:56:06.000Z</time>
      </trkpt>
      <trkpt lat="34.294525" lon="-117.416255">
        <ele>1582.699219</ele>
        <time>2020-07-18T17:56:07.000Z</time>
      </trkpt>
      <trkpt lat="34.294525" lon="-117.416228">
        <ele>1584.199219</ele>
        <time>2020-07-18T17:56:11.000Z</time>
      </trkpt>
      <trkpt lat="34.294524" lon="-117.416128">
        <ele>1584.597656</ele>
        <time>2020-07-18T17:56:12.000Z</time>
      </trkpt>
      <trkpt lat="34.294522" lon="-117.416096">
        <ele>1585.296875</ele>
        <time>2020-07-18T17:56:15.000Z</time>
      </trkpt>
      <trkpt lat="34.294496" lon="-117.415998">
        <ele>1585.500000</ele>
        <time>2020-07-18T17:56:16.000Z</time>
      </trkpt>
      <trkpt lat="34.294482" lon="-117.415971">
        <ele>1585.898438</ele>
        <time>2020-07-18T17:56:20.000Z</time>
      </trkpt>
      <trkpt lat="34.294429" lon="-117.415895">
        <ele>1585.898438</ele>
        <time>2020-07-18T17:56:21.000Z</time>
      </trkpt>
      <trkpt lat="34.294412" lon="-117.415879">
        <ele>1586.000000</ele>
        <time>2020-07-18T17:56:25.000Z</time>
      </trkpt>
      <trkpt lat="34.29426" lon="-117.415731">
        <ele>1587.500000</ele>
        <time>2020-07-18T17:56:30.000Z</time>
      </trkpt>
      <trkpt lat="34.294242" lon="-117.415708">
        <ele>1588.199219</ele>
        <time>2020-07-18T17:56:33.000Z</time>
      </trkpt>
      <trkpt lat="34.294211" lon="-117.415614">
        <ele>1588.398438</ele>
        <time>2020-07-18T17:56:34.000Z</time>
      </trkpt>
      <trkpt lat="34.294208" lon="-117.41558">
        <ele>1589.296875</ele>
        <time>2020-07-18T17:56:36.000Z</time>
      </trkpt>
      <trkpt lat="34.294168" lon="-117.415244">
        <ele>1592.097656</ele>
        <time>2020-07-18T17:56:44.000Z</time>
      </trkpt>
      <trkpt lat="34.294036" lon="-117.41456">
        <ele>1598.500000</ele>
        <time>2020-07-18T17:57:06.000Z</time>
      </trkpt>
      <trkpt lat="34.29403" lon="-117.414528">
        <ele>1600.000000</ele>
        <time>2020-07-18T17:57:09.000Z</time>
      </trkpt>
      <trkpt lat="34.294032" lon="-117.414426">
        <ele>1600.000000</ele>
        <time>2020-07-18T17:57:10.000Z</time>
      </trkpt>
      <trkpt lat="34.294036" lon="-117.414398">
        <ele>1600.597656</ele>
        <time>2020-07-18T17:57:13.000Z</time>
      </trkpt>
      <trkpt lat="34.294066" lon="-117.41431">
        <ele>1600.500000</ele>
        <time>2020-07-18T17:57:14.000Z</time>
      </trkpt>
      <trkpt lat="34.294085" lon="-117.414278">
        <ele>1600.500000</ele>
        <time>2020-07-18T17:57:16.000Z</time>
      </trkpt>
      <trkpt lat="34.294125" lon="-117.414219">
        <ele>1600.699219</ele>
        <time>2020-07-18T17:57:17.000Z</time>
      </trkpt>
      <trkpt lat="34.294326" lon="-117.413936">
        <ele>1601.699219</ele>
        <time>2020-07-18T17:57:26.000Z</time>
      </trkpt>
      <trkpt lat="34.294344" lon="-117.413899">
        <ele>1601.898438</ele>
        <time>2020-07-18T17:57:28.000Z</time>
      </trkpt>
      <trkpt lat="34.294373" lon="-117.41383">
        <ele>1602.097656</ele>
        <time>2020-07-18T17:57:29.000Z</time>
      </trkpt>
      <trkpt lat="34.294381" lon="-117.413797">
        <ele>1602.597656</ele>
        <time>2020-07-18T17:57:32.000Z</time>
      </trkpt>
      <trkpt lat="34.294391" lon="-117.413703">
        <ele>1602.699219</ele>
        <time>2020-07-18T17:57:33.000Z</time>
      </trkpt>
      <trkpt lat="34.294393" lon="-117.41367">
        <ele>1603.199219</ele>
        <time>2020-07-18T17:57:36.000Z</time>
      </trkpt>
      <trkpt lat="34.294393" lon="-117.413559">
        <ele>1603.296875</ele>
        <time>2020-07-18T17:57:37.000Z</time>
      </trkpt>
      <trkpt lat="34.294387" lon="-117.413522">
        <ele>1603.500000</ele>
        <time>2020-07-18T17:57:39.000Z</time>
      </trkpt>
      <trkpt lat="34.294363" lon="-117.413446">
        <ele>1603.597656</ele>
        <time>2020-07-18T17:57:40.000Z</time>
      </trkpt>
      <trkpt lat="34.294348" lon="-117.413406">
        <ele>1603.796875</ele>
        <time>2020-07-18T17:57:42.000Z</time>
      </trkpt>
      <trkpt lat="34.294326" lon="-117.413325">
        <ele>1603.796875</ele>
        <time>2020-07-18T17:57:43.000Z</time>
      </trkpt>
      <trkpt lat="34.294317" lon="-117.413284">
        <ele>1603.398438</ele>
        <time>2020-07-18T17:57:45.000Z</time>
      </trkpt>
      <trkpt lat="34.294313" lon="-117.413198">
        <ele>1603.597656</ele>
        <time>2020-07-18T17:57:46.000Z</time>
      </trkpt>
      <trkpt lat="34.294318" lon="-117.413154">
        <ele>1604.296875</ele>
        <time>2020-07-18T17:57:48.000Z</time>
      </trkpt>
      <trkpt lat="34.294344" lon="-117.413072">
        <ele>1604.500000</ele>
        <time>2020-07-18T17:57:49.000Z</time>
      </trkpt>
      <trkpt lat="34.294361" lon="-117.413035">
        <ele>1604.500000</ele>
        <time>2020-07-18T17:57:51.000Z</time>
      </trkpt>
      <trkpt lat="34.294406" lon="-117.412965">
        <ele>1604.597656</ele>
        <time>2020-07-18T17:57:52.000Z</time>
      </trkpt>
      <trkpt lat="34.294551" lon="-117.412748">
        <ele>1605.796875</ele>
        <time>2020-07-18T17:57:58.000Z</time>
      </trkpt>
      <trkpt lat="34.294569" lon="-117.412714">
        <ele>1605.796875</ele>
        <time>2020-07-18T17:58:00.000Z</time>
      </trkpt>
      <trkpt lat="34.294594" lon="-117.412637">
        <ele>1605.898438</ele>
        <time>2020-07-18T17:58:01.000Z</time>
      </trkpt>
      <trkpt lat="34.294603" lon="-117.412596">
        <ele>1606.296875</ele>
        <time>2020-07-18T17:58:03.000Z</time>
      </trkpt>
      <trkpt lat="34.294623" lon="-117.41247">
        <ele>1606.796875</ele>
        <time>2020-07-18T17:58:05.000Z</time>
      </trkpt>
      <trkpt lat="34.294627" lon="-117.412427">
        <ele>1608.000000</ele>
        <time>2020-07-18T17:58:07.000Z</time>
      </trkpt>
      <trkpt lat="34.294621" lon="-117.412354">
        <ele>1608.296875</ele>
        <time>2020-07-18T17:58:08.000Z</time>
      </trkpt>
      <trkpt lat="34.294615" lon="-117.412318">
        <ele>1608.898438</ele>
        <time>2020-07-18T17:58:10.000Z</time>
      </trkpt>
      <trkpt lat="34.294597" lon="-117.412248">
        <ele>1609.097656</ele>
        <time>2020-07-18T17:58:11.000Z</time>
      </trkpt>
      <trkpt lat="34.294585" lon="-117.412212">
        <ele>1609.500000</ele>
        <time>2020-07-18T17:58:13.000Z</time>
      </trkpt>
      <trkpt lat="34.294554" lon="-117.412146">
        <ele>1609.097656</ele>
        <time>2020-07-18T17:58:14.000Z</time>
      </trkpt>
      <trkpt lat="34.294532" lon="-117.412121">
        <ele>1609.296875</ele>
        <time>2020-07-18T17:58:17.000Z</time>
      </trkpt>
      <trkpt lat="34.294469" lon="-117.412064">
        <ele>1609.398438</ele>
        <time>2020-07-18T17:58:18.000Z</time>
      </trkpt>
      <trkpt lat="34.29438" lon="-117.411999">
        <ele>1609.296875</ele>
        <time>2020-07-18T17:58:23.000Z</time>
      </trkpt>
      <trkpt lat="34.294362" lon="-117.411988">
        <ele>1609.398438</ele>
        <time>2020-07-18T17:58:27.000Z</time>
      </trkpt>
      <trkpt lat="34.294284" lon="-117.41195">
        <ele>1609.597656</ele>
        <time>2020-07-18T17:58:28.000Z</time>
      </trkpt>
      <trkpt lat="34.294264" lon="-117.411946">
        <ele>1610.000000</ele>
        <time>2020-07-18T17:58:32.000Z</time>
      </trkpt>
      <trkpt lat="34.294077" lon="-117.411908">
        <ele>1610.500000</ele>
        <time>2020-07-18T17:58:37.000Z</time>
      </trkpt>
      <trkpt lat="34.294051" lon="-117.411907">
        <ele>1610.000000</ele>
        <time>2020-07-18T17:58:40.000Z</time>
      </trkpt>
      <trkpt lat="34.293972" lon="-117.411913">
        <ele>1610.000000</ele>
        <time>2020-07-18T17:58:41.000Z</time>
      </trkpt>
      <trkpt lat="34.293945" lon="-117.411916">
        <ele>1609.097656</ele>
        <time>2020-07-18T17:58:44.000Z</time>
      </trkpt>
      <trkpt lat="34.293868" lon="-117.411942">
        <ele>1608.500000</ele>
        <time>2020-07-18T17:58:45.000Z</time>
      </trkpt>
      <trkpt lat="34.293846" lon="-117.411956">
        <ele>1608.097656</ele>
        <time>2020-07-18T17:58:48.000Z</time>
      </trkpt>
      <trkpt lat="34.293741" lon="-117.412022">
        <ele>1607.597656</ele>
        <time>2020-07-18T17:58:50.000Z</time>
      </trkpt>
      <trkpt lat="34.293708" lon="-117.412036">
        <ele>1606.796875</ele>
        <time>2020-07-18T17:58:52.000Z</time>
      </trkpt>
      <trkpt lat="34.293641" lon="-117.412049">
        <ele>1606.500000</ele>
        <time>2020-07-18T17:58:53.000Z</time>
      </trkpt>
      <trkpt lat="34.293612" lon="-117.41205">
        <ele>1605.898438</ele>
        <time>2020-07-18T17:58:56.000Z</time>
      </trkpt>
      <trkpt lat="34.29354" lon="-117.412031">
        <ele>1605.796875</ele>
        <time>2020-07-18T17:58:57.000Z</time>
      </trkpt>
      <trkpt lat="34.293517" lon="-117.412017">
        <ele>1605.699219</ele>
        <time>2020-07-18T17:59:00.000Z</time>
      </trkpt>
      <trkpt lat="34.293456" lon="-117.411954">
        <ele>1605.199219</ele>
        <time>2020-07-18T17:59:01.000Z</time>
      </trkpt>
      <trkpt lat="34.293439" lon="-117.41193">
        <ele>1605.000000</ele>
        <time>2020-07-18T17:59:04.000Z</time>
      </trkpt>
      <trkpt lat="34.293341" lon="-117.411774">
        <ele>1604.097656</ele>
        <time>2020-07-18T17:59:09.000Z</time>
      </trkpt>
      <trkpt lat="34.293288" lon="-117.411675">
        <ele>1602.898438</ele>
        <time>2020-07-18T17:59:14.000Z</time>
      </trkpt>
      <trkpt lat="34.293276" lon="-117.411651">
        <ele>1602.500000</ele>
        <time>2020-07-18T17:59:17.000Z</time>
      </trkpt>
      <trkpt lat="34.293251" lon="-117.411556">
        <ele>1602.500000</ele>
        <time>2020-07-18T17:59:18.000Z</time>
      </trkpt>
      <trkpt lat="34.293253" lon="-117.411524">
        <ele>1602.398438</ele>
        <time>2020-07-18T17:59:21.000Z</time>
      </trkpt>
      <trkpt lat="34.293276" lon="-117.411435">
        <ele>1602.199219</ele>
        <time>2020-07-18T17:59:22.000Z</time>
      </trkpt>
      <trkpt lat="34.293289" lon="-117.411411">
        <ele>1601.398438</ele>
        <time>2020-07-18T17:59:25.000Z</time>
      </trkpt>
      <trkpt lat="34.293381" lon="-117.411253">
        <ele>1600.000000</ele>
        <time>2020-07-18T17:59:31.000Z</time>
      </trkpt>
      <trkpt lat="34.293389" lon="-117.411233">
        <ele>1599.699219</ele>
        <time>2020-07-18T17:59:34.000Z</time>
      </trkpt>
      <trkpt lat="34.29341" lon="-117.411148">
        <ele>1599.699219</ele>
        <time>2020-07-18T17:59:35.000Z</time>
      </trkpt>
      <trkpt lat="34.293409" lon="-117.411115">
        <ele>1598.796875</ele>
        <time>2020-07-18T17:59:38.000Z</time>
      </trkpt>
      <trkpt lat="34.293383" lon="-117.411017">
        <ele>1598.699219</ele>
        <time>2020-07-18T17:59:39.000Z</time>
      </trkpt>
      <trkpt lat="34.293369" lon="-117.410989">
        <ele>1598.398438</ele>
        <time>2020-07-18T17:59:43.000Z</time>
      </trkpt>
      <trkpt lat="34.293295" lon="-117.410833">
        <ele>1598.199219</ele>
        <time>2020-07-18T17:59:46.000Z</time>
      </trkpt>
      <trkpt lat="34.293249" lon="-117.41071">
        <ele>1597.500000</ele>
        <time>2020-07-18T17:59:49.000Z</time>
      </trkpt>
      <trkpt lat="34.293182" lon="-117.410506">
        <ele>1596.398438</ele>
        <time>2020-07-18T17:59:54.000Z</time>
      </trkpt>
      <trkpt lat="34.293168" lon="-117.410478">
        <ele>1595.898438</ele>
        <time>2020-07-18T17:59:56.000Z</time>
      </trkpt>
      <trkpt lat="34.293129" lon="-117.410415">
        <ele>1595.398438</ele>
        <time>2020-07-18T17:59:57.000Z</time>
      </trkpt>
      <trkpt lat="34.293102" lon="-117.410379">
        <ele>1594.898438</ele>
        <time>2020-07-18T17:59:59.000Z</time>
      </trkpt>
      <trkpt lat="34.29299" lon="-117.410226">
        <ele>1593.796875</ele>
        <time>2020-07-18T18:00:02.000Z</time>
      </trkpt>
      <trkpt lat="34.292966" lon="-117.410181">
        <ele>1592.699219</ele>
        <time>2020-07-18T18:00:04.000Z</time>
      </trkpt>
      <trkpt lat="34.292928" lon="-117.410085">
        <ele>1592.296875</ele>
        <time>2020-07-18T18:00:05.000Z</time>
      </trkpt>
      <trkpt lat="34.292913" lon="-117.410039">
        <ele>1591.796875</ele>
        <time>2020-07-18T18:00:07.000Z</time>
      </trkpt>
      <trkpt lat="34.292883" lon="-117.409921">
        <ele>1591.796875</ele>
        <time>2020-07-18T18:00:09.000Z</time>
      </trkpt>
      <trkpt lat="34.292841" lon="-117.409713">
        <ele>1591.500000</ele>
        <time>2020-07-18T18:00:18.000Z</time>
      </trkpt>
      <trkpt lat="34.292833" lon="-117.409695">
        <ele>1590.597656</ele>
        <time>2020-07-18T18:00:22.000Z</time>
      </trkpt>
      <trkpt lat="34.292778" lon="-117.409628">
        <ele>1590.398438</ele>
        <time>2020-07-18T18:00:23.000Z</time>
      </trkpt>
      <trkpt lat="34.292761" lon="-117.409613">
        <ele>1587.699219</ele>
        <time>2020-07-18T18:00:26.000Z</time>
      </trkpt>
      <trkpt lat="34.292691" lon="-117.409584">
        <ele>1586.898438</ele>
        <time>2020-07-18T18:00:27.000Z</time>
      </trkpt>
      <trkpt lat="34.292668" lon="-117.40958">
        <ele>1586.699219</ele>
        <time>2020-07-18T18:00:30.000Z</time>
      </trkpt>
      <trkpt lat="34.292597" lon="-117.409582">
        <ele>1586.500000</ele>
        <time>2020-07-18T18:00:31.000Z</time>
      </trkpt>
      <trkpt lat="34.292572" lon="-117.409591">
        <ele>1585.898438</ele>
        <time>2020-07-18T18:00:34.000Z</time>
      </trkpt>
      <trkpt lat="34.292498" lon="-117.409625">
        <ele>1585.500000</ele>
        <time>2020-07-18T18:00:35.000Z</time>
      </trkpt>
      <trkpt lat="34.292472" lon="-117.409629">
        <ele>1584.500000</ele>
        <time>2020-07-18T18:00:38.000Z</time>
      </trkpt>
      <trkpt lat="34.292396" lon="-117.409617">
        <ele>1584.398438</ele>
        <time>2020-07-18T18:00:39.000Z</time>
      </trkpt>
      <trkpt lat="34.292374" lon="-117.409603">
        <ele>1583.597656</ele>
        <time>2020-07-18T18:00:42.000Z</time>
      </trkpt>
      <trkpt lat="34.292319" lon="-117.40954">
        <ele>1583.597656</ele>
        <time>2020-07-18T18:00:43.000Z</time>
      </trkpt>
      <trkpt lat="34.292303" lon="-117.409508">
        <ele>1583.097656</ele>
        <time>2020-07-18T18:00:45.000Z</time>
      </trkpt>
      <trkpt lat="34.292283" lon="-117.40944">
        <ele>1582.796875</ele>
        <time>2020-07-18T18:00:46.000Z</time>
      </trkpt>
      <trkpt lat="34.292278" lon="-117.409403">
        <ele>1582.296875</ele>
        <time>2020-07-18T18:00:48.000Z</time>
      </trkpt>
      <trkpt lat="34.292274" lon="-117.409327">
        <ele>1582.000000</ele>
        <time>2020-07-18T18:00:49.000Z</time>
      </trkpt>
      <trkpt lat="34.292274" lon="-117.409289">
        <ele>1582.000000</ele>
        <time>2020-07-18T18:00:51.000Z</time>
      </trkpt>
      <trkpt lat="34.29228" lon="-117.409214">
        <ele>1581.898438</ele>
        <time>2020-07-18T18:00:52.000Z</time>
      </trkpt>
      <trkpt lat="34.292288" lon="-117.409177">
        <ele>1582.000000</ele>
        <time>2020-07-18T18:00:54.000Z</time>
      </trkpt>
      <trkpt lat="34.292337" lon="-117.408994">
        <ele>1581.500000</ele>
        <time>2020-07-18T18:00:59.000Z</time>
      </trkpt>
      <trkpt lat="34.292339" lon="-117.408966">
        <ele>1580.898438</ele>
        <time>2020-07-18T18:01:03.000Z</time>
      </trkpt>
      <trkpt lat="34.292325" lon="-117.408883">
        <ele>1580.699219</ele>
        <time>2020-07-18T18:01:05.000Z</time>
      </trkpt>
      <trkpt lat="34.292307" lon="-117.408847">
        <ele>1580.097656</ele>
        <time>2020-07-18T18:01:09.000Z</time>
      </trkpt>
      <trkpt lat="34.292237" lon="-117.408806">
        <ele>1580.000000</ele>
        <time>2020-07-18T18:01:10.000Z</time>
      </trkpt>
      <trkpt lat="34.292214" lon="-117.408802">
        <ele>1579.699219</ele>
        <time>2020-07-18T18:01:13.000Z</time>
      </trkpt>
      <trkpt lat="34.292141" lon="-117.408799">
        <ele>1579.500000</ele>
        <time>2020-07-18T18:01:14.000Z</time>
      </trkpt>
      <trkpt lat="34.291983" lon="-117.408791">
        <ele>1578.097656</ele>
        <time>2020-07-18T18:01:20.000Z</time>
      </trkpt>
      <trkpt lat="34.291957" lon="-117.408785">
        <ele>1577.398438</ele>
        <time>2020-07-18T18:01:23.000Z</time>
      </trkpt>
      <trkpt lat="34.291885" lon="-117.408746">
        <ele>1577.199219</ele>
        <time>2020-07-18T18:01:24.000Z</time>
      </trkpt>
      <trkpt lat="34.291866" lon="-117.408729">
        <ele>1576.398438</ele>
        <time>2020-07-18T18:01:28.000Z</time>
      </trkpt>
      <trkpt lat="34.29181" lon="-117.408655">
        <ele>1576.199219</ele>
        <time>2020-07-18T18:01:29.000Z</time>
      </trkpt>
      <trkpt lat="34.291797" lon="-117.408634">
        <ele>1575.296875</ele>
        <time>2020-07-18T18:01:33.000Z</time>
      </trkpt>
      <trkpt lat="34.291731" lon="-117.408508">
        <ele>1574.398438</ele>
        <time>2020-07-18T18:01:36.000Z</time>
      </trkpt>
      <trkpt lat="34.291719" lon="-117.408493">
        <ele>1573.597656</ele>
        <time>2020-07-18T18:01:40.000Z</time>
      </trkpt>
      <trkpt lat="34.291653" lon="-117.408436">
        <ele>1573.000000</ele>
        <time>2020-07-18T18:01:41.000Z</time>
      </trkpt>
      <trkpt lat="34.291631" lon="-117.408421">
        <ele>1571.597656</ele>
        <time>2020-07-18T18:01:45.000Z</time>
      </trkpt>
      <trkpt lat="34.291483" lon="-117.408331">
        <ele>1570.597656</ele>
        <time>2020-07-18T18:01:50.000Z</time>
      </trkpt>
      <trkpt lat="34.29146" lon="-117.408311">
        <ele>1569.398438</ele>
        <time>2020-07-18T18:01:53.000Z</time>
      </trkpt>
      <trkpt lat="34.291414" lon="-117.408237">
        <ele>1569.597656</ele>
        <time>2020-07-18T18:01:54.000Z</time>
      </trkpt>
      <trkpt lat="34.291405" lon="-117.408212">
        <ele>1569.199219</ele>
        <time>2020-07-18T18:01:58.000Z</time>
      </trkpt>
      <trkpt lat="34.291381" lon="-117.408115">
        <ele>1569.097656</ele>
        <time>2020-07-18T18:01:59.000Z</time>
      </trkpt>
      <trkpt lat="34.291379" lon="-117.408092">
        <ele>1568.898438</ele>
        <time>2020-07-18T18:02:04.000Z</time>
      </trkpt>
      <trkpt lat="34.291375" lon="-117.407974">
        <ele>1568.898438</ele>
        <time>2020-07-18T18:02:06.000Z</time>
      </trkpt>
      <trkpt lat="34.291375" lon="-117.407956">
        <ele>1568.000000</ele>
        <time>2020-07-18T18:02:11.000Z</time>
      </trkpt>
      <trkpt lat="34.291394" lon="-117.407866">
        <ele>1568.000000</ele>
        <time>2020-07-18T18:02:12.000Z</time>
      </trkpt>
      <trkpt lat="34.29143" lon="-117.407706">
        <ele>1565.699219</ele>
        <time>2020-07-18T18:04:05.000Z</time>
      </trkpt>
      <trkpt lat="34.29143" lon="-117.407684">
        <ele>1565.898438</ele>
        <time>2020-07-18T18:04:09.000Z</time>
      </trkpt>
      <trkpt lat="34.291404" lon="-117.407601">
        <ele>1566.000000</ele>
        <time>2020-07-18T18:04:10.000Z</time>
      </trkpt>
      <trkpt lat="34.291393" lon="-117.407583">
        <ele>1567.398438</ele>
        <time>2020-07-18T18:04:15.000Z</time>
      </trkpt>
      <trkpt lat="34.291305" lon="-117.407448">
        <ele>1568.898438</ele>
        <time>2020-07-18T18:04:20.000Z</time>
      </trkpt>
      <trkpt lat="34.291295" lon="-117.407433">
        <ele>1570.199219</ele>
        <time>2020-07-18T18:04:24.000Z</time>
      </trkpt>
      <trkpt lat="34.29125" lon="-117.407351">
        <ele>1570.699219</ele>
        <time>2020-07-18T18:04:25.000Z</time>
      </trkpt>
      <trkpt lat="34.29124" lon="-117.407329">
        <ele>1572.000000</ele>
        <time>2020-07-18T18:04:29.000Z</time>
      </trkpt>
      <trkpt lat="34.291202" lon="-117.407239">
        <ele>1572.398438</ele>
        <time>2020-07-18T18:04:30.000Z</time>
      </trkpt>
      <trkpt lat="34.291196" lon="-117.407215">
        <ele>1573.296875</ele>
        <time>2020-07-18T18:04:34.000Z</time>
      </trkpt>
      <trkpt lat="34.291156" lon="-117.407122">
        <ele>1573.597656</ele>
        <time>2020-07-18T18:04:35.000Z</time>
      </trkpt>
      <trkpt lat="34.291146" lon="-117.407096">
        <ele>1574.398438</ele>
        <time>2020-07-18T18:04:39.000Z</time>
      </trkpt>
      <trkpt lat="34.291015" lon="-117.406794">
        <ele>1577.296875</ele>
        <time>2020-07-18T18:04:50.000Z</time>
      </trkpt>
      <trkpt lat="34.290988" lon="-117.406674">
        <ele>1578.796875</ele>
        <time>2020-07-18T18:04:55.000Z</time>
      </trkpt>
      <trkpt lat="34.290988" lon="-117.406647">
        <ele>1579.097656</ele>
        <time>2020-07-18T18:04:58.000Z</time>
      </trkpt>
      <trkpt lat="34.290993" lon="-117.406563">
        <ele>1579.000000</ele>
        <time>2020-07-18T18:04:59.000Z</time>
      </trkpt>
      <trkpt lat="34.291" lon="-117.406533">
        <ele>1578.597656</ele>
        <time>2020-07-18T18:05:02.000Z</time>
      </trkpt>
      <trkpt lat="34.291032" lon="-117.406444">
        <ele>1579.000000</ele>
        <time>2020-07-18T18:05:03.000Z</time>
      </trkpt>
      <trkpt lat="34.291079" lon="-117.406336">
        <ele>1580.699219</ele>
        <time>2020-07-18T18:05:07.000Z</time>
      </trkpt>
      <trkpt lat="34.291093" lon="-117.406314">
        <ele>1581.398438</ele>
        <time>2020-07-18T18:05:11.000Z</time>
      </trkpt>
      <trkpt lat="34.291155" lon="-117.406246">
        <ele>1581.398438</ele>
        <time>2020-07-18T18:05:12.000Z</time>
      </trkpt>
      <trkpt lat="34.291175" lon="-117.406235">
        <ele>1581.796875</ele>
        <time>2020-07-18T18:05:15.000Z</time>
      </trkpt>
      <trkpt lat="34.291383" lon="-117.40612">
        <ele>1582.597656</ele>
        <time>2020-07-18T18:05:22.000Z</time>
      </trkpt>
      <trkpt lat="34.291405" lon="-117.406101">
        <ele>1582.796875</ele>
        <time>2020-07-18T18:05:25.000Z</time>
      </trkpt>
      <trkpt lat="34.291462" lon="-117.406045">
        <ele>1583.199219</ele>
        <time>2020-07-18T18:05:26.000Z</time>
      </trkpt>
      <trkpt lat="34.291482" lon="-117.406023">
        <ele>1584.398438</ele>
        <time>2020-07-18T18:05:29.000Z</time>
      </trkpt>
      <trkpt lat="34.291536" lon="-117.405956">
        <ele>1584.898438</ele>
        <time>2020-07-18T18:05:30.000Z</time>
      </trkpt>
      <trkpt lat="34.2916" lon="-117.405865">
        <ele>1586.097656</ele>
        <time>2020-07-18T18:05:34.000Z</time>
      </trkpt>
      <trkpt lat="34.291614" lon="-117.40584">
        <ele>1586.699219</ele>
        <time>2020-07-18T18:05:37.000Z</time>
      </trkpt>
      <trkpt lat="34.291643" lon="-117.405761">
        <ele>1586.796875</ele>
        <time>2020-07-18T18:05:38.000Z</time>
      </trkpt>
      <trkpt lat="34.291649" lon="-117.405736">
        <ele>1586.500000</ele>
        <time>2020-07-18T18:05:41.000Z</time>
      </trkpt>
      <trkpt lat="34.291659" lon="-117.405646">
        <ele>1586.597656</ele>
        <time>2020-07-18T18:05:42.000Z</time>
      </trkpt>
      <trkpt lat="34.29166" lon="-117.405616">
        <ele>1587.398438</ele>
        <time>2020-07-18T18:05:46.000Z</time>
      </trkpt>
      <trkpt lat="34.291655" lon="-117.405383">
        <ele>1589.097656</ele>
        <time>2020-07-18T18:05:51.000Z</time>
      </trkpt>
      <trkpt lat="34.291651" lon="-117.405344">
        <ele>1589.898438</ele>
        <time>2020-07-18T18:05:53.000Z</time>
      </trkpt>
      <trkpt lat="34.291634" lon="-117.405269">
        <ele>1589.699219</ele>
        <time>2020-07-18T18:05:54.000Z</time>
      </trkpt>
      <trkpt lat="34.29162" lon="-117.405235">
        <ele>1589.398438</ele>
        <time>2020-07-18T18:05:56.000Z</time>
      </trkpt>
      <trkpt lat="34.291583" lon="-117.405176">
        <ele>1589.500000</ele>
        <time>2020-07-18T18:05:57.000Z</time>
      </trkpt>
      <trkpt lat="34.29156" lon="-117.405151">
        <ele>1589.296875</ele>
        <time>2020-07-18T18:05:59.000Z</time>
      </trkpt>
      <trkpt lat="34.291509" lon="-117.405106">
        <ele>1589.097656</ele>
        <time>2020-07-18T18:06:00.000Z</time>
      </trkpt>
      <trkpt lat="34.291483" lon="-117.405083">
        <ele>1587.398438</ele>
        <time>2020-07-18T18:06:03.000Z</time>
      </trkpt>
      <trkpt lat="34.291416" lon="-117.40504">
        <ele>1586.597656</ele>
        <time>2020-07-18T18:06:04.000Z</time>
      </trkpt>
      <trkpt lat="34.291399" lon="-117.405035">
        <ele>1585.097656</ele>
        <time>2020-07-18T18:06:08.000Z</time>
      </trkpt>
      <trkpt lat="34.291242" lon="-117.404976">
        <ele>1584.000000</ele>
        <time>2020-07-18T18:06:12.000Z</time>
      </trkpt>
      <trkpt lat="34.291218" lon="-117.404964">
        <ele>1583.500000</ele>
        <time>2020-07-18T18:06:15.000Z</time>
      </trkpt>
      <trkpt lat="34.291155" lon="-117.404921">
        <ele>1583.199219</ele>
        <time>2020-07-18T18:06:16.000Z</time>
      </trkpt>
      <trkpt lat="34.291055" lon="-117.404854">
        <ele>1582.296875</ele>
        <time>2020-07-18T18:06:21.000Z</time>
      </trkpt>
      <trkpt lat="34.291034" lon="-117.404845">
        <ele>1581.898438</ele>
        <time>2020-07-18T18:06:25.000Z</time>
      </trkpt>
      <trkpt lat="34.290963" lon="-117.404801">
        <ele>1581.500000</ele>
        <time>2020-07-18T18:06:26.000Z</time>
      </trkpt>
      <trkpt lat="34.290945" lon="-117.404788">
        <ele>1580.097656</ele>
        <time>2020-07-18T18:06:30.000Z</time>
      </trkpt>
      <trkpt lat="34.290884" lon="-117.404723">
        <ele>1580.398438</ele>
        <time>2020-07-18T18:06:31.000Z</time>
      </trkpt>
      <trkpt lat="34.290869" lon="-117.404705">
        <ele>1581.898438</ele>
        <time>2020-07-18T18:06:35.000Z</time>
      </trkpt>
      <trkpt lat="34.290816" lon="-117.404621">
        <ele>1582.597656</ele>
        <time>2020-07-18T18:06:36.000Z</time>
      </trkpt>
      <trkpt lat="34.290803" lon="-117.404599">
        <ele>1583.097656</ele>
        <time>2020-07-18T18:06:39.000Z</time>
      </trkpt>
      <trkpt lat="34.29078" lon="-117.404514">
        <ele>1583.000000</ele>
        <time>2020-07-18T18:06:40.000Z</time>
      </trkpt>
      <trkpt lat="34.290776" lon="-117.404484">
        <ele>1582.296875</ele>
        <time>2020-07-18T18:06:43.000Z</time>
      </trkpt>
      <trkpt lat="34.290778" lon="-117.404387">
        <ele>1582.000000</ele>
        <time>2020-07-18T18:06:44.000Z</time>
      </trkpt>
      <trkpt lat="34.290786" lon="-117.404274">
        <ele>1581.398438</ele>
        <time>2020-07-18T18:06:47.000Z</time>
      </trkpt>
      <trkpt lat="34.290796" lon="-117.404237">
        <ele>1580.500000</ele>
        <time>2020-07-18T18:06:49.000Z</time>
      </trkpt>
      <trkpt lat="34.290825" lon="-117.404132">
        <ele>1578.500000</ele>
        <time>2020-07-18T18:06:51.000Z</time>
      </trkpt>
      <trkpt lat="34.290825" lon="-117.404104">
        <ele>1578.097656</ele>
        <time>2020-07-18T18:06:54.000Z</time>
      </trkpt>
      <trkpt lat="34.290836" lon="-117.404001">
        <ele>1578.097656</ele>
        <time>2020-07-18T18:06:55.000Z</time>
      </trkpt>
      <trkpt lat="34.290842" lon="-117.403866">
        <ele>1577.699219</ele>
        <time>2020-07-18T18:06:59.000Z</time>
      </trkpt>
      <trkpt lat="34.290842" lon="-117.403832">
        <ele>1577.898438</ele>
        <time>2020-07-18T18:07:02.000Z</time>
      </trkpt>
      <trkpt lat="34.290831" lon="-117.403747">
        <ele>1577.898438</ele>
        <time>2020-07-18T18:07:04.000Z</time>
      </trkpt>
      <trkpt lat="34.290816" lon="-117.403711">
        <ele>1577.796875</ele>
        <time>2020-07-18T18:07:07.000Z</time>
      </trkpt>
      <trkpt lat="34.290767" lon="-117.403579">
        <ele>1577.398438</ele>
        <time>2020-07-18T18:07:10.000Z</time>
      </trkpt>
      <trkpt lat="34.290757" lon="-117.403544">
        <ele>1577.097656</ele>
        <time>2020-07-18T18:07:12.000Z</time>
      </trkpt>
      <trkpt lat="34.290748" lon="-117.403471">
        <ele>1577.097656</ele>
        <time>2020-07-18T18:07:13.000Z</time>
      </trkpt>
      <trkpt lat="34.290749" lon="-117.403433">
        <ele>1576.199219</ele>
        <time>2020-07-18T18:07:16.000Z</time>
      </trkpt>
      <trkpt lat="34.290765" lon="-117.403332">
        <ele>1576.097656</ele>
        <time>2020-07-18T18:07:17.000Z</time>
      </trkpt>
      <trkpt lat="34.290771" lon="-117.403299">
        <ele>1575.398438</ele>
        <time>2020-07-18T18:07:20.000Z</time>
      </trkpt>
      <trkpt lat="34.290795" lon="-117.403218">
        <ele>1574.796875</ele>
        <time>2020-07-18T18:07:21.000Z</time>
      </trkpt>
      <trkpt lat="34.290926" lon="-117.402784">
        <ele>1570.500000</ele>
        <time>2020-07-18T18:07:36.000Z</time>
      </trkpt>
      <trkpt lat="34.290932" lon="-117.402749">
        <ele>1570.097656</ele>
        <time>2020-07-18T18:07:38.000Z</time>
      </trkpt>
      <trkpt lat="34.290953" lon="-117.402676">
        <ele>1570.000000</ele>
        <time>2020-07-18T18:07:39.000Z</time>
      </trkpt>
      <trkpt lat="34.290968" lon="-117.402642">
        <ele>1569.500000</ele>
        <time>2020-07-18T18:07:41.000Z</time>
      </trkpt>
      <trkpt lat="34.291076" lon="-117.402425">
        <ele>1569.796875</ele>
        <time>2020-07-18T18:07:47.000Z</time>
      </trkpt>
      <trkpt lat="34.291086" lon="-117.40239">
        <ele>1569.699219</ele>
        <time>2020-07-18T18:07:49.000Z</time>
      </trkpt>
      <trkpt lat="34.291179" lon="-117.402036">
        <ele>1569.699219</ele>
        <time>2020-07-18T18:07:57.000Z</time>
      </trkpt>
      <trkpt lat="34.291204" lon="-117.401904">
        <ele>1571.000000</ele>
        <time>2020-07-18T18:08:01.000Z</time>
      </trkpt>
      <trkpt lat="34.291204" lon="-117.4019">
        <ele>1572.000000</ele>
        <time>2020-07-18T18:08:09.000Z</time>
      </trkpt>
      <trkpt lat="34.291246" lon="-117.401762">
        <ele>1572.398438</ele>
        <time>2020-07-18T18:08:10.000Z</time>
      </trkpt>
      <trkpt lat="34.291335" lon="-117.40147">
        <ele>1574.097656</ele>
        <time>2020-07-18T18:08:18.000Z</time>
      </trkpt>
      <trkpt lat="34.291361" lon="-117.401344">
        <ele>1574.500000</ele>
        <time>2020-07-18T18:08:21.000Z</time>
      </trkpt>
      <trkpt lat="34.291375" lon="-117.401297">
        <ele>1574.898438</ele>
        <time>2020-07-18T18:08:23.000Z</time>
      </trkpt>
      <trkpt lat="34.291408" lon="-117.401203">
        <ele>1575.199219</ele>
        <time>2020-07-18T18:08:24.000Z</time>
      </trkpt>
      <trkpt lat="34.291426" lon="-117.401159">
        <ele>1576.097656</ele>
        <time>2020-07-18T18:08:26.000Z</time>
      </trkpt>
      <trkpt lat="34.291524" lon="-117.400924">
        <ele>1577.898438</ele>
        <time>2020-07-18T18:08:31.000Z</time>
      </trkpt>
      <trkpt lat="34.291537" lon="-117.400884">
        <ele>1578.898438</ele>
        <time>2020-07-18T18:08:33.000Z</time>
      </trkpt>
      <trkpt lat="34.291552" lon="-117.400798">
        <ele>1579.000000</ele>
        <time>2020-07-18T18:08:34.000Z</time>
      </trkpt>
      <trkpt lat="34.291555" lon="-117.400753">
        <ele>1579.199219</ele>
        <time>2020-07-18T18:08:36.000Z</time>
      </trkpt>
      <trkpt lat="34.291548" lon="-117.400673">
        <ele>1579.398438</ele>
        <time>2020-07-18T18:08:37.000Z</time>
      </trkpt>
      <trkpt lat="34.291545" lon="-117.400538">
        <ele>1580.097656</ele>
        <time>2020-07-18T18:08:41.000Z</time>
      </trkpt>
      <trkpt lat="34.291538" lon="-117.4005">
        <ele>1580.796875</ele>
        <time>2020-07-18T18:08:44.000Z</time>
      </trkpt>
      <trkpt lat="34.2915" lon="-117.400412">
        <ele>1581.097656</ele>
        <time>2020-07-18T18:08:45.000Z</time>
      </trkpt>
      <trkpt lat="34.291485" lon="-117.400386">
        <ele>1582.796875</ele>
        <time>2020-07-18T18:08:48.000Z</time>
      </trkpt>
      <trkpt lat="34.2914" lon="-117.400236">
        <ele>1584.398438</ele>
        <time>2020-07-18T18:08:51.000Z</time>
      </trkpt>
      <trkpt lat="34.291389" lon="-117.400204">
        <ele>1584.898438</ele>
        <time>2020-07-18T18:08:54.000Z</time>
      </trkpt>
      <trkpt lat="34.291367" lon="-117.400105">
        <ele>1585.097656</ele>
        <time>2020-07-18T18:08:55.000Z</time>
      </trkpt>
      <trkpt lat="34.291359" lon="-117.400074">
        <ele>1585.398438</ele>
        <time>2020-07-18T18:08:58.000Z</time>
      </trkpt>
      <trkpt lat="34.291317" lon="-117.39986">
        <ele>1587.000000</ele>
        <time>2020-07-18T18:09:03.000Z</time>
      </trkpt>
      <trkpt lat="34.291306" lon="-117.399834">
        <ele>1587.699219</ele>
        <time>2020-07-18T18:09:06.000Z</time>
      </trkpt>
      <trkpt lat="34.29126" lon="-117.399755">
        <ele>1588.500000</ele>
        <time>2020-07-18T18:09:07.000Z</time>
      </trkpt>
      <trkpt lat="34.291243" lon="-117.39972">
        <ele>1590.000000</ele>
        <time>2020-07-18T18:09:09.000Z</time>
      </trkpt>
      <trkpt lat="34.2912" lon="-117.399647">
        <ele>1590.097656</ele>
        <time>2020-07-18T18:09:10.000Z</time>
      </trkpt>
      <trkpt lat="34.291176" lon="-117.399613">
        <ele>1590.699219</ele>
        <time>2020-07-18T18:09:12.000Z</time>
      </trkpt>
      <trkpt lat="34.291114" lon="-117.39955">
        <ele>1591.296875</ele>
        <time>2020-07-18T18:09:13.000Z</time>
      </trkpt>
      <trkpt lat="34.290929" lon="-117.399341">
        <ele>1591.398438</ele>
        <time>2020-07-18T18:09:19.000Z</time>
      </trkpt>
      <trkpt lat="34.290894" lon="-117.399313">
        <ele>1592.097656</ele>
        <time>2020-07-18T18:09:21.000Z</time>
      </trkpt>
      <trkpt lat="34.290728" lon="-117.399184">
        <ele>1593.398438</ele>
        <time>2020-07-18T18:09:26.000Z</time>
      </trkpt>
      <trkpt lat="34.290708" lon="-117.399161">
        <ele>1591.898438</ele>
        <time>2020-07-18T18:09:29.000Z</time>
      </trkpt>
      <trkpt lat="34.290648" lon="-117.399078">
        <ele>1591.898438</ele>
        <time>2020-07-18T18:09:30.000Z</time>
      </trkpt>
      <trkpt lat="34.290633" lon="-117.399046">
        <ele>1591.199219</ele>
        <time>2020-07-18T18:09:33.000Z</time>
      </trkpt>
      <trkpt lat="34.290608" lon="-117.398978">
        <ele>1590.796875</ele>
        <time>2020-07-18T18:09:35.000Z</time>
      </trkpt>
      <trkpt lat="34.290594" lon="-117.398925">
        <ele>1590.398438</ele>
        <time>2020-07-18T18:09:37.000Z</time>
      </trkpt>
      <trkpt lat="34.290568" lon="-117.398809">
        <ele>1590.500000</ele>
        <time>2020-07-18T18:09:40.000Z</time>
      </trkpt>
      <trkpt lat="34.290564" lon="-117.398783">
        <ele>1591.500000</ele>
        <time>2020-07-18T18:09:44.000Z</time>
      </trkpt>
      <trkpt lat="34.290552" lon="-117.398654">
        <ele>1590.796875</ele>
        <time>2020-07-18T18:09:48.000Z</time>
      </trkpt>
      <trkpt lat="34.290554" lon="-117.398605">
        <ele>1590.699219</ele>
        <time>2020-07-18T18:10:30.000Z</time>
      </trkpt>
      <trkpt lat="34.290554" lon="-117.398605">
        <ele>1590.699219</ele>
        <time>2020-07-18T18:10:30.000Z</time>
      </trkpt>
    </trkseg>
    <trkseg>
      <trkpt lat="34.291207" lon="-117.395719">
        <ele>1565.199219</ele>
        <time>2020-07-18T18:15:41.000Z</time>
      </trkpt>
      <trkpt lat="34.291225" lon="-117.395588">
        <ele>1564.296875</ele>
        <time>2020-07-18T18:15:47.000Z</time>
      </trkpt>
      <trkpt lat="34.291237" lon="-117.395561">
        <ele>1563.199219</ele>
        <time>2020-07-18T18:15:50.000Z</time>
      </trkpt>
      <trkpt lat="34.291271" lon="-117.395486">
        <ele>1563.097656</ele>
        <time>2020-07-18T18:15:51.000Z</time>
      </trkpt>
      <trkpt lat="34.291279" lon="-117.395456">
        <ele>1562.398438</ele>
        <time>2020-07-18T18:15:54.000Z</time>
      </trkpt>
      <trkpt lat="34.29128" lon="-117.395359">
        <ele>1561.898438</ele>
        <time>2020-07-18T18:15:55.000Z</time>
      </trkpt>
      <trkpt lat="34.291271" lon="-117.395324">
        <ele>1561.398438</ele>
        <time>2020-07-18T18:15:57.000Z</time>
      </trkpt>
      <trkpt lat="34.291245" lon="-117.395257">
        <ele>1560.898438</ele>
        <time>2020-07-18T18:15:59.000Z</time>
      </trkpt>
      <trkpt lat="34.291208" lon="-117.395207">
        <ele>1560.097656</ele>
        <time>2020-07-18T18:16:01.000Z</time>
      </trkpt>
      <trkpt lat="34.291155" lon="-117.39517">
        <ele>1559.699219</ele>
        <time>2020-07-18T18:16:02.000Z</time>
      </trkpt>
      <trkpt lat="34.291126" lon="-117.395157">
        <ele>1558.500000</ele>
        <time>2020-07-18T18:16:04.000Z</time>
      </trkpt>
      <trkpt lat="34.290986" lon="-117.395101">
        <ele>1557.296875</ele>
        <time>2020-07-18T18:16:07.000Z</time>
      </trkpt>
      <trkpt lat="34.290495" lon="-117.394944">
        <ele>1551.398438</ele>
        <time>2020-07-18T18:16:22.000Z</time>
      </trkpt>
      <trkpt lat="34.290289" lon="-117.3949">
        <ele>1549.500000</ele>
        <time>2020-07-18T18:16:28.000Z</time>
      </trkpt>
      <trkpt lat="34.290181" lon="-117.394887">
        <ele>1548.097656</ele>
        <time>2020-07-18T18:16:32.000Z</time>
      </trkpt>
      <trkpt lat="34.290154" lon="-117.394886">
        <ele>1547.398438</ele>
        <time>2020-07-18T18:16:34.000Z</time>
      </trkpt>
      <trkpt lat="34.289836" lon="-117.394882">
        <ele>1544.699219</ele>
        <time>2020-07-18T18:16:42.000Z</time>
      </trkpt>
      <trkpt lat="34.289804" lon="-117.394885">
        <ele>1544.000000</ele>
        <time>2020-07-18T18:16:45.000Z</time>
      </trkpt>
      <trkpt lat="34.289727" lon="-117.394883">
        <ele>1544.097656</ele>
        <time>2020-07-18T18:16:46.000Z</time>
      </trkpt>
      <trkpt lat="34.289709" lon="-117.394879">
        <ele>1543.296875</ele>
        <time>2020-07-18T18:16:51.000Z</time>
      </trkpt>
      <trkpt lat="34.289643" lon="-117.394837">
        <ele>1543.097656</ele>
        <time>2020-07-18T18:16:52.000Z</time>
      </trkpt>
      <trkpt lat="34.289627" lon="-117.394814">
        <ele>1542.199219</ele>
        <time>2020-07-18T18:16:55.000Z</time>
      </trkpt>
      <trkpt lat="34.28959" lon="-117.39474">
        <ele>1542.097656</ele>
        <time>2020-07-18T18:16:56.000Z</time>
      </trkpt>
      <trkpt lat="34.289545" lon="-117.394636">
        <ele>1541.597656</ele>
        <time>2020-07-18T18:17:02.000Z</time>
      </trkpt>
      <trkpt lat="34.289532" lon="-117.394609">
        <ele>1542.898438</ele>
        <time>2020-07-18T18:17:10.000Z</time>
      </trkpt>
      <trkpt lat="34.289532" lon="-117.394609">
        <ele>1542.898438</ele>
        <time>2020-07-18T18:17:10.000Z</time>
      </trkpt>
    </trkseg>
    <trkseg>
      <trkpt lat="34.289482" lon="-117.394661">
        <ele>1544.699219</ele>
        <time>2020-07-18T18:26:02.000Z</time>
      </trkpt>
      <trkpt lat="34.289544" lon="-117.39423">
        <ele>1542.296875</ele>
        <time>2020-07-18T18:26:53.000Z</time>
      </trkpt>
      <trkpt lat="34.289549" lon="-117.394209">
        <ele>1541.796875</ele>
        <time>2020-07-18T18:26:57.000Z</time>
      </trkpt>
      <trkpt lat="34.289581" lon="-117.394122">
        <ele>1541.199219</ele>
        <time>2020-07-18T18:26:58.000Z</time>
      </trkpt>
      <trkpt lat="34.289588" lon="-117.394105">
        <ele>1539.000000</ele>
        <time>2020-07-18T18:27:03.000Z</time>
      </trkpt>
      <trkpt lat="34.289619" lon="-117.394023">
        <ele>1538.296875</ele>
        <time>2020-07-18T18:27:05.000Z</time>
      </trkpt>
      <trkpt lat="34.289629" lon="-117.393991">
        <ele>1537.296875</ele>
        <time>2020-07-18T18:27:10.000Z</time>
      </trkpt>
      <trkpt lat="34.289699" lon="-117.393781">
        <ele>1535.796875</ele>
        <time>2020-07-18T18:27:18.000Z</time>
      </trkpt>
      <trkpt lat="34.289699" lon="-117.393777">
        <ele>1534.796875</ele>
        <time>2020-07-18T18:29:51.000Z</time>
      </trkpt>
      <trkpt lat="34.28978" lon="-117.393728">
        <ele>1534.898438</ele>
        <time>2020-07-18T18:29:53.000Z</time>
      </trkpt>
      <trkpt lat="34.289782" lon="-117.393727">
        <ele>1534.500000</ele>
        <time>2020-07-18T18:30:02.000Z</time>
      </trkpt>
      <trkpt lat="34.28989" lon="-117.393667">
        <ele>1533.699219</ele>
        <time>2020-07-18T18:30:04.000Z</time>
      </trkpt>
      <trkpt lat="34.289913" lon="-117.393658">
        <ele>1533.597656</ele>
        <time>2020-07-18T18:30:07.000Z</time>
      </trkpt>
      <trkpt lat="34.289984" lon="-117.393651">
        <ele>1533.597656</ele>
        <time>2020-07-18T18:30:08.000Z</time>
      </trkpt>
      <trkpt lat="34.290007" lon="-117.393654">
        <ele>1533.296875</ele>
        <time>2020-07-18T18:30:11.000Z</time>
      </trkpt>
      <trkpt lat="34.290106" lon="-117.39368">
        <ele>1533.000000</ele>
        <time>2020-07-18T18:30:13.000Z</time>
      </trkpt>
      <trkpt lat="34.290132" lon="-117.393692">
        <ele>1533.199219</ele>
        <time>2020-07-18T18:30:16.000Z</time>
      </trkpt>
      <trkpt lat="34.2903" lon="-117.393771">
        <ele>1532.796875</ele>
        <time>2020-07-18T18:30:21.000Z</time>
      </trkpt>
      <trkpt lat="34.290323" lon="-117.393776">
        <ele>1532.097656</ele>
        <time>2020-07-18T18:30:24.000Z</time>
      </trkpt>
      <trkpt lat="34.290393" lon="-117.393778">
        <ele>1531.500000</ele>
        <time>2020-07-18T18:30:25.000Z</time>
      </trkpt>
      <trkpt lat="34.290419" lon="-117.393775">
        <ele>1530.500000</ele>
        <time>2020-07-18T18:30:29.000Z</time>
      </trkpt>
      <trkpt lat="34.290499" lon="-117.393747">
        <ele>1530.199219</ele>
        <time>2020-07-18T18:30:30.000Z</time>
      </trkpt>
      <trkpt lat="34.290513" lon="-117.393736">
        <ele>1529.898438</ele>
        <time>2020-07-18T18:30:35.000Z</time>
      </trkpt>
      <trkpt lat="34.290567" lon="-117.393658">
        <ele>1529.699219</ele>
        <time>2020-07-18T18:30:36.000Z</time>
      </trkpt>
      <trkpt lat="34.290576" lon="-117.393641">
        <ele>1528.597656</ele>
        <time>2020-07-18T18:30:41.000Z</time>
      </trkpt>
      <trkpt lat="34.290623" lon="-117.393552">
        <ele>1527.898438</ele>
        <time>2020-07-18T18:30:42.000Z</time>
      </trkpt>
      <trkpt lat="34.290628" lon="-117.393534">
        <ele>1526.597656</ele>
        <time>2020-07-18T18:30:47.000Z</time>
      </trkpt>
      <trkpt lat="34.290659" lon="-117.393439">
        <ele>1526.398438</ele>
        <time>2020-07-18T18:30:48.000Z</time>
      </trkpt>
      <trkpt lat="34.290661" lon="-117.393423">
        <ele>1523.597656</ele>
        <time>2020-07-18T18:30:54.000Z</time>
      </trkpt>
      <trkpt lat="34.290661" lon="-117.39332">
        <ele>1523.000000</ele>
        <time>2020-07-18T18:30:55.000Z</time>
      </trkpt>
      <trkpt lat="34.290659" lon="-117.393303">
        <ele>1521.000000</ele>
        <time>2020-07-18T18:31:02.000Z</time>
      </trkpt>
      <trkpt lat="34.290647" lon="-117.393194">
        <ele>1520.500000</ele>
        <time>2020-07-18T18:31:03.000Z</time>
      </trkpt>
      <trkpt lat="34.290641" lon="-117.393174">
        <ele>1519.097656</ele>
        <time>2020-07-18T18:31:07.000Z</time>
      </trkpt>
      <trkpt lat="34.290584" lon="-117.393021">
        <ele>1517.398438</ele>
        <time>2020-07-18T18:31:11.000Z</time>
      </trkpt>
      <trkpt lat="34.290581" lon="-117.392999">
        <ele>1516.398438</ele>
        <time>2020-07-18T18:31:15.000Z</time>
      </trkpt>
      <trkpt lat="34.290587" lon="-117.392885">
        <ele>1516.699219</ele>
        <time>2020-07-18T18:31:16.000Z</time>
      </trkpt>
      <trkpt lat="34.290595" lon="-117.392856">
        <ele>1515.500000</ele>
        <time>2020-07-18T18:31:20.000Z</time>
      </trkpt>
      <trkpt lat="34.290625" lon="-117.392742">
        <ele>1514.699219</ele>
        <time>2020-07-18T18:31:22.000Z</time>
      </trkpt>
      <trkpt lat="34.290628" lon="-117.392721">
        <ele>1513.398438</ele>
        <time>2020-07-18T18:31:26.000Z</time>
      </trkpt>
      <trkpt lat="34.290637" lon="-117.392603">
        <ele>1512.398438</ele>
        <time>2020-07-18T18:31:28.000Z</time>
      </trkpt>
      <trkpt lat="34.290641" lon="-117.39258">
        <ele>1510.500000</ele>
        <time>2020-07-18T18:31:32.000Z</time>
      </trkpt>
      <trkpt lat="34.290648" lon="-117.392468">
        <ele>1510.296875</ele>
        <time>2020-07-18T18:31:33.000Z</time>
      </trkpt>
      <trkpt lat="34.290654" lon="-117.39228">
        <ele>1507.097656</ele>
        <time>2020-07-18T18:31:40.000Z</time>
      </trkpt>
      <trkpt lat="34.290652" lon="-117.392248">
        <ele>1505.796875</ele>
        <time>2020-07-18T18:31:43.000Z</time>
      </trkpt>
      <trkpt lat="34.290627" lon="-117.392022">
        <ele>1503.898438</ele>
        <time>2020-07-18T18:31:49.000Z</time>
      </trkpt>
      <trkpt lat="34.290623" lon="-117.392001">
        <ele>1503.898438</ele>
        <time>2020-07-18T18:31:55.000Z</time>
      </trkpt>
      <trkpt lat="34.290605" lon="-117.391908">
        <ele>1503.500000</ele>
        <time>2020-07-18T18:31:56.000Z</time>
      </trkpt>
      <trkpt lat="34.290606" lon="-117.391892">
        <ele>1502.097656</ele>
        <time>2020-07-18T18:32:02.000Z</time>
      </trkpt>
      <trkpt lat="34.29057" lon="-117.391794">
        <ele>1501.199219</ele>
        <time>2020-07-18T18:32:03.000Z</time>
      </trkpt>
      <trkpt lat="34.290562" lon="-117.391778">
        <ele>1500.296875</ele>
        <time>2020-07-18T18:32:08.000Z</time>
      </trkpt>
      <trkpt lat="34.290522" lon="-117.391683">
        <ele>1500.097656</ele>
        <time>2020-07-18T18:32:09.000Z</time>
      </trkpt>
      <trkpt lat="34.290473" lon="-117.391563">
        <ele>1498.898438</ele>
        <time>2020-07-18T18:32:16.000Z</time>
      </trkpt>
      <trkpt lat="34.290463" lon="-117.391548">
        <ele>1499.796875</ele>
        <time>2020-07-18T18:32:24.000Z</time>
      </trkpt>
      <trkpt lat="34.290411" lon="-117.391464">
        <ele>1499.898438</ele>
        <time>2020-07-18T18:32:25.000Z</time>
      </trkpt>
      <trkpt lat="34.290401" lon="-117.391454">
        <ele>1500.296875</ele>
        <time>2020-07-18T18:32:30.000Z</time>
      </trkpt>
      <trkpt lat="34.290333" lon="-117.391381">
        <ele>1501.199219</ele>
        <time>2020-07-18T18:32:33.000Z</time>
      </trkpt>
      <trkpt lat="34.290334" lon="-117.391378">
        <ele>1498.500000</ele>
        <time>2020-07-18T18:35:53.000Z</time>
      </trkpt>
      <trkpt lat="34.290258" lon="-117.391314">
        <ele>1498.097656</ele>
        <time>2020-07-18T18:35:54.000Z</time>
      </trkpt>
      <trkpt lat="34.290236" lon="-117.391306">
        <ele>1497.898438</ele>
        <time>2020-07-18T18:35:58.000Z</time>
      </trkpt>
      <trkpt lat="34.290156" lon="-117.391264">
        <ele>1497.796875</ele>
        <time>2020-07-18T18:35:59.000Z</time>
      </trkpt>
      <trkpt lat="34.290135" lon="-117.391251">
        <ele>1497.597656</ele>
        <time>2020-07-18T18:36:02.000Z</time>
      </trkpt>
      <trkpt lat="34.290078" lon="-117.3912">
        <ele>1497.199219</ele>
        <time>2020-07-18T18:36:03.000Z</time>
      </trkpt>
      <trkpt lat="34.29006" lon="-117.391176">
        <ele>1496.597656</ele>
        <time>2020-07-18T18:36:06.000Z</time>
      </trkpt>
      <trkpt lat="34.289999" lon="-117.391094">
        <ele>1496.296875</ele>
        <time>2020-07-18T18:36:07.000Z</time>
      </trkpt>
      <trkpt lat="34.289938" lon="-117.391008">
        <ele>1495.699219</ele>
        <time>2020-07-18T18:36:10.000Z</time>
      </trkpt>
      <trkpt lat="34.289915" lon="-117.390985">
        <ele>1495.000000</ele>
        <time>2020-07-18T18:36:13.000Z</time>
      </trkpt>
      <trkpt lat="34.289858" lon="-117.390943">
        <ele>1494.597656</ele>
        <time>2020-07-18T18:36:15.000Z</time>
      </trkpt>
      <trkpt lat="34.289826" lon="-117.390921">
        <ele>1493.296875</ele>
        <time>2020-07-18T18:36:19.000Z</time>
      </trkpt>
      <trkpt lat="34.289758" lon="-117.390895">
        <ele>1492.199219</ele>
        <time>2020-07-18T18:36:21.000Z</time>
      </trkpt>
      <trkpt lat="34.289725" lon="-117.390898">
        <ele>1490.296875</ele>
        <time>2020-07-18T18:36:25.000Z</time>
      </trkpt>
      <trkpt lat="34.289649" lon="-117.390893">
        <ele>1490.000000</ele>
        <time>2020-07-18T18:36:26.000Z</time>
      </trkpt>
      <trkpt lat="34.289627" lon="-117.390888">
        <ele>1490.699219</ele>
        <time>2020-07-18T18:37:10.000Z</time>
      </trkpt>
      <trkpt lat="34.289556" lon="-117.390841">
        <ele>1490.597656</ele>
        <time>2020-07-18T18:37:11.000Z</time>
      </trkpt>
      <trkpt lat="34.289541" lon="-117.390832">
        <ele>1490.500000</ele>
        <time>2020-07-18T18:37:16.000Z</time>
      </trkpt>
      <trkpt lat="34.289493" lon="-117.390752">
        <ele>1490.699219</ele>
        <time>2020-07-18T18:37:17.000Z</time>
      </trkpt>
      <trkpt lat="34.28949" lon="-117.390734">
        <ele>1490.097656</ele>
        <time>2020-07-18T18:37:23.000Z</time>
      </trkpt>
      <trkpt lat="34.289506" lon="-117.390644">
        <ele>1489.296875</ele>
        <time>2020-07-18T18:37:25.000Z</time>
      </trkpt>
      <trkpt lat="34.289508" lon="-117.390615">
        <ele>1488.398438</ele>
        <time>2020-07-18T18:37:35.000Z</time>
      </trkpt>
      <trkpt lat="34.289518" lon="-117.390465">
        <ele>1487.199219</ele>
        <time>2020-07-18T18:37:44.000Z</time>
      </trkpt>
      <trkpt lat="34.289521" lon="-117.390453">
        <ele>1485.097656</ele>
        <time>2020-07-18T18:37:51.000Z</time>
      </trkpt>
      <trkpt lat="34.289545" lon="-117.39031">
        <ele>1484.199219</ele>
        <time>2020-07-18T18:37:54.000Z</time>
      </trkpt>
      <trkpt lat="34.28955" lon="-117.390293">
        <ele>1482.500000</ele>
        <time>2020-07-18T18:37:59.000Z</time>
      </trkpt>
      <trkpt lat="34.289581" lon="-117.390132">
        <ele>1480.699219</ele>
        <time>2020-07-18T18:38:03.000Z</time>
      </trkpt>
      <trkpt lat="34.289584" lon="-117.39011">
        <ele>1478.699219</ele>
        <time>2020-07-18T18:38:08.000Z</time>
      </trkpt>
      <trkpt lat="34.289617" lon="-117.390008">
        <ele>1478.398438</ele>
        <time>2020-07-18T18:38:09.000Z</time>
      </trkpt>
      <trkpt lat="34.289626" lon="-117.389985">
        <ele>1477.699219</ele>
        <time>2020-07-18T18:38:12.000Z</time>
      </trkpt>
      <trkpt lat="34.289665" lon="-117.389913">
        <ele>1477.500000</ele>
        <time>2020-07-18T18:38:13.000Z</time>
      </trkpt>
      <trkpt lat="34.28968" lon="-117.389895">
        <ele>1476.898438</ele>
        <time>2020-07-18T18:38:18.000Z</time>
      </trkpt>
      <trkpt lat="34.289743" lon="-117.389839">
        <ele>1477.000000</ele>
        <time>2020-07-18T18:38:19.000Z</time>
      </trkpt>
      <trkpt lat="34.289756" lon="-117.389832">
        <ele>1478.500000</ele>
        <time>2020-07-18T18:38:39.000Z</time>
      </trkpt>
      <trkpt lat="34.28983" lon="-117.389809">
        <ele>1478.199219</ele>
        <time>2020-07-18T18:38:40.000Z</time>
      </trkpt>
      <trkpt lat="34.289849" lon="-117.389799">
        <ele>1478.500000</ele>
        <time>2020-07-18T18:38:44.000Z</time>
      </trkpt>
      <trkpt lat="34.289914" lon="-117.389749">
        <ele>1478.898438</ele>
        <time>2020-07-18T18:38:45.000Z</time>
      </trkpt>
      <trkpt lat="34.289926" lon="-117.389736">
        <ele>1478.898438</ele>
        <time>2020-07-18T18:38:51.000Z</time>
      </trkpt>
      <trkpt lat="34.28999" lon="-117.389666">
        <ele>1478.500000</ele>
        <time>2020-07-18T18:38:52.000Z</time>
      </trkpt>
      <trkpt lat="34.289997" lon="-117.389653">
        <ele>1475.500000</ele>
        <time>2020-07-18T18:38:58.000Z</time>
      </trkpt>
      <trkpt lat="34.290035" lon="-117.389545">
        <ele>1475.199219</ele>
        <time>2020-07-18T18:38:59.000Z</time>
      </trkpt>
      <trkpt lat="34.290077" lon="-117.389434">
        <ele>1474.097656</ele>
        <time>2020-07-18T18:39:03.000Z</time>
      </trkpt>
      <trkpt lat="34.290092" lon="-117.389405">
        <ele>1473.398438</ele>
        <time>2020-07-18T18:39:06.000Z</time>
      </trkpt>
      <trkpt lat="34.290153" lon="-117.389331">
        <ele>1472.796875</ele>
        <time>2020-07-18T18:39:07.000Z</time>
      </trkpt>
      <trkpt lat="34.290177" lon="-117.389309">
        <ele>1471.796875</ele>
        <time>2020-07-18T18:39:10.000Z</time>
      </trkpt>
      <trkpt lat="34.290284" lon="-117.389223">
        <ele>1470.898438</ele>
        <time>2020-07-18T18:39:14.000Z</time>
      </trkpt>
      <trkpt lat="34.290303" lon="-117.389207">
        <ele>1470.500000</ele>
        <time>2020-07-18T18:39:17.000Z</time>
      </trkpt>
      <trkpt lat="34.29041" lon="-117.389105">
        <ele>1469.296875</ele>
        <time>2020-07-18T18:39:22.000Z</time>
      </trkpt>
      <trkpt lat="34.290422" lon="-117.38909">
        <ele>1467.597656</ele>
        <time>2020-07-18T18:39:26.000Z</time>
      </trkpt>
      <trkpt lat="34.290468" lon="-117.389009">
        <ele>1467.000000</ele>
        <time>2020-07-18T18:39:27.000Z</time>
      </trkpt>
      <trkpt lat="34.290479" lon="-117.388987">
        <ele>1464.500000</ele>
        <time>2020-07-18T18:39:31.000Z</time>
      </trkpt>
      <trkpt lat="34.290513" lon="-117.388893">
        <ele>1464.097656</ele>
        <time>2020-07-18T18:39:32.000Z</time>
      </trkpt>
      <trkpt lat="34.290521" lon="-117.388871">
        <ele>1463.398438</ele>
        <time>2020-07-18T18:39:36.000Z</time>
      </trkpt>
      <trkpt lat="34.290559" lon="-117.388789">
        <ele>1463.199219</ele>
        <time>2020-07-18T18:39:37.000Z</time>
      </trkpt>
      <trkpt lat="34.290571" lon="-117.388768">
        <ele>1462.597656</ele>
        <time>2020-07-18T18:39:41.000Z</time>
      </trkpt>
      <trkpt lat="34.290628" lon="-117.388708">
        <ele>1462.296875</ele>
        <time>2020-07-18T18:39:42.000Z</time>
      </trkpt>
      <trkpt lat="34.290646" lon="-117.388692">
        <ele>1461.199219</ele>
        <time>2020-07-18T18:39:46.000Z</time>
      </trkpt>
      <trkpt lat="34.290719" lon="-117.388648">
        <ele>1461.000000</ele>
        <time>2020-07-18T18:39:47.000Z</time>
      </trkpt>
      <trkpt lat="34.290737" lon="-117.388641">
        <ele>1460.199219</ele>
        <time>2020-07-18T18:39:51.000Z</time>
      </trkpt>
      <trkpt lat="34.290961" lon="-117.388566">
        <ele>1459.000000</ele>
        <time>2020-07-18T18:39:59.000Z</time>
      </trkpt>
      <trkpt lat="34.290977" lon="-117.388563">
        <ele>1457.597656</ele>
        <time>2020-07-18T18:40:04.000Z</time>
      </trkpt>
      <trkpt lat="34.291091" lon="-117.388546">
        <ele>1456.699219</ele>
        <time>2020-07-18T18:40:07.000Z</time>
      </trkpt>
      <trkpt lat="34.291108" lon="-117.388545">
        <ele>1455.500000</ele>
        <time>2020-07-18T18:40:10.000Z</time>
      </trkpt>
      <trkpt lat="34.291182" lon="-117.388518">
        <ele>1455.097656</ele>
        <time>2020-07-18T18:40:11.000Z</time>
      </trkpt>
      <trkpt lat="34.291208" lon="-117.388506">
        <ele>1454.699219</ele>
        <time>2020-07-18T18:40:14.000Z</time>
      </trkpt>
      <trkpt lat="34.291286" lon="-117.388457">
        <ele>1454.199219</ele>
        <time>2020-07-18T18:40:15.000Z</time>
      </trkpt>
      <trkpt lat="34.291309" lon="-117.388436">
        <ele>1452.296875</ele>
        <time>2020-07-18T18:40:18.000Z</time>
      </trkpt>
      <trkpt lat="34.291566" lon="-117.388189">
        <ele>1449.000000</ele>
        <time>2020-07-18T18:40:28.000Z</time>
      </trkpt>
      <trkpt lat="34.291589" lon="-117.388167">
        <ele>1448.699219</ele>
        <time>2020-07-18T18:40:31.000Z</time>
      </trkpt>
      <trkpt lat="34.291675" lon="-117.388073">
        <ele>1448.398438</ele>
        <time>2020-07-18T18:40:33.000Z</time>
      </trkpt>
      <trkpt lat="34.291694" lon="-117.388049">
        <ele>1448.097656</ele>
        <time>2020-07-18T18:40:36.000Z</time>
      </trkpt>
      <trkpt lat="34.29174" lon="-117.387977">
        <ele>1447.898438</ele>
        <time>2020-07-18T18:40:37.000Z</time>
      </trkpt>
      <trkpt lat="34.291751" lon="-117.38795">
        <ele>1447.199219</ele>
        <time>2020-07-18T18:40:40.000Z</time>
      </trkpt>
      <trkpt lat="34.291756" lon="-117.387865">
        <ele>1446.898438</ele>
        <time>2020-07-18T18:40:41.000Z</time>
      </trkpt>
      <trkpt lat="34.291751" lon="-117.387831">
        <ele>1446.199219</ele>
        <time>2020-07-18T18:40:44.000Z</time>
      </trkpt>
      <trkpt lat="34.291729" lon="-117.387737">
        <ele>1446.000000</ele>
        <time>2020-07-18T18:40:45.000Z</time>
      </trkpt>
      <trkpt lat="34.29172" lon="-117.387709">
        <ele>1444.097656</ele>
        <time>2020-07-18T18:40:49.000Z</time>
      </trkpt>
      <trkpt lat="34.291654" lon="-117.387557">
        <ele>1443.500000</ele>
        <time>2020-07-18T18:40:52.000Z</time>
      </trkpt>
      <trkpt lat="34.291647" lon="-117.387525">
        <ele>1443.500000</ele>
        <time>2020-07-18T18:40:55.000Z</time>
      </trkpt>
      <trkpt lat="34.291639" lon="-117.387421">
        <ele>1443.097656</ele>
        <time>2020-07-18T18:40:56.000Z</time>
      </trkpt>
      <trkpt lat="34.291637" lon="-117.387386">
        <ele>1441.796875</ele>
        <time>2020-07-18T18:40:59.000Z</time>
      </trkpt>
      <trkpt lat="34.291619" lon="-117.387292">
        <ele>1441.398438</ele>
        <time>2020-07-18T18:41:00.000Z</time>
      </trkpt>
      <trkpt lat="34.291611" lon="-117.387267">
        <ele>1440.398438</ele>
        <time>2020-07-18T18:41:05.000Z</time>
      </trkpt>
      <trkpt lat="34.291571" lon="-117.38719">
        <ele>1440.097656</ele>
        <time>2020-07-18T18:41:07.000Z</time>
      </trkpt>
      <trkpt lat="34.291551" lon="-117.387169">
        <ele>1439.597656</ele>
        <time>2020-07-18T18:41:11.000Z</time>
      </trkpt>
      <trkpt lat="34.291476" lon="-117.387133">
        <ele>1439.199219</ele>
        <time>2020-07-18T18:41:12.000Z</time>
      </trkpt>
      <trkpt lat="34.291446" lon="-117.387129">
        <ele>1438.296875</ele>
        <time>2020-07-18T18:41:15.000Z</time>
      </trkpt>
      <trkpt lat="34.291359" lon="-117.387141">
        <ele>1438.097656</ele>
        <time>2020-07-18T18:41:16.000Z</time>
      </trkpt>
      <trkpt lat="34.29132" lon="-117.387155">
        <ele>1437.500000</ele>
        <time>2020-07-18T18:41:18.000Z</time>
      </trkpt>
      <trkpt lat="34.291236" lon="-117.387185">
        <ele>1437.296875</ele>
        <time>2020-07-18T18:41:19.000Z</time>
      </trkpt>
      <trkpt lat="34.2912" lon="-117.387192">
        <ele>1436.796875</ele>
        <time>2020-07-18T18:41:21.000Z</time>
      </trkpt>
      <trkpt lat="34.290987" lon="-117.387247">
        <ele>1434.898438</ele>
        <time>2020-07-18T18:41:25.000Z</time>
      </trkpt>
      <trkpt lat="34.290862" lon="-117.387291">
        <ele>1434.398438</ele>
        <time>2020-07-18T18:41:29.000Z</time>
      </trkpt>
      <trkpt lat="34.290841" lon="-117.387294">
        <ele>1434.097656</ele>
        <time>2020-07-18T18:41:33.000Z</time>
      </trkpt>
      <trkpt lat="34.290739" lon="-117.387306">
        <ele>1433.699219</ele>
        <time>2020-07-18T18:41:35.000Z</time>
      </trkpt>
      <trkpt lat="34.290637" lon="-117.387302">
        <ele>1432.199219</ele>
        <time>2020-07-18T18:41:40.000Z</time>
      </trkpt>
      <trkpt lat="34.290545" lon="-117.387311">
        <ele>1431.500000</ele>
        <time>2020-07-18T18:41:45.000Z</time>
      </trkpt>
      <trkpt lat="34.29053" lon="-117.387313">
        <ele>1430.398438</ele>
        <time>2020-07-18T18:41:50.000Z</time>
      </trkpt>
      <trkpt lat="34.290451" lon="-117.38731">
        <ele>1430.296875</ele>
        <time>2020-07-18T18:41:51.000Z</time>
      </trkpt>
      <trkpt lat="34.290431" lon="-117.387301">
        <ele>1430.000000</ele>
        <time>2020-07-18T18:41:55.000Z</time>
      </trkpt>
      <trkpt lat="34.290365" lon="-117.387226">
        <ele>1429.796875</ele>
        <time>2020-07-18T18:41:56.000Z</time>
      </trkpt>
      <trkpt lat="34.290355" lon="-117.387194">
        <ele>1429.199219</ele>
        <time>2020-07-18T18:41:58.000Z</time>
      </trkpt>
      <trkpt lat="34.29035" lon="-117.387113">
        <ele>1429.296875</ele>
        <time>2020-07-18T18:41:59.000Z</time>
      </trkpt>
      <trkpt lat="34.290351" lon="-117.38706">
        <ele>1429.296875</ele>
        <time>2020-07-18T18:42:01.000Z</time>
      </trkpt>
      <trkpt lat="34.290355" lon="-117.386959">
        <ele>1428.097656</ele>
        <time>2020-07-18T18:42:02.000Z</time>
      </trkpt>
      <trkpt lat="34.29035" lon="-117.386912">
        <ele>1427.398438</ele>
        <time>2020-07-18T18:42:04.000Z</time>
      </trkpt>
      <trkpt lat="34.290336" lon="-117.386825">
        <ele>1427.500000</ele>
        <time>2020-07-18T18:42:05.000Z</time>
      </trkpt>
      <trkpt lat="34.290314" lon="-117.386712">
        <ele>1426.699219</ele>
        <time>2020-07-18T18:42:08.000Z</time>
      </trkpt>
      <trkpt lat="34.29031" lon="-117.386675">
        <ele>1426.398438</ele>
        <time>2020-07-18T18:42:10.000Z</time>
      </trkpt>
      <trkpt lat="34.290299" lon="-117.386475">
        <ele>1425.000000</ele>
        <time>2020-07-18T18:42:14.000Z</time>
      </trkpt>
      <trkpt lat="34.290292" lon="-117.386431">
        <ele>1424.796875</ele>
        <time>2020-07-18T18:42:16.000Z</time>
      </trkpt>
      <trkpt lat="34.290277" lon="-117.386359">
        <ele>1424.199219</ele>
        <time>2020-07-18T18:42:17.000Z</time>
      </trkpt>
      <trkpt lat="34.290266" lon="-117.386325">
        <ele>1423.398438</ele>
        <time>2020-07-18T18:42:19.000Z</time>
      </trkpt>
      <trkpt lat="34.290233" lon="-117.386258">
        <ele>1423.199219</ele>
        <time>2020-07-18T18:42:20.000Z</time>
      </trkpt>
      <trkpt lat="34.290216" lon="-117.386228">
        <ele>1422.500000</ele>
        <time>2020-07-18T18:42:23.000Z</time>
      </trkpt>
      <trkpt lat="34.290107" lon="-117.386039">
        <ele>1420.296875</ele>
        <time>2020-07-18T18:42:30.000Z</time>
      </trkpt>
      <trkpt lat="34.290098" lon="-117.38602">
        <ele>1417.597656</ele>
        <time>2020-07-18T18:42:35.000Z</time>
      </trkpt>
      <trkpt lat="34.290062" lon="-117.385925">
        <ele>1416.898438</ele>
        <time>2020-07-18T18:42:36.000Z</time>
      </trkpt>
      <trkpt lat="34.290059" lon="-117.385909">
        <ele>1415.000000</ele>
        <time>2020-07-18T18:42:47.000Z</time>
      </trkpt>
      <trkpt lat="34.290043" lon="-117.385818">
        <ele>1414.796875</ele>
        <time>2020-07-18T18:43:10.000Z</time>
      </trkpt>
      <trkpt lat="34.290037" lon="-117.385803">
        <ele>1414.000000</ele>
        <time>2020-07-18T18:43:18.000Z</time>
      </trkpt>
      <trkpt lat="34.290007" lon="-117.385687">
        <ele>1413.398438</ele>
        <time>2020-07-18T18:43:20.000Z</time>
      </trkpt>
      <trkpt lat="34.290005" lon="-117.385661">
        <ele>1414.000000</ele>
        <time>2020-07-18T18:43:24.000Z</time>
      </trkpt>
      <trkpt lat="34.290019" lon="-117.385547">
        <ele>1414.199219</ele>
        <time>2020-07-18T18:43:25.000Z</time>
      </trkpt>
      <trkpt lat="34.290025" lon="-117.385516">
        <ele>1415.000000</ele>
        <time>2020-07-18T18:43:28.000Z</time>
      </trkpt>
      <trkpt lat="34.290049" lon="-117.385414">
        <ele>1415.097656</ele>
        <time>2020-07-18T18:43:29.000Z</time>
      </trkpt>
      <trkpt lat="34.290086" lon="-117.385301">
        <ele>1414.398438</ele>
        <time>2020-07-18T18:43:33.000Z</time>
      </trkpt>
      <trkpt lat="34.29014" lon="-117.385151">
        <ele>1412.699219</ele>
        <time>2020-07-18T18:43:39.000Z</time>
      </trkpt>
      <trkpt lat="34.290147" lon="-117.385135">
        <ele>1412.398438</ele>
        <time>2020-07-18T18:43:44.000Z</time>
      </trkpt>
      <trkpt lat="34.290225" lon="-117.385103">
        <ele>1412.199219</ele>
        <time>2020-07-18T18:43:45.000Z</time>
      </trkpt>
      <trkpt lat="34.29033" lon="-117.385065">
        <ele>1410.898438</ele>
        <time>2020-07-18T18:43:54.000Z</time>
      </trkpt>
      <trkpt lat="34.290342" lon="-117.385057">
        <ele>1411.199219</ele>
        <time>2020-07-18T18:44:00.000Z</time>
      </trkpt>
      <trkpt lat="34.290408" lon="-117.384969">
        <ele>1411.097656</ele>
        <time>2020-07-18T18:44:01.000Z</time>
      </trkpt>
      <trkpt lat="34.29042" lon="-117.384945">
        <ele>1411.296875</ele>
        <time>2020-07-18T18:44:04.000Z</time>
      </trkpt>
      <trkpt lat="34.290447" lon="-117.384857">
        <ele>1411.097656</ele>
        <time>2020-07-18T18:44:05.000Z</time>
      </trkpt>
      <trkpt lat="34.290454" lon="-117.384821">
        <ele>1410.097656</ele>
        <time>2020-07-18T18:44:07.000Z</time>
      </trkpt>
      <trkpt lat="34.290467" lon="-117.384747">
        <ele>1410.000000</ele>
        <time>2020-07-18T18:44:09.000Z</time>
      </trkpt>
      <trkpt lat="34.290473" lon="-117.384696">
        <ele>1410.199219</ele>
        <time>2020-07-18T18:44:12.000Z</time>
      </trkpt>
      <trkpt lat="34.290486" lon="-117.384639">
        <ele>1410.398438</ele>
        <time>2020-07-18T18:44:14.000Z</time>
      </trkpt>
      <trkpt lat="34.2905" lon="-117.384587">
        <ele>1410.199219</ele>
        <time>2020-07-18T18:44:16.000Z</time>
      </trkpt>
      <trkpt lat="34.290577" lon="-117.384367">
        <ele>1409.500000</ele>
        <time>2020-07-18T18:44:22.000Z</time>
      </trkpt>
      <trkpt lat="34.290625" lon="-117.384252">
        <ele>1409.000000</ele>
        <time>2020-07-18T18:44:25.000Z</time>
      </trkpt>
      <trkpt lat="34.29064" lon="-117.384208">
        <ele>1408.398438</ele>
        <time>2020-07-18T18:44:27.000Z</time>
      </trkpt>
      <trkpt lat="34.290656" lon="-117.384112">
        <ele>1408.199219</ele>
        <time>2020-07-18T18:44:28.000Z</time>
      </trkpt>
      <trkpt lat="34.290655" lon="-117.384072">
        <ele>1408.097656</ele>
        <time>2020-07-18T18:44:31.000Z</time>
      </trkpt>
      <trkpt lat="34.290643" lon="-117.383986">
        <ele>1408.097656</ele>
        <time>2020-07-18T18:44:33.000Z</time>
      </trkpt>
      <trkpt lat="34.29064" lon="-117.383951">
        <ele>1407.898438</ele>
        <time>2020-07-18T18:44:36.000Z</time>
      </trkpt>
      <trkpt lat="34.290642" lon="-117.383873">
        <ele>1407.398438</ele>
        <time>2020-07-18T18:44:37.000Z</time>
      </trkpt>
      <trkpt lat="34.290654" lon="-117.38356">
        <ele>1405.296875</ele>
        <time>2020-07-18T18:44:49.000Z</time>
      </trkpt>
      <trkpt lat="34.290659" lon="-117.38353">
        <ele>1404.296875</ele>
        <time>2020-07-18T18:44:52.000Z</time>
      </trkpt>
      <trkpt lat="34.290683" lon="-117.383446">
        <ele>1404.000000</ele>
        <time>2020-07-18T18:44:53.000Z</time>
      </trkpt>
      <trkpt lat="34.290693" lon="-117.383419">
        <ele>1403.597656</ele>
        <time>2020-07-18T18:44:56.000Z</time>
      </trkpt>
      <trkpt lat="34.290724" lon="-117.383347">
        <ele>1404.699219</ele>
        <time>2020-07-18T18:45:03.000Z</time>
      </trkpt>
      <trkpt lat="34.290741" lon="-117.383324">
        <ele>1404.398438</ele>
        <time>2020-07-18T18:45:13.000Z</time>
      </trkpt>
      <trkpt lat="34.290797" lon="-117.383279">
        <ele>1403.898438</ele>
        <time>2020-07-18T18:45:18.000Z</time>
      </trkpt>
      <trkpt lat="34.290818" lon="-117.383263">
        <ele>1402.199219</ele>
        <time>2020-07-18T18:45:32.000Z</time>
      </trkpt>
      <trkpt lat="34.290862" lon="-117.383201">
        <ele>1402.097656</ele>
        <time>2020-07-18T18:45:36.000Z</time>
      </trkpt>
      <trkpt lat="34.290869" lon="-117.383169">
        <ele>1401.296875</ele>
        <time>2020-07-18T18:47:15.000Z</time>
      </trkpt>
      <trkpt lat="34.290898" lon="-117.383101">
        <ele>1400.000000</ele>
        <time>2020-07-18T18:49:51.000Z</time>
      </trkpt>
      <trkpt lat="34.29089" lon="-117.383061">
        <ele>1399.296875</ele>
        <time>2020-07-18T18:49:56.000Z</time>
      </trkpt>
      <trkpt lat="34.290873" lon="-117.382989">
        <ele>1398.699219</ele>
        <time>2020-07-18T18:49:58.000Z</time>
      </trkpt>
      <trkpt lat="34.290844" lon="-117.382879">
        <ele>1399.398438</ele>
        <time>2020-07-18T18:50:07.000Z</time>
      </trkpt>
      <trkpt lat="34.29084" lon="-117.38287">
        <ele>1398.699219</ele>
        <time>2020-07-18T18:50:14.000Z</time>
      </trkpt>
      <trkpt lat="34.290843" lon="-117.382766">
        <ele>1398.296875</ele>
        <time>2020-07-18T18:50:15.000Z</time>
      </trkpt>
      <trkpt lat="34.29085" lon="-117.382741">
        <ele>1396.898438</ele>
        <time>2020-07-18T18:50:19.000Z</time>
      </trkpt>
      <trkpt lat="34.290868" lon="-117.38265">
        <ele>1396.796875</ele>
        <time>2020-07-18T18:50:20.000Z</time>
      </trkpt>
      <trkpt lat="34.290873" lon="-117.382635">
        <ele>1396.398438</ele>
        <time>2020-07-18T18:50:27.000Z</time>
      </trkpt>
      <trkpt lat="34.290896" lon="-117.382537">
        <ele>1396.296875</ele>
        <time>2020-07-18T18:50:28.000Z</time>
      </trkpt>
      <trkpt lat="34.290896" lon="-117.38252">
        <ele>1390.097656</ele>
        <time>2020-07-18T18:56:34.000Z</time>
      </trkpt>
      <trkpt lat="34.290864" lon="-117.382434">
        <ele>1389.898438</ele>
        <time>2020-07-18T18:56:36.000Z</time>
      </trkpt>
      <trkpt lat="34.290864" lon="-117.382401">
        <ele>1390.097656</ele>
        <time>2020-07-18T18:56:40.000Z</time>
      </trkpt>
      <trkpt lat="34.29085" lon="-117.382302">
        <ele>1390.199219</ele>
        <time>2020-07-18T18:56:41.000Z</time>
      </trkpt>
      <trkpt lat="34.29083" lon="-117.382195">
        <ele>1390.097656</ele>
        <time>2020-07-18T18:56:45.000Z</time>
      </trkpt>
      <trkpt lat="34.290828" lon="-117.382169">
        <ele>1389.398438</ele>
        <time>2020-07-18T18:56:49.000Z</time>
      </trkpt>
      <trkpt lat="34.290858" lon="-117.382074">
        <ele>1389.398438</ele>
        <time>2020-07-18T18:56:50.000Z</time>
      </trkpt>
      <trkpt lat="34.290872" lon="-117.382055">
        <ele>1388.898438</ele>
        <time>2020-07-18T18:56:53.000Z</time>
      </trkpt>
      <trkpt lat="34.290931" lon="-117.382011">
        <ele>1388.699219</ele>
        <time>2020-07-18T18:56:54.000Z</time>
      </trkpt>
      <trkpt lat="34.290956" lon="-117.382005">
        <ele>1388.296875</ele>
        <time>2020-07-18T18:56:57.000Z</time>
      </trkpt>
      <trkpt lat="34.291046" lon="-117.382003">
        <ele>1388.199219</ele>
        <time>2020-07-18T18:56:58.000Z</time>
      </trkpt>
      <trkpt lat="34.291075" lon="-117.382011">
        <ele>1388.000000</ele>
        <time>2020-07-18T18:57:01.000Z</time>
      </trkpt>
      <trkpt lat="34.291127" lon="-117.382056">
        <ele>1388.597656</ele>
        <time>2020-07-18T18:57:06.000Z</time>
      </trkpt>
      <trkpt lat="34.291148" lon="-117.382077">
        <ele>1389.097656</ele>
        <time>2020-07-18T18:57:10.000Z</time>
      </trkpt>
      <trkpt lat="34.291203" lon="-117.382156">
        <ele>1389.000000</ele>
        <time>2020-07-18T18:57:11.000Z</time>
      </trkpt>
      <trkpt lat="34.291262" lon="-117.382244">
        <ele>1388.097656</ele>
        <time>2020-07-18T18:57:14.000Z</time>
      </trkpt>
      <trkpt lat="34.291283" lon="-117.382265">
        <ele>1387.000000</ele>
        <time>2020-07-18T18:57:17.000Z</time>
      </trkpt>
      <trkpt lat="34.291359" lon="-117.382317">
        <ele>1386.500000</ele>
        <time>2020-07-18T18:57:18.000Z</time>
      </trkpt>
      <trkpt lat="34.291385" lon="-117.382327">
        <ele>1385.699219</ele>
        <time>2020-07-18T18:57:21.000Z</time>
      </trkpt>
      <trkpt lat="34.29147" lon="-117.382317">
        <ele>1385.000000</ele>
        <time>2020-07-18T18:57:22.000Z</time>
      </trkpt>
      <trkpt lat="34.291496" lon="-117.382305">
        <ele>1385.000000</ele>
        <time>2020-07-18T18:57:25.000Z</time>
      </trkpt>
      <trkpt lat="34.291567" lon="-117.38222">
        <ele>1385.097656</ele>
        <time>2020-07-18T18:57:26.000Z</time>
      </trkpt>
      <trkpt lat="34.291588" lon="-117.382184">
        <ele>1384.699219</ele>
        <time>2020-07-18T18:57:28.000Z</time>
      </trkpt>
      <trkpt lat="34.291709" lon="-117.381992">
        <ele>1383.398438</ele>
        <time>2020-07-18T18:57:33.000Z</time>
      </trkpt>
      <trkpt lat="34.291735" lon="-117.381961">
        <ele>1383.000000</ele>
        <time>2020-07-18T18:57:35.000Z</time>
      </trkpt>
      <trkpt lat="34.291796" lon="-117.38192">
        <ele>1382.796875</ele>
        <time>2020-07-18T18:57:36.000Z</time>
      </trkpt>
      <trkpt lat="34.291827" lon="-117.38191">
        <ele>1382.500000</ele>
        <time>2020-07-18T18:57:38.000Z</time>
      </trkpt>
      <trkpt lat="34.291894" lon="-117.381909">
        <ele>1383.097656</ele>
        <time>2020-07-18T18:57:39.000Z</time>
      </trkpt>
      <trkpt lat="34.291937" lon="-117.381913">
        <ele>1381.796875</ele>
        <time>2020-07-18T18:57:41.000Z</time>
      </trkpt>
      <trkpt lat="34.292009" lon="-117.381953">
        <ele>1381.296875</ele>
        <time>2020-07-18T18:57:42.000Z</time>
      </trkpt>
      <trkpt lat="34.292044" lon="-117.381981">
        <ele>1380.699219</ele>
        <time>2020-07-18T18:57:44.000Z</time>
      </trkpt>
      <trkpt lat="34.292104" lon="-117.382048">
        <ele>1380.597656</ele>
        <time>2020-07-18T18:57:45.000Z</time>
      </trkpt>
      <trkpt lat="34.292133" lon="-117.382086">
        <ele>1379.699219</ele>
        <time>2020-07-18T18:57:47.000Z</time>
      </trkpt>
      <trkpt lat="34.292186" lon="-117.382164">
        <ele>1379.097656</ele>
        <time>2020-07-18T18:57:48.000Z</time>
      </trkpt>
      <trkpt lat="34.292211" lon="-117.382203">
        <ele>1377.898438</ele>
        <time>2020-07-18T18:57:50.000Z</time>
      </trkpt>
      <trkpt lat="34.292242" lon="-117.382282">
        <ele>1377.398438</ele>
        <time>2020-07-18T18:57:51.000Z</time>
      </trkpt>
      <trkpt lat="34.292248" lon="-117.382315">
        <ele>1377.898438</ele>
        <time>2020-07-18T18:57:56.000Z</time>
      </trkpt>
      <trkpt lat="34.292269" lon="-117.382395">
        <ele>1377.097656</ele>
        <time>2020-07-18T18:57:58.000Z</time>
      </trkpt>
      <trkpt lat="34.292287" lon="-117.382426">
        <ele>1376.000000</ele>
        <time>2020-07-18T18:58:01.000Z</time>
      </trkpt>
      <trkpt lat="34.292361" lon="-117.382492">
        <ele>1375.597656</ele>
        <time>2020-07-18T18:58:02.000Z</time>
      </trkpt>
      <trkpt lat="34.292393" lon="-117.382508">
        <ele>1375.398438</ele>
        <time>2020-07-18T18:58:04.000Z</time>
      </trkpt>
      <trkpt lat="34.292449" lon="-117.382525">
        <ele>1375.398438</ele>
        <time>2020-07-18T18:58:06.000Z</time>
      </trkpt>
      <trkpt lat="34.292483" lon="-117.382526">
        <ele>1374.898438</ele>
        <time>2020-07-18T18:58:10.000Z</time>
      </trkpt>
      <trkpt lat="34.292545" lon="-117.382501">
        <ele>1374.296875</ele>
        <time>2020-07-18T18:58:12.000Z</time>
      </trkpt>
      <trkpt lat="34.292571" lon="-117.382487">
        <ele>1372.796875</ele>
        <time>2020-07-18T18:58:17.000Z</time>
      </trkpt>
      <trkpt lat="34.292615" lon="-117.382416">
        <ele>1372.796875</ele>
        <time>2020-07-18T18:58:18.000Z</time>
      </trkpt>
      <trkpt lat="34.292621" lon="-117.382395">
        <ele>1372.097656</ele>
        <time>2020-07-18T18:58:22.000Z</time>
      </trkpt>
      <trkpt lat="34.292776" lon="-117.381806">
        <ele>1367.296875</ele>
        <time>2020-07-18T18:58:38.000Z</time>
      </trkpt>
      <trkpt lat="34.292785" lon="-117.381763">
        <ele>1366.398438</ele>
        <time>2020-07-18T18:58:40.000Z</time>
      </trkpt>
      <trkpt lat="34.2928" lon="-117.38168">
        <ele>1366.000000</ele>
        <time>2020-07-18T18:58:41.000Z</time>
      </trkpt>
      <trkpt lat="34.292806" lon="-117.38164">
        <ele>1365.000000</ele>
        <time>2020-07-18T18:58:43.000Z</time>
      </trkpt>
      <trkpt lat="34.292809" lon="-117.381571">
        <ele>1364.296875</ele>
        <time>2020-07-18T18:58:45.000Z</time>
      </trkpt>
      <trkpt lat="34.292808" lon="-117.381454">
        <ele>1364.597656</ele>
        <time>2020-07-18T18:59:00.000Z</time>
      </trkpt>
      <trkpt lat="34.292805" lon="-117.381444">
        <ele>1361.796875</ele>
        <time>2020-07-18T18:59:08.000Z</time>
      </trkpt>
      <trkpt lat="34.292751" lon="-117.381347">
        <ele>1361.699219</ele>
        <time>2020-07-18T18:59:09.000Z</time>
      </trkpt>
      <trkpt lat="34.292736" lon="-117.381326">
        <ele>1360.597656</ele>
        <time>2020-07-18T18:59:41.000Z</time>
      </trkpt>
      <trkpt lat="34.292683" lon="-117.381275">
        <ele>1363.398438</ele>
        <time>2020-07-18T19:01:37.000Z</time>
      </trkpt>
      <trkpt lat="34.292658" lon="-117.381261">
        <ele>1362.500000</ele>
        <time>2020-07-18T19:01:47.000Z</time>
      </trkpt>
      <trkpt lat="34.29262" lon="-117.381191">
        <ele>1362.500000</ele>
        <time>2020-07-18T19:01:50.000Z</time>
      </trkpt>
      <trkpt lat="34.292604" lon="-117.381158">
        <ele>1361.597656</ele>
        <time>2020-07-18T19:01:54.000Z</time>
      </trkpt>
      <trkpt lat="34.292554" lon="-117.381096">
        <ele>1361.898438</ele>
        <time>2020-07-18T19:01:56.000Z</time>
      </trkpt>
      <trkpt lat="34.292533" lon="-117.381086">
        <ele>1357.296875</ele>
        <time>2020-07-18T19:02:53.000Z</time>
      </trkpt>
      <trkpt lat="34.292467" lon="-117.38115">
        <ele>1357.199219</ele>
        <time>2020-07-18T19:02:54.000Z</time>
      </trkpt>
      <trkpt lat="34.292453" lon="-117.381157">
        <ele>1357.199219</ele>
        <time>2020-07-18T19:02:59.000Z</time>
      </trkpt>
      <trkpt lat="34.292362" lon="-117.381199">
        <ele>1357.000000</ele>
        <time>2020-07-18T19:03:01.000Z</time>
      </trkpt>
      <trkpt lat="34.292342" lon="-117.381202">
        <ele>1356.597656</ele>
        <time>2020-07-18T19:03:05.000Z</time>
      </trkpt>
      <trkpt lat="34.292249" lon="-117.381188">
        <ele>1356.296875</ele>
        <time>2020-07-18T19:03:06.000Z</time>
      </trkpt>
      <trkpt lat="34.292221" lon="-117.381174">
        <ele>1355.398438</ele>
        <time>2020-07-18T19:03:08.000Z</time>
      </trkpt>
      <trkpt lat="34.292171" lon="-117.38113">
        <ele>1355.097656</ele>
        <time>2020-07-18T19:03:10.000Z</time>
      </trkpt>
      <trkpt lat="34.292141" lon="-117.381074">
        <ele>1354.597656</ele>
        <time>2020-07-18T19:03:12.000Z</time>
      </trkpt>
      <trkpt lat="34.292128" lon="-117.38103">
        <ele>1354.597656</ele>
        <time>2020-07-18T19:03:15.000Z</time>
      </trkpt>
      <trkpt lat="34.292119" lon="-117.380966">
        <ele>1354.097656</ele>
        <time>2020-07-18T19:03:17.000Z</time>
      </trkpt>
      <trkpt lat="34.29209" lon="-117.380778">
        <ele>1354.296875</ele>
        <time>2020-07-18T19:03:23.000Z</time>
      </trkpt>
      <trkpt lat="34.292082" lon="-117.380752">
        <ele>1352.898438</ele>
        <time>2020-07-18T19:03:26.000Z</time>
      </trkpt>
      <trkpt lat="34.292054" lon="-117.380668">
        <ele>1352.500000</ele>
        <time>2020-07-18T19:03:27.000Z</time>
      </trkpt>
      <trkpt lat="34.29205" lon="-117.380647">
        <ele>1351.000000</ele>
        <time>2020-07-18T19:03:31.000Z</time>
      </trkpt>
      <trkpt lat="34.292015" lon="-117.38049">
        <ele>1348.000000</ele>
        <time>2020-07-18T19:03:34.000Z</time>
      </trkpt>
      <trkpt lat="34.292012" lon="-117.380462">
        <ele>1347.000000</ele>
        <time>2020-07-18T19:03:37.000Z</time>
      </trkpt>
      <trkpt lat="34.291964" lon="-117.379988">
        <ele>1341.699219</ele>
        <time>2020-07-18T19:03:52.000Z</time>
      </trkpt>
      <trkpt lat="34.291959" lon="-117.379963">
        <ele>1340.898438</ele>
        <time>2020-07-18T19:03:55.000Z</time>
      </trkpt>
      <trkpt lat="34.29193" lon="-117.379869">
        <ele>1340.199219</ele>
        <time>2020-07-18T19:03:56.000Z</time>
      </trkpt>
      <trkpt lat="34.291917" lon="-117.379838">
        <ele>1340.000000</ele>
        <time>2020-07-18T19:03:59.000Z</time>
      </trkpt>
      <trkpt lat="34.291872" lon="-117.379756">
        <ele>1339.699219</ele>
        <time>2020-07-18T19:04:00.000Z</time>
      </trkpt>
      <trkpt lat="34.291817" lon="-117.379666">
        <ele>1338.199219</ele>
        <time>2020-07-18T19:04:03.000Z</time>
      </trkpt>
      <trkpt lat="34.291801" lon="-117.379633">
        <ele>1337.000000</ele>
        <time>2020-07-18T19:04:06.000Z</time>
      </trkpt>
      <trkpt lat="34.291766" lon="-117.379543">
        <ele>1336.699219</ele>
        <time>2020-07-18T19:04:07.000Z</time>
      </trkpt>
      <trkpt lat="34.291757" lon="-117.379514">
        <ele>1335.199219</ele>
        <time>2020-07-18T19:04:10.000Z</time>
      </trkpt>
      <trkpt lat="34.291692" lon="-117.379288">
        <ele>1334.597656</ele>
        <time>2020-07-18T19:04:16.000Z</time>
      </trkpt>
      <trkpt lat="34.291688" lon="-117.379264">
        <ele>1332.796875</ele>
        <time>2020-07-18T19:04:20.000Z</time>
      </trkpt>
      <trkpt lat="34.291686" lon="-117.379164">
        <ele>1332.199219</ele>
        <time>2020-07-18T19:04:21.000Z</time>
      </trkpt>
      <trkpt lat="34.291692" lon="-117.379137">
        <ele>1329.597656</ele>
        <time>2020-07-18T19:04:25.000Z</time>
      </trkpt>
      <trkpt lat="34.291696" lon="-117.379028">
        <ele>1329.699219</ele>
        <time>2020-07-18T19:04:26.000Z</time>
      </trkpt>
      <trkpt lat="34.2917" lon="-117.378995">
        <ele>1329.597656</ele>
        <time>2020-07-18T19:04:29.000Z</time>
      </trkpt>
      <trkpt lat="34.291694" lon="-117.378896">
        <ele>1328.398438</ele>
        <time>2020-07-18T19:04:30.000Z</time>
      </trkpt>
      <trkpt lat="34.291687" lon="-117.378864">
        <ele>1327.199219</ele>
        <time>2020-07-18T19:04:33.000Z</time>
      </trkpt>
      <trkpt lat="34.291646" lon="-117.378695">
        <ele>1326.796875</ele>
        <time>2020-07-18T19:04:37.000Z</time>
      </trkpt>
      <trkpt lat="34.291646" lon="-117.378675">
        <ele>1325.898438</ele>
        <time>2020-07-18T19:04:41.000Z</time>
      </trkpt>
      <trkpt lat="34.29166" lon="-117.37858">
        <ele>1325.199219</ele>
        <time>2020-07-18T19:04:42.000Z</time>
      </trkpt>
      <trkpt lat="34.291662" lon="-117.378558">
        <ele>1323.597656</ele>
        <time>2020-07-18T19:04:48.000Z</time>
      </trkpt>
      <trkpt lat="34.291662" lon="-117.378453">
        <ele>1322.796875</ele>
        <time>2020-07-18T19:04:49.000Z</time>
      </trkpt>
      <trkpt lat="34.291661" lon="-117.378428">
        <ele>1321.000000</ele>
        <time>2020-07-18T19:04:53.000Z</time>
      </trkpt>
      <trkpt lat="34.291633" lon="-117.378231">
        <ele>1320.398438</ele>
        <time>2020-07-18T19:04:59.000Z</time>
      </trkpt>
      <trkpt lat="34.291633" lon="-117.378231">
        <ele>1319.699219</ele>
        <time>2020-07-18T19:05:08.000Z</time>
      </trkpt>
      <trkpt lat="34.291658" lon="-117.378112">
        <ele>1319.199219</ele>
        <time>2020-07-18T19:05:09.000Z</time>
      </trkpt>
      <trkpt lat="34.291665" lon="-117.378095">
        <ele>1319.199219</ele>
        <time>2020-07-18T19:05:14.000Z</time>
      </trkpt>
      <trkpt lat="34.291717" lon="-117.37802">
        <ele>1319.097656</ele>
        <time>2020-07-18T19:05:15.000Z</time>
      </trkpt>
      <trkpt lat="34.291731" lon="-117.378006">
        <ele>1317.898438</ele>
        <time>2020-07-18T19:05:19.000Z</time>
      </trkpt>
      <trkpt lat="34.291793" lon="-117.377956">
        <ele>1317.296875</ele>
        <time>2020-07-18T19:05:21.000Z</time>
      </trkpt>
      <trkpt lat="34.291822" lon="-117.377949">
        <ele>1318.500000</ele>
        <time>2020-07-18T19:05:26.000Z</time>
      </trkpt>
      <trkpt lat="34.29189" lon="-117.377935">
        <ele>1318.296875</ele>
        <time>2020-07-18T19:05:28.000Z</time>
      </trkpt>
      <trkpt lat="34.291913" lon="-117.377936">
        <ele>1317.199219</ele>
        <time>2020-07-18T19:05:34.000Z</time>
      </trkpt>
      <trkpt lat="34.292022" lon="-117.377938">
        <ele>1317.000000</ele>
        <time>2020-07-18T19:05:37.000Z</time>
      </trkpt>
      <trkpt lat="34.292041" lon="-117.377933">
        <ele>1315.097656</ele>
        <time>2020-07-18T19:05:41.000Z</time>
      </trkpt>
      <trkpt lat="34.29212" lon="-117.377903">
        <ele>1314.000000</ele>
        <time>2020-07-18T19:05:42.000Z</time>
      </trkpt>
      <trkpt lat="34.292135" lon="-117.37788">
        <ele>1312.199219</ele>
        <time>2020-07-18T19:05:45.000Z</time>
      </trkpt>
      <trkpt lat="34.292185" lon="-117.377803">
        <ele>1310.898438</ele>
        <time>2020-07-18T19:05:46.000Z</time>
      </trkpt>
      <trkpt lat="34.292198" lon="-117.377776">
        <ele>1308.796875</ele>
        <time>2020-07-18T19:05:49.000Z</time>
      </trkpt>
      <trkpt lat="34.292234" lon="-117.377686">
        <ele>1308.097656</ele>
        <time>2020-07-18T19:05:50.000Z</time>
      </trkpt>
      <trkpt lat="34.292246" lon="-117.377651">
        <ele>1307.000000</ele>
        <time>2020-07-18T19:05:52.000Z</time>
      </trkpt>
      <trkpt lat="34.292273" lon="-117.377586">
        <ele>1306.097656</ele>
        <time>2020-07-18T19:05:54.000Z</time>
      </trkpt>
      <trkpt lat="34.29236" lon="-117.377389">
        <ele>1304.699219</ele>
        <time>2020-07-18T19:06:00.000Z</time>
      </trkpt>
      <trkpt lat="34.292375" lon="-117.377369">
        <ele>1303.796875</ele>
        <time>2020-07-18T19:06:03.000Z</time>
      </trkpt>
      <trkpt lat="34.292403" lon="-117.377286">
        <ele>1303.296875</ele>
        <time>2020-07-18T19:06:04.000Z</time>
      </trkpt>
      <trkpt lat="34.292413" lon="-117.377257">
        <ele>1303.296875</ele>
        <time>2020-07-18T19:06:07.000Z</time>
      </trkpt>
      <trkpt lat="34.292473" lon="-117.377186">
        <ele>1303.699219</ele>
        <time>2020-07-18T19:06:08.000Z</time>
      </trkpt>
      <trkpt lat="34.292498" lon="-117.377177">
        <ele>1303.000000</ele>
        <time>2020-07-18T19:06:12.000Z</time>
      </trkpt>
      <trkpt lat="34.292606" lon="-117.377144">
        <ele>1303.296875</ele>
        <time>2020-07-18T19:06:14.000Z</time>
      </trkpt>
      <trkpt lat="34.292634" lon="-117.377141">
        <ele>1302.699219</ele>
        <time>2020-07-18T19:06:16.000Z</time>
      </trkpt>
      <trkpt lat="34.292697" lon="-117.37714">
        <ele>1303.199219</ele>
        <time>2020-07-18T19:06:17.000Z</time>
      </trkpt>
      <trkpt lat="34.292733" lon="-117.377143">
        <ele>1302.097656</ele>
        <time>2020-07-18T19:06:19.000Z</time>
      </trkpt>
      <trkpt lat="34.29279" lon="-117.377161">
        <ele>1301.796875</ele>
        <time>2020-07-18T19:06:21.000Z</time>
      </trkpt>
      <trkpt lat="34.292839" lon="-117.377186">
        <ele>1299.500000</ele>
        <time>2020-07-18T19:06:23.000Z</time>
      </trkpt>
      <trkpt lat="34.292879" lon="-117.377213">
        <ele>1299.597656</ele>
        <time>2020-07-18T19:06:26.000Z</time>
      </trkpt>
      <trkpt lat="34.292922" lon="-117.377248">
        <ele>1298.296875</ele>
        <time>2020-07-18T19:06:29.000Z</time>
      </trkpt>
      <trkpt lat="34.293022" lon="-117.377337">
        <ele>1298.500000</ele>
        <time>2020-07-18T19:06:33.000Z</time>
      </trkpt>
      <trkpt lat="34.293053" lon="-117.377354">
        <ele>1298.597656</ele>
        <time>2020-07-18T19:06:35.000Z</time>
      </trkpt>
      <trkpt lat="34.293124" lon="-117.377379">
        <ele>1298.199219</ele>
        <time>2020-07-18T19:06:36.000Z</time>
      </trkpt>
      <trkpt lat="34.293159" lon="-117.377389">
        <ele>1297.500000</ele>
        <time>2020-07-18T19:06:38.000Z</time>
      </trkpt>
      <trkpt lat="34.293228" lon="-117.377421">
        <ele>1296.796875</ele>
        <time>2020-07-18T19:06:39.000Z</time>
      </trkpt>
      <trkpt lat="34.293259" lon="-117.37744">
        <ele>1297.000000</ele>
        <time>2020-07-18T19:06:42.000Z</time>
      </trkpt>
      <trkpt lat="34.293357" lon="-117.377501">
        <ele>1296.898438</ele>
        <time>2020-07-18T19:06:45.000Z</time>
      </trkpt>
      <trkpt lat="34.293381" lon="-117.377509">
        <ele>1297.597656</ele>
        <time>2020-07-18T19:06:48.000Z</time>
      </trkpt>
      <trkpt lat="34.293469" lon="-117.377527">
        <ele>1298.296875</ele>
        <time>2020-07-18T19:06:49.000Z</time>
      </trkpt>
      <trkpt lat="34.293499" lon="-117.377525">
        <ele>1298.597656</ele>
        <time>2020-07-18T19:06:51.000Z</time>
      </trkpt>
      <trkpt lat="34.293657" lon="-117.377515">
        <ele>1300.097656</ele>
        <time>2020-07-18T19:06:55.000Z</time>
      </trkpt>
      <trkpt lat="34.293683" lon="-117.377524">
        <ele>1296.796875</ele>
        <time>2020-07-18T19:06:58.000Z</time>
      </trkpt>
      <trkpt lat="34.293767" lon="-117.377577">
        <ele>1295.398438</ele>
        <time>2020-07-18T19:06:59.000Z</time>
      </trkpt>
      <trkpt lat="34.293791" lon="-117.3776">
        <ele>1293.500000</ele>
        <time>2020-07-18T19:07:01.000Z</time>
      </trkpt>
      <trkpt lat="34.293834" lon="-117.377651">
        <ele>1291.097656</ele>
        <time>2020-07-18T19:07:03.000Z</time>
      </trkpt>
      <trkpt lat="34.293866" lon="-117.377687">
        <ele>1288.699219</ele>
        <time>2020-07-18T19:07:06.000Z</time>
      </trkpt>
      <trkpt lat="34.293896" lon="-117.377748">
        <ele>1287.500000</ele>
        <time>2020-07-18T19:07:08.000Z</time>
      </trkpt>
      <trkpt lat="34.293908" lon="-117.377788">
        <ele>1286.796875</ele>
        <time>2020-07-18T19:07:12.000Z</time>
      </trkpt>
      <trkpt lat="34.293955" lon="-117.377859">
        <ele>1286.699219</ele>
        <time>2020-07-18T19:07:13.000Z</time>
      </trkpt>
      <trkpt lat="34.29397" lon="-117.377872">
        <ele>1284.000000</ele>
        <time>2020-07-18T19:07:18.000Z</time>
      </trkpt>
      <trkpt lat="34.294062" lon="-117.37792">
        <ele>1284.000000</ele>
        <time>2020-07-18T19:07:19.000Z</time>
      </trkpt>
      <trkpt lat="34.294096" lon="-117.377929">
        <ele>1283.097656</ele>
        <time>2020-07-18T19:07:21.000Z</time>
      </trkpt>
      <trkpt lat="34.294192" lon="-117.377964">
        <ele>1281.898438</ele>
        <time>2020-07-18T19:07:23.000Z</time>
      </trkpt>
      <trkpt lat="34.294222" lon="-117.377979">
        <ele>1280.398438</ele>
        <time>2020-07-18T19:07:25.000Z</time>
      </trkpt>
      <trkpt lat="34.294281" lon="-117.378015">
        <ele>1279.796875</ele>
        <time>2020-07-18T19:07:26.000Z</time>
      </trkpt>
      <trkpt lat="34.294305" lon="-117.378036">
        <ele>1278.296875</ele>
        <time>2020-07-18T19:07:29.000Z</time>
      </trkpt>
      <trkpt lat="34.294374" lon="-117.378079">
        <ele>1276.699219</ele>
        <time>2020-07-18T19:07:30.000Z</time>
      </trkpt>
      <trkpt lat="34.294465" lon="-117.378143">
        <ele>1275.097656</ele>
        <time>2020-07-18T19:07:34.000Z</time>
      </trkpt>
      <trkpt lat="34.294541" lon="-117.378207">
        <ele>1272.097656</ele>
        <time>2020-07-18T19:07:37.000Z</time>
      </trkpt>
      <trkpt lat="34.294567" lon="-117.378225">
        <ele>1270.398438</ele>
        <time>2020-07-18T19:07:40.000Z</time>
      </trkpt>
      <trkpt lat="34.294638" lon="-117.378254">
        <ele>1270.097656</ele>
        <time>2020-07-18T19:07:41.000Z</time>
      </trkpt>
      <trkpt lat="34.294657" lon="-117.378255">
        <ele>1267.398438</ele>
        <time>2020-07-18T19:07:45.000Z</time>
      </trkpt>
      <trkpt lat="34.294722" lon="-117.378209">
        <ele>1267.699219</ele>
        <time>2020-07-18T19:07:46.000Z</time>
      </trkpt>
      <trkpt lat="34.294738" lon="-117.378192">
        <ele>1268.199219</ele>
        <time>2020-07-18T19:07:50.000Z</time>
      </trkpt>
      <trkpt lat="34.294781" lon="-117.378122">
        <ele>1268.199219</ele>
        <time>2020-07-18T19:07:51.000Z</time>
      </trkpt>
      <trkpt lat="34.294793" lon="-117.378098">
        <ele>1268.000000</ele>
        <time>2020-07-18T19:07:55.000Z</time>
      </trkpt>
      <trkpt lat="34.294849" lon="-117.378022">
        <ele>1268.097656</ele>
        <time>2020-07-18T19:07:56.000Z</time>
      </trkpt>
      <trkpt lat="34.294863" lon="-117.37801">
        <ele>1270.500000</ele>
        <time>2020-07-18T19:08:06.000Z</time>
      </trkpt>
      <trkpt lat="34.294948" lon="-117.378004">
        <ele>1270.000000</ele>
        <time>2020-07-18T19:08:07.000Z</time>
      </trkpt>
      <trkpt lat="34.294958" lon="-117.378007">
        <ele>1268.097656</ele>
        <time>2020-07-18T19:08:12.000Z</time>
      </trkpt>
      <trkpt lat="34.295158" lon="-117.378053">
        <ele>1265.296875</ele>
        <time>2020-07-18T19:08:18.000Z</time>
      </trkpt>
      <trkpt lat="34.29518" lon="-117.378055">
        <ele>1264.898438</ele>
        <time>2020-07-18T19:08:21.000Z</time>
      </trkpt>
      <trkpt lat="34.295248" lon="-117.378055">
        <ele>1264.597656</ele>
        <time>2020-07-18T19:08:23.000Z</time>
      </trkpt>
      <trkpt lat="34.295291" lon="-117.378049">
        <ele>1264.500000</ele>
        <time>2020-07-18T19:08:26.000Z</time>
      </trkpt>
      <trkpt lat="34.295352" lon="-117.378013">
        <ele>1264.296875</ele>
        <time>2020-07-18T19:08:28.000Z</time>
      </trkpt>
      <trkpt lat="34.295383" lon="-117.377989">
        <ele>1267.097656</ele>
        <time>2020-07-18T19:08:57.000Z</time>
      </trkpt>
      <trkpt lat="34.295453" lon="-117.377974">
        <ele>1266.796875</ele>
        <time>2020-07-18T19:08:59.000Z</time>
      </trkpt>
      <trkpt lat="34.295485" lon="-117.377952">
        <ele>1266.296875</ele>
        <time>2020-07-18T19:09:02.000Z</time>
      </trkpt>
      <trkpt lat="34.295535" lon="-117.377907">
        <ele>1265.398438</ele>
        <time>2020-07-18T19:09:04.000Z</time>
      </trkpt>
      <trkpt lat="34.295568" lon="-117.377866">
        <ele>1264.796875</ele>
        <time>2020-07-18T19:09:07.000Z</time>
      </trkpt>
      <trkpt lat="34.295611" lon="-117.377808">
        <ele>1264.597656</ele>
        <time>2020-07-18T19:09:09.000Z</time>
      </trkpt>
      <trkpt lat="34.295641" lon="-117.377761">
        <ele>1264.296875</ele>
        <time>2020-07-18T19:09:11.000Z</time>
      </trkpt>
      <trkpt lat="34.295702" lon="-117.377663">
        <ele>1264.000000</ele>
        <time>2020-07-18T19:09:14.000Z</time>
      </trkpt>
      <trkpt lat="34.295725" lon="-117.377646">
        <ele>1263.796875</ele>
        <time>2020-07-18T19:09:17.000Z</time>
      </trkpt>
      <trkpt lat="34.295816" lon="-117.377618">
        <ele>1263.699219</ele>
        <time>2020-07-18T19:09:18.000Z</time>
      </trkpt>
      <trkpt lat="34.295933" lon="-117.377598">
        <ele>1264.097656</ele>
        <time>2020-07-18T19:09:21.000Z</time>
      </trkpt>
      <trkpt lat="34.295971" lon="-117.377583">
        <ele>1264.199219</ele>
        <time>2020-07-18T19:09:23.000Z</time>
      </trkpt>
      <trkpt lat="34.296036" lon="-117.377541">
        <ele>1264.000000</ele>
        <time>2020-07-18T19:09:24.000Z</time>
      </trkpt>
      <trkpt lat="34.29606" lon="-117.37751">
        <ele>1264.000000</ele>
        <time>2020-07-18T19:09:26.000Z</time>
      </trkpt>
      <trkpt lat="34.29609" lon="-117.377431">
        <ele>1264.097656</ele>
        <time>2020-07-18T19:09:27.000Z</time>
      </trkpt>
      <trkpt lat="34.296097" lon="-117.377383">
        <ele>1264.500000</ele>
        <time>2020-07-18T19:09:29.000Z</time>
      </trkpt>
      <trkpt lat="34.296102" lon="-117.377273">
        <ele>1264.000000</ele>
        <time>2020-07-18T19:09:30.000Z</time>
      </trkpt>
      <trkpt lat="34.296099" lon="-117.377052">
        <ele>1263.500000</ele>
        <time>2020-07-18T19:09:34.000Z</time>
      </trkpt>
      <trkpt lat="34.296104" lon="-117.377006">
        <ele>1264.000000</ele>
        <time>2020-07-18T19:09:36.000Z</time>
      </trkpt>
      <trkpt lat="34.296112" lon="-117.376939">
        <ele>1264.398438</ele>
        <time>2020-07-18T19:09:38.000Z</time>
      </trkpt>
      <trkpt lat="34.296113" lon="-117.376872">
        <ele>1264.796875</ele>
        <time>2020-07-18T19:09:40.000Z</time>
      </trkpt>
      <trkpt lat="34.296103" lon="-117.376313">
        <ele>1267.898438</ele>
        <time>2020-07-18T19:09:52.000Z</time>
      </trkpt>
      <trkpt lat="34.296098" lon="-117.376278">
        <ele>1268.199219</ele>
        <time>2020-07-18T19:09:55.000Z</time>
      </trkpt>
      <trkpt lat="34.296077" lon="-117.376179">
        <ele>1268.699219</ele>
        <time>2020-07-18T19:09:56.000Z</time>
      </trkpt>
      <trkpt lat="34.296077" lon="-117.376142">
        <ele>1269.199219</ele>
        <time>2020-07-18T19:09:58.000Z</time>
      </trkpt>
      <trkpt lat="34.296085" lon="-117.376063">
        <ele>1269.296875</ele>
        <time>2020-07-18T19:09:59.000Z</time>
      </trkpt>
      <trkpt lat="34.296091" lon="-117.376024">
        <ele>1269.296875</ele>
        <time>2020-07-18T19:10:01.000Z</time>
      </trkpt>
      <trkpt lat="34.29611" lon="-117.375947">
        <ele>1269.398438</ele>
        <time>2020-07-18T19:10:02.000Z</time>
      </trkpt>
      <trkpt lat="34.296141" lon="-117.375838">
        <ele>1270.199219</ele>
        <time>2020-07-18T19:10:05.000Z</time>
      </trkpt>
      <trkpt lat="34.296157" lon="-117.375801">
        <ele>1271.000000</ele>
        <time>2020-07-18T19:10:07.000Z</time>
      </trkpt>
      <trkpt lat="34.296203" lon="-117.375734">
        <ele>1271.597656</ele>
        <time>2020-07-18T19:10:08.000Z</time>
      </trkpt>
      <trkpt lat="34.296232" lon="-117.375708">
        <ele>1271.097656</ele>
        <time>2020-07-18T19:10:10.000Z</time>
      </trkpt>
      <trkpt lat="34.296299" lon="-117.375669">
        <ele>1271.097656</ele>
        <time>2020-07-18T19:10:11.000Z</time>
      </trkpt>
      <trkpt lat="34.296339" lon="-117.375657">
        <ele>1270.597656</ele>
        <time>2020-07-18T19:10:13.000Z</time>
      </trkpt>
      <trkpt lat="34.296462" lon="-117.375634">
        <ele>1270.796875</ele>
        <time>2020-07-18T19:10:15.000Z</time>
      </trkpt>
      <trkpt lat="34.296499" lon="-117.375627">
        <ele>1271.500000</ele>
        <time>2020-07-18T19:10:17.000Z</time>
      </trkpt>
      <trkpt lat="34.29657" lon="-117.375602">
        <ele>1272.097656</ele>
        <time>2020-07-18T19:10:18.000Z</time>
      </trkpt>
      <trkpt lat="34.296601" lon="-117.375587">
        <ele>1273.398438</ele>
        <time>2020-07-18T19:10:20.000Z</time>
      </trkpt>
      <trkpt lat="34.296667" lon="-117.375549">
        <ele>1274.097656</ele>
        <time>2020-07-18T19:10:21.000Z</time>
      </trkpt>
      <trkpt lat="34.2967" lon="-117.375526">
        <ele>1274.898438</ele>
        <time>2020-07-18T19:10:23.000Z</time>
      </trkpt>
      <trkpt lat="34.296756" lon="-117.375476">
        <ele>1275.398438</ele>
        <time>2020-07-18T19:10:24.000Z</time>
      </trkpt>
      <trkpt lat="34.296781" lon="-117.375447">
        <ele>1275.898438</ele>
        <time>2020-07-18T19:10:26.000Z</time>
      </trkpt>
      <trkpt lat="34.296825" lon="-117.375373">
        <ele>1276.296875</ele>
        <time>2020-07-18T19:10:27.000Z</time>
      </trkpt>
      <trkpt lat="34.296843" lon="-117.375329">
        <ele>1276.898438</ele>
        <time>2020-07-18T19:10:29.000Z</time>
      </trkpt>
      <trkpt lat="34.296905" lon="-117.375158">
        <ele>1278.500000</ele>
        <time>2020-07-18T19:10:32.000Z</time>
      </trkpt>
      <trkpt lat="34.296926" lon="-117.375122">
        <ele>1279.597656</ele>
        <time>2020-07-18T19:10:34.000Z</time>
      </trkpt>
      <trkpt lat="34.296961" lon="-117.375045">
        <ele>1279.699219</ele>
        <time>2020-07-18T19:10:35.000Z</time>
      </trkpt>
      <trkpt lat="34.297015" lon="-117.374921">
        <ele>1281.296875</ele>
        <time>2020-07-18T19:10:38.000Z</time>
      </trkpt>
      <trkpt lat="34.297018" lon="-117.374886">
        <ele>1279.898438</ele>
        <time>2020-07-18T19:10:40.000Z</time>
      </trkpt>
      <trkpt lat="34.29703" lon="-117.374796">
        <ele>1280.097656</ele>
        <time>2020-07-18T19:10:41.000Z</time>
      </trkpt>
      <trkpt lat="34.29704" lon="-117.374749">
        <ele>1281.398438</ele>
        <time>2020-07-18T19:10:43.000Z</time>
      </trkpt>
      <trkpt lat="34.297077" lon="-117.374619">
        <ele>1282.000000</ele>
        <time>2020-07-18T19:10:45.000Z</time>
      </trkpt>
      <trkpt lat="34.297086" lon="-117.374574">
        <ele>1282.796875</ele>
        <time>2020-07-18T19:10:47.000Z</time>
      </trkpt>
      <trkpt lat="34.297088" lon="-117.37449">
        <ele>1282.898438</ele>
        <time>2020-07-18T19:10:48.000Z</time>
      </trkpt>
      <trkpt lat="34.297078" lon="-117.374446">
        <ele>1283.296875</ele>
        <time>2020-07-18T19:10:50.000Z</time>
      </trkpt>
      <trkpt lat="34.297051" lon="-117.374356">
        <ele>1283.898438</ele>
        <time>2020-07-18T19:10:51.000Z</time>
      </trkpt>
      <trkpt lat="34.297036" lon="-117.374314">
        <ele>1283.898438</ele>
        <time>2020-07-18T19:10:53.000Z</time>
      </trkpt>
      <trkpt lat="34.297004" lon="-117.374233">
        <ele>1283.898438</ele>
        <time>2020-07-18T19:10:54.000Z</time>
      </trkpt>
      <trkpt lat="34.296987" lon="-117.374193">
        <ele>1283.500000</ele>
        <time>2020-07-18T19:10:56.000Z</time>
      </trkpt>
      <trkpt lat="34.296904" lon="-117.374036">
        <ele>1283.796875</ele>
        <time>2020-07-18T19:10:59.000Z</time>
      </trkpt>
      <trkpt lat="34.296891" lon="-117.373996">
        <ele>1284.398438</ele>
        <time>2020-07-18T19:11:01.000Z</time>
      </trkpt>
      <trkpt lat="34.296884" lon="-117.373912">
        <ele>1284.000000</ele>
        <time>2020-07-18T19:11:02.000Z</time>
      </trkpt>
      <trkpt lat="34.296891" lon="-117.373868">
        <ele>1284.296875</ele>
        <time>2020-07-18T19:11:04.000Z</time>
      </trkpt>
      <trkpt lat="34.296911" lon="-117.373786">
        <ele>1285.000000</ele>
        <time>2020-07-18T19:11:05.000Z</time>
      </trkpt>
      <trkpt lat="34.297015" lon="-117.373381">
        <ele>1286.898438</ele>
        <time>2020-07-18T19:11:15.000Z</time>
      </trkpt>
      <trkpt lat="34.297128" lon="-117.373079">
        <ele>1287.597656</ele>
        <time>2020-07-18T19:11:23.000Z</time>
      </trkpt>
      <trkpt lat="34.29721" lon="-117.372891">
        <ele>1289.000000</ele>
        <time>2020-07-18T19:11:30.000Z</time>
      </trkpt>
      <trkpt lat="34.297216" lon="-117.372866">
        <ele>1288.296875</ele>
        <time>2020-07-18T19:11:33.000Z</time>
      </trkpt>
      <trkpt lat="34.297208" lon="-117.372776">
        <ele>1288.500000</ele>
        <time>2020-07-18T19:11:34.000Z</time>
      </trkpt>
      <trkpt lat="34.297194" lon="-117.372746">
        <ele>1289.500000</ele>
        <time>2020-07-18T19:11:37.000Z</time>
      </trkpt>
      <trkpt lat="34.297141" lon="-117.372674">
        <ele>1289.597656</ele>
        <time>2020-07-18T19:11:38.000Z</time>
      </trkpt>
      <trkpt lat="34.297121" lon="-117.372652">
        <ele>1289.898438</ele>
        <time>2020-07-18T19:11:41.000Z</time>
      </trkpt>
      <trkpt lat="34.297036" lon="-117.372573">
        <ele>1290.199219</ele>
        <time>2020-07-18T19:11:43.000Z</time>
      </trkpt>
      <trkpt lat="34.296954" lon="-117.372502">
        <ele>1290.796875</ele>
        <time>2020-07-18T19:11:47.000Z</time>
      </trkpt>
      <trkpt lat="34.296939" lon="-117.372481">
        <ele>1290.796875</ele>
        <time>2020-07-18T19:11:50.000Z</time>
      </trkpt>
      <trkpt lat="34.29689" lon="-117.372406">
        <ele>1291.398438</ele>
        <time>2020-07-18T19:11:51.000Z</time>
      </trkpt>
      <trkpt lat="34.29667" lon="-117.372061">
        <ele>1292.500000</ele>
        <time>2020-07-18T19:12:03.000Z</time>
      </trkpt>
      <trkpt lat="34.296648" lon="-117.372019">
        <ele>1292.699219</ele>
        <time>2020-07-18T19:12:05.000Z</time>
      </trkpt>
      <trkpt lat="34.296588" lon="-117.37188">
        <ele>1292.898438</ele>
        <time>2020-07-18T19:12:07.000Z</time>
      </trkpt>
      <trkpt lat="34.296571" lon="-117.371837">
        <ele>1292.898438</ele>
        <time>2020-07-18T19:12:09.000Z</time>
      </trkpt>
      <trkpt lat="34.296504" lon="-117.371646">
        <ele>1291.898438</ele>
        <time>2020-07-18T19:12:16.000Z</time>
      </trkpt>
      <trkpt lat="34.296499" lon="-117.371607">
        <ele>1291.199219</ele>
        <time>2020-07-18T19:12:18.000Z</time>
      </trkpt>
      <trkpt lat="34.296501" lon="-117.37152">
        <ele>1291.199219</ele>
        <time>2020-07-18T19:12:19.000Z</time>
      </trkpt>
      <trkpt lat="34.296514" lon="-117.371385">
        <ele>1291.500000</ele>
        <time>2020-07-18T19:12:22.000Z</time>
      </trkpt>
      <trkpt lat="34.29652" lon="-117.371342">
        <ele>1291.500000</ele>
        <time>2020-07-18T19:12:24.000Z</time>
      </trkpt>
      <trkpt lat="34.296543" lon="-117.371256">
        <ele>1291.699219</ele>
        <time>2020-07-18T19:12:25.000Z</time>
      </trkpt>
      <trkpt lat="34.29656" lon="-117.37121">
        <ele>1291.500000</ele>
        <time>2020-07-18T19:12:27.000Z</time>
      </trkpt>
      <trkpt lat="34.296599" lon="-117.371117">
        <ele>1291.699219</ele>
        <time>2020-07-18T19:12:28.000Z</time>
      </trkpt>
      <trkpt lat="34.296622" lon="-117.371071">
        <ele>1291.898438</ele>
        <time>2020-07-18T19:12:30.000Z</time>
      </trkpt>
      <trkpt lat="34.296675" lon="-117.37099">
        <ele>1292.000000</ele>
        <time>2020-07-18T19:12:31.000Z</time>
      </trkpt>
      <trkpt lat="34.296705" lon="-117.370955">
        <ele>1292.699219</ele>
        <time>2020-07-18T19:12:33.000Z</time>
      </trkpt>
      <trkpt lat="34.296941" lon="-117.370697">
        <ele>1294.296875</ele>
        <time>2020-07-18T19:12:40.000Z</time>
      </trkpt>
      <trkpt lat="34.296967" lon="-117.370662">
        <ele>1294.500000</ele>
        <time>2020-07-18T19:12:42.000Z</time>
      </trkpt>
      <trkpt lat="34.297009" lon="-117.370593">
        <ele>1294.796875</ele>
        <time>2020-07-18T19:12:43.000Z</time>
      </trkpt>
      <trkpt lat="34.297089" lon="-117.370464">
        <ele>1295.296875</ele>
        <time>2020-07-18T19:12:47.000Z</time>
      </trkpt>
      <trkpt lat="34.297176" lon="-117.37034">
        <ele>1296.398438</ele>
        <time>2020-07-18T19:12:51.000Z</time>
      </trkpt>
      <trkpt lat="34.297193" lon="-117.370309">
        <ele>1296.699219</ele>
        <time>2020-07-18T19:12:53.000Z</time>
      </trkpt>
      <trkpt lat="34.297242" lon="-117.37021">
        <ele>1297.296875</ele>
        <time>2020-07-18T19:12:55.000Z</time>
      </trkpt>
      <trkpt lat="34.297259" lon="-117.370177">
        <ele>1297.898438</ele>
        <time>2020-07-18T19:12:57.000Z</time>
      </trkpt>
      <trkpt lat="34.297287" lon="-117.370106">
        <ele>1298.398438</ele>
        <time>2020-07-18T19:12:58.000Z</time>
      </trkpt>
      <trkpt lat="34.2973" lon="-117.370072">
        <ele>1299.199219</ele>
        <time>2020-07-18T19:13:00.000Z</time>
      </trkpt>
      <trkpt lat="34.29732" lon="-117.370001">
        <ele>1299.398438</ele>
        <time>2020-07-18T19:13:01.000Z</time>
      </trkpt>
      <trkpt lat="34.297327" lon="-117.369963">
        <ele>1299.500000</ele>
        <time>2020-07-18T19:13:03.000Z</time>
      </trkpt>
      <trkpt lat="34.297336" lon="-117.369877">
        <ele>1299.796875</ele>
        <time>2020-07-18T19:13:04.000Z</time>
      </trkpt>
      <trkpt lat="34.297338" lon="-117.369832">
        <ele>1300.500000</ele>
        <time>2020-07-18T19:13:06.000Z</time>
      </trkpt>
      <trkpt lat="34.297339" lon="-117.369748">
        <ele>1300.699219</ele>
        <time>2020-07-18T19:13:07.000Z</time>
      </trkpt>
      <trkpt lat="34.297338" lon="-117.369705">
        <ele>1300.898438</ele>
        <time>2020-07-18T19:13:09.000Z</time>
      </trkpt>
      <trkpt lat="34.297327" lon="-117.369624">
        <ele>1301.199219</ele>
        <time>2020-07-18T19:13:10.000Z</time>
      </trkpt>
      <trkpt lat="34.297316" lon="-117.369584">
        <ele>1301.597656</ele>
        <time>2020-07-18T19:13:12.000Z</time>
      </trkpt>
      <trkpt lat="34.297275" lon="-117.369466">
        <ele>1302.398438</ele>
        <time>2020-07-18T19:13:14.000Z</time>
      </trkpt>
      <trkpt lat="34.297268" lon="-117.369424">
        <ele>1303.000000</ele>
        <time>2020-07-18T19:13:16.000Z</time>
      </trkpt>
      <trkpt lat="34.29728" lon="-117.369337">
        <ele>1303.398438</ele>
        <time>2020-07-18T19:13:17.000Z</time>
      </trkpt>
      <trkpt lat="34.297295" lon="-117.369296">
        <ele>1303.398438</ele>
        <time>2020-07-18T19:13:19.000Z</time>
      </trkpt>
      <trkpt lat="34.29734" lon="-117.369223">
        <ele>1303.597656</ele>
        <time>2020-07-18T19:13:20.000Z</time>
      </trkpt>
      <trkpt lat="34.297367" lon="-117.36919">
        <ele>1302.699219</ele>
        <time>2020-07-18T19:13:22.000Z</time>
      </trkpt>
      <trkpt lat="34.297422" lon="-117.369123">
        <ele>1302.500000</ele>
        <time>2020-07-18T19:13:23.000Z</time>
      </trkpt>
      <trkpt lat="34.297446" lon="-117.369087">
        <ele>1302.699219</ele>
        <time>2020-07-18T19:13:25.000Z</time>
      </trkpt>
      <trkpt lat="34.297482" lon="-117.369007">
        <ele>1302.500000</ele>
        <time>2020-07-18T19:13:26.000Z</time>
      </trkpt>
      <trkpt lat="34.297492" lon="-117.36896">
        <ele>1302.597656</ele>
        <time>2020-07-18T19:13:28.000Z</time>
      </trkpt>
      <trkpt lat="34.297507" lon="-117.368863">
        <ele>1302.398438</ele>
        <time>2020-07-18T19:13:29.000Z</time>
      </trkpt>
      <trkpt lat="34.297511" lon="-117.36881">
        <ele>1300.398438</ele>
        <time>2020-07-18T19:13:31.000Z</time>
      </trkpt>
      <trkpt lat="34.29751" lon="-117.368699">
        <ele>1299.699219</ele>
        <time>2020-07-18T19:13:32.000Z</time>
      </trkpt>
      <trkpt lat="34.297493" lon="-117.368477">
        <ele>1298.000000</ele>
        <time>2020-07-18T19:13:36.000Z</time>
      </trkpt>
      <trkpt lat="34.297484" lon="-117.368424">
        <ele>1297.597656</ele>
        <time>2020-07-18T19:13:38.000Z</time>
      </trkpt>
      <trkpt lat="34.297452" lon="-117.368323">
        <ele>1297.796875</ele>
        <time>2020-07-18T19:13:39.000Z</time>
      </trkpt>
      <trkpt lat="34.297434" lon="-117.36828">
        <ele>1297.398438</ele>
        <time>2020-07-18T19:13:41.000Z</time>
      </trkpt>
      <trkpt lat="34.297373" lon="-117.368202">
        <ele>1297.199219</ele>
        <time>2020-07-18T19:13:42.000Z</time>
      </trkpt>
      <trkpt lat="34.29729" lon="-117.3681">
        <ele>1297.500000</ele>
        <time>2020-07-18T19:13:46.000Z</time>
      </trkpt>
      <trkpt lat="34.297275" lon="-117.368071">
        <ele>1298.000000</ele>
        <time>2020-07-18T19:13:48.000Z</time>
      </trkpt>
      <trkpt lat="34.297257" lon="-117.367998">
        <ele>1298.000000</ele>
        <time>2020-07-18T19:13:49.000Z</time>
      </trkpt>
      <trkpt lat="34.297256" lon="-117.367959">
        <ele>1297.699219</ele>
        <time>2020-07-18T19:13:51.000Z</time>
      </trkpt>
      <trkpt lat="34.297276" lon="-117.367874">
        <ele>1297.500000</ele>
        <time>2020-07-18T19:13:52.000Z</time>
      </trkpt>
      <trkpt lat="34.297299" lon="-117.367833">
        <ele>1297.597656</ele>
        <time>2020-07-18T19:13:54.000Z</time>
      </trkpt>
      <trkpt lat="34.297376" lon="-117.367769">
        <ele>1297.398438</ele>
        <time>2020-07-18T19:13:55.000Z</time>
      </trkpt>
      <trkpt lat="34.297421" lon="-117.367747">
        <ele>1297.000000</ele>
        <time>2020-07-18T19:13:56.000Z</time>
      </trkpt>
      <trkpt lat="34.29754" lon="-117.367701">
        <ele>1296.796875</ele>
        <time>2020-07-18T19:13:59.000Z</time>
      </trkpt>
      <trkpt lat="34.297572" lon="-117.36768">
        <ele>1296.097656</ele>
        <time>2020-07-18T19:14:01.000Z</time>
      </trkpt>
      <trkpt lat="34.297637" lon="-117.367614">
        <ele>1295.898438</ele>
        <time>2020-07-18T19:14:02.000Z</time>
      </trkpt>
      <trkpt lat="34.297665" lon="-117.36757">
        <ele>1295.398438</ele>
        <time>2020-07-18T19:14:04.000Z</time>
      </trkpt>
      <trkpt lat="34.297692" lon="-117.367481">
        <ele>1295.597656</ele>
        <time>2020-07-18T19:14:05.000Z</time>
      </trkpt>
      <trkpt lat="34.297695" lon="-117.367445">
        <ele>1294.097656</ele>
        <time>2020-07-18T19:14:08.000Z</time>
      </trkpt>
      <trkpt lat="34.297675" lon="-117.36734">
        <ele>1294.296875</ele>
        <time>2020-07-18T19:14:09.000Z</time>
      </trkpt>
      <trkpt lat="34.297661" lon="-117.367304">
        <ele>1293.597656</ele>
        <time>2020-07-18T19:14:11.000Z</time>
      </trkpt>
      <trkpt lat="34.297543" lon="-117.367045">
        <ele>1291.000000</ele>
        <time>2020-07-18T19:14:18.000Z</time>
      </trkpt>
      <trkpt lat="34.297524" lon="-117.367008">
        <ele>1289.898438</ele>
        <time>2020-07-18T19:14:20.000Z</time>
      </trkpt>
      <trkpt lat="34.297476" lon="-117.36693">
        <ele>1289.199219</ele>
        <time>2020-07-18T19:14:21.000Z</time>
      </trkpt>
      <trkpt lat="34.297447" lon="-117.366893">
        <ele>1289.199219</ele>
        <time>2020-07-18T19:14:23.000Z</time>
      </trkpt>
      <trkpt lat="34.297398" lon="-117.366838">
        <ele>1289.398438</ele>
        <time>2020-07-18T19:14:25.000Z</time>
      </trkpt>
      <trkpt lat="34.297369" lon="-117.366811">
        <ele>1289.000000</ele>
        <time>2020-07-18T19:14:30.000Z</time>
      </trkpt>
      <trkpt lat="34.297321" lon="-117.366749">
        <ele>1289.199219</ele>
        <time>2020-07-18T19:14:31.000Z</time>
      </trkpt>
      <trkpt lat="34.297309" lon="-117.366725">
        <ele>1288.398438</ele>
        <time>2020-07-18T19:14:34.000Z</time>
      </trkpt>
      <trkpt lat="34.297279" lon="-117.366643">
        <ele>1288.500000</ele>
        <time>2020-07-18T19:14:35.000Z</time>
      </trkpt>
      <trkpt lat="34.297283" lon="-117.366607">
        <ele>1287.796875</ele>
        <time>2020-07-18T19:14:37.000Z</time>
      </trkpt>
      <trkpt lat="34.297313" lon="-117.366536">
        <ele>1287.597656</ele>
        <time>2020-07-18T19:14:38.000Z</time>
      </trkpt>
      <trkpt lat="34.297342" lon="-117.366499">
        <ele>1287.199219</ele>
        <time>2020-07-18T19:14:39.000Z</time>
      </trkpt>
      <trkpt lat="34.29742" lon="-117.366418">
        <ele>1286.796875</ele>
        <time>2020-07-18T19:14:41.000Z</time>
      </trkpt>
      <trkpt lat="34.297566" lon="-117.366279">
        <ele>1285.898438</ele>
        <time>2020-07-18T19:14:45.000Z</time>
      </trkpt>
      <trkpt lat="34.297589" lon="-117.366252">
        <ele>1286.500000</ele>
        <time>2020-07-18T19:14:48.000Z</time>
      </trkpt>
      <trkpt lat="34.297651" lon="-117.366165">
        <ele>1286.000000</ele>
        <time>2020-07-18T19:14:50.000Z</time>
      </trkpt>
      <trkpt lat="34.297753" lon="-117.366027">
        <ele>1283.898438</ele>
        <time>2020-07-18T19:14:58.000Z</time>
      </trkpt>
      <trkpt lat="34.297764" lon="-117.365996">
        <ele>1281.898438</ele>
        <time>2020-07-18T19:15:01.000Z</time>
      </trkpt>
      <trkpt lat="34.297764" lon="-117.365885">
        <ele>1282.097656</ele>
        <time>2020-07-18T19:15:02.000Z</time>
      </trkpt>
      <trkpt lat="34.297755" lon="-117.365859">
        <ele>1280.199219</ele>
        <time>2020-07-18T19:15:06.000Z</time>
      </trkpt>
      <trkpt lat="34.297717" lon="-117.365788">
        <ele>1280.199219</ele>
        <time>2020-07-18T19:15:08.000Z</time>
      </trkpt>
      <trkpt lat="34.297694" lon="-117.365771">
        <ele>1278.898438</ele>
        <time>2020-07-18T19:15:13.000Z</time>
      </trkpt>
      <trkpt lat="34.297626" lon="-117.365719">
        <ele>1278.898438</ele>
        <time>2020-07-18T19:15:14.000Z</time>
      </trkpt>
      <trkpt lat="34.297612" lon="-117.365704">
        <ele>1278.097656</ele>
        <time>2020-07-18T19:15:19.000Z</time>
      </trkpt>
      <trkpt lat="34.29755" lon="-117.365628">
        <ele>1278.097656</ele>
        <time>2020-07-18T19:15:20.000Z</time>
      </trkpt>
      <trkpt lat="34.297528" lon="-117.3656">
        <ele>1278.796875</ele>
        <time>2020-07-18T19:15:22.000Z</time>
      </trkpt>
      <trkpt lat="34.297446" lon="-117.365477">
        <ele>1278.097656</ele>
        <time>2020-07-18T19:15:24.000Z</time>
      </trkpt>
      <trkpt lat="34.297394" lon="-117.365381">
        <ele>1277.597656</ele>
        <time>2020-07-18T19:15:26.000Z</time>
      </trkpt>
      <trkpt lat="34.297317" lon="-117.365231">
        <ele>1275.796875</ele>
        <time>2020-07-18T19:15:30.000Z</time>
      </trkpt>
      <trkpt lat="34.297308" lon="-117.365204">
        <ele>1272.000000</ele>
        <time>2020-07-18T19:15:35.000Z</time>
      </trkpt>
      <trkpt lat="34.297266" lon="-117.36514">
        <ele>1271.199219</ele>
        <time>2020-07-18T19:15:37.000Z</time>
      </trkpt>
      <trkpt lat="34.297203" lon="-117.36504">
        <ele>1269.898438</ele>
        <time>2020-07-18T19:15:40.000Z</time>
      </trkpt>
      <trkpt lat="34.29718" lon="-117.364997">
        <ele>1270.597656</ele>
        <time>2020-07-18T19:15:42.000Z</time>
      </trkpt>
      <trkpt lat="34.297115" lon="-117.364861">
        <ele>1270.296875</ele>
        <time>2020-07-18T19:15:44.000Z</time>
      </trkpt>
      <trkpt lat="34.297067" lon="-117.364744">
        <ele>1270.500000</ele>
        <time>2020-07-18T19:15:47.000Z</time>
      </trkpt>
      <trkpt lat="34.297" lon="-117.364567">
        <ele>1268.597656</ele>
        <time>2020-07-18T19:15:53.000Z</time>
      </trkpt>
      <trkpt lat="34.296992" lon="-117.364539">
        <ele>1267.796875</ele>
        <time>2020-07-18T19:15:56.000Z</time>
      </trkpt>
      <trkpt lat="34.296957" lon="-117.364379">
        <ele>1266.500000</ele>
        <time>2020-07-18T19:16:00.000Z</time>
      </trkpt>
      <trkpt lat="34.296917" lon="-117.364143">
        <ele>1264.097656</ele>
        <time>2020-07-18T19:16:07.000Z</time>
      </trkpt>
      <trkpt lat="34.296909" lon="-117.364026">
        <ele>1263.296875</ele>
        <time>2020-07-18T19:16:10.000Z</time>
      </trkpt>
      <trkpt lat="34.29691" lon="-117.363988">
        <ele>1262.796875</ele>
        <time>2020-07-18T19:16:12.000Z</time>
      </trkpt>
      <trkpt lat="34.296923" lon="-117.363713">
        <ele>1261.597656</ele>
        <time>2020-07-18T19:16:18.000Z</time>
      </trkpt>
      <trkpt lat="34.29692" lon="-117.363668">
        <ele>1261.097656</ele>
        <time>2020-07-18T19:16:20.000Z</time>
      </trkpt>
      <trkpt lat="34.296906" lon="-117.363584">
        <ele>1261.000000</ele>
        <time>2020-07-18T19:16:21.000Z</time>
      </trkpt>
      <trkpt lat="34.296874" lon="-117.363413">
        <ele>1258.796875</ele>
        <time>2020-07-18T19:16:26.000Z</time>
      </trkpt>
      <trkpt lat="34.296871" lon="-117.363385">
        <ele>1258.796875</ele>
        <time>2020-07-18T19:16:29.000Z</time>
      </trkpt>
      <trkpt lat="34.296867" lon="-117.363285">
        <ele>1257.699219</ele>
        <time>2020-07-18T19:16:30.000Z</time>
      </trkpt>
      <trkpt lat="34.296874" lon="-117.363247">
        <ele>1257.500000</ele>
        <time>2020-07-18T19:16:32.000Z</time>
      </trkpt>
      <trkpt lat="34.296909" lon="-117.363176">
        <ele>1257.898438</ele>
        <time>2020-07-18T19:16:33.000Z</time>
      </trkpt>
      <trkpt lat="34.29693" lon="-117.36314">
        <ele>1257.699219</ele>
        <time>2020-07-18T19:16:35.000Z</time>
      </trkpt>
      <trkpt lat="34.296969" lon="-117.363082">
        <ele>1257.796875</ele>
        <time>2020-07-18T19:16:36.000Z</time>
      </trkpt>
      <trkpt lat="34.296985" lon="-117.36305">
        <ele>1258.500000</ele>
        <time>2020-07-18T19:16:38.000Z</time>
      </trkpt>
      <trkpt lat="34.297035" lon="-117.362947">
        <ele>1258.597656</ele>
        <time>2020-07-18T19:16:40.000Z</time>
      </trkpt>
      <trkpt lat="34.297046" lon="-117.362911">
        <ele>1259.500000</ele>
        <time>2020-07-18T19:16:43.000Z</time>
      </trkpt>
      <trkpt lat="34.297071" lon="-117.362813">
        <ele>1260.199219</ele>
        <time>2020-07-18T19:16:44.000Z</time>
      </trkpt>
      <trkpt lat="34.297073" lon="-117.362777">
        <ele>1260.597656</ele>
        <time>2020-07-18T19:16:46.000Z</time>
      </trkpt>
      <trkpt lat="34.297084" lon="-117.362287">
        <ele>1264.898438</ele>
        <time>2020-07-18T19:16:56.000Z</time>
      </trkpt>
      <trkpt lat="34.297091" lon="-117.362245">
        <ele>1265.199219</ele>
        <time>2020-07-18T19:16:58.000Z</time>
      </trkpt>
      <trkpt lat="34.297121" lon="-117.362179">
        <ele>1266.097656</ele>
        <time>2020-07-18T19:17:00.000Z</time>
      </trkpt>
      <trkpt lat="34.297156" lon="-117.362131">
        <ele>1266.796875</ele>
        <time>2020-07-18T19:17:02.000Z</time>
      </trkpt>
      <trkpt lat="34.297213" lon="-117.362046">
        <ele>1267.699219</ele>
        <time>2020-07-18T19:17:05.000Z</time>
      </trkpt>
      <trkpt lat="34.297224" lon="-117.362025">
        <ele>1268.796875</ele>
        <time>2020-07-18T19:17:08.000Z</time>
      </trkpt>
      <trkpt lat="34.297263" lon="-117.361947">
        <ele>1269.398438</ele>
        <time>2020-07-18T19:17:09.000Z</time>
      </trkpt>
      <trkpt lat="34.297272" lon="-117.361911">
        <ele>1269.796875</ele>
        <time>2020-07-18T19:17:11.000Z</time>
      </trkpt>
      <trkpt lat="34.297274" lon="-117.361821">
        <ele>1270.097656</ele>
        <time>2020-07-18T19:17:12.000Z</time>
      </trkpt>
      <trkpt lat="34.297267" lon="-117.361775">
        <ele>1270.500000</ele>
        <time>2020-07-18T19:17:14.000Z</time>
      </trkpt>
      <trkpt lat="34.297236" lon="-117.361682">
        <ele>1271.000000</ele>
        <time>2020-07-18T19:17:15.000Z</time>
      </trkpt>
      <trkpt lat="34.297223" lon="-117.361634">
        <ele>1271.398438</ele>
        <time>2020-07-18T19:17:17.000Z</time>
      </trkpt>
      <trkpt lat="34.297207" lon="-117.361541">
        <ele>1271.699219</ele>
        <time>2020-07-18T19:17:18.000Z</time>
      </trkpt>
      <trkpt lat="34.297208" lon="-117.361498">
        <ele>1272.097656</ele>
        <time>2020-07-18T19:17:20.000Z</time>
      </trkpt>
      <trkpt lat="34.297228" lon="-117.361425">
        <ele>1272.000000</ele>
        <time>2020-07-18T19:17:21.000Z</time>
      </trkpt>
      <trkpt lat="34.297246" lon="-117.36139">
        <ele>1272.097656</ele>
        <time>2020-07-18T19:17:23.000Z</time>
      </trkpt>
      <trkpt lat="34.297504" lon="-117.360912">
        <ele>1275.597656</ele>
        <time>2020-07-18T19:17:32.000Z</time>
      </trkpt>
      <trkpt lat="34.297697" lon="-117.360569">
        <ele>1278.699219</ele>
        <time>2020-07-18T19:17:39.000Z</time>
      </trkpt>
      <trkpt lat="34.297751" lon="-117.360463">
        <ele>1279.000000</ele>
        <time>2020-07-18T19:17:42.000Z</time>
      </trkpt>
      <trkpt lat="34.297776" lon="-117.360429">
        <ele>1279.898438</ele>
        <time>2020-07-18T19:17:44.000Z</time>
      </trkpt>
      <trkpt lat="34.297823" lon="-117.36036">
        <ele>1280.199219</ele>
        <time>2020-07-18T19:17:45.000Z</time>
      </trkpt>
      <trkpt lat="34.29784" lon="-117.360321">
        <ele>1280.296875</ele>
        <time>2020-07-18T19:17:47.000Z</time>
      </trkpt>
      <trkpt lat="34.297851" lon="-117.36023">
        <ele>1279.398438</ele>
        <time>2020-07-18T19:17:48.000Z</time>
      </trkpt>
      <trkpt lat="34.297842" lon="-117.360177">
        <ele>1279.500000</ele>
        <time>2020-07-18T19:17:49.000Z</time>
      </trkpt>
      <trkpt lat="34.297825" lon="-117.360123">
        <ele>1279.398438</ele>
        <time>2020-07-18T19:17:50.000Z</time>
      </trkpt>
      <trkpt lat="34.297756" lon="-117.359897">
        <ele>1277.199219</ele>
        <time>2020-07-18T19:17:54.000Z</time>
      </trkpt>
      <trkpt lat="34.297633" lon="-117.359412">
        <ele>1275.597656</ele>
        <time>2020-07-18T19:18:04.000Z</time>
      </trkpt>
      <trkpt lat="34.297601" lon="-117.359191">
        <ele>1275.500000</ele>
        <time>2020-07-18T19:18:08.000Z</time>
      </trkpt>
      <trkpt lat="34.297597" lon="-117.359143">
        <ele>1275.398438</ele>
        <time>2020-07-18T19:18:10.000Z</time>
      </trkpt>
      <trkpt lat="34.297595" lon="-117.359058">
        <ele>1275.500000</ele>
        <time>2020-07-18T19:18:11.000Z</time>
      </trkpt>
      <trkpt lat="34.297599" lon="-117.359013">
        <ele>1275.500000</ele>
        <time>2020-07-18T19:18:13.000Z</time>
      </trkpt>
      <trkpt lat="34.297619" lon="-117.358916">
        <ele>1275.500000</ele>
        <time>2020-07-18T19:18:14.000Z</time>
      </trkpt>
      <trkpt lat="34.297638" lon="-117.358867">
        <ele>1275.296875</ele>
        <time>2020-07-18T19:18:16.000Z</time>
      </trkpt>
      <trkpt lat="34.297798" lon="-117.358511">
        <ele>1274.597656</ele>
        <time>2020-07-18T19:18:22.000Z</time>
      </trkpt>
      <trkpt lat="34.29783" lon="-117.358392">
        <ele>1274.500000</ele>
        <time>2020-07-18T19:18:25.000Z</time>
      </trkpt>
      <trkpt lat="34.297838" lon="-117.358351">
        <ele>1274.500000</ele>
        <time>2020-07-18T19:18:27.000Z</time>
      </trkpt>
      <trkpt lat="34.29786" lon="-117.358199">
        <ele>1274.500000</ele>
        <time>2020-07-18T19:18:30.000Z</time>
      </trkpt>
      <trkpt lat="34.29786" lon="-117.358162">
        <ele>1274.296875</ele>
        <time>2020-07-18T19:18:32.000Z</time>
      </trkpt>
      <trkpt lat="34.297851" lon="-117.358088">
        <ele>1274.097656</ele>
        <time>2020-07-18T19:18:33.000Z</time>
      </trkpt>
      <trkpt lat="34.297842" lon="-117.358051">
        <ele>1274.199219</ele>
        <time>2020-07-18T19:18:35.000Z</time>
      </trkpt>
      <trkpt lat="34.297811" lon="-117.357984">
        <ele>1274.296875</ele>
        <time>2020-07-18T19:18:36.000Z</time>
      </trkpt>
      <trkpt lat="34.29779" lon="-117.357953">
        <ele>1275.199219</ele>
        <time>2020-07-18T19:18:39.000Z</time>
      </trkpt>
      <trkpt lat="34.297732" lon="-117.357888">
        <ele>1275.296875</ele>
        <time>2020-07-18T19:18:40.000Z</time>
      </trkpt>
      <trkpt lat="34.297567" lon="-117.357718">
        <ele>1278.199219</ele>
        <time>2020-07-18T19:18:48.000Z</time>
      </trkpt>
      <trkpt lat="34.297549" lon="-117.357692">
        <ele>1278.796875</ele>
        <time>2020-07-18T19:18:51.000Z</time>
      </trkpt>
      <trkpt lat="34.297507" lon="-117.357608">
        <ele>1278.796875</ele>
        <time>2020-07-18T19:18:52.000Z</time>
      </trkpt>
      <trkpt lat="34.297498" lon="-117.357579">
        <ele>1278.699219</ele>
        <time>2020-07-18T19:18:55.000Z</time>
      </trkpt>
      <trkpt lat="34.297483" lon="-117.357484">
        <ele>1278.796875</ele>
        <time>2020-07-18T19:18:56.000Z</time>
      </trkpt>
      <trkpt lat="34.297482" lon="-117.357446">
        <ele>1279.199219</ele>
        <time>2020-07-18T19:18:58.000Z</time>
      </trkpt>
      <trkpt lat="34.29749" lon="-117.35737">
        <ele>1278.898438</ele>
        <time>2020-07-18T19:18:59.000Z</time>
      </trkpt>
      <trkpt lat="34.297498" lon="-117.357329">
        <ele>1278.699219</ele>
        <time>2020-07-18T19:19:01.000Z</time>
      </trkpt>
      <trkpt lat="34.297538" lon="-117.35717">
        <ele>1279.199219</ele>
        <time>2020-07-18T19:19:04.000Z</time>
      </trkpt>
      <trkpt lat="34.297577" lon="-117.357047">
        <ele>1279.796875</ele>
        <time>2020-07-18T19:19:07.000Z</time>
      </trkpt>
      <trkpt lat="34.297677" lon="-117.356738">
        <ele>1277.199219</ele>
        <time>2020-07-18T19:19:15.000Z</time>
      </trkpt>
      <trkpt lat="34.297685" lon="-117.356696">
        <ele>1277.398438</ele>
        <time>2020-07-18T19:19:17.000Z</time>
      </trkpt>
      <trkpt lat="34.297684" lon="-117.356606">
        <ele>1277.500000</ele>
        <time>2020-07-18T19:19:18.000Z</time>
      </trkpt>
      <trkpt lat="34.297674" lon="-117.356558">
        <ele>1277.597656</ele>
        <time>2020-07-18T19:19:20.000Z</time>
      </trkpt>
      <trkpt lat="34.297641" lon="-117.356467">
        <ele>1277.597656</ele>
        <time>2020-07-18T19:19:21.000Z</time>
      </trkpt>
      <trkpt lat="34.297619" lon="-117.356421">
        <ele>1277.597656</ele>
        <time>2020-07-18T19:19:23.000Z</time>
      </trkpt>
      <trkpt lat="34.297505" lon="-117.356167">
        <ele>1279.097656</ele>
        <time>2020-07-18T19:19:28.000Z</time>
      </trkpt>
      <trkpt lat="34.297494" lon="-117.35613">
        <ele>1278.898438</ele>
        <time>2020-07-18T19:19:30.000Z</time>
      </trkpt>
      <trkpt lat="34.297432" lon="-117.355888">
        <ele>1278.199219</ele>
        <time>2020-07-18T19:19:35.000Z</time>
      </trkpt>
      <trkpt lat="34.297412" lon="-117.35585">
        <ele>1278.000000</ele>
        <time>2020-07-18T19:19:37.000Z</time>
      </trkpt>
      <trkpt lat="34.297359" lon="-117.355786">
        <ele>1278.398438</ele>
        <time>2020-07-18T19:19:38.000Z</time>
      </trkpt>
      <trkpt lat="34.297334" lon="-117.355766">
        <ele>1279.199219</ele>
        <time>2020-07-18T19:19:41.000Z</time>
      </trkpt>
      <trkpt lat="34.297274" lon="-117.355735">
        <ele>1279.000000</ele>
        <time>2020-07-18T19:19:43.000Z</time>
      </trkpt>
      <trkpt lat="34.297229" lon="-117.355709">
        <ele>1279.097656</ele>
        <time>2020-07-18T19:19:45.000Z</time>
      </trkpt>
      <trkpt lat="34.297184" lon="-117.355667">
        <ele>1278.796875</ele>
        <time>2020-07-18T19:19:47.000Z</time>
      </trkpt>
      <trkpt lat="34.297144" lon="-117.355594">
        <ele>1278.296875</ele>
        <time>2020-07-18T19:19:48.000Z</time>
      </trkpt>
      <trkpt lat="34.297125" lon="-117.355547">
        <ele>1278.199219</ele>
        <time>2020-07-18T19:19:50.000Z</time>
      </trkpt>
      <trkpt lat="34.297051" lon="-117.355332">
        <ele>1277.597656</ele>
        <time>2020-07-18T19:19:54.000Z</time>
      </trkpt>
      <trkpt lat="34.297038" lon="-117.355308">
        <ele>1277.898438</ele>
        <time>2020-07-18T19:20:00.000Z</time>
      </trkpt>
      <trkpt lat="34.297005" lon="-117.355228">
        <ele>1278.296875</ele>
        <time>2020-07-18T19:20:01.000Z</time>
      </trkpt>
      <trkpt lat="34.296926" lon="-117.355009">
        <ele>1279.500000</ele>
        <time>2020-07-18T19:20:06.000Z</time>
      </trkpt>
      <trkpt lat="34.296916" lon="-117.354953">
        <ele>1279.699219</ele>
        <time>2020-07-18T19:20:07.000Z</time>
      </trkpt>
      <trkpt lat="34.296908" lon="-117.354896">
        <ele>1279.597656</ele>
        <time>2020-07-18T19:20:08.000Z</time>
      </trkpt>
      <trkpt lat="34.296903" lon="-117.354839">
        <ele>1279.898438</ele>
        <time>2020-07-18T19:20:09.000Z</time>
      </trkpt>
      <trkpt lat="34.296885" lon="-117.354571">
        <ele>1280.398438</ele>
        <time>2020-07-18T19:20:14.000Z</time>
      </trkpt>
      <trkpt lat="34.29686" lon="-117.354413">
        <ele>1280.296875</ele>
        <time>2020-07-18T19:20:17.000Z</time>
      </trkpt>
      <trkpt lat="34.296863" lon="-117.354353">
        <ele>1280.398438</ele>
        <time>2020-07-18T19:20:18.000Z</time>
      </trkpt>
      <trkpt lat="34.296871" lon="-117.354295">
        <ele>1280.296875</ele>
        <time>2020-07-18T19:20:19.000Z</time>
      </trkpt>
      <trkpt lat="34.296883" lon="-117.354239">
        <ele>1280.597656</ele>
        <time>2020-07-18T19:20:20.000Z</time>
      </trkpt>
      <trkpt lat="34.296901" lon="-117.354183">
        <ele>1280.796875</ele>
        <time>2020-07-18T19:20:21.000Z</time>
      </trkpt>
      <trkpt lat="34.296923" lon="-117.354133">
        <ele>1280.500000</ele>
        <time>2020-07-18T19:20:23.000Z</time>
      </trkpt>
      <trkpt lat="34.296968" lon="-117.354057">
        <ele>1280.500000</ele>
        <time>2020-07-18T19:20:24.000Z</time>
      </trkpt>
      <trkpt lat="34.29699" lon="-117.354025">
        <ele>1280.199219</ele>
        <time>2020-07-18T19:20:26.000Z</time>
      </trkpt>
      <trkpt lat="34.297022" lon="-117.353955">
        <ele>1280.699219</ele>
        <time>2020-07-18T19:20:27.000Z</time>
      </trkpt>
      <trkpt lat="34.297037" lon="-117.353916">
        <ele>1281.199219</ele>
        <time>2020-07-18T19:20:29.000Z</time>
      </trkpt>
      <trkpt lat="34.297062" lon="-117.353815">
        <ele>1281.199219</ele>
        <time>2020-07-18T19:20:30.000Z</time>
      </trkpt>
      <trkpt lat="34.297067" lon="-117.35376">
        <ele>1281.398438</ele>
        <time>2020-07-18T19:20:31.000Z</time>
      </trkpt>
      <trkpt lat="34.297068" lon="-117.353705">
        <ele>1281.796875</ele>
        <time>2020-07-18T19:20:33.000Z</time>
      </trkpt>
      <trkpt lat="34.297062" lon="-117.353601">
        <ele>1281.898438</ele>
        <time>2020-07-18T19:20:34.000Z</time>
      </trkpt>
      <trkpt lat="34.297054" lon="-117.353553">
        <ele>1282.199219</ele>
        <time>2020-07-18T19:20:36.000Z</time>
      </trkpt>
      <trkpt lat="34.297024" lon="-117.353471">
        <ele>1282.000000</ele>
        <time>2020-07-18T19:20:37.000Z</time>
      </trkpt>
      <trkpt lat="34.297006" lon="-117.353434">
        <ele>1281.296875</ele>
        <time>2020-07-18T19:20:39.000Z</time>
      </trkpt>
      <trkpt lat="34.296964" lon="-117.353365">
        <ele>1281.000000</ele>
        <time>2020-07-18T19:20:40.000Z</time>
      </trkpt>
      <trkpt lat="34.296833" lon="-117.353174">
        <ele>1280.699219</ele>
        <time>2020-07-18T19:20:45.000Z</time>
      </trkpt>
      <trkpt lat="34.296722" lon="-117.353029">
        <ele>1279.699219</ele>
        <time>2020-07-18T19:20:49.000Z</time>
      </trkpt>
      <trkpt lat="34.296695" lon="-117.352999">
        <ele>1280.000000</ele>
        <time>2020-07-18T19:20:51.000Z</time>
      </trkpt>
      <trkpt lat="34.29665" lon="-117.352955">
        <ele>1279.000000</ele>
        <time>2020-07-18T19:20:53.000Z</time>
      </trkpt>
      <trkpt lat="34.296603" lon="-117.352921">
        <ele>1278.796875</ele>
        <time>2020-07-18T19:20:55.000Z</time>
      </trkpt>
      <trkpt lat="34.296575" lon="-117.352887">
        <ele>1280.398438</ele>
        <time>2020-07-18T19:21:29.000Z</time>
      </trkpt>
      <trkpt lat="34.29655" lon="-117.352823">
        <ele>1280.000000</ele>
        <time>2020-07-18T19:21:31.000Z</time>
      </trkpt>
      <trkpt lat="34.296528" lon="-117.352772">
        <ele>1279.898438</ele>
        <time>2020-07-18T19:21:33.000Z</time>
      </trkpt>
      <trkpt lat="34.296494" lon="-117.352714">
        <ele>1279.500000</ele>
        <time>2020-07-18T19:21:34.000Z</time>
      </trkpt>
      <trkpt lat="34.296425" lon="-117.35262">
        <ele>1278.500000</ele>
        <time>2020-07-18T19:21:37.000Z</time>
      </trkpt>
      <trkpt lat="34.296348" lon="-117.352526">
        <ele>1278.296875</ele>
        <time>2020-07-18T19:21:40.000Z</time>
      </trkpt>
      <trkpt lat="34.296325" lon="-117.352491">
        <ele>1278.796875</ele>
        <time>2020-07-18T19:21:42.000Z</time>
      </trkpt>
      <trkpt lat="34.296297" lon="-117.352403">
        <ele>1278.898438</ele>
        <time>2020-07-18T19:21:43.000Z</time>
      </trkpt>
      <trkpt lat="34.296298" lon="-117.352353">
        <ele>1277.500000</ele>
        <time>2020-07-18T19:21:45.000Z</time>
      </trkpt>
      <trkpt lat="34.296325" lon="-117.352248">
        <ele>1276.597656</ele>
        <time>2020-07-18T19:21:46.000Z</time>
      </trkpt>
      <trkpt lat="34.296352" lon="-117.352201">
        <ele>1276.500000</ele>
        <time>2020-07-18T19:21:47.000Z</time>
      </trkpt>
      <trkpt lat="34.296386" lon="-117.352161">
        <ele>1276.597656</ele>
        <time>2020-07-18T19:21:48.000Z</time>
      </trkpt>
      <trkpt lat="34.296425" lon="-117.35213">
        <ele>1276.097656</ele>
        <time>2020-07-18T19:21:50.000Z</time>
      </trkpt>
      <trkpt lat="34.296498" lon="-117.352084">
        <ele>1276.000000</ele>
        <time>2020-07-18T19:21:51.000Z</time>
      </trkpt>
      <trkpt lat="34.29653" lon="-117.352065">
        <ele>1276.000000</ele>
        <time>2020-07-18T19:21:53.000Z</time>
      </trkpt>
      <trkpt lat="34.296594" lon="-117.35201">
        <ele>1275.500000</ele>
        <time>2020-07-18T19:21:54.000Z</time>
      </trkpt>
      <trkpt lat="34.29662" lon="-117.351974">
        <ele>1274.699219</ele>
        <time>2020-07-18T19:21:56.000Z</time>
      </trkpt>
      <trkpt lat="34.296654" lon="-117.35189">
        <ele>1274.199219</ele>
        <time>2020-07-18T19:21:57.000Z</time>
      </trkpt>
      <trkpt lat="34.296664" lon="-117.351856">
        <ele>1273.000000</ele>
        <time>2020-07-18T19:22:02.000Z</time>
      </trkpt>
      <trkpt lat="34.296673" lon="-117.351781">
        <ele>1271.597656</ele>
        <time>2020-07-18T19:22:15.000Z</time>
      </trkpt>
      <trkpt lat="34.296663" lon="-117.35174">
        <ele>1272.097656</ele>
        <time>2020-07-18T19:22:20.000Z</time>
      </trkpt>
      <trkpt lat="34.296668" lon="-117.351672">
        <ele>1272.500000</ele>
        <time>2020-07-18T19:22:24.000Z</time>
      </trkpt>
      <trkpt lat="34.296672" lon="-117.351543">
        <ele>1269.796875</ele>
        <time>2020-07-18T19:22:53.000Z</time>
      </trkpt>
      <trkpt lat="34.296678" lon="-117.351517">
        <ele>1269.398438</ele>
        <time>2020-07-18T19:22:56.000Z</time>
      </trkpt>
      <trkpt lat="34.296714" lon="-117.351438">
        <ele>1269.097656</ele>
        <time>2020-07-18T19:22:57.000Z</time>
      </trkpt>
      <trkpt lat="34.29673" lon="-117.351414">
        <ele>1269.296875</ele>
        <time>2020-07-18T19:23:00.000Z</time>
      </trkpt>
      <trkpt lat="34.296785" lon="-117.351338">
        <ele>1269.199219</ele>
        <time>2020-07-18T19:23:01.000Z</time>
      </trkpt>
      <trkpt lat="34.296806" lon="-117.351312">
        <ele>1269.199219</ele>
        <time>2020-07-18T19:23:03.000Z</time>
      </trkpt>
      <trkpt lat="34.296855" lon="-117.351259">
        <ele>1269.699219</ele>
        <time>2020-07-18T19:23:04.000Z</time>
      </trkpt>
      <trkpt lat="34.296884" lon="-117.351236">
        <ele>1270.000000</ele>
        <time>2020-07-18T19:23:06.000Z</time>
      </trkpt>
      <trkpt lat="34.297036" lon="-117.35112">
        <ele>1270.296875</ele>
        <time>2020-07-18T19:23:10.000Z</time>
      </trkpt>
      <trkpt lat="34.297257" lon="-117.350947">
        <ele>1271.097656</ele>
        <time>2020-07-18T19:23:17.000Z</time>
      </trkpt>
      <trkpt lat="34.297396" lon="-117.350806">
        <ele>1271.000000</ele>
        <time>2020-07-18T19:23:21.000Z</time>
      </trkpt>
      <trkpt lat="34.297428" lon="-117.350768">
        <ele>1270.500000</ele>
        <time>2020-07-18T19:23:23.000Z</time>
      </trkpt>
      <trkpt lat="34.297483" lon="-117.350681">
        <ele>1270.500000</ele>
        <time>2020-07-18T19:23:24.000Z</time>
      </trkpt>
      <trkpt lat="34.297505" lon="-117.350636">
        <ele>1270.296875</ele>
        <time>2020-07-18T19:23:26.000Z</time>
      </trkpt>
      <trkpt lat="34.297555" lon="-117.350512">
        <ele>1271.097656</ele>
        <time>2020-07-18T19:23:28.000Z</time>
      </trkpt>
      <trkpt lat="34.297637" lon="-117.350311">
        <ele>1271.398438</ele>
        <time>2020-07-18T19:23:34.000Z</time>
      </trkpt>
      <trkpt lat="34.297652" lon="-117.350283">
        <ele>1270.296875</ele>
        <time>2020-07-18T19:23:37.000Z</time>
      </trkpt>
      <trkpt lat="34.297718" lon="-117.350208">
        <ele>1270.000000</ele>
        <time>2020-07-18T19:23:38.000Z</time>
      </trkpt>
      <trkpt lat="34.297748" lon="-117.35019">
        <ele>1270.000000</ele>
        <time>2020-07-18T19:23:40.000Z</time>
      </trkpt>
      <trkpt lat="34.297814" lon="-117.350166">
        <ele>1269.296875</ele>
        <time>2020-07-18T19:23:41.000Z</time>
      </trkpt>
      <trkpt lat="34.297849" lon="-117.35016">
        <ele>1269.000000</ele>
        <time>2020-07-18T19:23:43.000Z</time>
      </trkpt>
      <trkpt lat="34.297923" lon="-117.35016">
        <ele>1268.898438</ele>
        <time>2020-07-18T19:23:44.000Z</time>
      </trkpt>
      <trkpt lat="34.297959" lon="-117.350163">
        <ele>1268.500000</ele>
        <time>2020-07-18T19:23:46.000Z</time>
      </trkpt>
      <trkpt lat="34.298026" lon="-117.350174">
        <ele>1268.398438</ele>
        <time>2020-07-18T19:23:47.000Z</time>
      </trkpt>
      <trkpt lat="34.298056" lon="-117.350183">
        <ele>1267.597656</ele>
        <time>2020-07-18T19:23:50.000Z</time>
      </trkpt>
      <trkpt lat="34.298135" lon="-117.350216">
        <ele>1267.398438</ele>
        <time>2020-07-18T19:23:51.000Z</time>
      </trkpt>
      <trkpt lat="34.298159" lon="-117.350234">
        <ele>1266.199219</ele>
        <time>2020-07-18T19:23:54.000Z</time>
      </trkpt>
      <trkpt lat="34.298208" lon="-117.350303">
        <ele>1267.000000</ele>
        <time>2020-07-18T19:23:55.000Z</time>
      </trkpt>
      <trkpt lat="34.298224" lon="-117.350337">
        <ele>1267.097656</ele>
        <time>2020-07-18T19:23:57.000Z</time>
      </trkpt>
      <trkpt lat="34.298253" lon="-117.350405">
        <ele>1266.796875</ele>
        <time>2020-07-18T19:23:58.000Z</time>
      </trkpt>
      <trkpt lat="34.298263" lon="-117.350436">
        <ele>1265.097656</ele>
        <time>2020-07-18T19:24:01.000Z</time>
      </trkpt>
      <trkpt lat="34.298281" lon="-117.350534">
        <ele>1265.000000</ele>
        <time>2020-07-18T19:24:02.000Z</time>
      </trkpt>
      <trkpt lat="34.298314" lon="-117.350712">
        <ele>1264.296875</ele>
        <time>2020-07-18T19:24:08.000Z</time>
      </trkpt>
      <trkpt lat="34.298322" lon="-117.35074">
        <ele>1264.296875</ele>
        <time>2020-07-18T19:24:11.000Z</time>
      </trkpt>
      <trkpt lat="34.298357" lon="-117.350823">
        <ele>1264.199219</ele>
        <time>2020-07-18T19:24:12.000Z</time>
      </trkpt>
      <trkpt lat="34.298377" lon="-117.350851">
        <ele>1263.199219</ele>
        <time>2020-07-18T19:24:14.000Z</time>
      </trkpt>
      <trkpt lat="34.298423" lon="-117.350903">
        <ele>1263.097656</ele>
        <time>2020-07-18T19:24:15.000Z</time>
      </trkpt>
      <trkpt lat="34.298494" lon="-117.350993">
        <ele>1262.398438</ele>
        <time>2020-07-18T19:24:18.000Z</time>
      </trkpt>
      <trkpt lat="34.298514" lon="-117.351023">
        <ele>1262.097656</ele>
        <time>2020-07-18T19:24:20.000Z</time>
      </trkpt>
      <trkpt lat="34.298558" lon="-117.351081">
        <ele>1261.796875</ele>
        <time>2020-07-18T19:24:21.000Z</time>
      </trkpt>
      <trkpt lat="34.298835" lon="-117.351445">
        <ele>1259.296875</ele>
        <time>2020-07-18T19:24:31.000Z</time>
      </trkpt>
      <trkpt lat="34.298901" lon="-117.351553">
        <ele>1258.097656</ele>
        <time>2020-07-18T19:24:35.000Z</time>
      </trkpt>
      <trkpt lat="34.298916" lon="-117.351583">
        <ele>1258.296875</ele>
        <time>2020-07-18T19:24:37.000Z</time>
      </trkpt>
      <trkpt lat="34.298947" lon="-117.35167">
        <ele>1258.500000</ele>
        <time>2020-07-18T19:24:38.000Z</time>
      </trkpt>
      <trkpt lat="34.29896" lon="-117.35172">
        <ele>1258.097656</ele>
        <time>2020-07-18T19:24:39.000Z</time>
      </trkpt>
      <trkpt lat="34.298984" lon="-117.351834">
        <ele>1257.199219</ele>
        <time>2020-07-18T19:24:41.000Z</time>
      </trkpt>
      <trkpt lat="34.299026" lon="-117.35206">
        <ele>1256.398438</ele>
        <time>2020-07-18T19:24:45.000Z</time>
      </trkpt>
      <trkpt lat="34.29904" lon="-117.352104">
        <ele>1256.097656</ele>
        <time>2020-07-18T19:24:47.000Z</time>
      </trkpt>
      <trkpt lat="34.299098" lon="-117.352264">
        <ele>1255.699219</ele>
        <time>2020-07-18T19:24:51.000Z</time>
      </trkpt>
      <trkpt lat="34.299115" lon="-117.352293">
        <ele>1255.296875</ele>
        <time>2020-07-18T19:24:53.000Z</time>
      </trkpt>
      <trkpt lat="34.299165" lon="-117.352338">
        <ele>1254.796875</ele>
        <time>2020-07-18T19:24:54.000Z</time>
      </trkpt>
      <trkpt lat="34.299196" lon="-117.352351">
        <ele>1254.597656</ele>
        <time>2020-07-18T19:24:56.000Z</time>
      </trkpt>
      <trkpt lat="34.299265" lon="-117.352354">
        <ele>1254.398438</ele>
        <time>2020-07-18T19:24:57.000Z</time>
      </trkpt>
      <trkpt lat="34.299302" lon="-117.352342">
        <ele>1254.398438</ele>
        <time>2020-07-18T19:24:59.000Z</time>
      </trkpt>
      <trkpt lat="34.299372" lon="-117.352307">
        <ele>1254.398438</ele>
        <time>2020-07-18T19:25:00.000Z</time>
      </trkpt>
      <trkpt lat="34.299403" lon="-117.352283">
        <ele>1254.199219</ele>
        <time>2020-07-18T19:25:02.000Z</time>
      </trkpt>
      <trkpt lat="34.299454" lon="-117.352227">
        <ele>1254.000000</ele>
        <time>2020-07-18T19:25:03.000Z</time>
      </trkpt>
      <trkpt lat="34.299476" lon="-117.352196">
        <ele>1254.000000</ele>
        <time>2020-07-18T19:25:05.000Z</time>
      </trkpt>
      <trkpt lat="34.299513" lon="-117.352132">
        <ele>1253.898438</ele>
        <time>2020-07-18T19:25:06.000Z</time>
      </trkpt>
      <trkpt lat="34.299528" lon="-117.352097">
        <ele>1253.199219</ele>
        <time>2020-07-18T19:25:08.000Z</time>
      </trkpt>
      <trkpt lat="34.299553" lon="-117.352021">
        <ele>1253.000000</ele>
        <time>2020-07-18T19:25:09.000Z</time>
      </trkpt>
      <trkpt lat="34.29956" lon="-117.351982">
        <ele>1252.000000</ele>
        <time>2020-07-18T19:25:11.000Z</time>
      </trkpt>
      <trkpt lat="34.299565" lon="-117.351892">
        <ele>1251.500000</ele>
        <time>2020-07-18T19:25:12.000Z</time>
      </trkpt>
      <trkpt lat="34.29959" lon="-117.351579">
        <ele>1249.000000</ele>
        <time>2020-07-18T19:25:19.000Z</time>
      </trkpt>
      <trkpt lat="34.299588" lon="-117.351542">
        <ele>1248.296875</ele>
        <time>2020-07-18T19:25:21.000Z</time>
      </trkpt>
      <trkpt lat="34.299567" lon="-117.351472">
        <ele>1248.097656</ele>
        <time>2020-07-18T19:25:22.000Z</time>
      </trkpt>
      <trkpt lat="34.29955" lon="-117.35144">
        <ele>1248.199219</ele>
        <time>2020-07-18T19:25:24.000Z</time>
      </trkpt>
      <trkpt lat="34.29951" lon="-117.351386">
        <ele>1248.500000</ele>
        <time>2020-07-18T19:25:25.000Z</time>
      </trkpt>
      <trkpt lat="34.299485" lon="-117.351363">
        <ele>1248.699219</ele>
        <time>2020-07-18T19:25:27.000Z</time>
      </trkpt>
      <trkpt lat="34.29895" lon="-117.35088">
        <ele>1246.296875</ele>
        <time>2020-07-18T19:25:46.000Z</time>
      </trkpt>
      <trkpt lat="34.298925" lon="-117.350849">
        <ele>1245.500000</ele>
        <time>2020-07-18T19:25:48.000Z</time>
      </trkpt>
      <trkpt lat="34.298885" lon="-117.350771">
        <ele>1245.097656</ele>
        <time>2020-07-18T19:25:49.000Z</time>
      </trkpt>
      <trkpt lat="34.298877" lon="-117.350722">
        <ele>1243.699219</ele>
        <time>2020-07-18T19:25:51.000Z</time>
      </trkpt>
      <trkpt lat="34.298882" lon="-117.350634">
        <ele>1242.699219</ele>
        <time>2020-07-18T19:25:52.000Z</time>
      </trkpt>
      <trkpt lat="34.298889" lon="-117.350604">
        <ele>1242.000000</ele>
        <time>2020-07-18T19:25:55.000Z</time>
      </trkpt>
      <trkpt lat="34.298942" lon="-117.350513">
        <ele>1242.000000</ele>
        <time>2020-07-18T19:25:56.000Z</time>
      </trkpt>
      <trkpt lat="34.298966" lon="-117.350485">
        <ele>1241.398438</ele>
        <time>2020-07-18T19:25:58.000Z</time>
      </trkpt>
      <trkpt lat="34.299011" lon="-117.350434">
        <ele>1240.597656</ele>
        <time>2020-07-18T19:26:00.000Z</time>
      </trkpt>
      <trkpt lat="34.299092" lon="-117.350349">
        <ele>1240.097656</ele>
        <time>2020-07-18T19:26:03.000Z</time>
      </trkpt>
      <trkpt lat="34.299112" lon="-117.350317">
        <ele>1239.597656</ele>
        <time>2020-07-18T19:26:05.000Z</time>
      </trkpt>
      <trkpt lat="34.299134" lon="-117.350247">
        <ele>1238.500000</ele>
        <time>2020-07-18T19:26:06.000Z</time>
      </trkpt>
      <trkpt lat="34.299135" lon="-117.350208">
        <ele>1237.097656</ele>
        <time>2020-07-18T19:26:09.000Z</time>
      </trkpt>
      <trkpt lat="34.299111" lon="-117.350113">
        <ele>1236.699219</ele>
        <time>2020-07-18T19:26:10.000Z</time>
      </trkpt>
      <trkpt lat="34.299092" lon="-117.350081">
        <ele>1236.199219</ele>
        <time>2020-07-18T19:26:12.000Z</time>
      </trkpt>
      <trkpt lat="34.299047" lon="-117.35002">
        <ele>1236.296875</ele>
        <time>2020-07-18T19:26:13.000Z</time>
      </trkpt>
      <trkpt lat="34.298978" lon="-117.349915">
        <ele>1235.898438</ele>
        <time>2020-07-18T19:26:17.000Z</time>
      </trkpt>
      <trkpt lat="34.298966" lon="-117.349882">
        <ele>1236.097656</ele>
        <time>2020-07-18T19:26:20.000Z</time>
      </trkpt>
      <trkpt lat="34.298938" lon="-117.349789">
        <ele>1235.097656</ele>
        <time>2020-07-18T19:26:21.000Z</time>
      </trkpt>
      <trkpt lat="34.29893" lon="-117.349762">
        <ele>1234.699219</ele>
        <time>2020-07-18T19:26:25.000Z</time>
      </trkpt>
      <trkpt lat="34.298946" lon="-117.349654">
        <ele>1234.500000</ele>
        <time>2020-07-18T19:26:26.000Z</time>
      </trkpt>
      <trkpt lat="34.29896" lon="-117.349625">
        <ele>1233.898438</ele>
        <time>2020-07-18T19:26:29.000Z</time>
      </trkpt>
      <trkpt lat="34.299003" lon="-117.349554">
        <ele>1233.199219</ele>
        <time>2020-07-18T19:26:30.000Z</time>
      </trkpt>
      <trkpt lat="34.29902" lon="-117.34953">
        <ele>1232.500000</ele>
        <time>2020-07-18T19:26:33.000Z</time>
      </trkpt>
      <trkpt lat="34.29906" lon="-117.349456">
        <ele>1232.097656</ele>
        <time>2020-07-18T19:26:34.000Z</time>
      </trkpt>
      <trkpt lat="34.299071" lon="-117.349425">
        <ele>1231.500000</ele>
        <time>2020-07-18T19:26:36.000Z</time>
      </trkpt>
      <trkpt lat="34.299085" lon="-117.349348">
        <ele>1231.097656</ele>
        <time>2020-07-18T19:26:37.000Z</time>
      </trkpt>
      <trkpt lat="34.299084" lon="-117.349306">
        <ele>1230.796875</ele>
        <time>2020-07-18T19:26:39.000Z</time>
      </trkpt>
      <trkpt lat="34.299067" lon="-117.34922">
        <ele>1230.597656</ele>
        <time>2020-07-18T19:26:40.000Z</time>
      </trkpt>
      <trkpt lat="34.299054" lon="-117.349178">
        <ele>1230.398438</ele>
        <time>2020-07-18T19:26:42.000Z</time>
      </trkpt>
      <trkpt lat="34.299026" lon="-117.3491">
        <ele>1230.296875</ele>
        <time>2020-07-18T19:26:43.000Z</time>
      </trkpt>
      <trkpt lat="34.299012" lon="-117.34907">
        <ele>1229.000000</ele>
        <time>2020-07-18T19:26:46.000Z</time>
      </trkpt>
      <trkpt lat="34.298848" lon="-117.34871">
        <ele>1224.597656</ele>
        <time>2020-07-18T19:26:55.000Z</time>
      </trkpt>
      <trkpt lat="34.298836" lon="-117.34867">
        <ele>1223.699219</ele>
        <time>2020-07-18T19:26:57.000Z</time>
      </trkpt>
      <trkpt lat="34.298829" lon="-117.34859">
        <ele>1223.796875</ele>
        <time>2020-07-18T19:26:58.000Z</time>
      </trkpt>
      <trkpt lat="34.298836" lon="-117.348552">
        <ele>1223.699219</ele>
        <time>2020-07-18T19:27:00.000Z</time>
      </trkpt>
      <trkpt lat="34.298863" lon="-117.348476">
        <ele>1223.199219</ele>
        <time>2020-07-18T19:27:01.000Z</time>
      </trkpt>
      <trkpt lat="34.298882" lon="-117.348437">
        <ele>1221.597656</ele>
        <time>2020-07-18T19:27:03.000Z</time>
      </trkpt>
      <trkpt lat="34.298937" lon="-117.348314">
        <ele>1220.898438</ele>
        <time>2020-07-18T19:27:05.000Z</time>
      </trkpt>
      <trkpt lat="34.298953" lon="-117.348271">
        <ele>1220.597656</ele>
        <time>2020-07-18T19:27:07.000Z</time>
      </trkpt>
      <trkpt lat="34.298985" lon="-117.34818">
        <ele>1220.500000</ele>
        <time>2020-07-18T19:27:08.000Z</time>
      </trkpt>
      <trkpt lat="34.299076" lon="-117.347874">
        <ele>1219.296875</ele>
        <time>2020-07-18T19:27:14.000Z</time>
      </trkpt>
      <trkpt lat="34.299088" lon="-117.347824">
        <ele>1218.500000</ele>
        <time>2020-07-18T19:27:16.000Z</time>
      </trkpt>
      <trkpt lat="34.299097" lon="-117.347738">
        <ele>1218.199219</ele>
        <time>2020-07-18T19:27:17.000Z</time>
      </trkpt>
      <trkpt lat="34.299098" lon="-117.347698">
        <ele>1217.898438</ele>
        <time>2020-07-18T19:27:19.000Z</time>
      </trkpt>
      <trkpt lat="34.299093" lon="-117.347628">
        <ele>1217.296875</ele>
        <time>2020-07-18T19:27:21.000Z</time>
      </trkpt>
      <trkpt lat="34.299074" lon="-117.347564">
        <ele>1217.097656</ele>
        <time>2020-07-18T19:27:23.000Z</time>
      </trkpt>
      <trkpt lat="34.299039" lon="-117.347493">
        <ele>1217.199219</ele>
        <time>2020-07-18T19:27:24.000Z</time>
      </trkpt>
      <trkpt lat="34.299016" lon="-117.347457">
        <ele>1215.699219</ele>
        <time>2020-07-18T19:27:26.000Z</time>
      </trkpt>
      <trkpt lat="34.298949" lon="-117.347387">
        <ele>1215.199219</ele>
        <time>2020-07-18T19:27:27.000Z</time>
      </trkpt>
      <trkpt lat="34.29891" lon="-117.347357">
        <ele>1214.699219</ele>
        <time>2020-07-18T19:27:28.000Z</time>
      </trkpt>
      <trkpt lat="34.298735" lon="-117.347236">
        <ele>1214.699219</ele>
        <time>2020-07-18T19:27:33.000Z</time>
      </trkpt>
      <trkpt lat="34.298707" lon="-117.347208">
        <ele>1213.898438</ele>
        <time>2020-07-18T19:27:35.000Z</time>
      </trkpt>
      <trkpt lat="34.298654" lon="-117.347145">
        <ele>1213.597656</ele>
        <time>2020-07-18T19:27:36.000Z</time>
      </trkpt>
      <trkpt lat="34.298526" lon="-117.347002">
        <ele>1211.898438</ele>
        <time>2020-07-18T19:27:41.000Z</time>
      </trkpt>
      <trkpt lat="34.298494" lon="-117.346974">
        <ele>1211.199219</ele>
        <time>2020-07-18T19:27:43.000Z</time>
      </trkpt>
      <trkpt lat="34.298435" lon="-117.346928">
        <ele>1210.796875</ele>
        <time>2020-07-18T19:27:44.000Z</time>
      </trkpt>
      <trkpt lat="34.298415" lon="-117.346907">
        <ele>1210.597656</ele>
        <time>2020-07-18T19:27:47.000Z</time>
      </trkpt>
      <trkpt lat="34.298276" lon="-117.346774">
        <ele>1209.500000</ele>
        <time>2020-07-18T19:27:51.000Z</time>
      </trkpt>
      <trkpt lat="34.298248" lon="-117.34674">
        <ele>1209.500000</ele>
        <time>2020-07-18T19:27:53.000Z</time>
      </trkpt>
      <trkpt lat="34.298211" lon="-117.346658">
        <ele>1209.500000</ele>
        <time>2020-07-18T19:27:54.000Z</time>
      </trkpt>
      <trkpt lat="34.298204" lon="-117.346613">
        <ele>1208.796875</ele>
        <time>2020-07-18T19:27:56.000Z</time>
      </trkpt>
      <trkpt lat="34.298216" lon="-117.346528">
        <ele>1208.500000</ele>
        <time>2020-07-18T19:27:57.000Z</time>
      </trkpt>
      <trkpt lat="34.298233" lon="-117.346489">
        <ele>1206.296875</ele>
        <time>2020-07-18T19:27:59.000Z</time>
      </trkpt>
      <trkpt lat="34.298278" lon="-117.346415">
        <ele>1206.000000</ele>
        <time>2020-07-18T19:28:00.000Z</time>
      </trkpt>
      <trkpt lat="34.298299" lon="-117.34637">
        <ele>1206.097656</ele>
        <time>2020-07-18T19:28:02.000Z</time>
      </trkpt>
      <trkpt lat="34.298354" lon="-117.346257">
        <ele>1204.898438</ele>
        <time>2020-07-18T19:28:04.000Z</time>
      </trkpt>
      <trkpt lat="34.298369" lon="-117.346233">
        <ele>1204.398438</ele>
        <time>2020-07-18T19:28:08.000Z</time>
      </trkpt>
      <trkpt lat="34.298431" lon="-117.346183">
        <ele>1204.097656</ele>
        <time>2020-07-18T19:28:10.000Z</time>
      </trkpt>
      <trkpt lat="34.298453" lon="-117.346163">
        <ele>1205.699219</ele>
        <time>2020-07-18T19:28:14.000Z</time>
      </trkpt>
      <trkpt lat="34.298527" lon="-117.346129">
        <ele>1205.699219</ele>
        <time>2020-07-18T19:28:15.000Z</time>
      </trkpt>
      <trkpt lat="34.298552" lon="-117.346125">
        <ele>1204.597656</ele>
        <time>2020-07-18T19:28:18.000Z</time>
      </trkpt>
      <trkpt lat="34.298643" lon="-117.346141">
        <ele>1204.296875</ele>
        <time>2020-07-18T19:28:19.000Z</time>
      </trkpt>
      <trkpt lat="34.298677" lon="-117.346151">
        <ele>1203.597656</ele>
        <time>2020-07-18T19:28:21.000Z</time>
      </trkpt>
      <trkpt lat="34.298752" lon="-117.346164">
        <ele>1203.199219</ele>
        <time>2020-07-18T19:28:22.000Z</time>
      </trkpt>
      <trkpt lat="34.298794" lon="-117.346164">
        <ele>1202.597656</ele>
        <time>2020-07-18T19:28:24.000Z</time>
      </trkpt>
      <trkpt lat="34.299067" lon="-117.346149">
        <ele>1199.597656</ele>
        <time>2020-07-18T19:28:30.000Z</time>
      </trkpt>
      <trkpt lat="34.299104" lon="-117.346141">
        <ele>1198.699219</ele>
        <time>2020-07-18T19:28:32.000Z</time>
      </trkpt>
      <trkpt lat="34.299176" lon="-117.346114">
        <ele>1198.500000</ele>
        <time>2020-07-18T19:28:33.000Z</time>
      </trkpt>
      <trkpt lat="34.299209" lon="-117.346095">
        <ele>1197.699219</ele>
        <time>2020-07-18T19:28:35.000Z</time>
      </trkpt>
      <trkpt lat="34.299315" lon="-117.346039">
        <ele>1196.898438</ele>
        <time>2020-07-18T19:28:38.000Z</time>
      </trkpt>
      <trkpt lat="34.299343" lon="-117.346028">
        <ele>1196.000000</ele>
        <time>2020-07-18T19:28:41.000Z</time>
      </trkpt>
      <trkpt lat="34.299434" lon="-117.346011">
        <ele>1195.898438</ele>
        <time>2020-07-18T19:28:42.000Z</time>
      </trkpt>
      <trkpt lat="34.299466" lon="-117.346012">
        <ele>1195.199219</ele>
        <time>2020-07-18T19:28:44.000Z</time>
      </trkpt>
      <trkpt lat="34.299703" lon="-117.346024">
        <ele>1192.699219</ele>
        <time>2020-07-18T19:28:49.000Z</time>
      </trkpt>
      <trkpt lat="34.29982" lon="-117.346046">
        <ele>1192.597656</ele>
        <time>2020-07-18T19:28:52.000Z</time>
      </trkpt>
      <trkpt lat="34.300054" lon="-117.346102">
        <ele>1189.398438</ele>
        <time>2020-07-18T19:28:58.000Z</time>
      </trkpt>
      <trkpt lat="34.300087" lon="-117.346116">
        <ele>1188.500000</ele>
        <time>2020-07-18T19:29:00.000Z</time>
      </trkpt>
      <trkpt lat="34.300194" lon="-117.346155">
        <ele>1187.500000</ele>
        <time>2020-07-18T19:29:02.000Z</time>
      </trkpt>
      <trkpt lat="34.300313" lon="-117.346179">
        <ele>1186.398438</ele>
        <time>2020-07-18T19:29:05.000Z</time>
      </trkpt>
      <trkpt lat="34.300355" lon="-117.346179">
        <ele>1185.398438</ele>
        <time>2020-07-18T19:29:07.000Z</time>
      </trkpt>
      <trkpt lat="34.300444" lon="-117.346164">
        <ele>1185.296875</ele>
        <time>2020-07-18T19:29:08.000Z</time>
      </trkpt>
      <trkpt lat="34.300493" lon="-117.34615">
        <ele>1185.097656</ele>
        <time>2020-07-18T19:29:09.000Z</time>
      </trkpt>
      <trkpt lat="34.300542" lon="-117.346131">
        <ele>1185.097656</ele>
        <time>2020-07-18T19:29:10.000Z</time>
      </trkpt>
      <trkpt lat="34.300589" lon="-117.346106">
        <ele>1184.796875</ele>
        <time>2020-07-18T19:29:11.000Z</time>
      </trkpt>
      <trkpt lat="34.300718" lon="-117.346018">
        <ele>1185.199219</ele>
        <time>2020-07-18T19:29:14.000Z</time>
      </trkpt>
      <trkpt lat="34.300862" lon="-117.345903">
        <ele>1185.597656</ele>
        <time>2020-07-18T19:29:18.000Z</time>
      </trkpt>
      <trkpt lat="34.300892" lon="-117.345872">
        <ele>1185.000000</ele>
        <time>2020-07-18T19:29:20.000Z</time>
      </trkpt>
      <trkpt lat="34.300951" lon="-117.345792">
        <ele>1184.898438</ele>
        <time>2020-07-18T19:29:21.000Z</time>
      </trkpt>
      <trkpt lat="34.300978" lon="-117.345744">
        <ele>1184.796875</ele>
        <time>2020-07-18T19:29:22.000Z</time>
      </trkpt>
      <trkpt lat="34.301003" lon="-117.34569">
        <ele>1184.500000</ele>
        <time>2020-07-18T19:29:23.000Z</time>
      </trkpt>
      <trkpt lat="34.301183" lon="-117.345248">
        <ele>1182.699219</ele>
        <time>2020-07-18T19:29:31.000Z</time>
      </trkpt>
      <trkpt lat="34.301199" lon="-117.345193">
        <ele>1182.398438</ele>
        <time>2020-07-18T19:29:32.000Z</time>
      </trkpt>
      <trkpt lat="34.30121" lon="-117.345142">
        <ele>1181.296875</ele>
        <time>2020-07-18T19:29:34.000Z</time>
      </trkpt>
      <trkpt lat="34.301217" lon="-117.345052">
        <ele>1180.796875</ele>
        <time>2020-07-18T19:29:35.000Z</time>
      </trkpt>
      <trkpt lat="34.301213" lon="-117.345006">
        <ele>1180.296875</ele>
        <time>2020-07-18T19:29:37.000Z</time>
      </trkpt>
      <trkpt lat="34.301191" lon="-117.344905">
        <ele>1180.000000</ele>
        <time>2020-07-18T19:29:38.000Z</time>
      </trkpt>
      <trkpt lat="34.301171" lon="-117.344853">
        <ele>1179.597656</ele>
        <time>2020-07-18T19:29:39.000Z</time>
      </trkpt>
      <trkpt lat="34.301144" lon="-117.344804">
        <ele>1179.597656</ele>
        <time>2020-07-18T19:29:40.000Z</time>
      </trkpt>
      <trkpt lat="34.301114" lon="-117.344756">
        <ele>1179.500000</ele>
        <time>2020-07-18T19:29:41.000Z</time>
      </trkpt>
      <trkpt lat="34.301082" lon="-117.344711">
        <ele>1179.500000</ele>
        <time>2020-07-18T19:29:42.000Z</time>
      </trkpt>
      <trkpt lat="34.301044" lon="-117.34467">
        <ele>1178.898438</ele>
        <time>2020-07-18T19:29:43.000Z</time>
      </trkpt>
      <trkpt lat="34.300967" lon="-117.344596">
        <ele>1178.296875</ele>
        <time>2020-07-18T19:29:45.000Z</time>
      </trkpt>
      <trkpt lat="34.300886" lon="-117.344525">
        <ele>1178.296875</ele>
        <time>2020-07-18T19:29:48.000Z</time>
      </trkpt>
      <trkpt lat="34.300872" lon="-117.344506">
        <ele>1178.398438</ele>
        <time>2020-07-18T19:29:51.000Z</time>
      </trkpt>
      <trkpt lat="34.300823" lon="-117.344443">
        <ele>1178.199219</ele>
        <time>2020-07-18T19:29:52.000Z</time>
      </trkpt>
      <trkpt lat="34.300809" lon="-117.34441">
        <ele>1179.000000</ele>
        <time>2020-07-18T19:29:54.000Z</time>
      </trkpt>
      <trkpt lat="34.300798" lon="-117.344338">
        <ele>1179.296875</ele>
        <time>2020-07-18T19:29:55.000Z</time>
      </trkpt>
      <trkpt lat="34.300801" lon="-117.3443">
        <ele>1177.796875</ele>
        <time>2020-07-18T19:29:57.000Z</time>
      </trkpt>
      <trkpt lat="34.300827" lon="-117.344208">
        <ele>1177.898438</ele>
        <time>2020-07-18T19:29:58.000Z</time>
      </trkpt>
      <trkpt lat="34.300976" lon="-117.343761">
        <ele>1174.597656</ele>
        <time>2020-07-18T19:30:06.000Z</time>
      </trkpt>
      <trkpt lat="34.300985" lon="-117.343712">
        <ele>1173.097656</ele>
        <time>2020-07-18T19:30:08.000Z</time>
      </trkpt>
      <trkpt lat="34.300994" lon="-117.343607">
        <ele>1172.296875</ele>
        <time>2020-07-18T19:30:09.000Z</time>
      </trkpt>
      <trkpt lat="34.300995" lon="-117.343554">
        <ele>1170.796875</ele>
        <time>2020-07-18T19:30:11.000Z</time>
      </trkpt>
      <trkpt lat="34.300992" lon="-117.343464">
        <ele>1170.500000</ele>
        <time>2020-07-18T19:30:12.000Z</time>
      </trkpt>
      <trkpt lat="34.300985" lon="-117.343338">
        <ele>1169.898438</ele>
        <time>2020-07-18T19:30:16.000Z</time>
      </trkpt>
      <trkpt lat="34.30099" lon="-117.343298">
        <ele>1170.000000</ele>
        <time>2020-07-18T19:30:18.000Z</time>
      </trkpt>
      <trkpt lat="34.30102" lon="-117.343224">
        <ele>1169.898438</ele>
        <time>2020-07-18T19:30:19.000Z</time>
      </trkpt>
      <trkpt lat="34.30104" lon="-117.343193">
        <ele>1169.500000</ele>
        <time>2020-07-18T19:30:21.000Z</time>
      </trkpt>
      <trkpt lat="34.301091" lon="-117.343135">
        <ele>1169.699219</ele>
        <time>2020-07-18T19:30:22.000Z</time>
      </trkpt>
      <trkpt lat="34.301125" lon="-117.343107">
        <ele>1169.000000</ele>
        <time>2020-07-18T19:30:24.000Z</time>
      </trkpt>
      <trkpt lat="34.301201" lon="-117.343064">
        <ele>1168.597656</ele>
        <time>2020-07-18T19:30:25.000Z</time>
      </trkpt>
      <trkpt lat="34.301543" lon="-117.342885">
        <ele>1167.398438</ele>
        <time>2020-07-18T19:30:34.000Z</time>
      </trkpt>
      <trkpt lat="34.301579" lon="-117.342852">
        <ele>1167.199219</ele>
        <time>2020-07-18T19:30:35.000Z</time>
      </trkpt>
      <trkpt lat="34.301611" lon="-117.342812">
        <ele>1166.898438</ele>
        <time>2020-07-18T19:30:36.000Z</time>
      </trkpt>
      <trkpt lat="34.301639" lon="-117.342764">
        <ele>1166.597656</ele>
        <time>2020-07-18T19:30:37.000Z</time>
      </trkpt>
      <trkpt lat="34.301662" lon="-117.342709">
        <ele>1166.000000</ele>
        <time>2020-07-18T19:30:38.000Z</time>
      </trkpt>
      <trkpt lat="34.301728" lon="-117.342481">
        <ele>1163.898438</ele>
        <time>2020-07-18T19:30:42.000Z</time>
      </trkpt>
      <trkpt lat="34.301743" lon="-117.342423">
        <ele>1162.898438</ele>
        <time>2020-07-18T19:30:43.000Z</time>
      </trkpt>
      <trkpt lat="34.301754" lon="-117.342364">
        <ele>1162.000000</ele>
        <time>2020-07-18T19:30:44.000Z</time>
      </trkpt>
      <trkpt lat="34.301759" lon="-117.342303">
        <ele>1161.296875</ele>
        <time>2020-07-18T19:30:45.000Z</time>
      </trkpt>
      <trkpt lat="34.30176" lon="-117.342243">
        <ele>1160.898438</ele>
        <time>2020-07-18T19:30:46.000Z</time>
      </trkpt>
      <trkpt lat="34.301759" lon="-117.342187">
        <ele>1160.199219</ele>
        <time>2020-07-18T19:30:47.000Z</time>
      </trkpt>
      <trkpt lat="34.301753" lon="-117.342131">
        <ele>1158.296875</ele>
        <time>2020-07-18T19:30:48.000Z</time>
      </trkpt>
      <trkpt lat="34.301735" lon="-117.34208">
        <ele>1157.000000</ele>
        <time>2020-07-18T19:30:50.000Z</time>
      </trkpt>
      <trkpt lat="34.301706" lon="-117.342004">
        <ele>1156.500000</ele>
        <time>2020-07-18T19:30:51.000Z</time>
      </trkpt>
      <trkpt lat="34.301688" lon="-117.341968">
        <ele>1155.796875</ele>
        <time>2020-07-18T19:30:53.000Z</time>
      </trkpt>
      <trkpt lat="34.301622" lon="-117.34185">
        <ele>1155.898438</ele>
        <time>2020-07-18T19:30:55.000Z</time>
      </trkpt>
      <trkpt lat="34.301604" lon="-117.341812">
        <ele>1155.000000</ele>
        <time>2020-07-18T19:30:57.000Z</time>
      </trkpt>
      <trkpt lat="34.301549" lon="-117.341736">
        <ele>1154.597656</ele>
        <time>2020-07-18T19:30:58.000Z</time>
      </trkpt>
      <trkpt lat="34.301516" lon="-117.3417">
        <ele>1154.199219</ele>
        <time>2020-07-18T19:30:59.000Z</time>
      </trkpt>
      <trkpt lat="34.30148" lon="-117.341666">
        <ele>1153.597656</ele>
        <time>2020-07-18T19:31:01.000Z</time>
      </trkpt>
      <trkpt lat="34.301408" lon="-117.341608">
        <ele>1153.398438</ele>
        <time>2020-07-18T19:31:02.000Z</time>
      </trkpt>
      <trkpt lat="34.301374" lon="-117.341585">
        <ele>1153.597656</ele>
        <time>2020-07-18T19:31:04.000Z</time>
      </trkpt>
      <trkpt lat="34.301322" lon="-117.34156">
        <ele>1154.898438</ele>
        <time>2020-07-18T19:36:27.000Z</time>
      </trkpt>
      <trkpt lat="34.301276" lon="-117.34154">
        <ele>1155.199219</ele>
        <time>2020-07-18T19:36:29.000Z</time>
      </trkpt>
      <trkpt lat="34.301214" lon="-117.341518">
        <ele>1155.000000</ele>
        <time>2020-07-18T19:36:30.000Z</time>
      </trkpt>
      <trkpt lat="34.301178" lon="-117.34151">
        <ele>1154.597656</ele>
        <time>2020-07-18T19:36:32.000Z</time>
      </trkpt>
      <trkpt lat="34.301073" lon="-117.341488">
        <ele>1154.199219</ele>
        <time>2020-07-18T19:36:35.000Z</time>
      </trkpt>
      <trkpt lat="34.301053" lon="-117.341477">
        <ele>1155.097656</ele>
        <time>2020-07-18T19:36:38.000Z</time>
      </trkpt>
      <trkpt lat="34.300997" lon="-117.341424">
        <ele>1156.000000</ele>
        <time>2020-07-18T19:36:39.000Z</time>
      </trkpt>
      <trkpt lat="34.30098" lon="-117.341396">
        <ele>1156.097656</ele>
        <time>2020-07-18T19:36:41.000Z</time>
      </trkpt>
      <trkpt lat="34.30094" lon="-117.341326">
        <ele>1156.199219</ele>
        <time>2020-07-18T19:36:42.000Z</time>
      </trkpt>
      <trkpt lat="34.300934" lon="-117.341286">
        <ele>1155.296875</ele>
        <time>2020-07-18T19:36:44.000Z</time>
      </trkpt>
      <trkpt lat="34.30094" lon="-117.3412">
        <ele>1155.097656</ele>
        <time>2020-07-18T19:36:45.000Z</time>
      </trkpt>
      <trkpt lat="34.300952" lon="-117.341156">
        <ele>1155.597656</ele>
        <time>2020-07-18T19:36:47.000Z</time>
      </trkpt>
      <trkpt lat="34.300995" lon="-117.341083">
        <ele>1155.500000</ele>
        <time>2020-07-18T19:36:48.000Z</time>
      </trkpt>
      <trkpt lat="34.301022" lon="-117.341052">
        <ele>1153.796875</ele>
        <time>2020-07-18T19:36:50.000Z</time>
      </trkpt>
      <trkpt lat="34.301083" lon="-117.341014">
        <ele>1152.796875</ele>
        <time>2020-07-18T19:36:51.000Z</time>
      </trkpt>
      <trkpt lat="34.301116" lon="-117.341004">
        <ele>1153.097656</ele>
        <time>2020-07-18T19:36:53.000Z</time>
      </trkpt>
      <trkpt lat="34.301179" lon="-117.341023">
        <ele>1152.699219</ele>
        <time>2020-07-18T19:36:54.000Z</time>
      </trkpt>
      <trkpt lat="34.301211" lon="-117.341045">
        <ele>1152.398438</ele>
        <time>2020-07-18T19:36:56.000Z</time>
      </trkpt>
      <trkpt lat="34.301268" lon="-117.341102">
        <ele>1151.898438</ele>
        <time>2020-07-18T19:36:57.000Z</time>
      </trkpt>
      <trkpt lat="34.301291" lon="-117.341141">
        <ele>1151.097656</ele>
        <time>2020-07-18T19:36:59.000Z</time>
      </trkpt>
      <trkpt lat="34.301327" lon="-117.341234">
        <ele>1151.000000</ele>
        <time>2020-07-18T19:37:00.000Z</time>
      </trkpt>
      <trkpt lat="34.301345" lon="-117.341279">
        <ele>1151.097656</ele>
        <time>2020-07-18T19:37:02.000Z</time>
      </trkpt>
      <trkpt lat="34.301389" lon="-117.341359">
        <ele>1151.000000</ele>
        <time>2020-07-18T19:37:03.000Z</time>
      </trkpt>
      <trkpt lat="34.301416" lon="-117.341391">
        <ele>1150.296875</ele>
        <time>2020-07-18T19:37:05.000Z</time>
      </trkpt>
      <trkpt lat="34.301472" lon="-117.341436">
        <ele>1150.199219</ele>
        <time>2020-07-18T19:37:06.000Z</time>
      </trkpt>
      <trkpt lat="34.301497" lon="-117.341452">
        <ele>1149.898438</ele>
        <time>2020-07-18T19:37:09.000Z</time>
      </trkpt>
      <trkpt lat="34.301822" lon="-117.34163">
        <ele>1149.597656</ele>
        <time>2020-07-18T19:37:20.000Z</time>
      </trkpt>
      <trkpt lat="34.301855" lon="-117.341657">
        <ele>1149.500000</ele>
        <time>2020-07-18T19:37:22.000Z</time>
      </trkpt>
      <trkpt lat="34.301924" lon="-117.341721">
        <ele>1149.699219</ele>
        <time>2020-07-18T19:37:23.000Z</time>
      </trkpt>
      <trkpt lat="34.301954" lon="-117.341754">
        <ele>1149.097656</ele>
        <time>2020-07-18T19:37:25.000Z</time>
      </trkpt>
      <trkpt lat="34.302011" lon="-117.341827">
        <ele>1148.699219</ele>
        <time>2020-07-18T19:37:26.000Z</time>
      </trkpt>
      <trkpt lat="34.302038" lon="-117.341872">
        <ele>1148.699219</ele>
        <time>2020-07-18T19:37:27.000Z</time>
      </trkpt>
      <trkpt lat="34.30209" lon="-117.341971">
        <ele>1147.699219</ele>
        <time>2020-07-18T19:37:29.000Z</time>
      </trkpt>
      <trkpt lat="34.302421" lon="-117.342579">
        <ele>1143.000000</ele>
        <time>2020-07-18T19:37:41.000Z</time>
      </trkpt>
      <trkpt lat="34.302522" lon="-117.342713">
        <ele>1143.097656</ele>
        <time>2020-07-18T19:37:44.000Z</time>
      </trkpt>
      <trkpt lat="34.302555" lon="-117.342751">
        <ele>1143.199219</ele>
        <time>2020-07-18T19:37:46.000Z</time>
      </trkpt>
      <trkpt lat="34.30262" lon="-117.342811">
        <ele>1144.000000</ele>
        <time>2020-07-18T19:37:47.000Z</time>
      </trkpt>
      <trkpt lat="34.302648" lon="-117.342833">
        <ele>1144.699219</ele>
        <time>2020-07-18T19:37:49.000Z</time>
      </trkpt>
      <trkpt lat="34.302701" lon="-117.342871">
        <ele>1144.796875</ele>
        <time>2020-07-18T19:37:50.000Z</time>
      </trkpt>
      <trkpt lat="34.302731" lon="-117.342889">
        <ele>1144.500000</ele>
        <time>2020-07-18T19:37:52.000Z</time>
      </trkpt>
      <trkpt lat="34.303292" lon="-117.343201">
        <ele>1142.000000</ele>
        <time>2020-07-18T19:38:04.000Z</time>
      </trkpt>
      <trkpt lat="34.30333" lon="-117.343234">
        <ele>1141.500000</ele>
        <time>2020-07-18T19:38:05.000Z</time>
      </trkpt>
      <trkpt lat="34.303365" lon="-117.343267">
        <ele>1140.597656</ele>
        <time>2020-07-18T19:38:07.000Z</time>
      </trkpt>
      <trkpt lat="34.303431" lon="-117.343341">
        <ele>1140.699219</ele>
        <time>2020-07-18T19:38:08.000Z</time>
      </trkpt>
      <trkpt lat="34.303612" lon="-117.343546">
        <ele>1140.500000</ele>
        <time>2020-07-18T19:38:14.000Z</time>
      </trkpt>
      <trkpt lat="34.30364" lon="-117.34357">
        <ele>1140.097656</ele>
        <time>2020-07-18T19:38:16.000Z</time>
      </trkpt>
      <trkpt lat="34.303704" lon="-117.343618">
        <ele>1139.097656</ele>
        <time>2020-07-18T19:38:17.000Z</time>
      </trkpt>
      <trkpt lat="34.303742" lon="-117.343635">
        <ele>1137.000000</ele>
        <time>2020-07-18T19:38:19.000Z</time>
      </trkpt>
      <trkpt lat="34.303822" lon="-117.343641">
        <ele>1136.699219</ele>
        <time>2020-07-18T19:38:20.000Z</time>
      </trkpt>
      <trkpt lat="34.303855" lon="-117.343638">
        <ele>1135.898438</ele>
        <time>2020-07-18T19:38:22.000Z</time>
      </trkpt>
      <trkpt lat="34.303931" lon="-117.34362">
        <ele>1135.597656</ele>
        <time>2020-07-18T19:38:23.000Z</time>
      </trkpt>
      <trkpt lat="34.303965" lon="-117.343601">
        <ele>1135.097656</ele>
        <time>2020-07-18T19:38:25.000Z</time>
      </trkpt>
      <trkpt lat="34.304018" lon="-117.343556">
        <ele>1135.199219</ele>
        <time>2020-07-18T19:38:26.000Z</time>
      </trkpt>
      <trkpt lat="34.304043" lon="-117.343527">
        <ele>1136.000000</ele>
        <time>2020-07-18T19:38:28.000Z</time>
      </trkpt>
      <trkpt lat="34.304089" lon="-117.343448">
        <ele>1136.199219</ele>
        <time>2020-07-18T19:38:29.000Z</time>
      </trkpt>
      <trkpt lat="34.304109" lon="-117.343397">
        <ele>1136.296875</ele>
        <time>2020-07-18T19:38:30.000Z</time>
      </trkpt>
      <trkpt lat="34.304201" lon="-117.343125">
        <ele>1134.500000</ele>
        <time>2020-07-18T19:38:35.000Z</time>
      </trkpt>
      <trkpt lat="34.304215" lon="-117.34307">
        <ele>1133.500000</ele>
        <time>2020-07-18T19:38:37.000Z</time>
      </trkpt>
      <trkpt lat="34.30423" lon="-117.342976">
        <ele>1133.097656</ele>
        <time>2020-07-18T19:38:38.000Z</time>
      </trkpt>
      <trkpt lat="34.304231" lon="-117.342934">
        <ele>1131.898438</ele>
        <time>2020-07-18T19:38:40.000Z</time>
      </trkpt>
      <trkpt lat="34.304223" lon="-117.342844">
        <ele>1131.296875</ele>
        <time>2020-07-18T19:38:41.000Z</time>
      </trkpt>
      <trkpt lat="34.304215" lon="-117.342797">
        <ele>1130.699219</ele>
        <time>2020-07-18T19:38:43.000Z</time>
      </trkpt>
      <trkpt lat="34.304187" lon="-117.3427">
        <ele>1130.699219</ele>
        <time>2020-07-18T19:38:44.000Z</time>
      </trkpt>
      <trkpt lat="34.30404" lon="-117.342054">
        <ele>1128.796875</ele>
        <time>2020-07-18T19:38:55.000Z</time>
      </trkpt>
      <trkpt lat="34.303963" lon="-117.341845">
        <ele>1128.199219</ele>
        <time>2020-07-18T19:39:00.000Z</time>
      </trkpt>
      <trkpt lat="34.303945" lon="-117.341804">
        <ele>1127.796875</ele>
        <time>2020-07-18T19:39:02.000Z</time>
      </trkpt>
      <trkpt lat="34.303903" lon="-117.341735">
        <ele>1127.500000</ele>
        <time>2020-07-18T19:39:03.000Z</time>
      </trkpt>
      <trkpt lat="34.303879" lon="-117.341705">
        <ele>1126.699219</ele>
        <time>2020-07-18T19:39:05.000Z</time>
      </trkpt>
      <trkpt lat="34.303827" lon="-117.341658">
        <ele>1126.199219</ele>
        <time>2020-07-18T19:39:06.000Z</time>
      </trkpt>
      <trkpt lat="34.303803" lon="-117.34164">
        <ele>1126.199219</ele>
        <time>2020-07-18T19:39:08.000Z</time>
      </trkpt>
      <trkpt lat="34.303512" lon="-117.341442">
        <ele>1126.000000</ele>
        <time>2020-07-18T19:39:15.000Z</time>
      </trkpt>
      <trkpt lat="34.303469" lon="-117.341421">
        <ele>1126.296875</ele>
        <time>2020-07-18T19:39:16.000Z</time>
      </trkpt>
      <trkpt lat="34.303302" lon="-117.34134">
        <ele>1126.500000</ele>
        <time>2020-07-18T19:39:20.000Z</time>
      </trkpt>
      <trkpt lat="34.303264" lon="-117.341308">
        <ele>1126.296875</ele>
        <time>2020-07-18T19:39:21.000Z</time>
      </trkpt>
      <trkpt lat="34.303224" lon="-117.341264">
        <ele>1126.199219</ele>
        <time>2020-07-18T19:39:22.000Z</time>
      </trkpt>
      <trkpt lat="34.303201" lon="-117.341216">
        <ele>1125.097656</ele>
        <time>2020-07-18T19:39:24.000Z</time>
      </trkpt>
      <trkpt lat="34.303194" lon="-117.341116">
        <ele>1124.500000</ele>
        <time>2020-07-18T19:39:25.000Z</time>
      </trkpt>
      <trkpt lat="34.303206" lon="-117.341066">
        <ele>1123.398438</ele>
        <time>2020-07-18T19:39:27.000Z</time>
      </trkpt>
      <trkpt lat="34.303252" lon="-117.340981">
        <ele>1123.097656</ele>
        <time>2020-07-18T19:39:28.000Z</time>
      </trkpt>
      <trkpt lat="34.303279" lon="-117.340943">
        <ele>1121.500000</ele>
        <time>2020-07-18T19:39:30.000Z</time>
      </trkpt>
      <trkpt lat="34.30338" lon="-117.340822">
        <ele>1119.597656</ele>
        <time>2020-07-18T19:39:33.000Z</time>
      </trkpt>
      <trkpt lat="34.303395" lon="-117.340795">
        <ele>1118.500000</ele>
        <time>2020-07-18T19:39:36.000Z</time>
      </trkpt>
      <trkpt lat="34.303414" lon="-117.340709">
        <ele>1118.097656</ele>
        <time>2020-07-18T19:39:37.000Z</time>
      </trkpt>
      <trkpt lat="34.303415" lon="-117.340672">
        <ele>1117.500000</ele>
        <time>2020-07-18T19:39:39.000Z</time>
      </trkpt>
      <trkpt lat="34.303405" lon="-117.340598">
        <ele>1117.000000</ele>
        <time>2020-07-18T19:39:41.000Z</time>
      </trkpt>
      <trkpt lat="34.303385" lon="-117.340541">
        <ele>1116.898438</ele>
        <time>2020-07-18T19:39:43.000Z</time>
      </trkpt>
      <trkpt lat="34.303346" lon="-117.340443">
        <ele>1116.097656</ele>
        <time>2020-07-18T19:39:45.000Z</time>
      </trkpt>
      <trkpt lat="34.303325" lon="-117.340407">
        <ele>1115.699219</ele>
        <time>2020-07-18T19:39:47.000Z</time>
      </trkpt>
      <trkpt lat="34.303272" lon="-117.340333">
        <ele>1115.500000</ele>
        <time>2020-07-18T19:39:48.000Z</time>
      </trkpt>
      <trkpt lat="34.303239" lon="-117.340302">
        <ele>1115.000000</ele>
        <time>2020-07-18T19:39:50.000Z</time>
      </trkpt>
      <trkpt lat="34.30317" lon="-117.340261">
        <ele>1114.296875</ele>
        <time>2020-07-18T19:39:51.000Z</time>
      </trkpt>
      <trkpt lat="34.303135" lon="-117.340251">
        <ele>1113.796875</ele>
        <time>2020-07-18T19:39:53.000Z</time>
      </trkpt>
      <trkpt lat="34.30306" lon="-117.340253">
        <ele>1113.199219</ele>
        <time>2020-07-18T19:39:54.000Z</time>
      </trkpt>
      <trkpt lat="34.303015" lon="-117.340269">
        <ele>1113.296875</ele>
        <time>2020-07-18T19:39:55.000Z</time>
      </trkpt>
      <trkpt lat="34.302972" lon="-117.340294">
        <ele>1112.796875</ele>
        <time>2020-07-18T19:39:56.000Z</time>
      </trkpt>
      <trkpt lat="34.302931" lon="-117.340328">
        <ele>1112.597656</ele>
        <time>2020-07-18T19:39:57.000Z</time>
      </trkpt>
      <trkpt lat="34.302852" lon="-117.340402">
        <ele>1112.699219</ele>
        <time>2020-07-18T19:39:59.000Z</time>
      </trkpt>
      <trkpt lat="34.302677" lon="-117.340589">
        <ele>1111.796875</ele>
        <time>2020-07-18T19:40:04.000Z</time>
      </trkpt>
      <trkpt lat="34.302638" lon="-117.340612">
        <ele>1111.597656</ele>
        <time>2020-07-18T19:40:06.000Z</time>
      </trkpt>
      <trkpt lat="34.302554" lon="-117.340629">
        <ele>1111.398438</ele>
        <time>2020-07-18T19:40:07.000Z</time>
      </trkpt>
      <trkpt lat="34.302512" lon="-117.340622">
        <ele>1111.398438</ele>
        <time>2020-07-18T19:40:09.000Z</time>
      </trkpt>
      <trkpt lat="34.302435" lon="-117.340571">
        <ele>1111.296875</ele>
        <time>2020-07-18T19:40:10.000Z</time>
      </trkpt>
      <trkpt lat="34.302403" lon="-117.340529">
        <ele>1111.296875</ele>
        <time>2020-07-18T19:40:11.000Z</time>
      </trkpt>
      <trkpt lat="34.302375" lon="-117.340475">
        <ele>1111.097656</ele>
        <time>2020-07-18T19:40:12.000Z</time>
      </trkpt>
      <trkpt lat="34.30236" lon="-117.340421">
        <ele>1111.398438</ele>
        <time>2020-07-18T19:40:13.000Z</time>
      </trkpt>
      <trkpt lat="34.30228" lon="-117.340125">
        <ele>1112.296875</ele>
        <time>2020-07-18T19:40:18.000Z</time>
      </trkpt>
      <trkpt lat="34.302214" lon="-117.33995">
        <ele>1112.699219</ele>
        <time>2020-07-18T19:40:21.000Z</time>
      </trkpt>
      <trkpt lat="34.302203" lon="-117.339899">
        <ele>1112.597656</ele>
        <time>2020-07-18T19:40:23.000Z</time>
      </trkpt>
      <trkpt lat="34.302113" lon="-117.339495">
        <ele>1111.597656</ele>
        <time>2020-07-18T19:40:30.000Z</time>
      </trkpt>
      <trkpt lat="34.302075" lon="-117.339292">
        <ele>1110.898438</ele>
        <time>2020-07-18T19:40:34.000Z</time>
      </trkpt>
      <trkpt lat="34.302061" lon="-117.339239">
        <ele>1110.097656</ele>
        <time>2020-07-18T19:40:36.000Z</time>
      </trkpt>
      <trkpt lat="34.30203" lon="-117.339146">
        <ele>1110.000000</ele>
        <time>2020-07-18T19:40:37.000Z</time>
      </trkpt>
      <trkpt lat="34.302013" lon="-117.339104">
        <ele>1109.699219</ele>
        <time>2020-07-18T19:40:39.000Z</time>
      </trkpt>
      <trkpt lat="34.301929" lon="-117.338931">
        <ele>1108.500000</ele>
        <time>2020-07-18T19:40:42.000Z</time>
      </trkpt>
      <trkpt lat="34.301852" lon="-117.3388">
        <ele>1106.398438</ele>
        <time>2020-07-18T19:40:45.000Z</time>
      </trkpt>
      <trkpt lat="34.30182" lon="-117.338754">
        <ele>1105.796875</ele>
        <time>2020-07-18T19:40:46.000Z</time>
      </trkpt>
      <trkpt lat="34.301787" lon="-117.338711">
        <ele>1105.296875</ele>
        <time>2020-07-18T19:40:47.000Z</time>
      </trkpt>
      <trkpt lat="34.301753" lon="-117.338673">
        <ele>1105.000000</ele>
        <time>2020-07-18T19:40:48.000Z</time>
      </trkpt>
      <trkpt lat="34.301715" lon="-117.33864">
        <ele>1104.898438</ele>
        <time>2020-07-18T19:40:49.000Z</time>
      </trkpt>
      <trkpt lat="34.301674" lon="-117.33861">
        <ele>1105.097656</ele>
        <time>2020-07-18T19:40:50.000Z</time>
      </trkpt>
      <trkpt lat="34.301632" lon="-117.338585">
        <ele>1104.796875</ele>
        <time>2020-07-18T19:40:51.000Z</time>
      </trkpt>
      <trkpt lat="34.301586" lon="-117.338565">
        <ele>1104.097656</ele>
        <time>2020-07-18T19:40:52.000Z</time>
      </trkpt>
      <trkpt lat="34.301537" lon="-117.338549">
        <ele>1103.199219</ele>
        <time>2020-07-18T19:40:53.000Z</time>
      </trkpt>
      <trkpt lat="34.301487" lon="-117.338536">
        <ele>1102.296875</ele>
        <time>2020-07-18T19:40:54.000Z</time>
      </trkpt>
      <trkpt lat="34.301435" lon="-117.33853">
        <ele>1101.796875</ele>
        <time>2020-07-18T19:40:55.000Z</time>
      </trkpt>
      <trkpt lat="34.301159" lon="-117.338506">
        <ele>1098.898438</ele>
        <time>2020-07-18T19:41:01.000Z</time>
      </trkpt>
      <trkpt lat="34.300985" lon="-117.338513">
        <ele>1095.699219</ele>
        <time>2020-07-18T19:41:07.000Z</time>
      </trkpt>
      <trkpt lat="34.30088" lon="-117.338525">
        <ele>1093.699219</ele>
        <time>2020-07-18T19:41:11.000Z</time>
      </trkpt>
      <trkpt lat="34.300862" lon="-117.338532">
        <ele>1091.597656</ele>
        <time>2020-07-18T19:41:15.000Z</time>
      </trkpt>
      <trkpt lat="34.300778" lon="-117.33855">
        <ele>1091.199219</ele>
        <time>2020-07-18T19:41:16.000Z</time>
      </trkpt>
      <trkpt lat="34.300753" lon="-117.338553">
        <ele>1090.398438</ele>
        <time>2020-07-18T19:41:19.000Z</time>
      </trkpt>
      <trkpt lat="34.300667" lon="-117.338538">
        <ele>1090.097656</ele>
        <time>2020-07-18T19:41:20.000Z</time>
      </trkpt>
      <trkpt lat="34.300631" lon="-117.338523">
        <ele>1090.296875</ele>
        <time>2020-07-18T19:41:22.000Z</time>
      </trkpt>
      <trkpt lat="34.300556" lon="-117.338479">
        <ele>1090.398438</ele>
        <time>2020-07-18T19:41:23.000Z</time>
      </trkpt>
      <trkpt lat="34.300522" lon="-117.338449">
        <ele>1090.398438</ele>
        <time>2020-07-18T19:41:25.000Z</time>
      </trkpt>
      <trkpt lat="34.300468" lon="-117.338373">
        <ele>1090.500000</ele>
        <time>2020-07-18T19:41:26.000Z</time>
      </trkpt>
      <trkpt lat="34.300451" lon="-117.338329">
        <ele>1090.296875</ele>
        <time>2020-07-18T19:41:28.000Z</time>
      </trkpt>
      <trkpt lat="34.300432" lon="-117.338233">
        <ele>1090.199219</ele>
        <time>2020-07-18T19:41:29.000Z</time>
      </trkpt>
      <trkpt lat="34.300425" lon="-117.338185">
        <ele>1089.097656</ele>
        <time>2020-07-18T19:41:31.000Z</time>
      </trkpt>
      <trkpt lat="34.30039" lon="-117.33775">
        <ele>1085.500000</ele>
        <time>2020-07-18T19:41:39.000Z</time>
      </trkpt>
      <trkpt lat="34.300392" lon="-117.337712">
        <ele>1084.500000</ele>
        <time>2020-07-18T19:41:41.000Z</time>
      </trkpt>
      <trkpt lat="34.300403" lon="-117.337634">
        <ele>1083.898438</ele>
        <time>2020-07-18T19:41:42.000Z</time>
      </trkpt>
      <trkpt lat="34.300407" lon="-117.3376">
        <ele>1081.500000</ele>
        <time>2020-07-18T19:41:45.000Z</time>
      </trkpt>
      <trkpt lat="34.300412" lon="-117.337493">
        <ele>1080.898438</ele>
        <time>2020-07-18T19:41:46.000Z</time>
      </trkpt>
      <trkpt lat="34.300413" lon="-117.337454">
        <ele>1079.296875</ele>
        <time>2020-07-18T19:41:49.000Z</time>
      </trkpt>
      <trkpt lat="34.300423" lon="-117.337352">
        <ele>1078.898438</ele>
        <time>2020-07-18T19:41:50.000Z</time>
      </trkpt>
      <trkpt lat="34.300428" lon="-117.337322">
        <ele>1078.000000</ele>
        <time>2020-07-18T19:41:53.000Z</time>
      </trkpt>
      <trkpt lat="34.300462" lon="-117.337169">
        <ele>1075.597656</ele>
        <time>2020-07-18T19:41:57.000Z</time>
      </trkpt>
      <trkpt lat="34.300468" lon="-117.337146">
        <ele>1073.699219</ele>
        <time>2020-07-18T19:42:02.000Z</time>
      </trkpt>
      <trkpt lat="34.300474" lon="-117.337046">
        <ele>1073.500000</ele>
        <time>2020-07-18T19:42:03.000Z</time>
      </trkpt>
      <trkpt lat="34.300479" lon="-117.337026">
        <ele>1072.898438</ele>
        <time>2020-07-18T19:42:15.000Z</time>
      </trkpt>
      <trkpt lat="34.300556" lon="-117.336937">
        <ele>1072.296875</ele>
        <time>2020-07-18T19:42:16.000Z</time>
      </trkpt>
      <trkpt lat="34.300599" lon="-117.336926">
        <ele>1072.398438</ele>
        <time>2020-07-18T19:42:17.000Z</time>
      </trkpt>
      <trkpt lat="34.300648" lon="-117.336924">
        <ele>1072.097656</ele>
        <time>2020-07-18T19:42:18.000Z</time>
      </trkpt>
      <trkpt lat="34.300703" lon="-117.336933">
        <ele>1071.699219</ele>
        <time>2020-07-18T19:42:19.000Z</time>
      </trkpt>
      <trkpt lat="34.300838" lon="-117.336965">
        <ele>1070.097656</ele>
        <time>2020-07-18T19:42:21.000Z</time>
      </trkpt>
      <trkpt lat="34.301128" lon="-117.337024">
        <ele>1068.296875</ele>
        <time>2020-07-18T19:42:25.000Z</time>
      </trkpt>
      <trkpt lat="34.301299" lon="-117.337035">
        <ele>1068.097656</ele>
        <time>2020-07-18T19:42:28.000Z</time>
      </trkpt>
      <trkpt lat="34.301344" lon="-117.337031">
        <ele>1068.000000</ele>
        <time>2020-07-18T19:42:30.000Z</time>
      </trkpt>
      <trkpt lat="34.301415" lon="-117.337015">
        <ele>1067.699219</ele>
        <time>2020-07-18T19:42:31.000Z</time>
      </trkpt>
      <trkpt lat="34.301442" lon="-117.337008">
        <ele>1067.500000</ele>
        <time>2020-07-18T19:42:34.000Z</time>
      </trkpt>
      <trkpt lat="34.301517" lon="-117.337002">
        <ele>1067.000000</ele>
        <time>2020-07-18T19:42:35.000Z</time>
      </trkpt>
      <trkpt lat="34.301543" lon="-117.337009">
        <ele>1066.398438</ele>
        <time>2020-07-18T19:42:38.000Z</time>
      </trkpt>
      <trkpt lat="34.301705" lon="-117.337056">
        <ele>1066.597656</ele>
        <time>2020-07-18T19:42:44.000Z</time>
      </trkpt>
      <trkpt lat="34.301703" lon="-117.337054">
        <ele>1067.199219</ele>
        <time>2020-07-18T19:42:47.000Z</time>
      </trkpt>
      <trkpt lat="34.301703" lon="-117.337054">
        <ele>1067.199219</ele>
        <time>2020-07-18T19:42:47.000Z</time>
      </trkpt>
    </trkseg>
</trk>

  <wpt lat="34.314052" lon="-117.435335">
    <time>2020-07-18T17:11:19Z</time>
    <name>bumpy spot</name>
    <ele>1218</ele>
    <sym>CAUTION</sym>
    <cmt></cmt>
    <desc></desc>
    <type>Waypoint</type>
    <extensions>
      <mgn:extensions xmlns:mgn="http://www.magellangps.com/mgnext/0/2">
        <mgn:trkptid>34.314006,-117.435325,5</mgn:trkptid>
        <mgn:uuid>385bbd35-de83-4654-854b-0e7e20d56730</mgn:uuid>
        <mgn:trkuuid>0120d0bf-906c-440f-98a4-fcceb3b3bc7e</mgn:trkuuid>
      </mgn:extensions>
    </extensions>
  </wpt>

  <wpt lat="34.31308" lon="-117.43295">
    <time>2020-07-18T17:19:08Z</time>
    <name>rutted</name>
    <ele>1265</ele>
    <sym>CAUTION</sym>
    <cmt></cmt>
    <desc></desc>
    <type>Waypoint</type>
    <extensions>
      <mgn:extensions xmlns:mgn="http://www.magellangps.com/mgnext/0/2">
        <mgn:trkptid>34.313141,-117.432931,6</mgn:trkptid>
        <mgn:uuid>c77f7f7b-3d00-49e8-9d6c-18dd5be48100</mgn:uuid>
        <mgn:trkuuid>0120d0bf-906c-440f-98a4-fcceb3b3bc7e</mgn:trkuuid>
      </mgn:extensions>
    </extensions>
  </wpt>

  <wpt lat="34.290769" lon="-117.383088">
    <time>2020-07-18T18:49:34Z</time>
    <name>off camber rut</name>
    <ele>1398</ele>
    <sym>CAUTION</sym>
    <cmt></cmt>
    <desc></desc>
    <type>Waypoint</type>
    <extensions>
      <mgn:extensions xmlns:mgn="http://www.magellangps.com/mgnext/0/2">
        <mgn:trkptid>34.290869,-117.383169,13</mgn:trkptid>
        <mgn:uuid>bb221d5b-8ee6-4702-a409-33daadb7b777</mgn:uuid>
        <mgn:trkuuid>0120d0bf-906c-440f-98a4-fcceb3b3bc7e</mgn:trkuuid>
      </mgn:extensions>
    </extensions>
  </wpt>

  <wpt lat="34.29932" lon="-117.4571">
    <time>2020-07-20T23:27:07Z</time>
    <name>Trail Begin</name>
    <ele>0</ele>
    <sym>GENERAL</sym>
    <cmt></cmt>
    <desc></desc>
    <type>Waypoint</type>
    <extensions>
      <mgn:extensions xmlns:mgn="http://www.magellangps.com/mgnext/0/2">
        <mgn:trkptid>34.29932,-117.4571,1</mgn:trkptid>
        <mgn:uuid>140bda6d-e343-43bd-8cdb-a33bf0948b83</mgn:uuid>
        <mgn:trkuuid>0120d0bf-906c-440f-98a4-fcceb3b3bc7e</mgn:trkuuid>
      </mgn:extensions>
    </extensions>
  </wpt>
</gpx>